<?xml version="1.0" encoding="UTF-8" standalone="no" ?>
<gpx xmlns="http://www.topografix.com/GPX/1/1" xmlns:xsi="http://www.w3.org/2001/XMLSchema-instance" xsi:schemaLocation="http://www.topografix.com/GPX/1/1 http://www.topografix.com/GPX/1/1/gpx.xsd" version="1.1" creator="VisuGPX - https://www.visugpx.com">
  <metadata>
    <name>VTT du mercredi 8 octobre 2014, avec Jacques</name>
    <desc><![CDATA[il avait plu pendant la nuit et Christian a du calculer savamment pour nous éviter la boue: Son parcours démarre classiquement par St Vallère, le chalet St Hubert, et dans le bois du Rompeux il décide de nous faire prendre l\'une des 5 lignes de coupe à notre gauche. Là on s\'y perd un peu (voir photo jointe) mais on retrouve le bon passage qui rejoint un chemin menant à Chargey-Les-Port. De là, on fait une boucle par la carrière et les pylônes (altitude 374 m, le GPS dit 382). On rentre par les départementales 152 puis 56. 
La bière était fraîche et bien que fourbus, on a bien bu.]]></desc>
  </metadata>
  <trk>
    <name><![CDATA[Port86(+ Jacques)]]></name>
    <trkseg>
      <trkpt lat="47.68631" lon="6.04548">
        <ele>240</ele>
        <time>2014-10-08T07:33:46.000Z</time>
      </trkpt>
      <trkpt lat="47.68631" lon="6.04548">
        <ele>240</ele>
        <time>2014-10-08T07:33:47.000Z</time>
      </trkpt>
      <trkpt lat="47.68632" lon="6.0455">
        <ele>240</ele>
        <time>2014-10-08T07:34:01.000Z</time>
      </trkpt>
      <trkpt lat="47.68633" lon="6.0455">
        <ele>240</ele>
        <time>2014-10-08T07:34:03.000Z</time>
      </trkpt>
      <trkpt lat="47.68634" lon="6.0455">
        <ele>240</ele>
        <time>2014-10-08T07:34:05.000Z</time>
      </trkpt>
      <trkpt lat="47.68633" lon="6.04544">
        <ele>240</ele>
        <time>2014-10-08T07:34:40.000Z</time>
      </trkpt>
      <trkpt lat="47.68632" lon="6.04539">
        <ele>240</ele>
        <time>2014-10-08T07:34:42.000Z</time>
      </trkpt>
      <trkpt lat="47.68633" lon="6.04537">
        <ele>240</ele>
        <time>2014-10-08T07:34:43.000Z</time>
      </trkpt>
      <trkpt lat="47.68632" lon="6.04534">
        <ele>240</ele>
        <time>2014-10-08T07:34:46.000Z</time>
      </trkpt>
      <trkpt lat="47.68626" lon="6.04522">
        <ele>240</ele>
        <time>2014-10-08T07:34:51.000Z</time>
      </trkpt>
      <trkpt lat="47.68625" lon="6.04521">
        <ele>239.60000610352</ele>
        <time>2014-10-08T07:34:52.000Z</time>
      </trkpt>
      <trkpt lat="47.68623" lon="6.04519">
        <ele>239.19999694824</ele>
        <time>2014-10-08T07:34:53.000Z</time>
      </trkpt>
      <trkpt lat="47.68621" lon="6.04517">
        <ele>238.80000305176</ele>
        <time>2014-10-08T07:34:54.000Z</time>
      </trkpt>
      <trkpt lat="47.68618" lon="6.04515">
        <ele>238.39999389648</ele>
        <time>2014-10-08T07:34:55.000Z</time>
      </trkpt>
      <trkpt lat="47.68614" lon="6.04513">
        <ele>238</ele>
        <time>2014-10-08T07:34:56.000Z</time>
      </trkpt>
      <trkpt lat="47.68592" lon="6.04497">
        <ele>237.39999389648</ele>
        <time>2014-10-08T07:35:01.000Z</time>
      </trkpt>
      <trkpt lat="47.68587" lon="6.04494">
        <ele>237</ele>
        <time>2014-10-08T07:35:02.000Z</time>
      </trkpt>
      <trkpt lat="47.68581" lon="6.0449">
        <ele>236.60000610352</ele>
        <time>2014-10-08T07:35:03.000Z</time>
      </trkpt>
      <trkpt lat="47.68576" lon="6.04486">
        <ele>235.60000610352</ele>
        <time>2014-10-08T07:35:04.000Z</time>
      </trkpt>
      <trkpt lat="47.68566" lon="6.04479">
        <ele>235.19999694824</ele>
        <time>2014-10-08T07:35:06.000Z</time>
      </trkpt>
      <trkpt lat="47.6856" lon="6.04475">
        <ele>234.80000305176</ele>
        <time>2014-10-08T07:35:07.000Z</time>
      </trkpt>
      <trkpt lat="47.68554" lon="6.04471">
        <ele>234.19999694824</ele>
        <time>2014-10-08T07:35:08.000Z</time>
      </trkpt>
      <trkpt lat="47.68549" lon="6.04467">
        <ele>233.80000305176</ele>
        <time>2014-10-08T07:35:09.000Z</time>
      </trkpt>
      <trkpt lat="47.68543" lon="6.04463">
        <ele>233.39999389648</ele>
        <time>2014-10-08T07:35:10.000Z</time>
      </trkpt>
      <trkpt lat="47.68538" lon="6.04459">
        <ele>233</ele>
        <time>2014-10-08T07:35:11.000Z</time>
      </trkpt>
      <trkpt lat="47.68533" lon="6.04456">
        <ele>232.39999389648</ele>
        <time>2014-10-08T07:35:12.000Z</time>
      </trkpt>
      <trkpt lat="47.68528" lon="6.04452">
        <ele>232</ele>
        <time>2014-10-08T07:35:13.000Z</time>
      </trkpt>
      <trkpt lat="47.68523" lon="6.04448">
        <ele>231.60000610352</ele>
        <time>2014-10-08T07:35:14.000Z</time>
      </trkpt>
      <trkpt lat="47.68517" lon="6.04444">
        <ele>231.19999694824</ele>
        <time>2014-10-08T07:35:15.000Z</time>
      </trkpt>
      <trkpt lat="47.68499" lon="6.04433">
        <ele>230.60000610352</ele>
        <time>2014-10-08T07:35:18.000Z</time>
      </trkpt>
      <trkpt lat="47.68493" lon="6.04431">
        <ele>230.19999694824</ele>
        <time>2014-10-08T07:35:19.000Z</time>
      </trkpt>
      <trkpt lat="47.68486" lon="6.04429">
        <ele>229.80000305176</ele>
        <time>2014-10-08T07:35:20.000Z</time>
      </trkpt>
      <trkpt lat="47.6848" lon="6.04429">
        <ele>229.19999694824</ele>
        <time>2014-10-08T07:35:21.000Z</time>
      </trkpt>
      <trkpt lat="47.68474" lon="6.04428">
        <ele>228.80000305176</ele>
        <time>2014-10-08T07:35:22.000Z</time>
      </trkpt>
      <trkpt lat="47.68467" lon="6.04428">
        <ele>228.80000305176</ele>
        <time>2014-10-08T07:35:23.000Z</time>
      </trkpt>
      <trkpt lat="47.68461" lon="6.04429">
        <ele>228.39999389648</ele>
        <time>2014-10-08T07:35:24.000Z</time>
      </trkpt>
      <trkpt lat="47.68454" lon="6.04429">
        <ele>228</ele>
        <time>2014-10-08T07:35:25.000Z</time>
      </trkpt>
      <trkpt lat="47.68448" lon="6.04429">
        <ele>227.60000610352</ele>
        <time>2014-10-08T07:35:26.000Z</time>
      </trkpt>
      <trkpt lat="47.68441" lon="6.04429">
        <ele>227.19999694824</ele>
        <time>2014-10-08T07:35:27.000Z</time>
      </trkpt>
      <trkpt lat="47.68435" lon="6.04429">
        <ele>226.80000305176</ele>
        <time>2014-10-08T07:35:28.000Z</time>
      </trkpt>
      <trkpt lat="47.68421" lon="6.04429">
        <ele>226.39999389648</ele>
        <time>2014-10-08T07:35:30.000Z</time>
      </trkpt>
      <trkpt lat="47.68416" lon="6.04429">
        <ele>226</ele>
        <time>2014-10-08T07:35:31.000Z</time>
      </trkpt>
      <trkpt lat="47.6841" lon="6.04429">
        <ele>225.60000610352</ele>
        <time>2014-10-08T07:35:32.000Z</time>
      </trkpt>
      <trkpt lat="47.68406" lon="6.04428">
        <ele>225.19999694824</ele>
        <time>2014-10-08T07:35:33.000Z</time>
      </trkpt>
      <trkpt lat="47.68402" lon="6.04427">
        <ele>224.80000305176</ele>
        <time>2014-10-08T07:35:34.000Z</time>
      </trkpt>
      <trkpt lat="47.68394" lon="6.04426">
        <ele>224.80000305176</ele>
        <time>2014-10-08T07:35:36.000Z</time>
      </trkpt>
      <trkpt lat="47.68376" lon="6.04425">
        <ele>224.80000305176</ele>
        <time>2014-10-08T07:35:40.000Z</time>
      </trkpt>
      <trkpt lat="47.68365" lon="6.04425">
        <ele>224.19999694824</ele>
        <time>2014-10-08T07:35:42.000Z</time>
      </trkpt>
      <trkpt lat="47.68359" lon="6.04425">
        <ele>223.80000305176</ele>
        <time>2014-10-08T07:35:43.000Z</time>
      </trkpt>
      <trkpt lat="47.68353" lon="6.04424">
        <ele>223.39999389648</ele>
        <time>2014-10-08T07:35:44.000Z</time>
      </trkpt>
      <trkpt lat="47.68347" lon="6.04424">
        <ele>223</ele>
        <time>2014-10-08T07:35:45.000Z</time>
      </trkpt>
      <trkpt lat="47.68341" lon="6.04423">
        <ele>222.60000610352</ele>
        <time>2014-10-08T07:35:46.000Z</time>
      </trkpt>
      <trkpt lat="47.68298" lon="6.04418">
        <ele>222.60000610352</ele>
        <time>2014-10-08T07:35:53.000Z</time>
      </trkpt>
      <trkpt lat="47.68293" lon="6.04417">
        <ele>221.60000610352</ele>
        <time>2014-10-08T07:35:54.000Z</time>
      </trkpt>
      <trkpt lat="47.68288" lon="6.04417">
        <ele>221.19999694824</ele>
        <time>2014-10-08T07:35:55.000Z</time>
      </trkpt>
      <trkpt lat="47.68282" lon="6.04416">
        <ele>220.80000305176</ele>
        <time>2014-10-08T07:35:56.000Z</time>
      </trkpt>
      <trkpt lat="47.68278" lon="6.04415">
        <ele>220.39999389648</ele>
        <time>2014-10-08T07:35:57.000Z</time>
      </trkpt>
      <trkpt lat="47.68264" lon="6.0441">
        <ele>220.39999389648</ele>
        <time>2014-10-08T07:36:00.000Z</time>
      </trkpt>
      <trkpt lat="47.68236" lon="6.04393">
        <ele>220.39999389648</ele>
        <time>2014-10-08T07:36:06.000Z</time>
      </trkpt>
      <trkpt lat="47.68207" lon="6.04375">
        <ele>220.39999389648</ele>
        <time>2014-10-08T07:36:13.000Z</time>
      </trkpt>
      <trkpt lat="47.68198" lon="6.04359">
        <ele>220.39999389648</ele>
        <time>2014-10-08T07:36:17.000Z</time>
      </trkpt>
      <trkpt lat="47.68204" lon="6.04345">
        <ele>220.39999389648</ele>
        <time>2014-10-08T07:36:20.000Z</time>
      </trkpt>
      <trkpt lat="47.68213" lon="6.04338">
        <ele>220.39999389648</ele>
        <time>2014-10-08T07:36:23.000Z</time>
      </trkpt>
      <trkpt lat="47.68217" lon="6.04336">
        <ele>220.39999389648</ele>
        <time>2014-10-08T07:36:24.000Z</time>
      </trkpt>
      <trkpt lat="47.6824" lon="6.04321">
        <ele>220.39999389648</ele>
        <time>2014-10-08T07:36:30.000Z</time>
      </trkpt>
      <trkpt lat="47.6827" lon="6.04301">
        <ele>220.39999389648</ele>
        <time>2014-10-08T07:36:38.000Z</time>
      </trkpt>
      <trkpt lat="47.68281" lon="6.04281">
        <ele>220.39999389648</ele>
        <time>2014-10-08T07:36:43.000Z</time>
      </trkpt>
      <trkpt lat="47.68282" lon="6.04274">
        <ele>220.39999389648</ele>
        <time>2014-10-08T07:36:44.000Z</time>
      </trkpt>
      <trkpt lat="47.68281" lon="6.04263">
        <ele>220.39999389648</ele>
        <time>2014-10-08T07:36:46.000Z</time>
      </trkpt>
      <trkpt lat="47.68279" lon="6.04251">
        <ele>220.39999389648</ele>
        <time>2014-10-08T07:36:48.000Z</time>
      </trkpt>
      <trkpt lat="47.68277" lon="6.04227">
        <ele>220.39999389648</ele>
        <time>2014-10-08T07:36:53.000Z</time>
      </trkpt>
      <trkpt lat="47.68276" lon="6.04223">
        <ele>220.39999389648</ele>
        <time>2014-10-08T07:36:54.000Z</time>
      </trkpt>
      <trkpt lat="47.68272" lon="6.04208">
        <ele>220.39999389648</ele>
        <time>2014-10-08T07:36:57.000Z</time>
      </trkpt>
      <trkpt lat="47.68261" lon="6.04179">
        <ele>220.39999389648</ele>
        <time>2014-10-08T07:37:03.000Z</time>
      </trkpt>
      <trkpt lat="47.68246" lon="6.04159">
        <ele>220.39999389648</ele>
        <time>2014-10-08T07:37:09.000Z</time>
      </trkpt>
      <trkpt lat="47.68239" lon="6.04145">
        <ele>220.39999389648</ele>
        <time>2014-10-08T07:37:12.000Z</time>
      </trkpt>
      <trkpt lat="47.68237" lon="6.04135">
        <ele>220.80000305176</ele>
        <time>2014-10-08T07:37:14.000Z</time>
      </trkpt>
      <trkpt lat="47.68237" lon="6.04131">
        <ele>221.19999694824</ele>
        <time>2014-10-08T07:37:15.000Z</time>
      </trkpt>
      <trkpt lat="47.68238" lon="6.04127">
        <ele>221.60000610352</ele>
        <time>2014-10-08T07:37:16.000Z</time>
      </trkpt>
      <trkpt lat="47.68238" lon="6.04124">
        <ele>222</ele>
        <time>2014-10-08T07:37:17.000Z</time>
      </trkpt>
      <trkpt lat="47.68239" lon="6.0412">
        <ele>222.39999389648</ele>
        <time>2014-10-08T07:37:18.000Z</time>
      </trkpt>
      <trkpt lat="47.68241" lon="6.04085">
        <ele>222.39999389648</ele>
        <time>2014-10-08T07:37:25.000Z</time>
      </trkpt>
      <trkpt lat="47.68244" lon="6.0404">
        <ele>222.39999389648</ele>
        <time>2014-10-08T07:37:31.000Z</time>
      </trkpt>
      <trkpt lat="47.68243" lon="6.04032">
        <ele>222.39999389648</ele>
        <time>2014-10-08T07:37:32.000Z</time>
      </trkpt>
      <trkpt lat="47.68243" lon="6.04025">
        <ele>222</ele>
        <time>2014-10-08T07:37:33.000Z</time>
      </trkpt>
      <trkpt lat="47.68244" lon="6.04018">
        <ele>221.60000610352</ele>
        <time>2014-10-08T07:37:34.000Z</time>
      </trkpt>
      <trkpt lat="47.68245" lon="6.04012">
        <ele>221.19999694824</ele>
        <time>2014-10-08T07:37:35.000Z</time>
      </trkpt>
      <trkpt lat="47.68246" lon="6.04006">
        <ele>220.80000305176</ele>
        <time>2014-10-08T07:37:36.000Z</time>
      </trkpt>
      <trkpt lat="47.68249" lon="6.04">
        <ele>220.19999694824</ele>
        <time>2014-10-08T07:37:37.000Z</time>
      </trkpt>
      <trkpt lat="47.68258" lon="6.03989">
        <ele>220.19999694824</ele>
        <time>2014-10-08T07:37:40.000Z</time>
      </trkpt>
      <trkpt lat="47.68269" lon="6.03985">
        <ele>220.19999694824</ele>
        <time>2014-10-08T07:37:43.000Z</time>
      </trkpt>
      <trkpt lat="47.68272" lon="6.03985">
        <ele>219.80000305176</ele>
        <time>2014-10-08T07:37:44.000Z</time>
      </trkpt>
      <trkpt lat="47.68275" lon="6.03987">
        <ele>219.39999389648</ele>
        <time>2014-10-08T07:37:45.000Z</time>
      </trkpt>
      <trkpt lat="47.68277" lon="6.03989">
        <ele>219</ele>
        <time>2014-10-08T07:37:46.000Z</time>
      </trkpt>
      <trkpt lat="47.68281" lon="6.03991">
        <ele>218.60000610352</ele>
        <time>2014-10-08T07:37:47.000Z</time>
      </trkpt>
      <trkpt lat="47.68284" lon="6.03992">
        <ele>218.19999694824</ele>
        <time>2014-10-08T07:37:48.000Z</time>
      </trkpt>
      <trkpt lat="47.68305" lon="6.03997">
        <ele>218.19999694824</ele>
        <time>2014-10-08T07:37:54.000Z</time>
      </trkpt>
      <trkpt lat="47.68326" lon="6.03996">
        <ele>218.19999694824</ele>
        <time>2014-10-08T07:38:00.000Z</time>
      </trkpt>
      <trkpt lat="47.68344" lon="6.04003">
        <ele>218.19999694824</ele>
        <time>2014-10-08T07:38:05.000Z</time>
      </trkpt>
      <trkpt lat="47.68349" lon="6.04004">
        <ele>218.19999694824</ele>
        <time>2014-10-08T07:38:06.000Z</time>
      </trkpt>
      <trkpt lat="47.68367" lon="6.04008">
        <ele>218.19999694824</ele>
        <time>2014-10-08T07:38:10.000Z</time>
      </trkpt>
      <trkpt lat="47.68379" lon="6.04013">
        <ele>218.19999694824</ele>
        <time>2014-10-08T07:38:13.000Z</time>
      </trkpt>
      <trkpt lat="47.6839" lon="6.04023">
        <ele>218.19999694824</ele>
        <time>2014-10-08T07:38:16.000Z</time>
      </trkpt>
      <trkpt lat="47.68411" lon="6.04051">
        <ele>218.19999694824</ele>
        <time>2014-10-08T07:38:23.000Z</time>
      </trkpt>
      <trkpt lat="47.68434" lon="6.04082">
        <ele>218.19999694824</ele>
        <time>2014-10-08T07:38:31.000Z</time>
      </trkpt>
      <trkpt lat="47.68463" lon="6.04106">
        <ele>218.19999694824</ele>
        <time>2014-10-08T07:38:39.000Z</time>
      </trkpt>
      <trkpt lat="47.68478" lon="6.04117">
        <ele>218.19999694824</ele>
        <time>2014-10-08T07:38:44.000Z</time>
      </trkpt>
      <trkpt lat="47.68497" lon="6.04123">
        <ele>218.19999694824</ele>
        <time>2014-10-08T07:38:50.000Z</time>
      </trkpt>
      <trkpt lat="47.68517" lon="6.0413">
        <ele>218.19999694824</ele>
        <time>2014-10-08T07:38:56.000Z</time>
      </trkpt>
      <trkpt lat="47.68536" lon="6.04134">
        <ele>218.19999694824</ele>
        <time>2014-10-08T07:39:02.000Z</time>
      </trkpt>
      <trkpt lat="47.68559" lon="6.04141">
        <ele>218.19999694824</ele>
        <time>2014-10-08T07:39:09.000Z</time>
      </trkpt>
      <trkpt lat="47.6858" lon="6.04146">
        <ele>218.19999694824</ele>
        <time>2014-10-08T07:39:16.000Z</time>
      </trkpt>
      <trkpt lat="47.686" lon="6.04154">
        <ele>218.19999694824</ele>
        <time>2014-10-08T07:39:23.000Z</time>
      </trkpt>
      <trkpt lat="47.68617" lon="6.04158">
        <ele>218.19999694824</ele>
        <time>2014-10-08T07:39:29.000Z</time>
      </trkpt>
      <trkpt lat="47.68638" lon="6.04163">
        <ele>218.19999694824</ele>
        <time>2014-10-08T07:39:37.000Z</time>
      </trkpt>
      <trkpt lat="47.68662" lon="6.04168">
        <ele>218.19999694824</ele>
        <time>2014-10-08T07:39:45.000Z</time>
      </trkpt>
      <trkpt lat="47.68688" lon="6.04175">
        <ele>218.19999694824</ele>
        <time>2014-10-08T07:39:54.000Z</time>
      </trkpt>
      <trkpt lat="47.68704" lon="6.04178">
        <ele>218.19999694824</ele>
        <time>2014-10-08T07:40:00.000Z</time>
      </trkpt>
      <trkpt lat="47.68725" lon="6.04183">
        <ele>218.19999694824</ele>
        <time>2014-10-08T07:40:08.000Z</time>
      </trkpt>
      <trkpt lat="47.68746" lon="6.04187">
        <ele>218.19999694824</ele>
        <time>2014-10-08T07:40:15.000Z</time>
      </trkpt>
      <trkpt lat="47.68769" lon="6.04187">
        <ele>218.19999694824</ele>
        <time>2014-10-08T07:40:22.000Z</time>
      </trkpt>
      <trkpt lat="47.68786" lon="6.04189">
        <ele>218.19999694824</ele>
        <time>2014-10-08T07:40:28.000Z</time>
      </trkpt>
      <trkpt lat="47.68813" lon="6.04191">
        <ele>218.19999694824</ele>
        <time>2014-10-08T07:40:36.000Z</time>
      </trkpt>
      <trkpt lat="47.68823" lon="6.04191">
        <ele>218.19999694824</ele>
        <time>2014-10-08T07:40:41.000Z</time>
      </trkpt>
      <trkpt lat="47.68844" lon="6.04196">
        <ele>218.19999694824</ele>
        <time>2014-10-08T07:40:48.000Z</time>
      </trkpt>
      <trkpt lat="47.6886" lon="6.042">
        <ele>218.19999694824</ele>
        <time>2014-10-08T07:40:54.000Z</time>
      </trkpt>
      <trkpt lat="47.68873" lon="6.042">
        <ele>218.19999694824</ele>
        <time>2014-10-08T07:41:00.000Z</time>
      </trkpt>
      <trkpt lat="47.68885" lon="6.04201">
        <ele>218.19999694824</ele>
        <time>2014-10-08T07:41:04.000Z</time>
      </trkpt>
      <trkpt lat="47.68895" lon="6.04199">
        <ele>218.19999694824</ele>
        <time>2014-10-08T07:41:08.000Z</time>
      </trkpt>
      <trkpt lat="47.68898" lon="6.04195">
        <ele>218.19999694824</ele>
        <time>2014-10-08T07:41:09.000Z</time>
      </trkpt>
      <trkpt lat="47.6891" lon="6.04185">
        <ele>218.19999694824</ele>
        <time>2014-10-08T07:41:13.000Z</time>
      </trkpt>
      <trkpt lat="47.68913" lon="6.04183">
        <ele>218.19999694824</ele>
        <time>2014-10-08T07:41:14.000Z</time>
      </trkpt>
      <trkpt lat="47.68915" lon="6.04185">
        <ele>219</ele>
        <time>2014-10-08T07:41:15.000Z</time>
      </trkpt>
      <trkpt lat="47.68917" lon="6.04186">
        <ele>219.39999389648</ele>
        <time>2014-10-08T07:41:16.000Z</time>
      </trkpt>
      <trkpt lat="47.6892" lon="6.04187">
        <ele>219.80000305176</ele>
        <time>2014-10-08T07:41:17.000Z</time>
      </trkpt>
      <trkpt lat="47.68922" lon="6.04189">
        <ele>220.19999694824</ele>
        <time>2014-10-08T07:41:18.000Z</time>
      </trkpt>
      <trkpt lat="47.68931" lon="6.04193">
        <ele>220.19999694824</ele>
        <time>2014-10-08T07:41:24.000Z</time>
      </trkpt>
      <trkpt lat="47.68933" lon="6.04188">
        <ele>220.19999694824</ele>
        <time>2014-10-08T07:41:27.000Z</time>
      </trkpt>
      <trkpt lat="47.68937" lon="6.04181">
        <ele>220.19999694824</ele>
        <time>2014-10-08T07:41:29.000Z</time>
      </trkpt>
      <trkpt lat="47.68942" lon="6.04172">
        <ele>220.19999694824</ele>
        <time>2014-10-08T07:41:31.000Z</time>
      </trkpt>
      <trkpt lat="47.68952" lon="6.0415">
        <ele>220.19999694824</ele>
        <time>2014-10-08T07:41:35.000Z</time>
      </trkpt>
      <trkpt lat="47.68969" lon="6.04115">
        <ele>220.19999694824</ele>
        <time>2014-10-08T07:41:42.000Z</time>
      </trkpt>
      <trkpt lat="47.68984" lon="6.04082">
        <ele>220.19999694824</ele>
        <time>2014-10-08T07:41:48.000Z</time>
      </trkpt>
      <trkpt lat="47.69" lon="6.04044">
        <ele>220.19999694824</ele>
        <time>2014-10-08T07:41:55.000Z</time>
      </trkpt>
      <trkpt lat="47.69014" lon="6.04008">
        <ele>220.19999694824</ele>
        <time>2014-10-08T07:42:02.000Z</time>
      </trkpt>
      <trkpt lat="47.69017" lon="6.04003">
        <ele>220.19999694824</ele>
        <time>2014-10-08T07:42:03.000Z</time>
      </trkpt>
      <trkpt lat="47.69023" lon="6.03989">
        <ele>220.80000305176</ele>
        <time>2014-10-08T07:42:06.000Z</time>
      </trkpt>
      <trkpt lat="47.69025" lon="6.03983">
        <ele>221.19999694824</ele>
        <time>2014-10-08T07:42:07.000Z</time>
      </trkpt>
      <trkpt lat="47.69027" lon="6.03978">
        <ele>221.60000610352</ele>
        <time>2014-10-08T07:42:08.000Z</time>
      </trkpt>
      <trkpt lat="47.69029" lon="6.03973">
        <ele>222</ele>
        <time>2014-10-08T07:42:09.000Z</time>
      </trkpt>
      <trkpt lat="47.69031" lon="6.03967">
        <ele>222.39999389648</ele>
        <time>2014-10-08T07:42:10.000Z</time>
      </trkpt>
      <trkpt lat="47.69046" lon="6.03932">
        <ele>222.39999389648</ele>
        <time>2014-10-08T07:42:17.000Z</time>
      </trkpt>
      <trkpt lat="47.69059" lon="6.03901">
        <ele>222.39999389648</ele>
        <time>2014-10-08T07:42:24.000Z</time>
      </trkpt>
      <trkpt lat="47.69079" lon="6.03848">
        <ele>222.39999389648</ele>
        <time>2014-10-08T07:42:35.000Z</time>
      </trkpt>
      <trkpt lat="47.69087" lon="6.03829">
        <ele>222.39999389648</ele>
        <time>2014-10-08T07:42:40.000Z</time>
      </trkpt>
      <trkpt lat="47.69088" lon="6.03828">
        <ele>222.39999389648</ele>
        <time>2014-10-08T07:42:43.000Z</time>
      </trkpt>
      <trkpt lat="47.69089" lon="6.03825">
        <ele>222.39999389648</ele>
        <time>2014-10-08T07:42:57.000Z</time>
      </trkpt>
      <trkpt lat="47.69095" lon="6.03808">
        <ele>222.39999389648</ele>
        <time>2014-10-08T07:43:01.000Z</time>
      </trkpt>
      <trkpt lat="47.69106" lon="6.0378">
        <ele>222.39999389648</ele>
        <time>2014-10-08T07:43:05.000Z</time>
      </trkpt>
      <trkpt lat="47.69121" lon="6.03723">
        <ele>222.39999389648</ele>
        <time>2014-10-08T07:43:12.000Z</time>
      </trkpt>
      <trkpt lat="47.69135" lon="6.03665">
        <ele>222.39999389648</ele>
        <time>2014-10-08T07:43:20.000Z</time>
      </trkpt>
      <trkpt lat="47.69142" lon="6.03642">
        <ele>222.39999389648</ele>
        <time>2014-10-08T07:43:24.000Z</time>
      </trkpt>
      <trkpt lat="47.69147" lon="6.03641">
        <ele>222.39999389648</ele>
        <time>2014-10-08T07:43:25.000Z</time>
      </trkpt>
      <trkpt lat="47.69159" lon="6.03643">
        <ele>222.39999389648</ele>
        <time>2014-10-08T07:43:28.000Z</time>
      </trkpt>
      <trkpt lat="47.69166" lon="6.03648">
        <ele>222.80000305176</ele>
        <time>2014-10-08T07:43:31.000Z</time>
      </trkpt>
      <trkpt lat="47.69172" lon="6.03654">
        <ele>224.19999694824</ele>
        <time>2014-10-08T07:43:32.000Z</time>
      </trkpt>
      <trkpt lat="47.69172" lon="6.03654">
        <ele>224.19999694824</ele>
        <time>2014-10-08T07:43:34.000Z</time>
      </trkpt>
      <trkpt lat="47.69174" lon="6.03656">
        <ele>224.60000610352</ele>
        <time>2014-10-08T07:43:35.000Z</time>
      </trkpt>
      <trkpt lat="47.69181" lon="6.03664">
        <ele>225</ele>
        <time>2014-10-08T07:43:39.000Z</time>
      </trkpt>
      <trkpt lat="47.69183" lon="6.03665">
        <ele>225.39999389648</ele>
        <time>2014-10-08T07:43:40.000Z</time>
      </trkpt>
      <trkpt lat="47.69185" lon="6.03665">
        <ele>225.80000305176</ele>
        <time>2014-10-08T07:43:41.000Z</time>
      </trkpt>
      <trkpt lat="47.69187" lon="6.03666">
        <ele>226.19999694824</ele>
        <time>2014-10-08T07:43:42.000Z</time>
      </trkpt>
      <trkpt lat="47.69187" lon="6.03665">
        <ele>226.60000610352</ele>
        <time>2014-10-08T07:43:43.000Z</time>
      </trkpt>
      <trkpt lat="47.69193" lon="6.03662">
        <ele>226.60000610352</ele>
        <time>2014-10-08T07:43:46.000Z</time>
      </trkpt>
      <trkpt lat="47.69199" lon="6.03657">
        <ele>227.19999694824</ele>
        <time>2014-10-08T07:43:49.000Z</time>
      </trkpt>
      <trkpt lat="47.69201" lon="6.03656">
        <ele>227.60000610352</ele>
        <time>2014-10-08T07:43:50.000Z</time>
      </trkpt>
      <trkpt lat="47.69202" lon="6.03653">
        <ele>228</ele>
        <time>2014-10-08T07:43:51.000Z</time>
      </trkpt>
      <trkpt lat="47.69203" lon="6.03651">
        <ele>228.39999389648</ele>
        <time>2014-10-08T07:43:52.000Z</time>
      </trkpt>
      <trkpt lat="47.69205" lon="6.03649">
        <ele>228.80000305176</ele>
        <time>2014-10-08T07:43:53.000Z</time>
      </trkpt>
      <trkpt lat="47.69213" lon="6.03646">
        <ele>228.80000305176</ele>
        <time>2014-10-08T07:43:57.000Z</time>
      </trkpt>
      <trkpt lat="47.69216" lon="6.03643">
        <ele>229.19999694824</ele>
        <time>2014-10-08T07:43:59.000Z</time>
      </trkpt>
      <trkpt lat="47.69217" lon="6.03642">
        <ele>229.80000305176</ele>
        <time>2014-10-08T07:44:00.000Z</time>
      </trkpt>
      <trkpt lat="47.69219" lon="6.03641">
        <ele>230.19999694824</ele>
        <time>2014-10-08T07:44:01.000Z</time>
      </trkpt>
      <trkpt lat="47.6922" lon="6.0364">
        <ele>230.60000610352</ele>
        <time>2014-10-08T07:44:02.000Z</time>
      </trkpt>
      <trkpt lat="47.69221" lon="6.0364">
        <ele>231</ele>
        <time>2014-10-08T07:44:03.000Z</time>
      </trkpt>
      <trkpt lat="47.6923" lon="6.03639">
        <ele>231</ele>
        <time>2014-10-08T07:44:09.000Z</time>
      </trkpt>
      <trkpt lat="47.69233" lon="6.03639">
        <ele>231.39999389648</ele>
        <time>2014-10-08T07:44:11.000Z</time>
      </trkpt>
      <trkpt lat="47.69235" lon="6.0364">
        <ele>231.80000305176</ele>
        <time>2014-10-08T07:44:12.000Z</time>
      </trkpt>
      <trkpt lat="47.69236" lon="6.0364">
        <ele>232.19999694824</ele>
        <time>2014-10-08T07:44:13.000Z</time>
      </trkpt>
      <trkpt lat="47.69238" lon="6.0364">
        <ele>232.60000610352</ele>
        <time>2014-10-08T07:44:14.000Z</time>
      </trkpt>
      <trkpt lat="47.6924" lon="6.0364">
        <ele>233</ele>
        <time>2014-10-08T07:44:15.000Z</time>
      </trkpt>
      <trkpt lat="47.69256" lon="6.03639">
        <ele>233</ele>
        <time>2014-10-08T07:44:23.000Z</time>
      </trkpt>
      <trkpt lat="47.69264" lon="6.03631">
        <ele>233</ele>
        <time>2014-10-08T07:44:30.000Z</time>
      </trkpt>
      <trkpt lat="47.69264" lon="6.03629">
        <ele>233.39999389648</ele>
        <time>2014-10-08T07:44:31.000Z</time>
      </trkpt>
      <trkpt lat="47.69265" lon="6.03628">
        <ele>234.19999694824</ele>
        <time>2014-10-08T07:44:32.000Z</time>
      </trkpt>
      <trkpt lat="47.69267" lon="6.03627">
        <ele>234.60000610352</ele>
        <time>2014-10-08T07:44:33.000Z</time>
      </trkpt>
      <trkpt lat="47.69269" lon="6.03626">
        <ele>235</ele>
        <time>2014-10-08T07:44:34.000Z</time>
      </trkpt>
      <trkpt lat="47.6927" lon="6.03626">
        <ele>235</ele>
        <time>2014-10-08T07:44:35.000Z</time>
      </trkpt>
      <trkpt lat="47.69277" lon="6.03622">
        <ele>235</ele>
        <time>2014-10-08T07:44:39.000Z</time>
      </trkpt>
      <trkpt lat="47.69283" lon="6.03617">
        <ele>235</ele>
        <time>2014-10-08T07:44:42.000Z</time>
      </trkpt>
      <trkpt lat="47.69296" lon="6.03602">
        <ele>235</ele>
        <time>2014-10-08T07:44:50.000Z</time>
      </trkpt>
      <trkpt lat="47.69299" lon="6.03599">
        <ele>235.39999389648</ele>
        <time>2014-10-08T07:44:52.000Z</time>
      </trkpt>
      <trkpt lat="47.69301" lon="6.03598">
        <ele>235.80000305176</ele>
        <time>2014-10-08T07:44:53.000Z</time>
      </trkpt>
      <trkpt lat="47.69302" lon="6.03597">
        <ele>236.19999694824</ele>
        <time>2014-10-08T07:44:54.000Z</time>
      </trkpt>
      <trkpt lat="47.69304" lon="6.03595">
        <ele>236.60000610352</ele>
        <time>2014-10-08T07:44:55.000Z</time>
      </trkpt>
      <trkpt lat="47.69305" lon="6.03593">
        <ele>237</ele>
        <time>2014-10-08T07:44:56.000Z</time>
      </trkpt>
      <trkpt lat="47.69306" lon="6.03591">
        <ele>237</ele>
        <time>2014-10-08T07:44:57.000Z</time>
      </trkpt>
      <trkpt lat="47.69313" lon="6.03572">
        <ele>237</ele>
        <time>2014-10-08T07:45:05.000Z</time>
      </trkpt>
      <trkpt lat="47.69324" lon="6.03563">
        <ele>237</ele>
        <time>2014-10-08T07:45:12.000Z</time>
      </trkpt>
      <trkpt lat="47.69332" lon="6.03562">
        <ele>237.39999389648</ele>
        <time>2014-10-08T07:45:16.000Z</time>
      </trkpt>
      <trkpt lat="47.69335" lon="6.03561">
        <ele>238</ele>
        <time>2014-10-08T07:45:17.000Z</time>
      </trkpt>
      <trkpt lat="47.69337" lon="6.0356">
        <ele>238.39999389648</ele>
        <time>2014-10-08T07:45:18.000Z</time>
      </trkpt>
      <trkpt lat="47.69339" lon="6.03559">
        <ele>238.80000305176</ele>
        <time>2014-10-08T07:45:19.000Z</time>
      </trkpt>
      <trkpt lat="47.69341" lon="6.03558">
        <ele>239.19999694824</ele>
        <time>2014-10-08T07:45:20.000Z</time>
      </trkpt>
      <trkpt lat="47.69346" lon="6.03555">
        <ele>239.19999694824</ele>
        <time>2014-10-08T07:45:24.000Z</time>
      </trkpt>
      <trkpt lat="47.6936" lon="6.0355">
        <ele>239.60000610352</ele>
        <time>2014-10-08T07:45:29.000Z</time>
      </trkpt>
      <trkpt lat="47.69362" lon="6.03549">
        <ele>240</ele>
        <time>2014-10-08T07:45:30.000Z</time>
      </trkpt>
      <trkpt lat="47.69365" lon="6.03547">
        <ele>240.39999389648</ele>
        <time>2014-10-08T07:45:31.000Z</time>
      </trkpt>
      <trkpt lat="47.69367" lon="6.03546">
        <ele>240.80000305176</ele>
        <time>2014-10-08T07:45:32.000Z</time>
      </trkpt>
      <trkpt lat="47.69369" lon="6.03544">
        <ele>241.19999694824</ele>
        <time>2014-10-08T07:45:33.000Z</time>
      </trkpt>
      <trkpt lat="47.69379" lon="6.03537">
        <ele>241.19999694824</ele>
        <time>2014-10-08T07:45:38.000Z</time>
      </trkpt>
      <trkpt lat="47.69387" lon="6.03529">
        <ele>241.19999694824</ele>
        <time>2014-10-08T07:45:43.000Z</time>
      </trkpt>
      <trkpt lat="47.6939" lon="6.03526">
        <ele>241.60000610352</ele>
        <time>2014-10-08T07:45:45.000Z</time>
      </trkpt>
      <trkpt lat="47.69392" lon="6.03524">
        <ele>242.39999389648</ele>
        <time>2014-10-08T07:45:46.000Z</time>
      </trkpt>
      <trkpt lat="47.69393" lon="6.03523">
        <ele>242.80000305176</ele>
        <time>2014-10-08T07:45:47.000Z</time>
      </trkpt>
      <trkpt lat="47.69395" lon="6.03522">
        <ele>243.19999694824</ele>
        <time>2014-10-08T07:45:48.000Z</time>
      </trkpt>
      <trkpt lat="47.69401" lon="6.03516">
        <ele>243.19999694824</ele>
        <time>2014-10-08T07:45:52.000Z</time>
      </trkpt>
      <trkpt lat="47.69414" lon="6.03504">
        <ele>243.19999694824</ele>
        <time>2014-10-08T07:46:00.000Z</time>
      </trkpt>
      <trkpt lat="47.69419" lon="6.035">
        <ele>243.60000610352</ele>
        <time>2014-10-08T07:46:03.000Z</time>
      </trkpt>
      <trkpt lat="47.69421" lon="6.03499">
        <ele>244.19999694824</ele>
        <time>2014-10-08T07:46:04.000Z</time>
      </trkpt>
      <trkpt lat="47.69422" lon="6.03497">
        <ele>244.60000610352</ele>
        <time>2014-10-08T07:46:05.000Z</time>
      </trkpt>
      <trkpt lat="47.69424" lon="6.03495">
        <ele>245</ele>
        <time>2014-10-08T07:46:06.000Z</time>
      </trkpt>
      <trkpt lat="47.69425" lon="6.03494">
        <ele>245.39999389648</ele>
        <time>2014-10-08T07:46:07.000Z</time>
      </trkpt>
      <trkpt lat="47.69427" lon="6.03493">
        <ele>245.39999389648</ele>
        <time>2014-10-08T07:46:08.000Z</time>
      </trkpt>
      <trkpt lat="47.69441" lon="6.03479">
        <ele>245.39999389648</ele>
        <time>2014-10-08T07:46:16.000Z</time>
      </trkpt>
      <trkpt lat="47.69447" lon="6.03473">
        <ele>245.80000305176</ele>
        <time>2014-10-08T07:46:19.000Z</time>
      </trkpt>
      <trkpt lat="47.69449" lon="6.03471">
        <ele>246.19999694824</ele>
        <time>2014-10-08T07:46:20.000Z</time>
      </trkpt>
      <trkpt lat="47.69451" lon="6.03469">
        <ele>246.60000610352</ele>
        <time>2014-10-08T07:46:21.000Z</time>
      </trkpt>
      <trkpt lat="47.69453" lon="6.03467">
        <ele>247</ele>
        <time>2014-10-08T07:46:22.000Z</time>
      </trkpt>
      <trkpt lat="47.69454" lon="6.03465">
        <ele>247.39999389648</ele>
        <time>2014-10-08T07:46:23.000Z</time>
      </trkpt>
      <trkpt lat="47.69457" lon="6.0346">
        <ele>247.39999389648</ele>
        <time>2014-10-08T07:46:25.000Z</time>
      </trkpt>
      <trkpt lat="47.6947" lon="6.03443">
        <ele>247.39999389648</ele>
        <time>2014-10-08T07:46:32.000Z</time>
      </trkpt>
      <trkpt lat="47.69472" lon="6.03439">
        <ele>247.80000305176</ele>
        <time>2014-10-08T07:46:33.000Z</time>
      </trkpt>
      <trkpt lat="47.69475" lon="6.03437">
        <ele>248.39999389648</ele>
        <time>2014-10-08T07:46:34.000Z</time>
      </trkpt>
      <trkpt lat="47.69476" lon="6.03434">
        <ele>249.19999694824</ele>
        <time>2014-10-08T07:46:35.000Z</time>
      </trkpt>
      <trkpt lat="47.69478" lon="6.03432">
        <ele>249.60000610352</ele>
        <time>2014-10-08T07:46:36.000Z</time>
      </trkpt>
      <trkpt lat="47.69481" lon="6.03428">
        <ele>249.60000610352</ele>
        <time>2014-10-08T07:46:38.000Z</time>
      </trkpt>
      <trkpt lat="47.69495" lon="6.03403">
        <ele>249.60000610352</ele>
        <time>2014-10-08T07:46:46.000Z</time>
      </trkpt>
      <trkpt lat="47.69514" lon="6.03374">
        <ele>249.60000610352</ele>
        <time>2014-10-08T07:46:53.000Z</time>
      </trkpt>
      <trkpt lat="47.69521" lon="6.03363">
        <ele>249.19999694824</ele>
        <time>2014-10-08T07:46:55.000Z</time>
      </trkpt>
      <trkpt lat="47.69524" lon="6.03356">
        <ele>248.60000610352</ele>
        <time>2014-10-08T07:46:56.000Z</time>
      </trkpt>
      <trkpt lat="47.69528" lon="6.0335">
        <ele>248.19999694824</ele>
        <time>2014-10-08T07:46:57.000Z</time>
      </trkpt>
      <trkpt lat="47.69531" lon="6.03344">
        <ele>247.80000305176</ele>
        <time>2014-10-08T07:46:58.000Z</time>
      </trkpt>
      <trkpt lat="47.69535" lon="6.03337">
        <ele>247.19999694824</ele>
        <time>2014-10-08T07:46:59.000Z</time>
      </trkpt>
      <trkpt lat="47.69557" lon="6.03295">
        <ele>247.19999694824</ele>
        <time>2014-10-08T07:47:06.000Z</time>
      </trkpt>
      <trkpt lat="47.69569" lon="6.03267">
        <ele>247.19999694824</ele>
        <time>2014-10-08T07:47:12.000Z</time>
      </trkpt>
      <trkpt lat="47.69583" lon="6.03241">
        <ele>247.19999694824</ele>
        <time>2014-10-08T07:47:20.000Z</time>
      </trkpt>
      <trkpt lat="47.69594" lon="6.03222">
        <ele>247.19999694824</ele>
        <time>2014-10-08T07:47:27.000Z</time>
      </trkpt>
      <trkpt lat="47.69598" lon="6.032">
        <ele>247.19999694824</ele>
        <time>2014-10-08T07:47:33.000Z</time>
      </trkpt>
      <trkpt lat="47.69595" lon="6.03183">
        <ele>247.19999694824</ele>
        <time>2014-10-08T07:47:38.000Z</time>
      </trkpt>
      <trkpt lat="47.69588" lon="6.03153">
        <ele>247.19999694824</ele>
        <time>2014-10-08T07:47:47.000Z</time>
      </trkpt>
      <trkpt lat="47.69583" lon="6.03126">
        <ele>247.19999694824</ele>
        <time>2014-10-08T07:47:53.000Z</time>
      </trkpt>
      <trkpt lat="47.69577" lon="6.03097">
        <ele>247.19999694824</ele>
        <time>2014-10-08T07:47:59.000Z</time>
      </trkpt>
      <trkpt lat="47.69573" lon="6.03064">
        <ele>247.19999694824</ele>
        <time>2014-10-08T07:48:05.000Z</time>
      </trkpt>
      <trkpt lat="47.69567" lon="6.03027">
        <ele>247.19999694824</ele>
        <time>2014-10-08T07:48:11.000Z</time>
      </trkpt>
      <trkpt lat="47.69563" lon="6.02999">
        <ele>247.19999694824</ele>
        <time>2014-10-08T07:48:17.000Z</time>
      </trkpt>
      <trkpt lat="47.69563" lon="6.02971">
        <ele>247.19999694824</ele>
        <time>2014-10-08T07:48:23.000Z</time>
      </trkpt>
      <trkpt lat="47.69563" lon="6.02934">
        <ele>247.19999694824</ele>
        <time>2014-10-08T07:48:31.000Z</time>
      </trkpt>
      <trkpt lat="47.69562" lon="6.02908">
        <ele>247.19999694824</ele>
        <time>2014-10-08T07:48:37.000Z</time>
      </trkpt>
      <trkpt lat="47.69561" lon="6.02881">
        <ele>247.19999694824</ele>
        <time>2014-10-08T07:48:44.000Z</time>
      </trkpt>
      <trkpt lat="47.69558" lon="6.0285">
        <ele>247.19999694824</ele>
        <time>2014-10-08T07:48:52.000Z</time>
      </trkpt>
      <trkpt lat="47.69554" lon="6.02829">
        <ele>247.60000610352</ele>
        <time>2014-10-08T07:48:57.000Z</time>
      </trkpt>
      <trkpt lat="47.69554" lon="6.02825">
        <ele>248</ele>
        <time>2014-10-08T07:48:58.000Z</time>
      </trkpt>
      <trkpt lat="47.69553" lon="6.02822">
        <ele>248.39999389648</ele>
        <time>2014-10-08T07:48:59.000Z</time>
      </trkpt>
      <trkpt lat="47.69553" lon="6.02818">
        <ele>248.80000305176</ele>
        <time>2014-10-08T07:49:00.000Z</time>
      </trkpt>
      <trkpt lat="47.69552" lon="6.02814">
        <ele>249.19999694824</ele>
        <time>2014-10-08T07:49:01.000Z</time>
      </trkpt>
      <trkpt lat="47.69548" lon="6.02798">
        <ele>249.19999694824</ele>
        <time>2014-10-08T07:49:05.000Z</time>
      </trkpt>
      <trkpt lat="47.69541" lon="6.02771">
        <ele>249.19999694824</ele>
        <time>2014-10-08T07:49:12.000Z</time>
      </trkpt>
      <trkpt lat="47.69532" lon="6.02743">
        <ele>249.19999694824</ele>
        <time>2014-10-08T07:49:19.000Z</time>
      </trkpt>
      <trkpt lat="47.69528" lon="6.02721">
        <ele>249.19999694824</ele>
        <time>2014-10-08T07:49:24.000Z</time>
      </trkpt>
      <trkpt lat="47.69539" lon="6.02701">
        <ele>249.19999694824</ele>
        <time>2014-10-08T07:49:28.000Z</time>
      </trkpt>
      <trkpt lat="47.69561" lon="6.02667">
        <ele>249.19999694824</ele>
        <time>2014-10-08T07:49:34.000Z</time>
      </trkpt>
      <trkpt lat="47.69564" lon="6.0266">
        <ele>249.19999694824</ele>
        <time>2014-10-08T07:49:35.000Z</time>
      </trkpt>
      <trkpt lat="47.69567" lon="6.02653">
        <ele>248.80000305176</ele>
        <time>2014-10-08T07:49:36.000Z</time>
      </trkpt>
      <trkpt lat="47.69569" lon="6.02645">
        <ele>248.39999389648</ele>
        <time>2014-10-08T07:49:37.000Z</time>
      </trkpt>
      <trkpt lat="47.69571" lon="6.02637">
        <ele>248</ele>
        <time>2014-10-08T07:49:38.000Z</time>
      </trkpt>
      <trkpt lat="47.69573" lon="6.02629">
        <ele>247.60000610352</ele>
        <time>2014-10-08T07:49:39.000Z</time>
      </trkpt>
      <trkpt lat="47.69574" lon="6.0262">
        <ele>247.19999694824</ele>
        <time>2014-10-08T07:49:40.000Z</time>
      </trkpt>
      <trkpt lat="47.69578" lon="6.02586">
        <ele>247.19999694824</ele>
        <time>2014-10-08T07:49:44.000Z</time>
      </trkpt>
      <trkpt lat="47.69581" lon="6.02571">
        <ele>246.80000305176</ele>
        <time>2014-10-08T07:49:46.000Z</time>
      </trkpt>
      <trkpt lat="47.69583" lon="6.02564">
        <ele>246.39999389648</ele>
        <time>2014-10-08T07:49:47.000Z</time>
      </trkpt>
      <trkpt lat="47.69585" lon="6.02557">
        <ele>245.80000305176</ele>
        <time>2014-10-08T07:49:48.000Z</time>
      </trkpt>
      <trkpt lat="47.69586" lon="6.02549">
        <ele>245.39999389648</ele>
        <time>2014-10-08T07:49:49.000Z</time>
      </trkpt>
      <trkpt lat="47.69587" lon="6.02541">
        <ele>245</ele>
        <time>2014-10-08T07:49:50.000Z</time>
      </trkpt>
      <trkpt lat="47.69589" lon="6.02515">
        <ele>244.60000610352</ele>
        <time>2014-10-08T07:49:53.000Z</time>
      </trkpt>
      <trkpt lat="47.6959" lon="6.02505">
        <ele>244.19999694824</ele>
        <time>2014-10-08T07:49:54.000Z</time>
      </trkpt>
      <trkpt lat="47.69592" lon="6.02495">
        <ele>243.80000305176</ele>
        <time>2014-10-08T07:49:55.000Z</time>
      </trkpt>
      <trkpt lat="47.69594" lon="6.02486">
        <ele>243.19999694824</ele>
        <time>2014-10-08T07:49:56.000Z</time>
      </trkpt>
      <trkpt lat="47.69596" lon="6.02477">
        <ele>242.80000305176</ele>
        <time>2014-10-08T07:49:57.000Z</time>
      </trkpt>
      <trkpt lat="47.69603" lon="6.02453">
        <ele>242.80000305176</ele>
        <time>2014-10-08T07:50:00.000Z</time>
      </trkpt>
      <trkpt lat="47.69605" lon="6.02446">
        <ele>242.80000305176</ele>
        <time>2014-10-08T07:50:01.000Z</time>
      </trkpt>
      <trkpt lat="47.69612" lon="6.02427">
        <ele>242.80000305176</ele>
        <time>2014-10-08T07:50:04.000Z</time>
      </trkpt>
      <trkpt lat="47.69627" lon="6.02395">
        <ele>242.80000305176</ele>
        <time>2014-10-08T07:50:11.000Z</time>
      </trkpt>
      <trkpt lat="47.69637" lon="6.02376">
        <ele>242.80000305176</ele>
        <time>2014-10-08T07:50:16.000Z</time>
      </trkpt>
      <trkpt lat="47.69652" lon="6.02354">
        <ele>242.80000305176</ele>
        <time>2014-10-08T07:50:23.000Z</time>
      </trkpt>
      <trkpt lat="47.69665" lon="6.0234">
        <ele>242.80000305176</ele>
        <time>2014-10-08T07:50:29.000Z</time>
      </trkpt>
      <trkpt lat="47.69678" lon="6.02332">
        <ele>242.80000305176</ele>
        <time>2014-10-08T07:50:35.000Z</time>
      </trkpt>
      <trkpt lat="47.69691" lon="6.02325">
        <ele>243.19999694824</ele>
        <time>2014-10-08T07:50:40.000Z</time>
      </trkpt>
      <trkpt lat="47.69693" lon="6.02324">
        <ele>243.60000610352</ele>
        <time>2014-10-08T07:50:41.000Z</time>
      </trkpt>
      <trkpt lat="47.69696" lon="6.02323">
        <ele>244</ele>
        <time>2014-10-08T07:50:42.000Z</time>
      </trkpt>
      <trkpt lat="47.69699" lon="6.02322">
        <ele>244.80000305176</ele>
        <time>2014-10-08T07:50:43.000Z</time>
      </trkpt>
      <trkpt lat="47.69707" lon="6.02319">
        <ele>244.80000305176</ele>
        <time>2014-10-08T07:50:46.000Z</time>
      </trkpt>
      <trkpt lat="47.69721" lon="6.02316">
        <ele>245.19999694824</ele>
        <time>2014-10-08T07:50:52.000Z</time>
      </trkpt>
      <trkpt lat="47.69723" lon="6.02315">
        <ele>245.80000305176</ele>
        <time>2014-10-08T07:50:53.000Z</time>
      </trkpt>
      <trkpt lat="47.69725" lon="6.02314">
        <ele>246.19999694824</ele>
        <time>2014-10-08T07:50:54.000Z</time>
      </trkpt>
      <trkpt lat="47.69727" lon="6.02313">
        <ele>246.60000610352</ele>
        <time>2014-10-08T07:50:55.000Z</time>
      </trkpt>
      <trkpt lat="47.6973" lon="6.02313">
        <ele>247</ele>
        <time>2014-10-08T07:50:56.000Z</time>
      </trkpt>
      <trkpt lat="47.69736" lon="6.02313">
        <ele>247</ele>
        <time>2014-10-08T07:50:59.000Z</time>
      </trkpt>
      <trkpt lat="47.69752" lon="6.0231">
        <ele>247</ele>
        <time>2014-10-08T07:51:06.000Z</time>
      </trkpt>
      <trkpt lat="47.69767" lon="6.02309">
        <ele>247</ele>
        <time>2014-10-08T07:51:12.000Z</time>
      </trkpt>
      <trkpt lat="47.69775" lon="6.02309">
        <ele>247.39999389648</ele>
        <time>2014-10-08T07:51:16.000Z</time>
      </trkpt>
      <trkpt lat="47.69777" lon="6.02308">
        <ele>247.80000305176</ele>
        <time>2014-10-08T07:51:17.000Z</time>
      </trkpt>
      <trkpt lat="47.69779" lon="6.02307">
        <ele>248.19999694824</ele>
        <time>2014-10-08T07:51:18.000Z</time>
      </trkpt>
      <trkpt lat="47.69781" lon="6.02307">
        <ele>248.60000610352</ele>
        <time>2014-10-08T07:51:19.000Z</time>
      </trkpt>
      <trkpt lat="47.69784" lon="6.02307">
        <ele>249</ele>
        <time>2014-10-08T07:51:20.000Z</time>
      </trkpt>
      <trkpt lat="47.698" lon="6.02305">
        <ele>249</ele>
        <time>2014-10-08T07:51:28.000Z</time>
      </trkpt>
      <trkpt lat="47.69816" lon="6.02298">
        <ele>249</ele>
        <time>2014-10-08T07:51:36.000Z</time>
      </trkpt>
      <trkpt lat="47.69831" lon="6.0229">
        <ele>249</ele>
        <time>2014-10-08T07:51:41.000Z</time>
      </trkpt>
      <trkpt lat="47.69839" lon="6.02284">
        <ele>249.39999389648</ele>
        <time>2014-10-08T07:51:44.000Z</time>
      </trkpt>
      <trkpt lat="47.69841" lon="6.02282">
        <ele>249.80000305176</ele>
        <time>2014-10-08T07:51:45.000Z</time>
      </trkpt>
      <trkpt lat="47.69843" lon="6.02281">
        <ele>250.19999694824</ele>
        <time>2014-10-08T07:51:46.000Z</time>
      </trkpt>
      <trkpt lat="47.69846" lon="6.02279">
        <ele>250.60000610352</ele>
        <time>2014-10-08T07:51:47.000Z</time>
      </trkpt>
      <trkpt lat="47.69848" lon="6.02278">
        <ele>251</ele>
        <time>2014-10-08T07:51:48.000Z</time>
      </trkpt>
      <trkpt lat="47.69855" lon="6.02271">
        <ele>251</ele>
        <time>2014-10-08T07:51:52.000Z</time>
      </trkpt>
      <trkpt lat="47.69865" lon="6.02261">
        <ele>251</ele>
        <time>2014-10-08T07:51:59.000Z</time>
      </trkpt>
      <trkpt lat="47.69871" lon="6.02249">
        <ele>251</ele>
        <time>2014-10-08T07:52:06.000Z</time>
      </trkpt>
      <trkpt lat="47.69876" lon="6.02234">
        <ele>251</ele>
        <time>2014-10-08T07:52:13.000Z</time>
      </trkpt>
      <trkpt lat="47.69884" lon="6.02218">
        <ele>251</ele>
        <time>2014-10-08T07:52:20.000Z</time>
      </trkpt>
      <trkpt lat="47.69893" lon="6.02193">
        <ele>251</ele>
        <time>2014-10-08T07:52:27.000Z</time>
      </trkpt>
      <trkpt lat="47.69897" lon="6.02171">
        <ele>251</ele>
        <time>2014-10-08T07:52:33.000Z</time>
      </trkpt>
      <trkpt lat="47.69901" lon="6.02158">
        <ele>251</ele>
        <time>2014-10-08T07:52:37.000Z</time>
      </trkpt>
      <trkpt lat="47.69902" lon="6.02155">
        <ele>251</ele>
        <time>2014-10-08T07:52:38.000Z</time>
      </trkpt>
      <trkpt lat="47.69909" lon="6.02138">
        <ele>251</ele>
        <time>2014-10-08T07:52:43.000Z</time>
      </trkpt>
      <trkpt lat="47.69911" lon="6.02135">
        <ele>251</ele>
        <time>2014-10-08T07:52:44.000Z</time>
      </trkpt>
      <trkpt lat="47.69923" lon="6.02115">
        <ele>251</ele>
        <time>2014-10-08T07:52:51.000Z</time>
      </trkpt>
      <trkpt lat="47.69935" lon="6.02098">
        <ele>251</ele>
        <time>2014-10-08T07:52:58.000Z</time>
      </trkpt>
      <trkpt lat="47.69945" lon="6.02084">
        <ele>251</ele>
        <time>2014-10-08T07:53:04.000Z</time>
      </trkpt>
      <trkpt lat="47.69956" lon="6.02073">
        <ele>251</ele>
        <time>2014-10-08T07:53:10.000Z</time>
      </trkpt>
      <trkpt lat="47.6997" lon="6.02058">
        <ele>251</ele>
        <time>2014-10-08T07:53:16.000Z</time>
      </trkpt>
      <trkpt lat="47.69989" lon="6.02039">
        <ele>251</ele>
        <time>2014-10-08T07:53:23.000Z</time>
      </trkpt>
      <trkpt lat="47.69995" lon="6.02032">
        <ele>251</ele>
        <time>2014-10-08T07:53:25.000Z</time>
      </trkpt>
      <trkpt lat="47.70005" lon="6.02016">
        <ele>251</ele>
        <time>2014-10-08T07:53:28.000Z</time>
      </trkpt>
      <trkpt lat="47.7002" lon="6.01989">
        <ele>250.60000610352</ele>
        <time>2014-10-08T07:53:32.000Z</time>
      </trkpt>
      <trkpt lat="47.70024" lon="6.01983">
        <ele>250.19999694824</ele>
        <time>2014-10-08T07:53:33.000Z</time>
      </trkpt>
      <trkpt lat="47.70028" lon="6.01976">
        <ele>249.60000610352</ele>
        <time>2014-10-08T07:53:34.000Z</time>
      </trkpt>
      <trkpt lat="47.70032" lon="6.01969">
        <ele>249.19999694824</ele>
        <time>2014-10-08T07:53:35.000Z</time>
      </trkpt>
      <trkpt lat="47.70036" lon="6.01963">
        <ele>248.80000305176</ele>
        <time>2014-10-08T07:53:36.000Z</time>
      </trkpt>
      <trkpt lat="47.70046" lon="6.01948">
        <ele>248.80000305176</ele>
        <time>2014-10-08T07:53:39.000Z</time>
      </trkpt>
      <trkpt lat="47.70061" lon="6.0193">
        <ele>248.80000305176</ele>
        <time>2014-10-08T07:53:45.000Z</time>
      </trkpt>
      <trkpt lat="47.70073" lon="6.01915">
        <ele>248.80000305176</ele>
        <time>2014-10-08T07:53:51.000Z</time>
      </trkpt>
      <trkpt lat="47.70082" lon="6.01906">
        <ele>248.80000305176</ele>
        <time>2014-10-08T07:53:57.000Z</time>
      </trkpt>
      <trkpt lat="47.70088" lon="6.019">
        <ele>248.80000305176</ele>
        <time>2014-10-08T07:54:03.000Z</time>
      </trkpt>
      <trkpt lat="47.70092" lon="6.01896">
        <ele>248.80000305176</ele>
        <time>2014-10-08T07:54:08.000Z</time>
      </trkpt>
      <trkpt lat="47.70093" lon="6.01894">
        <ele>248.80000305176</ele>
        <time>2014-10-08T07:54:10.000Z</time>
      </trkpt>
      <trkpt lat="47.70098" lon="6.01886">
        <ele>250.80000305176</ele>
        <time>2014-10-08T07:54:19.000Z</time>
      </trkpt>
      <trkpt lat="47.701" lon="6.01882">
        <ele>250.80000305176</ele>
        <time>2014-10-08T07:54:21.000Z</time>
      </trkpt>
      <trkpt lat="47.70101" lon="6.0188">
        <ele>250.80000305176</ele>
        <time>2014-10-08T07:54:22.000Z</time>
      </trkpt>
      <trkpt lat="47.70108" lon="6.01867">
        <ele>250.80000305176</ele>
        <time>2014-10-08T07:54:29.000Z</time>
      </trkpt>
      <trkpt lat="47.70109" lon="6.01864">
        <ele>251.19999694824</ele>
        <time>2014-10-08T07:54:31.000Z</time>
      </trkpt>
      <trkpt lat="47.7011" lon="6.01863">
        <ele>251.60000610352</ele>
        <time>2014-10-08T07:54:32.000Z</time>
      </trkpt>
      <trkpt lat="47.70111" lon="6.01861">
        <ele>252</ele>
        <time>2014-10-08T07:54:33.000Z</time>
      </trkpt>
      <trkpt lat="47.70112" lon="6.0186">
        <ele>252.39999389648</ele>
        <time>2014-10-08T07:54:34.000Z</time>
      </trkpt>
      <trkpt lat="47.70113" lon="6.01858">
        <ele>252.80000305176</ele>
        <time>2014-10-08T07:54:35.000Z</time>
      </trkpt>
      <trkpt lat="47.70114" lon="6.01857">
        <ele>252.80000305176</ele>
        <time>2014-10-08T07:54:36.000Z</time>
      </trkpt>
      <trkpt lat="47.70123" lon="6.01845">
        <ele>252.80000305176</ele>
        <time>2014-10-08T07:54:42.000Z</time>
      </trkpt>
      <trkpt lat="47.70128" lon="6.01832">
        <ele>252.80000305176</ele>
        <time>2014-10-08T07:54:48.000Z</time>
      </trkpt>
      <trkpt lat="47.70132" lon="6.01825">
        <ele>252.80000305176</ele>
        <time>2014-10-08T07:54:52.000Z</time>
      </trkpt>
      <trkpt lat="47.70156" lon="6.01793">
        <ele>254.80000305176</ele>
        <time>2014-10-08T07:55:14.000Z</time>
      </trkpt>
      <trkpt lat="47.70156" lon="6.01792">
        <ele>254.80000305176</ele>
        <time>2014-10-08T07:55:15.000Z</time>
      </trkpt>
      <trkpt lat="47.70157" lon="6.0179">
        <ele>254.80000305176</ele>
        <time>2014-10-08T07:55:17.000Z</time>
      </trkpt>
      <trkpt lat="47.70165" lon="6.01775">
        <ele>254.80000305176</ele>
        <time>2014-10-08T07:55:26.000Z</time>
      </trkpt>
      <trkpt lat="47.70168" lon="6.0177">
        <ele>254.80000305176</ele>
        <time>2014-10-08T07:55:29.000Z</time>
      </trkpt>
      <trkpt lat="47.70174" lon="6.01759">
        <ele>254.80000305176</ele>
        <time>2014-10-08T07:55:36.000Z</time>
      </trkpt>
      <trkpt lat="47.70187" lon="6.01741">
        <ele>254.80000305176</ele>
        <time>2014-10-08T07:55:43.000Z</time>
      </trkpt>
      <trkpt lat="47.70198" lon="6.01724">
        <ele>254.80000305176</ele>
        <time>2014-10-08T07:55:49.000Z</time>
      </trkpt>
      <trkpt lat="47.70199" lon="6.0172">
        <ele>254.80000305176</ele>
        <time>2014-10-08T07:55:50.000Z</time>
      </trkpt>
      <trkpt lat="47.70207" lon="6.017">
        <ele>254.80000305176</ele>
        <time>2014-10-08T07:55:55.000Z</time>
      </trkpt>
      <trkpt lat="47.70214" lon="6.0168">
        <ele>254.80000305176</ele>
        <time>2014-10-08T07:56:01.000Z</time>
      </trkpt>
      <trkpt lat="47.70222" lon="6.01663">
        <ele>254.80000305176</ele>
        <time>2014-10-08T07:56:07.000Z</time>
      </trkpt>
      <trkpt lat="47.70232" lon="6.01645">
        <ele>254.80000305176</ele>
        <time>2014-10-08T07:56:15.000Z</time>
      </trkpt>
      <trkpt lat="47.70236" lon="6.01637">
        <ele>254.80000305176</ele>
        <time>2014-10-08T07:56:21.000Z</time>
      </trkpt>
      <trkpt lat="47.70251" lon="6.01618">
        <ele>254.80000305176</ele>
        <time>2014-10-08T07:56:51.000Z</time>
      </trkpt>
      <trkpt lat="47.70257" lon="6.01605">
        <ele>254.80000305176</ele>
        <time>2014-10-08T07:56:57.000Z</time>
      </trkpt>
      <trkpt lat="47.70258" lon="6.01601">
        <ele>254.80000305176</ele>
        <time>2014-10-08T07:57:00.000Z</time>
      </trkpt>
      <trkpt lat="47.70291" lon="6.01522">
        <ele>252.80000305176</ele>
        <time>2014-10-08T07:57:38.000Z</time>
      </trkpt>
      <trkpt lat="47.70293" lon="6.01519">
        <ele>252.80000305176</ele>
        <time>2014-10-08T07:57:39.000Z</time>
      </trkpt>
      <trkpt lat="47.703" lon="6.01508">
        <ele>252.80000305176</ele>
        <time>2014-10-08T07:57:46.000Z</time>
      </trkpt>
      <trkpt lat="47.70312" lon="6.01499">
        <ele>252.80000305176</ele>
        <time>2014-10-08T07:57:53.000Z</time>
      </trkpt>
      <trkpt lat="47.70316" lon="6.01487">
        <ele>252.80000305176</ele>
        <time>2014-10-08T07:57:59.000Z</time>
      </trkpt>
      <trkpt lat="47.70326" lon="6.01475">
        <ele>252.80000305176</ele>
        <time>2014-10-08T07:58:05.000Z</time>
      </trkpt>
      <trkpt lat="47.70329" lon="6.01469">
        <ele>252.80000305176</ele>
        <time>2014-10-08T07:58:07.000Z</time>
      </trkpt>
      <trkpt lat="47.70336" lon="6.01453">
        <ele>252.80000305176</ele>
        <time>2014-10-08T07:58:11.000Z</time>
      </trkpt>
      <trkpt lat="47.70337" lon="6.01448">
        <ele>252.80000305176</ele>
        <time>2014-10-08T07:58:13.000Z</time>
      </trkpt>
      <trkpt lat="47.70335" lon="6.01439">
        <ele>252.80000305176</ele>
        <time>2014-10-08T07:58:17.000Z</time>
      </trkpt>
      <trkpt lat="47.70333" lon="6.01437">
        <ele>252.80000305176</ele>
        <time>2014-10-08T07:58:18.000Z</time>
      </trkpt>
      <trkpt lat="47.70322" lon="6.01427">
        <ele>252.80000305176</ele>
        <time>2014-10-08T07:58:24.000Z</time>
      </trkpt>
      <trkpt lat="47.70315" lon="6.01422">
        <ele>252.80000305176</ele>
        <time>2014-10-08T07:58:30.000Z</time>
      </trkpt>
      <trkpt lat="47.70314" lon="6.01422">
        <ele>252.80000305176</ele>
        <time>2014-10-08T07:58:31.000Z</time>
      </trkpt>
      <trkpt lat="47.70302" lon="6.01419">
        <ele>252.80000305176</ele>
        <time>2014-10-08T07:59:12.000Z</time>
      </trkpt>
      <trkpt lat="47.70298" lon="6.01417">
        <ele>252.80000305176</ele>
        <time>2014-10-08T07:59:14.000Z</time>
      </trkpt>
      <trkpt lat="47.7029" lon="6.01413">
        <ele>253.19999694824</ele>
        <time>2014-10-08T07:59:19.000Z</time>
      </trkpt>
      <trkpt lat="47.70289" lon="6.01413">
        <ele>253.60000610352</ele>
        <time>2014-10-08T07:59:20.000Z</time>
      </trkpt>
      <trkpt lat="47.70287" lon="6.01412">
        <ele>254.39999389648</ele>
        <time>2014-10-08T07:59:21.000Z</time>
      </trkpt>
      <trkpt lat="47.70286" lon="6.01411">
        <ele>254.80000305176</ele>
        <time>2014-10-08T07:59:22.000Z</time>
      </trkpt>
      <trkpt lat="47.70279" lon="6.01411">
        <ele>254.80000305176</ele>
        <time>2014-10-08T07:59:25.000Z</time>
      </trkpt>
      <trkpt lat="47.70258" lon="6.01416">
        <ele>254.80000305176</ele>
        <time>2014-10-08T07:59:30.000Z</time>
      </trkpt>
      <trkpt lat="47.70252" lon="6.01416">
        <ele>254.80000305176</ele>
        <time>2014-10-08T07:59:31.000Z</time>
      </trkpt>
      <trkpt lat="47.70235" lon="6.01418">
        <ele>254.80000305176</ele>
        <time>2014-10-08T07:59:35.000Z</time>
      </trkpt>
      <trkpt lat="47.70217" lon="6.01416">
        <ele>254.80000305176</ele>
        <time>2014-10-08T07:59:41.000Z</time>
      </trkpt>
      <trkpt lat="47.70209" lon="6.0141">
        <ele>254.80000305176</ele>
        <time>2014-10-08T07:59:46.000Z</time>
      </trkpt>
      <trkpt lat="47.70201" lon="6.01401">
        <ele>254.80000305176</ele>
        <time>2014-10-08T07:59:53.000Z</time>
      </trkpt>
      <trkpt lat="47.70191" lon="6.01399">
        <ele>255.19999694824</ele>
        <time>2014-10-08T07:59:58.000Z</time>
      </trkpt>
      <trkpt lat="47.70189" lon="6.01397">
        <ele>255.60000610352</ele>
        <time>2014-10-08T07:59:59.000Z</time>
      </trkpt>
      <trkpt lat="47.70186" lon="6.01397">
        <ele>256</ele>
        <time>2014-10-08T08:00:00.000Z</time>
      </trkpt>
      <trkpt lat="47.70184" lon="6.01396">
        <ele>256.60000610352</ele>
        <time>2014-10-08T08:00:01.000Z</time>
      </trkpt>
      <trkpt lat="47.70182" lon="6.01395">
        <ele>257</ele>
        <time>2014-10-08T08:00:02.000Z</time>
      </trkpt>
      <trkpt lat="47.7017" lon="6.01395">
        <ele>257</ele>
        <time>2014-10-08T08:00:07.000Z</time>
      </trkpt>
      <trkpt lat="47.70155" lon="6.01387">
        <ele>257</ele>
        <time>2014-10-08T08:00:13.000Z</time>
      </trkpt>
      <trkpt lat="47.70141" lon="6.01384">
        <ele>257</ele>
        <time>2014-10-08T08:00:19.000Z</time>
      </trkpt>
      <trkpt lat="47.70127" lon="6.0138">
        <ele>257.39999389648</ele>
        <time>2014-10-08T08:00:25.000Z</time>
      </trkpt>
      <trkpt lat="47.70125" lon="6.0138">
        <ele>257.79998779297</ele>
        <time>2014-10-08T08:00:26.000Z</time>
      </trkpt>
      <trkpt lat="47.70122" lon="6.0138">
        <ele>258.20001220703</ele>
        <time>2014-10-08T08:00:27.000Z</time>
      </trkpt>
      <trkpt lat="47.70121" lon="6.01379">
        <ele>258.60000610352</ele>
        <time>2014-10-08T08:00:28.000Z</time>
      </trkpt>
      <trkpt lat="47.70118" lon="6.01379">
        <ele>259</ele>
        <time>2014-10-08T08:00:29.000Z</time>
      </trkpt>
      <trkpt lat="47.70111" lon="6.01373">
        <ele>259</ele>
        <time>2014-10-08T08:00:34.000Z</time>
      </trkpt>
      <trkpt lat="47.70103" lon="6.01358">
        <ele>259</ele>
        <time>2014-10-08T08:00:40.000Z</time>
      </trkpt>
      <trkpt lat="47.70092" lon="6.01336">
        <ele>259</ele>
        <time>2014-10-08T08:00:47.000Z</time>
      </trkpt>
      <trkpt lat="47.7008" lon="6.01318">
        <ele>259</ele>
        <time>2014-10-08T08:00:54.000Z</time>
      </trkpt>
      <trkpt lat="47.70074" lon="6.01309">
        <ele>259.39999389648</ele>
        <time>2014-10-08T08:00:58.000Z</time>
      </trkpt>
      <trkpt lat="47.70072" lon="6.01307">
        <ele>259.79998779297</ele>
        <time>2014-10-08T08:00:59.000Z</time>
      </trkpt>
      <trkpt lat="47.7007" lon="6.01306">
        <ele>260.60000610352</ele>
        <time>2014-10-08T08:01:00.000Z</time>
      </trkpt>
      <trkpt lat="47.70068" lon="6.01305">
        <ele>261</ele>
        <time>2014-10-08T08:01:01.000Z</time>
      </trkpt>
      <trkpt lat="47.70062" lon="6.01296">
        <ele>261</ele>
        <time>2014-10-08T08:01:05.000Z</time>
      </trkpt>
      <trkpt lat="47.70054" lon="6.01282">
        <ele>261</ele>
        <time>2014-10-08T08:01:11.000Z</time>
      </trkpt>
      <trkpt lat="47.70048" lon="6.0127">
        <ele>261</ele>
        <time>2014-10-08T08:01:16.000Z</time>
      </trkpt>
      <trkpt lat="47.70046" lon="6.01269">
        <ele>261.39999389648</ele>
        <time>2014-10-08T08:01:17.000Z</time>
      </trkpt>
      <trkpt lat="47.70046" lon="6.01267">
        <ele>262</ele>
        <time>2014-10-08T08:01:18.000Z</time>
      </trkpt>
      <trkpt lat="47.70045" lon="6.01265">
        <ele>262.39999389648</ele>
        <time>2014-10-08T08:01:19.000Z</time>
      </trkpt>
      <trkpt lat="47.70044" lon="6.01262">
        <ele>262.79998779297</ele>
        <time>2014-10-08T08:01:20.000Z</time>
      </trkpt>
      <trkpt lat="47.70043" lon="6.0126">
        <ele>263.20001220703</ele>
        <time>2014-10-08T08:01:21.000Z</time>
      </trkpt>
      <trkpt lat="47.70039" lon="6.01255">
        <ele>263.20001220703</ele>
        <time>2014-10-08T08:01:25.000Z</time>
      </trkpt>
      <trkpt lat="47.70031" lon="6.01241">
        <ele>263.60000610352</ele>
        <time>2014-10-08T08:01:31.000Z</time>
      </trkpt>
      <trkpt lat="47.7003" lon="6.01238">
        <ele>264</ele>
        <time>2014-10-08T08:01:32.000Z</time>
      </trkpt>
      <trkpt lat="47.70028" lon="6.01235">
        <ele>264.39999389648</ele>
        <time>2014-10-08T08:01:33.000Z</time>
      </trkpt>
      <trkpt lat="47.70027" lon="6.01233">
        <ele>265</ele>
        <time>2014-10-08T08:01:34.000Z</time>
      </trkpt>
      <trkpt lat="47.70026" lon="6.0123">
        <ele>265.39999389648</ele>
        <time>2014-10-08T08:01:35.000Z</time>
      </trkpt>
      <trkpt lat="47.70019" lon="6.01217">
        <ele>265.39999389648</ele>
        <time>2014-10-08T08:01:41.000Z</time>
      </trkpt>
      <trkpt lat="47.70011" lon="6.01209">
        <ele>265.39999389648</ele>
        <time>2014-10-08T08:01:47.000Z</time>
      </trkpt>
      <trkpt lat="47.70002" lon="6.01193">
        <ele>265.39999389648</ele>
        <time>2014-10-08T08:01:55.000Z</time>
      </trkpt>
      <trkpt lat="47.69997" lon="6.01186">
        <ele>265.39999389648</ele>
        <time>2014-10-08T08:01:59.000Z</time>
      </trkpt>
      <trkpt lat="47.69996" lon="6.01184">
        <ele>265.39999389648</ele>
        <time>2014-10-08T08:02:00.000Z</time>
      </trkpt>
      <trkpt lat="47.69995" lon="6.01179">
        <ele>265.79998779297</ele>
        <time>2014-10-08T08:02:02.000Z</time>
      </trkpt>
      <trkpt lat="47.69994" lon="6.01178">
        <ele>266.20001220703</ele>
        <time>2014-10-08T08:02:03.000Z</time>
      </trkpt>
      <trkpt lat="47.69993" lon="6.01176">
        <ele>266.60000610352</ele>
        <time>2014-10-08T08:02:04.000Z</time>
      </trkpt>
      <trkpt lat="47.69992" lon="6.01174">
        <ele>267</ele>
        <time>2014-10-08T08:02:05.000Z</time>
      </trkpt>
      <trkpt lat="47.69992" lon="6.01172">
        <ele>267.39999389648</ele>
        <time>2014-10-08T08:02:06.000Z</time>
      </trkpt>
      <trkpt lat="47.69989" lon="6.01168">
        <ele>267.39999389648</ele>
        <time>2014-10-08T08:02:09.000Z</time>
      </trkpt>
      <trkpt lat="47.69983" lon="6.0116">
        <ele>267.39999389648</ele>
        <time>2014-10-08T08:02:16.000Z</time>
      </trkpt>
      <trkpt lat="47.69979" lon="6.01152">
        <ele>267.79998779297</ele>
        <time>2014-10-08T08:02:20.000Z</time>
      </trkpt>
      <trkpt lat="47.69979" lon="6.0115">
        <ele>268.20001220703</ele>
        <time>2014-10-08T08:02:21.000Z</time>
      </trkpt>
      <trkpt lat="47.69978" lon="6.01147">
        <ele>268.79998779297</ele>
        <time>2014-10-08T08:02:22.000Z</time>
      </trkpt>
      <trkpt lat="47.69977" lon="6.01146">
        <ele>269.20001220703</ele>
        <time>2014-10-08T08:02:23.000Z</time>
      </trkpt>
      <trkpt lat="47.69977" lon="6.01146">
        <ele>269.60000610352</ele>
        <time>2014-10-08T08:02:24.000Z</time>
      </trkpt>
      <trkpt lat="47.69974" lon="6.01146">
        <ele>269.60000610352</ele>
        <time>2014-10-08T08:02:27.000Z</time>
      </trkpt>
      <trkpt lat="47.69967" lon="6.01134">
        <ele>269.60000610352</ele>
        <time>2014-10-08T08:02:34.000Z</time>
      </trkpt>
      <trkpt lat="47.69964" lon="6.01129">
        <ele>270</ele>
        <time>2014-10-08T08:02:37.000Z</time>
      </trkpt>
      <trkpt lat="47.69962" lon="6.01127">
        <ele>270.79998779297</ele>
        <time>2014-10-08T08:02:38.000Z</time>
      </trkpt>
      <trkpt lat="47.69962" lon="6.01125">
        <ele>271.20001220703</ele>
        <time>2014-10-08T08:02:39.000Z</time>
      </trkpt>
      <trkpt lat="47.6996" lon="6.01122">
        <ele>271.60000610352</ele>
        <time>2014-10-08T08:02:40.000Z</time>
      </trkpt>
      <trkpt lat="47.6995" lon="6.01111">
        <ele>271.60000610352</ele>
        <time>2014-10-08T08:02:47.000Z</time>
      </trkpt>
      <trkpt lat="47.69948" lon="6.01106">
        <ele>271.60000610352</ele>
        <time>2014-10-08T08:02:51.000Z</time>
      </trkpt>
      <trkpt lat="47.69946" lon="6.01103">
        <ele>272</ele>
        <time>2014-10-08T08:02:58.000Z</time>
      </trkpt>
      <trkpt lat="47.69944" lon="6.01101">
        <ele>272.39999389648</ele>
        <time>2014-10-08T08:02:59.000Z</time>
      </trkpt>
      <trkpt lat="47.69943" lon="6.011">
        <ele>272.79998779297</ele>
        <time>2014-10-08T08:03:00.000Z</time>
      </trkpt>
      <trkpt lat="47.69942" lon="6.01098">
        <ele>273.20001220703</ele>
        <time>2014-10-08T08:03:01.000Z</time>
      </trkpt>
      <trkpt lat="47.6994" lon="6.01096">
        <ele>273.79998779297</ele>
        <time>2014-10-08T08:03:02.000Z</time>
      </trkpt>
      <trkpt lat="47.69933" lon="6.01091">
        <ele>273.79998779297</ele>
        <time>2014-10-08T08:03:06.000Z</time>
      </trkpt>
      <trkpt lat="47.69923" lon="6.01069">
        <ele>273.79998779297</ele>
        <time>2014-10-08T08:03:13.000Z</time>
      </trkpt>
      <trkpt lat="47.69914" lon="6.01048">
        <ele>273.79998779297</ele>
        <time>2014-10-08T08:03:19.000Z</time>
      </trkpt>
      <trkpt lat="47.699" lon="6.0103">
        <ele>273.79998779297</ele>
        <time>2014-10-08T08:03:24.000Z</time>
      </trkpt>
      <trkpt lat="47.69896" lon="6.01025">
        <ele>274.20001220703</ele>
        <time>2014-10-08T08:03:26.000Z</time>
      </trkpt>
      <trkpt lat="47.69893" lon="6.01023">
        <ele>275</ele>
        <time>2014-10-08T08:03:27.000Z</time>
      </trkpt>
      <trkpt lat="47.69891" lon="6.01021">
        <ele>275.39999389648</ele>
        <time>2014-10-08T08:03:28.000Z</time>
      </trkpt>
      <trkpt lat="47.69889" lon="6.01019">
        <ele>275.79998779297</ele>
        <time>2014-10-08T08:03:29.000Z</time>
      </trkpt>
      <trkpt lat="47.69872" lon="6.01005">
        <ele>275.79998779297</ele>
        <time>2014-10-08T08:03:37.000Z</time>
      </trkpt>
      <trkpt lat="47.6986" lon="6.01001">
        <ele>276.20001220703</ele>
        <time>2014-10-08T08:03:42.000Z</time>
      </trkpt>
      <trkpt lat="47.69858" lon="6.01">
        <ele>276.60000610352</ele>
        <time>2014-10-08T08:03:43.000Z</time>
      </trkpt>
      <trkpt lat="47.69857" lon="6.00997">
        <ele>277</ele>
        <time>2014-10-08T08:03:44.000Z</time>
      </trkpt>
      <trkpt lat="47.69855" lon="6.00995">
        <ele>277.39999389648</ele>
        <time>2014-10-08T08:03:45.000Z</time>
      </trkpt>
      <trkpt lat="47.69854" lon="6.00993">
        <ele>277.79998779297</ele>
        <time>2014-10-08T08:03:46.000Z</time>
      </trkpt>
      <trkpt lat="47.69851" lon="6.00989">
        <ele>277.79998779297</ele>
        <time>2014-10-08T08:03:48.000Z</time>
      </trkpt>
      <trkpt lat="47.69844" lon="6.00983">
        <ele>277.79998779297</ele>
        <time>2014-10-08T08:03:54.000Z</time>
      </trkpt>
      <trkpt lat="47.69832" lon="6.00973">
        <ele>278.20001220703</ele>
        <time>2014-10-08T08:04:00.000Z</time>
      </trkpt>
      <trkpt lat="47.6983" lon="6.00971">
        <ele>278.60000610352</ele>
        <time>2014-10-08T08:04:01.000Z</time>
      </trkpt>
      <trkpt lat="47.69829" lon="6.0097">
        <ele>279</ele>
        <time>2014-10-08T08:04:02.000Z</time>
      </trkpt>
      <trkpt lat="47.69827" lon="6.00968">
        <ele>279.60000610352</ele>
        <time>2014-10-08T08:04:03.000Z</time>
      </trkpt>
      <trkpt lat="47.69825" lon="6.00966">
        <ele>280</ele>
        <time>2014-10-08T08:04:04.000Z</time>
      </trkpt>
      <trkpt lat="47.69822" lon="6.00962">
        <ele>280</ele>
        <time>2014-10-08T08:04:06.000Z</time>
      </trkpt>
      <trkpt lat="47.6981" lon="6.00952">
        <ele>280</ele>
        <time>2014-10-08T08:04:12.000Z</time>
      </trkpt>
      <trkpt lat="47.69798" lon="6.00942">
        <ele>280.39999389648</ele>
        <time>2014-10-08T08:04:18.000Z</time>
      </trkpt>
      <trkpt lat="47.69796" lon="6.0094">
        <ele>280.79998779297</ele>
        <time>2014-10-08T08:04:19.000Z</time>
      </trkpt>
      <trkpt lat="47.69794" lon="6.00937">
        <ele>281.20001220703</ele>
        <time>2014-10-08T08:04:20.000Z</time>
      </trkpt>
      <trkpt lat="47.69792" lon="6.00935">
        <ele>281.60000610352</ele>
        <time>2014-10-08T08:04:21.000Z</time>
      </trkpt>
      <trkpt lat="47.69791" lon="6.00934">
        <ele>282</ele>
        <time>2014-10-08T08:04:22.000Z</time>
      </trkpt>
      <trkpt lat="47.69785" lon="6.0093">
        <ele>282</ele>
        <time>2014-10-08T08:04:25.000Z</time>
      </trkpt>
      <trkpt lat="47.69774" lon="6.00922">
        <ele>282</ele>
        <time>2014-10-08T08:04:31.000Z</time>
      </trkpt>
      <trkpt lat="47.69761" lon="6.00912">
        <ele>282</ele>
        <time>2014-10-08T08:04:38.000Z</time>
      </trkpt>
      <trkpt lat="47.6976" lon="6.00909">
        <ele>282</ele>
        <time>2014-10-08T08:04:40.000Z</time>
      </trkpt>
      <trkpt lat="47.69758" lon="6.00906">
        <ele>282.39999389648</ele>
        <time>2014-10-08T08:04:43.000Z</time>
      </trkpt>
      <trkpt lat="47.69758" lon="6.00905">
        <ele>282.79998779297</ele>
        <time>2014-10-08T08:04:44.000Z</time>
      </trkpt>
      <trkpt lat="47.69758" lon="6.00902">
        <ele>283.20001220703</ele>
        <time>2014-10-08T08:04:45.000Z</time>
      </trkpt>
      <trkpt lat="47.69758" lon="6.00898">
        <ele>283.60000610352</ele>
        <time>2014-10-08T08:04:46.000Z</time>
      </trkpt>
      <trkpt lat="47.69757" lon="6.00894">
        <ele>284</ele>
        <time>2014-10-08T08:04:47.000Z</time>
      </trkpt>
      <trkpt lat="47.69757" lon="6.00888">
        <ele>284</ele>
        <time>2014-10-08T08:04:49.000Z</time>
      </trkpt>
      <trkpt lat="47.69761" lon="6.00864">
        <ele>284</ele>
        <time>2014-10-08T08:04:57.000Z</time>
      </trkpt>
      <trkpt lat="47.69765" lon="6.00848">
        <ele>284</ele>
        <time>2014-10-08T08:05:02.000Z</time>
      </trkpt>
      <trkpt lat="47.69768" lon="6.00831">
        <ele>284</ele>
        <time>2014-10-08T08:05:08.000Z</time>
      </trkpt>
      <trkpt lat="47.69768" lon="6.00817">
        <ele>284</ele>
        <time>2014-10-08T08:05:13.000Z</time>
      </trkpt>
      <trkpt lat="47.69768" lon="6.00813">
        <ele>284.60000610352</ele>
        <time>2014-10-08T08:05:14.000Z</time>
      </trkpt>
      <trkpt lat="47.69768" lon="6.0081">
        <ele>285</ele>
        <time>2014-10-08T08:05:15.000Z</time>
      </trkpt>
      <trkpt lat="47.69768" lon="6.00807">
        <ele>285.39999389648</ele>
        <time>2014-10-08T08:05:16.000Z</time>
      </trkpt>
      <trkpt lat="47.69769" lon="6.00805">
        <ele>285.79998779297</ele>
        <time>2014-10-08T08:05:17.000Z</time>
      </trkpt>
      <trkpt lat="47.69769" lon="6.00803">
        <ele>286.20001220703</ele>
        <time>2014-10-08T08:05:18.000Z</time>
      </trkpt>
      <trkpt lat="47.69768" lon="6.00778">
        <ele>286.20001220703</ele>
        <time>2014-10-08T08:05:26.000Z</time>
      </trkpt>
      <trkpt lat="47.69768" lon="6.00771">
        <ele>286.20001220703</ele>
        <time>2014-10-08T08:05:28.000Z</time>
      </trkpt>
      <trkpt lat="47.69769" lon="6.00751">
        <ele>286.20001220703</ele>
        <time>2014-10-08T08:05:34.000Z</time>
      </trkpt>
      <trkpt lat="47.69776" lon="6.0073">
        <ele>286.20001220703</ele>
        <time>2014-10-08T08:05:42.000Z</time>
      </trkpt>
      <trkpt lat="47.69784" lon="6.00709">
        <ele>286.20001220703</ele>
        <time>2014-10-08T08:05:51.000Z</time>
      </trkpt>
      <trkpt lat="47.6979" lon="6.00699">
        <ele>287</ele>
        <time>2014-10-08T08:05:56.000Z</time>
      </trkpt>
      <trkpt lat="47.6979" lon="6.00697">
        <ele>287.39999389648</ele>
        <time>2014-10-08T08:05:57.000Z</time>
      </trkpt>
      <trkpt lat="47.69791" lon="6.00696">
        <ele>287.79998779297</ele>
        <time>2014-10-08T08:05:58.000Z</time>
      </trkpt>
      <trkpt lat="47.69791" lon="6.00695">
        <ele>288.20001220703</ele>
        <time>2014-10-08T08:05:59.000Z</time>
      </trkpt>
      <trkpt lat="47.69792" lon="6.00692">
        <ele>288.20001220703</ele>
        <time>2014-10-08T08:06:00.000Z</time>
      </trkpt>
      <trkpt lat="47.69795" lon="6.00677">
        <ele>288.20001220703</ele>
        <time>2014-10-08T08:06:07.000Z</time>
      </trkpt>
      <trkpt lat="47.69801" lon="6.00666">
        <ele>288.60000610352</ele>
        <time>2014-10-08T08:06:15.000Z</time>
      </trkpt>
      <trkpt lat="47.69802" lon="6.00665">
        <ele>289</ele>
        <time>2014-10-08T08:06:16.000Z</time>
      </trkpt>
      <trkpt lat="47.69803" lon="6.00663">
        <ele>289.39999389648</ele>
        <time>2014-10-08T08:06:17.000Z</time>
      </trkpt>
      <trkpt lat="47.69803" lon="6.00662">
        <ele>289.79998779297</ele>
        <time>2014-10-08T08:06:18.000Z</time>
      </trkpt>
      <trkpt lat="47.69804" lon="6.0066">
        <ele>290.20001220703</ele>
        <time>2014-10-08T08:06:19.000Z</time>
      </trkpt>
      <trkpt lat="47.69805" lon="6.00655">
        <ele>290.20001220703</ele>
        <time>2014-10-08T08:06:22.000Z</time>
      </trkpt>
      <trkpt lat="47.69809" lon="6.00637">
        <ele>290.20001220703</ele>
        <time>2014-10-08T08:06:30.000Z</time>
      </trkpt>
      <trkpt lat="47.69813" lon="6.00622">
        <ele>290.60000610352</ele>
        <time>2014-10-08T08:06:37.000Z</time>
      </trkpt>
      <trkpt lat="47.69812" lon="6.00621">
        <ele>291.20001220703</ele>
        <time>2014-10-08T08:06:38.000Z</time>
      </trkpt>
      <trkpt lat="47.69812" lon="6.0062">
        <ele>291.60000610352</ele>
        <time>2014-10-08T08:06:39.000Z</time>
      </trkpt>
      <trkpt lat="47.69813" lon="6.00618">
        <ele>292</ele>
        <time>2014-10-08T08:06:40.000Z</time>
      </trkpt>
      <trkpt lat="47.69814" lon="6.00616">
        <ele>292.39999389648</ele>
        <time>2014-10-08T08:06:41.000Z</time>
      </trkpt>
      <trkpt lat="47.69815" lon="6.00613">
        <ele>292.39999389648</ele>
        <time>2014-10-08T08:06:43.000Z</time>
      </trkpt>
      <trkpt lat="47.6982" lon="6.006">
        <ele>292.39999389648</ele>
        <time>2014-10-08T08:06:51.000Z</time>
      </trkpt>
      <trkpt lat="47.6982" lon="6.00598">
        <ele>292.79998779297</ele>
        <time>2014-10-08T08:06:52.000Z</time>
      </trkpt>
      <trkpt lat="47.69821" lon="6.00596">
        <ele>293.20001220703</ele>
        <time>2014-10-08T08:06:53.000Z</time>
      </trkpt>
      <trkpt lat="47.69821" lon="6.00595">
        <ele>293.60000610352</ele>
        <time>2014-10-08T08:06:54.000Z</time>
      </trkpt>
      <trkpt lat="47.69822" lon="6.00594">
        <ele>294</ele>
        <time>2014-10-08T08:06:55.000Z</time>
      </trkpt>
      <trkpt lat="47.69823" lon="6.00593">
        <ele>294.39999389648</ele>
        <time>2014-10-08T08:06:56.000Z</time>
      </trkpt>
      <trkpt lat="47.69823" lon="6.00592">
        <ele>294.39999389648</ele>
        <time>2014-10-08T08:06:57.000Z</time>
      </trkpt>
      <trkpt lat="47.69829" lon="6.00574">
        <ele>294.79998779297</ele>
        <time>2014-10-08T08:07:07.000Z</time>
      </trkpt>
      <trkpt lat="47.6983" lon="6.00572">
        <ele>295.20001220703</ele>
        <time>2014-10-08T08:07:08.000Z</time>
      </trkpt>
      <trkpt lat="47.6983" lon="6.0057">
        <ele>296</ele>
        <time>2014-10-08T08:07:09.000Z</time>
      </trkpt>
      <trkpt lat="47.69831" lon="6.00568">
        <ele>296.39999389648</ele>
        <time>2014-10-08T08:07:10.000Z</time>
      </trkpt>
      <trkpt lat="47.69834" lon="6.00556">
        <ele>296.39999389648</ele>
        <time>2014-10-08T08:07:15.000Z</time>
      </trkpt>
      <trkpt lat="47.6984" lon="6.00541">
        <ele>296.39999389648</ele>
        <time>2014-10-08T08:07:22.000Z</time>
      </trkpt>
      <trkpt lat="47.69849" lon="6.00528">
        <ele>296.39999389648</ele>
        <time>2014-10-08T08:07:30.000Z</time>
      </trkpt>
      <trkpt lat="47.69858" lon="6.00514">
        <ele>296.39999389648</ele>
        <time>2014-10-08T08:07:38.000Z</time>
      </trkpt>
      <trkpt lat="47.6986" lon="6.00509">
        <ele>296.79998779297</ele>
        <time>2014-10-08T08:07:41.000Z</time>
      </trkpt>
      <trkpt lat="47.69861" lon="6.00508">
        <ele>297.20001220703</ele>
        <time>2014-10-08T08:07:42.000Z</time>
      </trkpt>
      <trkpt lat="47.69861" lon="6.00506">
        <ele>297.60000610352</ele>
        <time>2014-10-08T08:07:43.000Z</time>
      </trkpt>
      <trkpt lat="47.69862" lon="6.00505">
        <ele>298</ele>
        <time>2014-10-08T08:07:44.000Z</time>
      </trkpt>
      <trkpt lat="47.69863" lon="6.00503">
        <ele>298.39999389648</ele>
        <time>2014-10-08T08:07:45.000Z</time>
      </trkpt>
      <trkpt lat="47.69868" lon="6.00494">
        <ele>298.39999389648</ele>
        <time>2014-10-08T08:07:52.000Z</time>
      </trkpt>
      <trkpt lat="47.69872" lon="6.00485">
        <ele>299</ele>
        <time>2014-10-08T08:07:59.000Z</time>
      </trkpt>
      <trkpt lat="47.69873" lon="6.00484">
        <ele>299.39999389648</ele>
        <time>2014-10-08T08:08:00.000Z</time>
      </trkpt>
      <trkpt lat="47.69874" lon="6.00481">
        <ele>299.79998779297</ele>
        <time>2014-10-08T08:08:01.000Z</time>
      </trkpt>
      <trkpt lat="47.69876" lon="6.00476">
        <ele>300.20001220703</ele>
        <time>2014-10-08T08:08:02.000Z</time>
      </trkpt>
      <trkpt lat="47.69877" lon="6.00472">
        <ele>300.60000610352</ele>
        <time>2014-10-08T08:08:03.000Z</time>
      </trkpt>
      <trkpt lat="47.69882" lon="6.0046">
        <ele>300.60000610352</ele>
        <time>2014-10-08T08:08:08.000Z</time>
      </trkpt>
      <trkpt lat="47.69887" lon="6.00446">
        <ele>300.60000610352</ele>
        <time>2014-10-08T08:08:15.000Z</time>
      </trkpt>
      <trkpt lat="47.69892" lon="6.00435">
        <ele>301</ele>
        <time>2014-10-08T08:08:21.000Z</time>
      </trkpt>
      <trkpt lat="47.69893" lon="6.00433">
        <ele>301.39999389648</ele>
        <time>2014-10-08T08:08:22.000Z</time>
      </trkpt>
      <trkpt lat="47.69894" lon="6.00431">
        <ele>302.20001220703</ele>
        <time>2014-10-08T08:08:23.000Z</time>
      </trkpt>
      <trkpt lat="47.69895" lon="6.0043">
        <ele>302.60000610352</ele>
        <time>2014-10-08T08:08:24.000Z</time>
      </trkpt>
      <trkpt lat="47.69897" lon="6.00425">
        <ele>302.60000610352</ele>
        <time>2014-10-08T08:08:27.000Z</time>
      </trkpt>
      <trkpt lat="47.69903" lon="6.00411">
        <ele>302.60000610352</ele>
        <time>2014-10-08T08:08:35.000Z</time>
      </trkpt>
      <trkpt lat="47.6991" lon="6.00395">
        <ele>302.60000610352</ele>
        <time>2014-10-08T08:08:43.000Z</time>
      </trkpt>
      <trkpt lat="47.69912" lon="6.00389">
        <ele>303</ele>
        <time>2014-10-08T08:08:46.000Z</time>
      </trkpt>
      <trkpt lat="47.69913" lon="6.00386">
        <ele>303.79998779297</ele>
        <time>2014-10-08T08:08:47.000Z</time>
      </trkpt>
      <trkpt lat="47.69915" lon="6.00384">
        <ele>304.20001220703</ele>
        <time>2014-10-08T08:08:48.000Z</time>
      </trkpt>
      <trkpt lat="47.69916" lon="6.00382">
        <ele>304.60000610352</ele>
        <time>2014-10-08T08:08:49.000Z</time>
      </trkpt>
      <trkpt lat="47.69917" lon="6.0038">
        <ele>304.60000610352</ele>
        <time>2014-10-08T08:08:50.000Z</time>
      </trkpt>
      <trkpt lat="47.69924" lon="6.00364">
        <ele>304.60000610352</ele>
        <time>2014-10-08T08:08:58.000Z</time>
      </trkpt>
      <trkpt lat="47.6993" lon="6.00354">
        <ele>305</ele>
        <time>2014-10-08T08:09:03.000Z</time>
      </trkpt>
      <trkpt lat="47.69932" lon="6.00351">
        <ele>305.39999389648</ele>
        <time>2014-10-08T08:09:04.000Z</time>
      </trkpt>
      <trkpt lat="47.69933" lon="6.00349">
        <ele>305.79998779297</ele>
        <time>2014-10-08T08:09:05.000Z</time>
      </trkpt>
      <trkpt lat="47.69934" lon="6.00348">
        <ele>306.20001220703</ele>
        <time>2014-10-08T08:09:06.000Z</time>
      </trkpt>
      <trkpt lat="47.69934" lon="6.00346">
        <ele>306.60000610352</ele>
        <time>2014-10-08T08:09:07.000Z</time>
      </trkpt>
      <trkpt lat="47.6994" lon="6.00338">
        <ele>306.60000610352</ele>
        <time>2014-10-08T08:09:11.000Z</time>
      </trkpt>
      <trkpt lat="47.6995" lon="6.00318">
        <ele>306.60000610352</ele>
        <time>2014-10-08T08:09:18.000Z</time>
      </trkpt>
      <trkpt lat="47.6996" lon="6.00303">
        <ele>306.60000610352</ele>
        <time>2014-10-08T08:09:24.000Z</time>
      </trkpt>
      <trkpt lat="47.69964" lon="6.00298">
        <ele>306.60000610352</ele>
        <time>2014-10-08T08:09:26.000Z</time>
      </trkpt>
      <trkpt lat="47.69969" lon="6.00288">
        <ele>307</ele>
        <time>2014-10-08T08:09:29.000Z</time>
      </trkpt>
      <trkpt lat="47.69972" lon="6.00284">
        <ele>307.39999389648</ele>
        <time>2014-10-08T08:09:30.000Z</time>
      </trkpt>
      <trkpt lat="47.69975" lon="6.00281">
        <ele>307.79998779297</ele>
        <time>2014-10-08T08:09:31.000Z</time>
      </trkpt>
      <trkpt lat="47.69978" lon="6.00278">
        <ele>308.20001220703</ele>
        <time>2014-10-08T08:09:32.000Z</time>
      </trkpt>
      <trkpt lat="47.6998" lon="6.00274">
        <ele>308.79998779297</ele>
        <time>2014-10-08T08:09:33.000Z</time>
      </trkpt>
      <trkpt lat="47.69984" lon="6.00267">
        <ele>308.79998779297</ele>
        <time>2014-10-08T08:09:35.000Z</time>
      </trkpt>
      <trkpt lat="47.69993" lon="6.00251">
        <ele>308.79998779297</ele>
        <time>2014-10-08T08:09:41.000Z</time>
      </trkpt>
      <trkpt lat="47.70005" lon="6.00233">
        <ele>308.79998779297</ele>
        <time>2014-10-08T08:09:49.000Z</time>
      </trkpt>
      <trkpt lat="47.70013" lon="6.00221">
        <ele>308.79998779297</ele>
        <time>2014-10-08T08:09:56.000Z</time>
      </trkpt>
      <trkpt lat="47.70016" lon="6.00214">
        <ele>308.79998779297</ele>
        <time>2014-10-08T08:10:01.000Z</time>
      </trkpt>
      <trkpt lat="47.70021" lon="6.00209">
        <ele>308.79998779297</ele>
        <time>2014-10-08T08:11:12.000Z</time>
      </trkpt>
      <trkpt lat="47.70023" lon="6.00208">
        <ele>308.79998779297</ele>
        <time>2014-10-08T08:11:13.000Z</time>
      </trkpt>
      <trkpt lat="47.70027" lon="6.00206">
        <ele>308.79998779297</ele>
        <time>2014-10-08T08:11:14.000Z</time>
      </trkpt>
      <trkpt lat="47.70035" lon="6.00195">
        <ele>308.79998779297</ele>
        <time>2014-10-08T08:11:19.000Z</time>
      </trkpt>
      <trkpt lat="47.70048" lon="6.00177">
        <ele>308.79998779297</ele>
        <time>2014-10-08T08:11:25.000Z</time>
      </trkpt>
      <trkpt lat="47.70064" lon="6.00155">
        <ele>308.79998779297</ele>
        <time>2014-10-08T08:11:31.000Z</time>
      </trkpt>
      <trkpt lat="47.70086" lon="6.00121">
        <ele>308.20001220703</ele>
        <time>2014-10-08T08:11:39.000Z</time>
      </trkpt>
      <trkpt lat="47.70089" lon="6.00115">
        <ele>307.39999389648</ele>
        <time>2014-10-08T08:11:40.000Z</time>
      </trkpt>
      <trkpt lat="47.70093" lon="6.00111">
        <ele>307</ele>
        <time>2014-10-08T08:11:41.000Z</time>
      </trkpt>
      <trkpt lat="47.70096" lon="6.00107">
        <ele>306.60000610352</ele>
        <time>2014-10-08T08:11:42.000Z</time>
      </trkpt>
      <trkpt lat="47.70103" lon="6.00098">
        <ele>306.60000610352</ele>
        <time>2014-10-08T08:11:44.000Z</time>
      </trkpt>
      <trkpt lat="47.70106" lon="6.00093">
        <ele>306.20001220703</ele>
        <time>2014-10-08T08:11:45.000Z</time>
      </trkpt>
      <trkpt lat="47.7011" lon="6.00087">
        <ele>305.79998779297</ele>
        <time>2014-10-08T08:11:46.000Z</time>
      </trkpt>
      <trkpt lat="47.70114" lon="6.00081">
        <ele>305.20001220703</ele>
        <time>2014-10-08T08:11:47.000Z</time>
      </trkpt>
      <trkpt lat="47.70117" lon="6.00075">
        <ele>304.79998779297</ele>
        <time>2014-10-08T08:11:48.000Z</time>
      </trkpt>
      <trkpt lat="47.7012" lon="6.00071">
        <ele>304.39999389648</ele>
        <time>2014-10-08T08:11:49.000Z</time>
      </trkpt>
      <trkpt lat="47.70123" lon="6.00066">
        <ele>304</ele>
        <time>2014-10-08T08:11:50.000Z</time>
      </trkpt>
      <trkpt lat="47.70126" lon="6.0006">
        <ele>303.60000610352</ele>
        <time>2014-10-08T08:11:51.000Z</time>
      </trkpt>
      <trkpt lat="47.70129" lon="6.00055">
        <ele>303.20001220703</ele>
        <time>2014-10-08T08:11:52.000Z</time>
      </trkpt>
      <trkpt lat="47.70132" lon="6.00048">
        <ele>302.79998779297</ele>
        <time>2014-10-08T08:11:53.000Z</time>
      </trkpt>
      <trkpt lat="47.70135" lon="6.00041">
        <ele>302.39999389648</ele>
        <time>2014-10-08T08:11:54.000Z</time>
      </trkpt>
      <trkpt lat="47.70138" lon="6.00033">
        <ele>302</ele>
        <time>2014-10-08T08:11:55.000Z</time>
      </trkpt>
      <trkpt lat="47.70142" lon="6.00025">
        <ele>301.39999389648</ele>
        <time>2014-10-08T08:11:56.000Z</time>
      </trkpt>
      <trkpt lat="47.70144" lon="6.00017">
        <ele>301</ele>
        <time>2014-10-08T08:11:57.000Z</time>
      </trkpt>
      <trkpt lat="47.70147" lon="6.0001">
        <ele>300.39999389648</ele>
        <time>2014-10-08T08:11:58.000Z</time>
      </trkpt>
      <trkpt lat="47.70149" lon="6.00002">
        <ele>300</ele>
        <time>2014-10-08T08:11:59.000Z</time>
      </trkpt>
      <trkpt lat="47.70151" lon="5.99995">
        <ele>299.60000610352</ele>
        <time>2014-10-08T08:12:00.000Z</time>
      </trkpt>
      <trkpt lat="47.70153" lon="5.99987">
        <ele>299</ele>
        <time>2014-10-08T08:12:01.000Z</time>
      </trkpt>
      <trkpt lat="47.70155" lon="5.9998">
        <ele>298.60000610352</ele>
        <time>2014-10-08T08:12:02.000Z</time>
      </trkpt>
      <trkpt lat="47.70158" lon="5.99974">
        <ele>298.20001220703</ele>
        <time>2014-10-08T08:12:03.000Z</time>
      </trkpt>
      <trkpt lat="47.7016" lon="5.99968">
        <ele>297.60000610352</ele>
        <time>2014-10-08T08:12:04.000Z</time>
      </trkpt>
      <trkpt lat="47.70162" lon="5.99963">
        <ele>296.60000610352</ele>
        <time>2014-10-08T08:12:05.000Z</time>
      </trkpt>
      <trkpt lat="47.70164" lon="5.99957">
        <ele>296</ele>
        <time>2014-10-08T08:12:06.000Z</time>
      </trkpt>
      <trkpt lat="47.70167" lon="5.99952">
        <ele>295.39999389648</ele>
        <time>2014-10-08T08:12:07.000Z</time>
      </trkpt>
      <trkpt lat="47.7017" lon="5.99946">
        <ele>295</ele>
        <time>2014-10-08T08:12:08.000Z</time>
      </trkpt>
      <trkpt lat="47.70173" lon="5.9994">
        <ele>294.39999389648</ele>
        <time>2014-10-08T08:12:09.000Z</time>
      </trkpt>
      <trkpt lat="47.70177" lon="5.99935">
        <ele>293.79998779297</ele>
        <time>2014-10-08T08:12:10.000Z</time>
      </trkpt>
      <trkpt lat="47.7018" lon="5.9993">
        <ele>293.39999389648</ele>
        <time>2014-10-08T08:12:11.000Z</time>
      </trkpt>
      <trkpt lat="47.70183" lon="5.99924">
        <ele>292.79998779297</ele>
        <time>2014-10-08T08:12:12.000Z</time>
      </trkpt>
      <trkpt lat="47.70185" lon="5.9992">
        <ele>292.20001220703</ele>
        <time>2014-10-08T08:12:13.000Z</time>
      </trkpt>
      <trkpt lat="47.70188" lon="5.99917">
        <ele>291.60000610352</ele>
        <time>2014-10-08T08:12:14.000Z</time>
      </trkpt>
      <trkpt lat="47.70191" lon="5.99914">
        <ele>291.20001220703</ele>
        <time>2014-10-08T08:12:15.000Z</time>
      </trkpt>
      <trkpt lat="47.70194" lon="5.9991">
        <ele>290.79998779297</ele>
        <time>2014-10-08T08:12:16.000Z</time>
      </trkpt>
      <trkpt lat="47.70197" lon="5.99907">
        <ele>290.39999389648</ele>
        <time>2014-10-08T08:12:17.000Z</time>
      </trkpt>
      <trkpt lat="47.702" lon="5.99903">
        <ele>290</ele>
        <time>2014-10-08T08:12:18.000Z</time>
      </trkpt>
      <trkpt lat="47.70203" lon="5.99898">
        <ele>289.60000610352</ele>
        <time>2014-10-08T08:12:19.000Z</time>
      </trkpt>
      <trkpt lat="47.70206" lon="5.99894">
        <ele>289</ele>
        <time>2014-10-08T08:12:20.000Z</time>
      </trkpt>
      <trkpt lat="47.70209" lon="5.9989">
        <ele>288.39999389648</ele>
        <time>2014-10-08T08:12:21.000Z</time>
      </trkpt>
      <trkpt lat="47.70212" lon="5.99886">
        <ele>288</ele>
        <time>2014-10-08T08:12:22.000Z</time>
      </trkpt>
      <trkpt lat="47.70215" lon="5.99884">
        <ele>287.39999389648</ele>
        <time>2014-10-08T08:12:23.000Z</time>
      </trkpt>
      <trkpt lat="47.70219" lon="5.99881">
        <ele>286.79998779297</ele>
        <time>2014-10-08T08:12:24.000Z</time>
      </trkpt>
      <trkpt lat="47.70223" lon="5.99877">
        <ele>286</ele>
        <time>2014-10-08T08:12:25.000Z</time>
      </trkpt>
      <trkpt lat="47.70229" lon="5.9987">
        <ele>285.39999389648</ele>
        <time>2014-10-08T08:12:26.000Z</time>
      </trkpt>
      <trkpt lat="47.70234" lon="5.99862">
        <ele>284.79998779297</ele>
        <time>2014-10-08T08:12:27.000Z</time>
      </trkpt>
      <trkpt lat="47.70239" lon="5.99855">
        <ele>284.20001220703</ele>
        <time>2014-10-08T08:12:28.000Z</time>
      </trkpt>
      <trkpt lat="47.70243" lon="5.99846">
        <ele>283.20001220703</ele>
        <time>2014-10-08T08:12:29.000Z</time>
      </trkpt>
      <trkpt lat="47.70246" lon="5.99837">
        <ele>282.60000610352</ele>
        <time>2014-10-08T08:12:30.000Z</time>
      </trkpt>
      <trkpt lat="47.70249" lon="5.99829">
        <ele>282.20001220703</ele>
        <time>2014-10-08T08:12:31.000Z</time>
      </trkpt>
      <trkpt lat="47.70251" lon="5.99823">
        <ele>282.20001220703</ele>
        <time>2014-10-08T08:12:32.000Z</time>
      </trkpt>
      <trkpt lat="47.70257" lon="5.99803">
        <ele>282.20001220703</ele>
        <time>2014-10-08T08:12:35.000Z</time>
      </trkpt>
      <trkpt lat="47.70259" lon="5.99798">
        <ele>282.60000610352</ele>
        <time>2014-10-08T08:12:36.000Z</time>
      </trkpt>
      <trkpt lat="47.70261" lon="5.99794">
        <ele>283</ele>
        <time>2014-10-08T08:12:37.000Z</time>
      </trkpt>
      <trkpt lat="47.70263" lon="5.99789">
        <ele>283.39999389648</ele>
        <time>2014-10-08T08:12:38.000Z</time>
      </trkpt>
      <trkpt lat="47.70265" lon="5.99786">
        <ele>284</ele>
        <time>2014-10-08T08:12:39.000Z</time>
      </trkpt>
      <trkpt lat="47.70266" lon="5.99782">
        <ele>284.39999389648</ele>
        <time>2014-10-08T08:12:40.000Z</time>
      </trkpt>
      <trkpt lat="47.70273" lon="5.99768">
        <ele>284.79998779297</ele>
        <time>2014-10-08T08:12:45.000Z</time>
      </trkpt>
      <trkpt lat="47.70273" lon="5.99765">
        <ele>285.20001220703</ele>
        <time>2014-10-08T08:12:46.000Z</time>
      </trkpt>
      <trkpt lat="47.70274" lon="5.99762">
        <ele>285.60000610352</ele>
        <time>2014-10-08T08:12:47.000Z</time>
      </trkpt>
      <trkpt lat="47.70275" lon="5.99759">
        <ele>286</ele>
        <time>2014-10-08T08:12:48.000Z</time>
      </trkpt>
      <trkpt lat="47.70275" lon="5.99758">
        <ele>286.39999389648</ele>
        <time>2014-10-08T08:12:49.000Z</time>
      </trkpt>
      <trkpt lat="47.70277" lon="5.99755">
        <ele>286.39999389648</ele>
        <time>2014-10-08T08:12:52.000Z</time>
      </trkpt>
      <trkpt lat="47.70279" lon="5.9975">
        <ele>286.79998779297</ele>
        <time>2014-10-08T08:12:54.000Z</time>
      </trkpt>
      <trkpt lat="47.70279" lon="5.99749">
        <ele>287.20001220703</ele>
        <time>2014-10-08T08:12:55.000Z</time>
      </trkpt>
      <trkpt lat="47.70279" lon="5.99749">
        <ele>287.79998779297</ele>
        <time>2014-10-08T08:12:56.000Z</time>
      </trkpt>
      <trkpt lat="47.7028" lon="5.99747">
        <ele>288.20001220703</ele>
        <time>2014-10-08T08:12:57.000Z</time>
      </trkpt>
      <trkpt lat="47.70281" lon="5.99745">
        <ele>288.60000610352</ele>
        <time>2014-10-08T08:12:58.000Z</time>
      </trkpt>
      <trkpt lat="47.70286" lon="5.99733">
        <ele>288.60000610352</ele>
        <time>2014-10-08T08:13:06.000Z</time>
      </trkpt>
      <trkpt lat="47.70288" lon="5.99728">
        <ele>289</ele>
        <time>2014-10-08T08:13:08.000Z</time>
      </trkpt>
      <trkpt lat="47.70289" lon="5.99727">
        <ele>289.39999389648</ele>
        <time>2014-10-08T08:13:09.000Z</time>
      </trkpt>
      <trkpt lat="47.7029" lon="5.99726">
        <ele>289.79998779297</ele>
        <time>2014-10-08T08:13:10.000Z</time>
      </trkpt>
      <trkpt lat="47.70291" lon="5.99725">
        <ele>290.20001220703</ele>
        <time>2014-10-08T08:13:11.000Z</time>
      </trkpt>
      <trkpt lat="47.70291" lon="5.99724">
        <ele>290.60000610352</ele>
        <time>2014-10-08T08:13:12.000Z</time>
      </trkpt>
      <trkpt lat="47.70292" lon="5.99722">
        <ele>290.60000610352</ele>
        <time>2014-10-08T08:13:13.000Z</time>
      </trkpt>
      <trkpt lat="47.70299" lon="5.9971">
        <ele>290.60000610352</ele>
        <time>2014-10-08T08:13:22.000Z</time>
      </trkpt>
      <trkpt lat="47.70301" lon="5.99707">
        <ele>291</ele>
        <time>2014-10-08T08:13:23.000Z</time>
      </trkpt>
      <trkpt lat="47.70302" lon="5.99705">
        <ele>291.39999389648</ele>
        <time>2014-10-08T08:13:24.000Z</time>
      </trkpt>
      <trkpt lat="47.70303" lon="5.99703">
        <ele>292</ele>
        <time>2014-10-08T08:13:25.000Z</time>
      </trkpt>
      <trkpt lat="47.70304" lon="5.99702">
        <ele>292.39999389648</ele>
        <time>2014-10-08T08:13:26.000Z</time>
      </trkpt>
      <trkpt lat="47.70304" lon="5.99701">
        <ele>292.79998779297</ele>
        <time>2014-10-08T08:13:27.000Z</time>
      </trkpt>
      <trkpt lat="47.70306" lon="5.99698">
        <ele>292.79998779297</ele>
        <time>2014-10-08T08:13:30.000Z</time>
      </trkpt>
      <trkpt lat="47.7031" lon="5.99685">
        <ele>292.79998779297</ele>
        <time>2014-10-08T08:13:37.000Z</time>
      </trkpt>
      <trkpt lat="47.70314" lon="5.99674">
        <ele>293.20001220703</ele>
        <time>2014-10-08T08:13:42.000Z</time>
      </trkpt>
      <trkpt lat="47.70315" lon="5.99672">
        <ele>294</ele>
        <time>2014-10-08T08:13:43.000Z</time>
      </trkpt>
      <trkpt lat="47.70316" lon="5.9967">
        <ele>294.39999389648</ele>
        <time>2014-10-08T08:13:44.000Z</time>
      </trkpt>
      <trkpt lat="47.70316" lon="5.99668">
        <ele>294.79998779297</ele>
        <time>2014-10-08T08:13:45.000Z</time>
      </trkpt>
      <trkpt lat="47.70317" lon="5.99667">
        <ele>294.79998779297</ele>
        <time>2014-10-08T08:13:46.000Z</time>
      </trkpt>
      <trkpt lat="47.70319" lon="5.99657">
        <ele>294.79998779297</ele>
        <time>2014-10-08T08:13:53.000Z</time>
      </trkpt>
      <trkpt lat="47.7032" lon="5.99648">
        <ele>295.20001220703</ele>
        <time>2014-10-08T08:13:59.000Z</time>
      </trkpt>
      <trkpt lat="47.7032" lon="5.99645">
        <ele>295.60000610352</ele>
        <time>2014-10-08T08:14:00.000Z</time>
      </trkpt>
      <trkpt lat="47.7032" lon="5.99641">
        <ele>296</ele>
        <time>2014-10-08T08:14:01.000Z</time>
      </trkpt>
      <trkpt lat="47.70321" lon="5.99638">
        <ele>296.39999389648</ele>
        <time>2014-10-08T08:14:02.000Z</time>
      </trkpt>
      <trkpt lat="47.70321" lon="5.99636">
        <ele>296.79998779297</ele>
        <time>2014-10-08T08:14:03.000Z</time>
      </trkpt>
      <trkpt lat="47.70321" lon="5.99634">
        <ele>296.79998779297</ele>
        <time>2014-10-08T08:14:04.000Z</time>
      </trkpt>
      <trkpt lat="47.70325" lon="5.99623">
        <ele>296.79998779297</ele>
        <time>2014-10-08T08:14:10.000Z</time>
      </trkpt>
      <trkpt lat="47.70328" lon="5.99616">
        <ele>297.39999389648</ele>
        <time>2014-10-08T08:14:13.000Z</time>
      </trkpt>
      <trkpt lat="47.70328" lon="5.99615">
        <ele>297.79998779297</ele>
        <time>2014-10-08T08:14:14.000Z</time>
      </trkpt>
      <trkpt lat="47.70329" lon="5.99613">
        <ele>298.20001220703</ele>
        <time>2014-10-08T08:14:15.000Z</time>
      </trkpt>
      <trkpt lat="47.70329" lon="5.99612">
        <ele>298.60000610352</ele>
        <time>2014-10-08T08:14:16.000Z</time>
      </trkpt>
      <trkpt lat="47.7033" lon="5.9961">
        <ele>299</ele>
        <time>2014-10-08T08:14:17.000Z</time>
      </trkpt>
      <trkpt lat="47.70334" lon="5.99601">
        <ele>299</ele>
        <time>2014-10-08T08:14:23.000Z</time>
      </trkpt>
      <trkpt lat="47.70337" lon="5.99591">
        <ele>299</ele>
        <time>2014-10-08T08:14:30.000Z</time>
      </trkpt>
      <trkpt lat="47.70339" lon="5.99587">
        <ele>299</ele>
        <time>2014-10-08T08:14:33.000Z</time>
      </trkpt>
      <trkpt lat="47.70341" lon="5.9958">
        <ele>299</ele>
        <time>2014-10-08T08:14:37.000Z</time>
      </trkpt>
      <trkpt lat="47.70341" lon="5.99557">
        <ele>299</ele>
        <time>2014-10-08T08:14:44.000Z</time>
      </trkpt>
      <trkpt lat="47.70342" lon="5.99546">
        <ele>299</ele>
        <time>2014-10-08T08:14:50.000Z</time>
      </trkpt>
      <trkpt lat="47.70344" lon="5.99535">
        <ele>299.39999389648</ele>
        <time>2014-10-08T08:14:57.000Z</time>
      </trkpt>
      <trkpt lat="47.70345" lon="5.99532">
        <ele>299.79998779297</ele>
        <time>2014-10-08T08:14:58.000Z</time>
      </trkpt>
      <trkpt lat="47.70345" lon="5.99532">
        <ele>300.20001220703</ele>
        <time>2014-10-08T08:14:59.000Z</time>
      </trkpt>
      <trkpt lat="47.70345" lon="5.99531">
        <ele>300.79998779297</ele>
        <time>2014-10-08T08:15:00.000Z</time>
      </trkpt>
      <trkpt lat="47.70345" lon="5.99529">
        <ele>301.20001220703</ele>
        <time>2014-10-08T08:15:01.000Z</time>
      </trkpt>
      <trkpt lat="47.70346" lon="5.99525">
        <ele>301.20001220703</ele>
        <time>2014-10-08T08:15:04.000Z</time>
      </trkpt>
      <trkpt lat="47.70346" lon="5.99519">
        <ele>301.20001220703</ele>
        <time>2014-10-08T08:15:07.000Z</time>
      </trkpt>
      <trkpt lat="47.70382" lon="5.99497">
        <ele>305.20001220703</ele>
        <time>2014-10-08T08:15:43.000Z</time>
      </trkpt>
      <trkpt lat="47.70386" lon="5.99498">
        <ele>305.20001220703</ele>
        <time>2014-10-08T08:15:45.000Z</time>
      </trkpt>
      <trkpt lat="47.70396" lon="5.99498">
        <ele>305.20001220703</ele>
        <time>2014-10-08T08:15:51.000Z</time>
      </trkpt>
      <trkpt lat="47.70407" lon="5.99496">
        <ele>305.20001220703</ele>
        <time>2014-10-08T08:15:58.000Z</time>
      </trkpt>
      <trkpt lat="47.70414" lon="5.99493">
        <ele>305.60000610352</ele>
        <time>2014-10-08T08:16:04.000Z</time>
      </trkpt>
      <trkpt lat="47.70414" lon="5.99493">
        <ele>306</ele>
        <time>2014-10-08T08:16:05.000Z</time>
      </trkpt>
      <trkpt lat="47.70416" lon="5.99492">
        <ele>306.39999389648</ele>
        <time>2014-10-08T08:16:06.000Z</time>
      </trkpt>
      <trkpt lat="47.70417" lon="5.99492">
        <ele>306.79998779297</ele>
        <time>2014-10-08T08:16:07.000Z</time>
      </trkpt>
      <trkpt lat="47.70417" lon="5.99491">
        <ele>307.20001220703</ele>
        <time>2014-10-08T08:16:08.000Z</time>
      </trkpt>
      <trkpt lat="47.70423" lon="5.9949">
        <ele>307.20001220703</ele>
        <time>2014-10-08T08:16:14.000Z</time>
      </trkpt>
      <trkpt lat="47.70474" lon="5.99438">
        <ele>311.39999389648</ele>
        <time>2014-10-08T08:17:03.000Z</time>
      </trkpt>
      <trkpt lat="47.70476" lon="5.99437">
        <ele>311.79998779297</ele>
        <time>2014-10-08T08:17:04.000Z</time>
      </trkpt>
      <trkpt lat="47.70477" lon="5.99435">
        <ele>312.20001220703</ele>
        <time>2014-10-08T08:17:05.000Z</time>
      </trkpt>
      <trkpt lat="47.70479" lon="5.99433">
        <ele>312.60000610352</ele>
        <time>2014-10-08T08:17:06.000Z</time>
      </trkpt>
      <trkpt lat="47.7048" lon="5.99431">
        <ele>313</ele>
        <time>2014-10-08T08:17:07.000Z</time>
      </trkpt>
      <trkpt lat="47.7048" lon="5.99431">
        <ele>313.39999389648</ele>
        <time>2014-10-08T08:17:08.000Z</time>
      </trkpt>
      <trkpt lat="47.70483" lon="5.99426">
        <ele>313.39999389648</ele>
        <time>2014-10-08T08:17:11.000Z</time>
      </trkpt>
      <trkpt lat="47.70489" lon="5.99417">
        <ele>313.79998779297</ele>
        <time>2014-10-08T08:17:16.000Z</time>
      </trkpt>
      <trkpt lat="47.70491" lon="5.99415">
        <ele>314.20001220703</ele>
        <time>2014-10-08T08:17:17.000Z</time>
      </trkpt>
      <trkpt lat="47.70492" lon="5.99413">
        <ele>314.79998779297</ele>
        <time>2014-10-08T08:17:18.000Z</time>
      </trkpt>
      <trkpt lat="47.70493" lon="5.99412">
        <ele>315.20001220703</ele>
        <time>2014-10-08T08:17:19.000Z</time>
      </trkpt>
      <trkpt lat="47.70494" lon="5.9941">
        <ele>315.60000610352</ele>
        <time>2014-10-08T08:17:20.000Z</time>
      </trkpt>
      <trkpt lat="47.70501" lon="5.99393">
        <ele>315.60000610352</ele>
        <time>2014-10-08T08:17:28.000Z</time>
      </trkpt>
      <trkpt lat="47.70507" lon="5.99384">
        <ele>316</ele>
        <time>2014-10-08T08:17:35.000Z</time>
      </trkpt>
      <trkpt lat="47.70507" lon="5.99382">
        <ele>316.60000610352</ele>
        <time>2014-10-08T08:17:36.000Z</time>
      </trkpt>
      <trkpt lat="47.70507" lon="5.99381">
        <ele>317</ele>
        <time>2014-10-08T08:17:37.000Z</time>
      </trkpt>
      <trkpt lat="47.70508" lon="5.9938">
        <ele>317.39999389648</ele>
        <time>2014-10-08T08:17:38.000Z</time>
      </trkpt>
      <trkpt lat="47.70509" lon="5.99379">
        <ele>318</ele>
        <time>2014-10-08T08:17:39.000Z</time>
      </trkpt>
      <trkpt lat="47.70513" lon="5.99374">
        <ele>318</ele>
        <time>2014-10-08T08:17:43.000Z</time>
      </trkpt>
      <trkpt lat="47.70521" lon="5.99359">
        <ele>318</ele>
        <time>2014-10-08T08:17:52.000Z</time>
      </trkpt>
      <trkpt lat="47.70531" lon="5.99353">
        <ele>318</ele>
        <time>2014-10-08T08:17:58.000Z</time>
      </trkpt>
      <trkpt lat="47.70544" lon="5.99349">
        <ele>318</ele>
        <time>2014-10-08T08:18:05.000Z</time>
      </trkpt>
      <trkpt lat="47.70553" lon="5.99341">
        <ele>318</ele>
        <time>2014-10-08T08:18:11.000Z</time>
      </trkpt>
      <trkpt lat="47.7056" lon="5.99337">
        <ele>318.79998779297</ele>
        <time>2014-10-08T08:18:15.000Z</time>
      </trkpt>
      <trkpt lat="47.70562" lon="5.99338">
        <ele>319.20001220703</ele>
        <time>2014-10-08T08:18:16.000Z</time>
      </trkpt>
      <trkpt lat="47.70564" lon="5.99337">
        <ele>319.60000610352</ele>
        <time>2014-10-08T08:18:17.000Z</time>
      </trkpt>
      <trkpt lat="47.70566" lon="5.99336">
        <ele>320</ele>
        <time>2014-10-08T08:18:18.000Z</time>
      </trkpt>
      <trkpt lat="47.70578" lon="5.99331">
        <ele>320</ele>
        <time>2014-10-08T08:18:24.000Z</time>
      </trkpt>
      <trkpt lat="47.70586" lon="5.99331">
        <ele>320</ele>
        <time>2014-10-08T08:18:29.000Z</time>
      </trkpt>
      <trkpt lat="47.70602" lon="5.99328">
        <ele>320</ele>
        <time>2014-10-08T08:18:37.000Z</time>
      </trkpt>
      <trkpt lat="47.70617" lon="5.99327">
        <ele>320</ele>
        <time>2014-10-08T08:18:43.000Z</time>
      </trkpt>
      <trkpt lat="47.70624" lon="5.99329">
        <ele>320</ele>
        <time>2014-10-08T08:18:47.000Z</time>
      </trkpt>
      <trkpt lat="47.70641" lon="5.99327">
        <ele>320</ele>
        <time>2014-10-08T08:18:52.000Z</time>
      </trkpt>
      <trkpt lat="47.70662" lon="5.99323">
        <ele>320</ele>
        <time>2014-10-08T08:18:58.000Z</time>
      </trkpt>
      <trkpt lat="47.70679" lon="5.99317">
        <ele>320</ele>
        <time>2014-10-08T08:19:04.000Z</time>
      </trkpt>
      <trkpt lat="47.70694" lon="5.99312">
        <ele>320</ele>
        <time>2014-10-08T08:19:10.000Z</time>
      </trkpt>
      <trkpt lat="47.70708" lon="5.9931">
        <ele>320</ele>
        <time>2014-10-08T08:19:17.000Z</time>
      </trkpt>
      <trkpt lat="47.70714" lon="5.99308">
        <ele>320</ele>
        <time>2014-10-08T08:19:24.000Z</time>
      </trkpt>
      <trkpt lat="47.70716" lon="5.99304">
        <ele>320</ele>
        <time>2014-10-08T08:19:26.000Z</time>
      </trkpt>
      <trkpt lat="47.70717" lon="5.993">
        <ele>320.39999389648</ele>
        <time>2014-10-08T08:19:28.000Z</time>
      </trkpt>
      <trkpt lat="47.70717" lon="5.99299">
        <ele>321.39999389648</ele>
        <time>2014-10-08T08:19:29.000Z</time>
      </trkpt>
      <trkpt lat="47.70717" lon="5.99297">
        <ele>321.79998779297</ele>
        <time>2014-10-08T08:19:30.000Z</time>
      </trkpt>
      <trkpt lat="47.70717" lon="5.99296">
        <ele>322.20001220703</ele>
        <time>2014-10-08T08:19:31.000Z</time>
      </trkpt>
      <trkpt lat="47.70717" lon="5.9929">
        <ele>322.60000610352</ele>
        <time>2014-10-08T08:19:35.000Z</time>
      </trkpt>
      <trkpt lat="47.70717" lon="5.99289">
        <ele>323</ele>
        <time>2014-10-08T08:19:36.000Z</time>
      </trkpt>
      <trkpt lat="47.7071" lon="5.98956">
        <ele>338.79998779297</ele>
        <time>2014-10-08T08:22:48.000Z</time>
      </trkpt>
      <trkpt lat="47.70699" lon="5.98954">
        <ele>338.79998779297</ele>
        <time>2014-10-08T08:22:54.000Z</time>
      </trkpt>
      <trkpt lat="47.70693" lon="5.98953">
        <ele>339.20001220703</ele>
        <time>2014-10-08T08:22:58.000Z</time>
      </trkpt>
      <trkpt lat="47.70691" lon="5.98952">
        <ele>339.60000610352</ele>
        <time>2014-10-08T08:22:59.000Z</time>
      </trkpt>
      <trkpt lat="47.7069" lon="5.9895">
        <ele>340</ele>
        <time>2014-10-08T08:23:00.000Z</time>
      </trkpt>
      <trkpt lat="47.70688" lon="5.98949">
        <ele>340.60000610352</ele>
        <time>2014-10-08T08:23:01.000Z</time>
      </trkpt>
      <trkpt lat="47.70687" lon="5.98948">
        <ele>341</ele>
        <time>2014-10-08T08:23:02.000Z</time>
      </trkpt>
      <trkpt lat="47.7068" lon="5.98942">
        <ele>341</ele>
        <time>2014-10-08T08:23:07.000Z</time>
      </trkpt>
      <trkpt lat="47.70667" lon="5.98933">
        <ele>341</ele>
        <time>2014-10-08T08:23:14.000Z</time>
      </trkpt>
      <trkpt lat="47.70657" lon="5.98921">
        <ele>341</ele>
        <time>2014-10-08T08:23:20.000Z</time>
      </trkpt>
      <trkpt lat="47.70649" lon="5.98911">
        <ele>341</ele>
        <time>2014-10-08T08:23:25.000Z</time>
      </trkpt>
      <trkpt lat="47.70641" lon="5.98889">
        <ele>341</ele>
        <time>2014-10-08T08:23:33.000Z</time>
      </trkpt>
      <trkpt lat="47.70633" lon="5.98871">
        <ele>341</ele>
        <time>2014-10-08T08:23:39.000Z</time>
      </trkpt>
      <trkpt lat="47.70626" lon="5.98853">
        <ele>341</ele>
        <time>2014-10-08T08:23:45.000Z</time>
      </trkpt>
      <trkpt lat="47.70622" lon="5.98833">
        <ele>341</ele>
        <time>2014-10-08T08:23:52.000Z</time>
      </trkpt>
      <trkpt lat="47.70621" lon="5.9883">
        <ele>341.39999389648</ele>
        <time>2014-10-08T08:23:53.000Z</time>
      </trkpt>
      <trkpt lat="47.70621" lon="5.98827">
        <ele>341.79998779297</ele>
        <time>2014-10-08T08:23:54.000Z</time>
      </trkpt>
      <trkpt lat="47.7062" lon="5.98825">
        <ele>342.20001220703</ele>
        <time>2014-10-08T08:23:55.000Z</time>
      </trkpt>
      <trkpt lat="47.7062" lon="5.98822">
        <ele>342.60000610352</ele>
        <time>2014-10-08T08:23:56.000Z</time>
      </trkpt>
      <trkpt lat="47.7062" lon="5.98818">
        <ele>343</ele>
        <time>2014-10-08T08:23:57.000Z</time>
      </trkpt>
      <trkpt lat="47.7062" lon="5.98813">
        <ele>343</ele>
        <time>2014-10-08T08:23:58.000Z</time>
      </trkpt>
      <trkpt lat="47.70623" lon="5.98793">
        <ele>343</ele>
        <time>2014-10-08T08:24:04.000Z</time>
      </trkpt>
      <trkpt lat="47.70628" lon="5.98773">
        <ele>343</ele>
        <time>2014-10-08T08:24:11.000Z</time>
      </trkpt>
      <trkpt lat="47.7063" lon="5.98755">
        <ele>343</ele>
        <time>2014-10-08T08:24:18.000Z</time>
      </trkpt>
      <trkpt lat="47.70636" lon="5.98733">
        <ele>343</ele>
        <time>2014-10-08T08:24:25.000Z</time>
      </trkpt>
      <trkpt lat="47.70639" lon="5.98715">
        <ele>343</ele>
        <time>2014-10-08T08:24:31.000Z</time>
      </trkpt>
      <trkpt lat="47.70641" lon="5.987">
        <ele>343</ele>
        <time>2014-10-08T08:24:36.000Z</time>
      </trkpt>
      <trkpt lat="47.70646" lon="5.98676">
        <ele>343</ele>
        <time>2014-10-08T08:24:42.000Z</time>
      </trkpt>
      <trkpt lat="47.70649" lon="5.98669">
        <ele>342.60000610352</ele>
        <time>2014-10-08T08:24:44.000Z</time>
      </trkpt>
      <trkpt lat="47.7065" lon="5.98666">
        <ele>342.20001220703</ele>
        <time>2014-10-08T08:24:45.000Z</time>
      </trkpt>
      <trkpt lat="47.70651" lon="5.98664">
        <ele>341.79998779297</ele>
        <time>2014-10-08T08:24:46.000Z</time>
      </trkpt>
      <trkpt lat="47.70652" lon="5.98662">
        <ele>341.39999389648</ele>
        <time>2014-10-08T08:24:47.000Z</time>
      </trkpt>
      <trkpt lat="47.70653" lon="5.98659">
        <ele>341</ele>
        <time>2014-10-08T08:24:48.000Z</time>
      </trkpt>
      <trkpt lat="47.70654" lon="5.98656">
        <ele>341</ele>
        <time>2014-10-08T08:24:49.000Z</time>
      </trkpt>
      <trkpt lat="47.70667" lon="5.98629">
        <ele>341</ele>
        <time>2014-10-08T08:24:55.000Z</time>
      </trkpt>
      <trkpt lat="47.70676" lon="5.98612">
        <ele>341</ele>
        <time>2014-10-08T08:25:00.000Z</time>
      </trkpt>
      <trkpt lat="47.70681" lon="5.98603">
        <ele>340.60000610352</ele>
        <time>2014-10-08T08:25:03.000Z</time>
      </trkpt>
      <trkpt lat="47.70684" lon="5.98601">
        <ele>340.20001220703</ele>
        <time>2014-10-08T08:25:04.000Z</time>
      </trkpt>
      <trkpt lat="47.70686" lon="5.98598">
        <ele>339.79998779297</ele>
        <time>2014-10-08T08:25:05.000Z</time>
      </trkpt>
      <trkpt lat="47.70688" lon="5.98596">
        <ele>339.39999389648</ele>
        <time>2014-10-08T08:25:06.000Z</time>
      </trkpt>
      <trkpt lat="47.7069" lon="5.98593">
        <ele>339</ele>
        <time>2014-10-08T08:25:07.000Z</time>
      </trkpt>
      <trkpt lat="47.70698" lon="5.98587">
        <ele>339</ele>
        <time>2014-10-08T08:25:12.000Z</time>
      </trkpt>
      <trkpt lat="47.70703" lon="5.98587">
        <ele>339</ele>
        <time>2014-10-08T08:25:44.000Z</time>
      </trkpt>
      <trkpt lat="47.70706" lon="5.98589">
        <ele>339</ele>
        <time>2014-10-08T08:25:47.000Z</time>
      </trkpt>
      <trkpt lat="47.70715" lon="5.98589">
        <ele>339</ele>
        <time>2014-10-08T08:25:54.000Z</time>
      </trkpt>
      <trkpt lat="47.70724" lon="5.9859">
        <ele>339</ele>
        <time>2014-10-08T08:26:01.000Z</time>
      </trkpt>
      <trkpt lat="47.70738" lon="5.98599">
        <ele>339</ele>
        <time>2014-10-08T08:26:09.000Z</time>
      </trkpt>
      <trkpt lat="47.70748" lon="5.98602">
        <ele>339.39999389648</ele>
        <time>2014-10-08T08:26:14.000Z</time>
      </trkpt>
      <trkpt lat="47.7075" lon="5.98602">
        <ele>339.79998779297</ele>
        <time>2014-10-08T08:26:15.000Z</time>
      </trkpt>
      <trkpt lat="47.70752" lon="5.98602">
        <ele>340.60000610352</ele>
        <time>2014-10-08T08:26:16.000Z</time>
      </trkpt>
      <trkpt lat="47.70754" lon="5.98603">
        <ele>341</ele>
        <time>2014-10-08T08:26:17.000Z</time>
      </trkpt>
      <trkpt lat="47.70765" lon="5.98604">
        <ele>341</ele>
        <time>2014-10-08T08:26:22.000Z</time>
      </trkpt>
      <trkpt lat="47.70778" lon="5.98608">
        <ele>341</ele>
        <time>2014-10-08T08:26:29.000Z</time>
      </trkpt>
      <trkpt lat="47.70791" lon="5.98608">
        <ele>341</ele>
        <time>2014-10-08T08:26:35.000Z</time>
      </trkpt>
      <trkpt lat="47.70805" lon="5.98604">
        <ele>341</ele>
        <time>2014-10-08T08:26:41.000Z</time>
      </trkpt>
      <trkpt lat="47.70827" lon="5.986">
        <ele>341</ele>
        <time>2014-10-08T08:26:48.000Z</time>
      </trkpt>
      <trkpt lat="47.70852" lon="5.98592">
        <ele>341</ele>
        <time>2014-10-08T08:26:55.000Z</time>
      </trkpt>
      <trkpt lat="47.70877" lon="5.98579">
        <ele>341</ele>
        <time>2014-10-08T08:27:00.000Z</time>
      </trkpt>
      <trkpt lat="47.70888" lon="5.98573">
        <ele>340.60000610352</ele>
        <time>2014-10-08T08:27:02.000Z</time>
      </trkpt>
      <trkpt lat="47.70893" lon="5.98571">
        <ele>340.20001220703</ele>
        <time>2014-10-08T08:27:03.000Z</time>
      </trkpt>
      <trkpt lat="47.70899" lon="5.98568">
        <ele>339.79998779297</ele>
        <time>2014-10-08T08:27:04.000Z</time>
      </trkpt>
      <trkpt lat="47.70905" lon="5.98564">
        <ele>338.79998779297</ele>
        <time>2014-10-08T08:27:05.000Z</time>
      </trkpt>
      <trkpt lat="47.70912" lon="5.98561">
        <ele>338.39999389648</ele>
        <time>2014-10-08T08:27:06.000Z</time>
      </trkpt>
      <trkpt lat="47.70919" lon="5.98558">
        <ele>337.79998779297</ele>
        <time>2014-10-08T08:27:07.000Z</time>
      </trkpt>
      <trkpt lat="47.70926" lon="5.98555">
        <ele>337.39999389648</ele>
        <time>2014-10-08T08:27:08.000Z</time>
      </trkpt>
      <trkpt lat="47.70934" lon="5.9855">
        <ele>336.79998779297</ele>
        <time>2014-10-08T08:27:09.000Z</time>
      </trkpt>
      <trkpt lat="47.70943" lon="5.98546">
        <ele>336</ele>
        <time>2014-10-08T08:27:10.000Z</time>
      </trkpt>
      <trkpt lat="47.70952" lon="5.98542">
        <ele>335.39999389648</ele>
        <time>2014-10-08T08:27:11.000Z</time>
      </trkpt>
      <trkpt lat="47.7096" lon="5.98538">
        <ele>334.79998779297</ele>
        <time>2014-10-08T08:27:12.000Z</time>
      </trkpt>
      <trkpt lat="47.70969" lon="5.98533">
        <ele>334</ele>
        <time>2014-10-08T08:27:13.000Z</time>
      </trkpt>
      <trkpt lat="47.70979" lon="5.98528">
        <ele>333.20001220703</ele>
        <time>2014-10-08T08:27:14.000Z</time>
      </trkpt>
      <trkpt lat="47.70989" lon="5.98522">
        <ele>332.39999389648</ele>
        <time>2014-10-08T08:27:15.000Z</time>
      </trkpt>
      <trkpt lat="47.70999" lon="5.98516">
        <ele>331.60000610352</ele>
        <time>2014-10-08T08:27:16.000Z</time>
      </trkpt>
      <trkpt lat="47.71008" lon="5.98511">
        <ele>331</ele>
        <time>2014-10-08T08:27:17.000Z</time>
      </trkpt>
      <trkpt lat="47.71016" lon="5.98507">
        <ele>330.20001220703</ele>
        <time>2014-10-08T08:27:18.000Z</time>
      </trkpt>
      <trkpt lat="47.71023" lon="5.98502">
        <ele>329.39999389648</ele>
        <time>2014-10-08T08:27:19.000Z</time>
      </trkpt>
      <trkpt lat="47.71029" lon="5.98498">
        <ele>328.79998779297</ele>
        <time>2014-10-08T08:27:20.000Z</time>
      </trkpt>
      <trkpt lat="47.71036" lon="5.98493">
        <ele>328.20001220703</ele>
        <time>2014-10-08T08:27:21.000Z</time>
      </trkpt>
      <trkpt lat="47.71042" lon="5.98488">
        <ele>327.60000610352</ele>
        <time>2014-10-08T08:27:22.000Z</time>
      </trkpt>
      <trkpt lat="47.71047" lon="5.98484">
        <ele>327</ele>
        <time>2014-10-08T08:27:23.000Z</time>
      </trkpt>
      <trkpt lat="47.71057" lon="5.98476">
        <ele>327</ele>
        <time>2014-10-08T08:27:25.000Z</time>
      </trkpt>
      <trkpt lat="47.71081" lon="5.98461">
        <ele>327</ele>
        <time>2014-10-08T08:27:30.000Z</time>
      </trkpt>
      <trkpt lat="47.71085" lon="5.98459">
        <ele>327</ele>
        <time>2014-10-08T08:27:31.000Z</time>
      </trkpt>
      <trkpt lat="47.71114" lon="5.98434">
        <ele>327</ele>
        <time>2014-10-08T08:27:38.000Z</time>
      </trkpt>
      <trkpt lat="47.7113" lon="5.98426">
        <ele>327</ele>
        <time>2014-10-08T08:27:42.000Z</time>
      </trkpt>
      <trkpt lat="47.71134" lon="5.98425">
        <ele>327</ele>
        <time>2014-10-08T08:27:43.000Z</time>
      </trkpt>
      <trkpt lat="47.71144" lon="5.98423">
        <ele>327</ele>
        <time>2014-10-08T08:27:45.000Z</time>
      </trkpt>
      <trkpt lat="47.71154" lon="5.98423">
        <ele>327</ele>
        <time>2014-10-08T08:27:47.000Z</time>
      </trkpt>
      <trkpt lat="47.71158" lon="5.98423">
        <ele>327</ele>
        <time>2014-10-08T08:27:48.000Z</time>
      </trkpt>
      <trkpt lat="47.71167" lon="5.98425">
        <ele>327</ele>
        <time>2014-10-08T08:27:50.000Z</time>
      </trkpt>
      <trkpt lat="47.71179" lon="5.98434">
        <ele>327</ele>
        <time>2014-10-08T08:27:53.000Z</time>
      </trkpt>
      <trkpt lat="47.71192" lon="5.98456">
        <ele>327</ele>
        <time>2014-10-08T08:27:58.000Z</time>
      </trkpt>
      <trkpt lat="47.71196" lon="5.98466">
        <ele>327</ele>
        <time>2014-10-08T08:28:00.000Z</time>
      </trkpt>
      <trkpt lat="47.71201" lon="5.98476">
        <ele>327</ele>
        <time>2014-10-08T08:28:02.000Z</time>
      </trkpt>
      <trkpt lat="47.71207" lon="5.98486">
        <ele>327</ele>
        <time>2014-10-08T08:28:04.000Z</time>
      </trkpt>
      <trkpt lat="47.71226" lon="5.98513">
        <ele>327</ele>
        <time>2014-10-08T08:28:10.000Z</time>
      </trkpt>
      <trkpt lat="47.71242" lon="5.98529">
        <ele>326.60000610352</ele>
        <time>2014-10-08T08:28:14.000Z</time>
      </trkpt>
      <trkpt lat="47.71247" lon="5.98533">
        <ele>326.20001220703</ele>
        <time>2014-10-08T08:28:15.000Z</time>
      </trkpt>
      <trkpt lat="47.71251" lon="5.98536">
        <ele>325.79998779297</ele>
        <time>2014-10-08T08:28:16.000Z</time>
      </trkpt>
      <trkpt lat="47.71256" lon="5.98539">
        <ele>325.39999389648</ele>
        <time>2014-10-08T08:28:17.000Z</time>
      </trkpt>
      <trkpt lat="47.7126" lon="5.98542">
        <ele>325</ele>
        <time>2014-10-08T08:28:18.000Z</time>
      </trkpt>
      <trkpt lat="47.71277" lon="5.98552">
        <ele>325</ele>
        <time>2014-10-08T08:28:22.000Z</time>
      </trkpt>
      <trkpt lat="47.71304" lon="5.98564">
        <ele>325</ele>
        <time>2014-10-08T08:28:28.000Z</time>
      </trkpt>
      <trkpt lat="47.71327" lon="5.98572">
        <ele>325</ele>
        <time>2014-10-08T08:28:34.000Z</time>
      </trkpt>
      <trkpt lat="47.71347" lon="5.98571">
        <ele>325</ele>
        <time>2014-10-08T08:28:40.000Z</time>
      </trkpt>
      <trkpt lat="47.71365" lon="5.98568">
        <ele>325</ele>
        <time>2014-10-08T08:28:45.000Z</time>
      </trkpt>
      <trkpt lat="47.71383" lon="5.98562">
        <ele>325</ele>
        <time>2014-10-08T08:28:52.000Z</time>
      </trkpt>
      <trkpt lat="47.71397" lon="5.98561">
        <ele>325.39999389648</ele>
        <time>2014-10-08T08:28:57.000Z</time>
      </trkpt>
      <trkpt lat="47.714" lon="5.98559">
        <ele>326</ele>
        <time>2014-10-08T08:28:58.000Z</time>
      </trkpt>
      <trkpt lat="47.71404" lon="5.98556">
        <ele>326.39999389648</ele>
        <time>2014-10-08T08:28:59.000Z</time>
      </trkpt>
      <trkpt lat="47.71407" lon="5.98553">
        <ele>326.79998779297</ele>
        <time>2014-10-08T08:29:00.000Z</time>
      </trkpt>
      <trkpt lat="47.7141" lon="5.98553">
        <ele>327.20001220703</ele>
        <time>2014-10-08T08:29:01.000Z</time>
      </trkpt>
      <trkpt lat="47.71417" lon="5.98553">
        <ele>327.20001220703</ele>
        <time>2014-10-08T08:29:04.000Z</time>
      </trkpt>
      <trkpt lat="47.71419" lon="5.98552">
        <ele>327.20001220703</ele>
        <time>2014-10-08T08:29:05.000Z</time>
      </trkpt>
      <trkpt lat="47.7143" lon="5.98548">
        <ele>327.20001220703</ele>
        <time>2014-10-08T08:29:10.000Z</time>
      </trkpt>
      <trkpt lat="47.71432" lon="5.98548">
        <ele>327.60000610352</ele>
        <time>2014-10-08T08:29:11.000Z</time>
      </trkpt>
      <trkpt lat="47.71434" lon="5.98547">
        <ele>328</ele>
        <time>2014-10-08T08:29:12.000Z</time>
      </trkpt>
      <trkpt lat="47.71436" lon="5.98546">
        <ele>328.39999389648</ele>
        <time>2014-10-08T08:29:13.000Z</time>
      </trkpt>
      <trkpt lat="47.71438" lon="5.98545">
        <ele>329</ele>
        <time>2014-10-08T08:29:14.000Z</time>
      </trkpt>
      <trkpt lat="47.71439" lon="5.98545">
        <ele>329.39999389648</ele>
        <time>2014-10-08T08:29:15.000Z</time>
      </trkpt>
      <trkpt lat="47.71448" lon="5.98541">
        <ele>329.39999389648</ele>
        <time>2014-10-08T08:29:18.000Z</time>
      </trkpt>
      <trkpt lat="47.71461" lon="5.98543">
        <ele>329.39999389648</ele>
        <time>2014-10-08T08:29:25.000Z</time>
      </trkpt>
      <trkpt lat="47.71464" lon="5.98543">
        <ele>329.79998779297</ele>
        <time>2014-10-08T08:29:27.000Z</time>
      </trkpt>
      <trkpt lat="47.71466" lon="5.98542">
        <ele>330.20001220703</ele>
        <time>2014-10-08T08:29:28.000Z</time>
      </trkpt>
      <trkpt lat="47.71467" lon="5.98542">
        <ele>330.60000610352</ele>
        <time>2014-10-08T08:29:29.000Z</time>
      </trkpt>
      <trkpt lat="47.71469" lon="5.98541">
        <ele>331</ele>
        <time>2014-10-08T08:29:30.000Z</time>
      </trkpt>
      <trkpt lat="47.71471" lon="5.98541">
        <ele>331.39999389648</ele>
        <time>2014-10-08T08:29:31.000Z</time>
      </trkpt>
      <trkpt lat="47.71475" lon="5.98542">
        <ele>331.39999389648</ele>
        <time>2014-10-08T08:29:34.000Z</time>
      </trkpt>
      <trkpt lat="47.71489" lon="5.98543">
        <ele>331.39999389648</ele>
        <time>2014-10-08T08:29:41.000Z</time>
      </trkpt>
      <trkpt lat="47.71492" lon="5.98545">
        <ele>331.79998779297</ele>
        <time>2014-10-08T08:29:43.000Z</time>
      </trkpt>
      <trkpt lat="47.71494" lon="5.98546">
        <ele>332.20001220703</ele>
        <time>2014-10-08T08:29:44.000Z</time>
      </trkpt>
      <trkpt lat="47.71496" lon="5.98547">
        <ele>332.60000610352</ele>
        <time>2014-10-08T08:29:45.000Z</time>
      </trkpt>
      <trkpt lat="47.71498" lon="5.98549">
        <ele>333</ele>
        <time>2014-10-08T08:29:46.000Z</time>
      </trkpt>
      <trkpt lat="47.71499" lon="5.98551">
        <ele>333.39999389648</ele>
        <time>2014-10-08T08:29:47.000Z</time>
      </trkpt>
      <trkpt lat="47.71501" lon="5.98551">
        <ele>333.39999389648</ele>
        <time>2014-10-08T08:29:48.000Z</time>
      </trkpt>
      <trkpt lat="47.71506" lon="5.98549">
        <ele>333.39999389648</ele>
        <time>2014-10-08T08:29:51.000Z</time>
      </trkpt>
      <trkpt lat="47.71512" lon="5.98551">
        <ele>333.39999389648</ele>
        <time>2014-10-08T08:29:54.000Z</time>
      </trkpt>
      <trkpt lat="47.71521" lon="5.98556">
        <ele>333.39999389648</ele>
        <time>2014-10-08T08:30:00.000Z</time>
      </trkpt>
      <trkpt lat="47.71527" lon="5.98557">
        <ele>333.79998779297</ele>
        <time>2014-10-08T08:30:04.000Z</time>
      </trkpt>
      <trkpt lat="47.71528" lon="5.98558">
        <ele>334.20001220703</ele>
        <time>2014-10-08T08:30:05.000Z</time>
      </trkpt>
      <trkpt lat="47.71529" lon="5.9856">
        <ele>334.60000610352</ele>
        <time>2014-10-08T08:30:06.000Z</time>
      </trkpt>
      <trkpt lat="47.7153" lon="5.98561">
        <ele>335.20001220703</ele>
        <time>2014-10-08T08:30:07.000Z</time>
      </trkpt>
      <trkpt lat="47.71531" lon="5.98562">
        <ele>335.60000610352</ele>
        <time>2014-10-08T08:30:08.000Z</time>
      </trkpt>
      <trkpt lat="47.71536" lon="5.98564">
        <ele>335.60000610352</ele>
        <time>2014-10-08T08:30:14.000Z</time>
      </trkpt>
      <trkpt lat="47.71541" lon="5.98566">
        <ele>335.60000610352</ele>
        <time>2014-10-08T08:30:17.000Z</time>
      </trkpt>
      <trkpt lat="47.71548" lon="5.98569">
        <ele>335.60000610352</ele>
        <time>2014-10-08T08:30:20.000Z</time>
      </trkpt>
      <trkpt lat="47.71559" lon="5.98574">
        <ele>335.60000610352</ele>
        <time>2014-10-08T08:30:25.000Z</time>
      </trkpt>
      <trkpt lat="47.71575" lon="5.98581">
        <ele>335.60000610352</ele>
        <time>2014-10-08T08:30:31.000Z</time>
      </trkpt>
      <trkpt lat="47.71587" lon="5.98593">
        <ele>335.60000610352</ele>
        <time>2014-10-08T08:30:37.000Z</time>
      </trkpt>
      <trkpt lat="47.71598" lon="5.98603">
        <ele>335.60000610352</ele>
        <time>2014-10-08T08:30:43.000Z</time>
      </trkpt>
      <trkpt lat="47.71612" lon="5.98609">
        <ele>335.60000610352</ele>
        <time>2014-10-08T08:30:49.000Z</time>
      </trkpt>
      <trkpt lat="47.71622" lon="5.98619">
        <ele>335.60000610352</ele>
        <time>2014-10-08T08:30:54.000Z</time>
      </trkpt>
      <trkpt lat="47.71637" lon="5.98629">
        <ele>336</ele>
        <time>2014-10-08T08:31:00.000Z</time>
      </trkpt>
      <trkpt lat="47.71641" lon="5.98631">
        <ele>336.39999389648</ele>
        <time>2014-10-08T08:31:01.000Z</time>
      </trkpt>
      <trkpt lat="47.71646" lon="5.98633">
        <ele>336.79998779297</ele>
        <time>2014-10-08T08:31:02.000Z</time>
      </trkpt>
      <trkpt lat="47.71649" lon="5.98635">
        <ele>337.20001220703</ele>
        <time>2014-10-08T08:31:03.000Z</time>
      </trkpt>
      <trkpt lat="47.71652" lon="5.98638">
        <ele>337.60000610352</ele>
        <time>2014-10-08T08:31:04.000Z</time>
      </trkpt>
      <trkpt lat="47.71664" lon="5.98646">
        <ele>337.60000610352</ele>
        <time>2014-10-08T08:31:07.000Z</time>
      </trkpt>
      <trkpt lat="47.71685" lon="5.98668">
        <ele>337.60000610352</ele>
        <time>2014-10-08T08:31:13.000Z</time>
      </trkpt>
      <trkpt lat="47.7171" lon="5.98685">
        <ele>337.60000610352</ele>
        <time>2014-10-08T08:31:21.000Z</time>
      </trkpt>
      <trkpt lat="47.71731" lon="5.98704">
        <ele>337.60000610352</ele>
        <time>2014-10-08T08:31:27.000Z</time>
      </trkpt>
      <trkpt lat="47.7176" lon="5.98737">
        <ele>337.60000610352</ele>
        <time>2014-10-08T08:31:33.000Z</time>
      </trkpt>
      <trkpt lat="47.71774" lon="5.98756">
        <ele>337.60000610352</ele>
        <time>2014-10-08T08:31:36.000Z</time>
      </trkpt>
      <trkpt lat="47.71783" lon="5.98769">
        <ele>337.60000610352</ele>
        <time>2014-10-08T08:31:38.000Z</time>
      </trkpt>
      <trkpt lat="47.71807" lon="5.98805">
        <ele>337.60000610352</ele>
        <time>2014-10-08T08:31:44.000Z</time>
      </trkpt>
      <trkpt lat="47.71834" lon="5.98835">
        <ele>337.60000610352</ele>
        <time>2014-10-08T08:31:51.000Z</time>
      </trkpt>
      <trkpt lat="47.71852" lon="5.98858">
        <ele>337.60000610352</ele>
        <time>2014-10-08T08:31:57.000Z</time>
      </trkpt>
      <trkpt lat="47.71871" lon="5.98879">
        <ele>337.60000610352</ele>
        <time>2014-10-08T08:32:04.000Z</time>
      </trkpt>
      <trkpt lat="47.71887" lon="5.98893">
        <ele>337.60000610352</ele>
        <time>2014-10-08T08:32:11.000Z</time>
      </trkpt>
      <trkpt lat="47.719" lon="5.98904">
        <ele>337.60000610352</ele>
        <time>2014-10-08T08:32:17.000Z</time>
      </trkpt>
      <trkpt lat="47.71905" lon="5.9891">
        <ele>338</ele>
        <time>2014-10-08T08:32:20.000Z</time>
      </trkpt>
      <trkpt lat="47.71906" lon="5.98913">
        <ele>338.60000610352</ele>
        <time>2014-10-08T08:32:21.000Z</time>
      </trkpt>
      <trkpt lat="47.71906" lon="5.98914">
        <ele>339</ele>
        <time>2014-10-08T08:32:22.000Z</time>
      </trkpt>
      <trkpt lat="47.71907" lon="5.98917">
        <ele>339.39999389648</ele>
        <time>2014-10-08T08:32:23.000Z</time>
      </trkpt>
      <trkpt lat="47.71908" lon="5.98919">
        <ele>339.79998779297</ele>
        <time>2014-10-08T08:32:24.000Z</time>
      </trkpt>
      <trkpt lat="47.71915" lon="5.9893">
        <ele>339.79998779297</ele>
        <time>2014-10-08T08:32:29.000Z</time>
      </trkpt>
      <trkpt lat="47.71917" lon="5.98935">
        <ele>339.79998779297</ele>
        <time>2014-10-08T08:32:31.000Z</time>
      </trkpt>
      <trkpt lat="47.71921" lon="5.98944">
        <ele>339.79998779297</ele>
        <time>2014-10-08T08:32:35.000Z</time>
      </trkpt>
      <trkpt lat="47.71924" lon="5.98949">
        <ele>340.20001220703</ele>
        <time>2014-10-08T08:32:38.000Z</time>
      </trkpt>
      <trkpt lat="47.71926" lon="5.98951">
        <ele>340.60000610352</ele>
        <time>2014-10-08T08:32:39.000Z</time>
      </trkpt>
      <trkpt lat="47.71927" lon="5.98953">
        <ele>341</ele>
        <time>2014-10-08T08:32:40.000Z</time>
      </trkpt>
      <trkpt lat="47.71928" lon="5.98955">
        <ele>341.39999389648</ele>
        <time>2014-10-08T08:32:41.000Z</time>
      </trkpt>
      <trkpt lat="47.71929" lon="5.98957">
        <ele>341.79998779297</ele>
        <time>2014-10-08T08:32:42.000Z</time>
      </trkpt>
      <trkpt lat="47.71931" lon="5.98963">
        <ele>341.79998779297</ele>
        <time>2014-10-08T08:32:44.000Z</time>
      </trkpt>
      <trkpt lat="47.71942" lon="5.98979">
        <ele>341.79998779297</ele>
        <time>2014-10-08T08:32:50.000Z</time>
      </trkpt>
      <trkpt lat="47.7195" lon="5.98994">
        <ele>341.79998779297</ele>
        <time>2014-10-08T08:32:56.000Z</time>
      </trkpt>
      <trkpt lat="47.71952" lon="5.98996">
        <ele>342.20001220703</ele>
        <time>2014-10-08T08:32:57.000Z</time>
      </trkpt>
      <trkpt lat="47.71953" lon="5.98998">
        <ele>342.60000610352</ele>
        <time>2014-10-08T08:32:58.000Z</time>
      </trkpt>
      <trkpt lat="47.71955" lon="5.99">
        <ele>343</ele>
        <time>2014-10-08T08:32:59.000Z</time>
      </trkpt>
      <trkpt lat="47.71956" lon="5.99002">
        <ele>343.39999389648</ele>
        <time>2014-10-08T08:33:00.000Z</time>
      </trkpt>
      <trkpt lat="47.71957" lon="5.99003">
        <ele>343.79998779297</ele>
        <time>2014-10-08T08:33:01.000Z</time>
      </trkpt>
      <trkpt lat="47.71961" lon="5.99006">
        <ele>343.79998779297</ele>
        <time>2014-10-08T08:33:03.000Z</time>
      </trkpt>
      <trkpt lat="47.71974" lon="5.99013">
        <ele>343.79998779297</ele>
        <time>2014-10-08T08:33:10.000Z</time>
      </trkpt>
      <trkpt lat="47.71977" lon="5.99014">
        <ele>343.79998779297</ele>
        <time>2014-10-08T08:33:12.000Z</time>
      </trkpt>
      <trkpt lat="47.71979" lon="5.99014">
        <ele>343.79998779297</ele>
        <time>2014-10-08T08:33:13.000Z</time>
      </trkpt>
      <trkpt lat="47.71992" lon="5.99019">
        <ele>343.79998779297</ele>
        <time>2014-10-08T08:33:18.000Z</time>
      </trkpt>
      <trkpt lat="47.72" lon="5.99022">
        <ele>344.20001220703</ele>
        <time>2014-10-08T08:33:21.000Z</time>
      </trkpt>
      <trkpt lat="47.72003" lon="5.99023">
        <ele>344.79998779297</ele>
        <time>2014-10-08T08:33:22.000Z</time>
      </trkpt>
      <trkpt lat="47.72006" lon="5.99026">
        <ele>345.20001220703</ele>
        <time>2014-10-08T08:33:23.000Z</time>
      </trkpt>
      <trkpt lat="47.72009" lon="5.99028">
        <ele>345.60000610352</ele>
        <time>2014-10-08T08:33:24.000Z</time>
      </trkpt>
      <trkpt lat="47.72012" lon="5.99029">
        <ele>346</ele>
        <time>2014-10-08T08:33:25.000Z</time>
      </trkpt>
      <trkpt lat="47.72024" lon="5.99037">
        <ele>346</ele>
        <time>2014-10-08T08:33:30.000Z</time>
      </trkpt>
      <trkpt lat="47.72043" lon="5.99048">
        <ele>346</ele>
        <time>2014-10-08T08:33:36.000Z</time>
      </trkpt>
      <trkpt lat="47.72053" lon="5.99055">
        <ele>346.79998779297</ele>
        <time>2014-10-08T08:33:41.000Z</time>
      </trkpt>
      <trkpt lat="47.72055" lon="5.99057">
        <ele>347.20001220703</ele>
        <time>2014-10-08T08:33:42.000Z</time>
      </trkpt>
      <trkpt lat="47.72058" lon="5.99059">
        <ele>347.60000610352</ele>
        <time>2014-10-08T08:33:43.000Z</time>
      </trkpt>
      <trkpt lat="47.72061" lon="5.9906">
        <ele>348</ele>
        <time>2014-10-08T08:33:44.000Z</time>
      </trkpt>
      <trkpt lat="47.72074" lon="5.99069">
        <ele>348</ele>
        <time>2014-10-08T08:33:49.000Z</time>
      </trkpt>
      <trkpt lat="47.72085" lon="5.99076">
        <ele>348</ele>
        <time>2014-10-08T08:33:55.000Z</time>
      </trkpt>
      <trkpt lat="47.72092" lon="5.99079">
        <ele>348.39999389648</ele>
        <time>2014-10-08T08:33:58.000Z</time>
      </trkpt>
      <trkpt lat="47.72095" lon="5.99081">
        <ele>348.79998779297</ele>
        <time>2014-10-08T08:33:59.000Z</time>
      </trkpt>
      <trkpt lat="47.72098" lon="5.99083">
        <ele>349.20001220703</ele>
        <time>2014-10-08T08:34:00.000Z</time>
      </trkpt>
      <trkpt lat="47.72101" lon="5.99084">
        <ele>349.79998779297</ele>
        <time>2014-10-08T08:34:01.000Z</time>
      </trkpt>
      <trkpt lat="47.72104" lon="5.99086">
        <ele>350.20001220703</ele>
        <time>2014-10-08T08:34:02.000Z</time>
      </trkpt>
      <trkpt lat="47.72126" lon="5.99095">
        <ele>350.20001220703</ele>
        <time>2014-10-08T08:34:09.000Z</time>
      </trkpt>
      <trkpt lat="47.72147" lon="5.991">
        <ele>350.20001220703</ele>
        <time>2014-10-08T08:34:16.000Z</time>
      </trkpt>
      <trkpt lat="47.72165" lon="5.99101">
        <ele>350.20001220703</ele>
        <time>2014-10-08T08:34:21.000Z</time>
      </trkpt>
      <trkpt lat="47.72184" lon="5.9911">
        <ele>350.20001220703</ele>
        <time>2014-10-08T08:34:27.000Z</time>
      </trkpt>
      <trkpt lat="47.72204" lon="5.99124">
        <ele>350.20001220703</ele>
        <time>2014-10-08T08:34:33.000Z</time>
      </trkpt>
      <trkpt lat="47.72216" lon="5.99136">
        <ele>350.20001220703</ele>
        <time>2014-10-08T08:34:38.000Z</time>
      </trkpt>
      <trkpt lat="47.72223" lon="5.99143">
        <ele>350.60000610352</ele>
        <time>2014-10-08T08:34:41.000Z</time>
      </trkpt>
      <trkpt lat="47.72226" lon="5.99146">
        <ele>351</ele>
        <time>2014-10-08T08:34:42.000Z</time>
      </trkpt>
      <trkpt lat="47.72228" lon="5.99147">
        <ele>351.39999389648</ele>
        <time>2014-10-08T08:34:43.000Z</time>
      </trkpt>
      <trkpt lat="47.72231" lon="5.99149">
        <ele>351.79998779297</ele>
        <time>2014-10-08T08:34:44.000Z</time>
      </trkpt>
      <trkpt lat="47.72234" lon="5.99152">
        <ele>352.20001220703</ele>
        <time>2014-10-08T08:34:45.000Z</time>
      </trkpt>
      <trkpt lat="47.72243" lon="5.99158">
        <ele>352.20001220703</ele>
        <time>2014-10-08T08:34:48.000Z</time>
      </trkpt>
      <trkpt lat="47.7226" lon="5.99166">
        <ele>352.20001220703</ele>
        <time>2014-10-08T08:34:54.000Z</time>
      </trkpt>
      <trkpt lat="47.72277" lon="5.99178">
        <ele>352.20001220703</ele>
        <time>2014-10-08T08:35:01.000Z</time>
      </trkpt>
      <trkpt lat="47.72288" lon="5.99185">
        <ele>352.20001220703</ele>
        <time>2014-10-08T08:35:06.000Z</time>
      </trkpt>
      <trkpt lat="47.72293" lon="5.9918">
        <ele>353</ele>
        <time>2014-10-08T08:37:58.000Z</time>
      </trkpt>
      <trkpt lat="47.72296" lon="5.99171">
        <ele>353</ele>
        <time>2014-10-08T08:38:01.000Z</time>
      </trkpt>
      <trkpt lat="47.72299" lon="5.99167">
        <ele>353</ele>
        <time>2014-10-08T08:38:03.000Z</time>
      </trkpt>
      <trkpt lat="47.72302" lon="5.99161">
        <ele>353</ele>
        <time>2014-10-08T08:38:07.000Z</time>
      </trkpt>
      <trkpt lat="47.72303" lon="5.9916">
        <ele>352.60000610352</ele>
        <time>2014-10-08T08:38:08.000Z</time>
      </trkpt>
      <trkpt lat="47.72303" lon="5.99159">
        <ele>352.20001220703</ele>
        <time>2014-10-08T08:38:09.000Z</time>
      </trkpt>
      <trkpt lat="47.72304" lon="5.99157">
        <ele>351.79998779297</ele>
        <time>2014-10-08T08:38:10.000Z</time>
      </trkpt>
      <trkpt lat="47.72305" lon="5.99156">
        <ele>351.39999389648</ele>
        <time>2014-10-08T08:38:11.000Z</time>
      </trkpt>
      <trkpt lat="47.72305" lon="5.99156">
        <ele>351</ele>
        <time>2014-10-08T08:38:12.000Z</time>
      </trkpt>
      <trkpt lat="47.72308" lon="5.99153">
        <ele>351</ele>
        <time>2014-10-08T08:38:31.000Z</time>
      </trkpt>
      <trkpt lat="47.72315" lon="5.99138">
        <ele>351</ele>
        <time>2014-10-08T08:38:36.000Z</time>
      </trkpt>
      <trkpt lat="47.7232" lon="5.99131">
        <ele>350.60000610352</ele>
        <time>2014-10-08T08:38:39.000Z</time>
      </trkpt>
      <trkpt lat="47.72322" lon="5.99128">
        <ele>350.20001220703</ele>
        <time>2014-10-08T08:38:40.000Z</time>
      </trkpt>
      <trkpt lat="47.72323" lon="5.99126">
        <ele>349.79998779297</ele>
        <time>2014-10-08T08:38:41.000Z</time>
      </trkpt>
      <trkpt lat="47.72324" lon="5.99122">
        <ele>349.39999389648</ele>
        <time>2014-10-08T08:38:42.000Z</time>
      </trkpt>
      <trkpt lat="47.72326" lon="5.99119">
        <ele>349</ele>
        <time>2014-10-08T08:38:43.000Z</time>
      </trkpt>
      <trkpt lat="47.72327" lon="5.99117">
        <ele>349</ele>
        <time>2014-10-08T08:38:44.000Z</time>
      </trkpt>
      <trkpt lat="47.72334" lon="5.99105">
        <ele>348.39999389648</ele>
        <time>2014-10-08T08:38:49.000Z</time>
      </trkpt>
      <trkpt lat="47.72335" lon="5.99102">
        <ele>348</ele>
        <time>2014-10-08T08:38:50.000Z</time>
      </trkpt>
      <trkpt lat="47.72337" lon="5.99099">
        <ele>347.60000610352</ele>
        <time>2014-10-08T08:38:51.000Z</time>
      </trkpt>
      <trkpt lat="47.72338" lon="5.99097">
        <ele>347.20001220703</ele>
        <time>2014-10-08T08:38:52.000Z</time>
      </trkpt>
      <trkpt lat="47.72339" lon="5.99094">
        <ele>346.79998779297</ele>
        <time>2014-10-08T08:38:53.000Z</time>
      </trkpt>
      <trkpt lat="47.72342" lon="5.99087">
        <ele>346.79998779297</ele>
        <time>2014-10-08T08:38:56.000Z</time>
      </trkpt>
      <trkpt lat="47.72343" lon="5.99085">
        <ele>346.39999389648</ele>
        <time>2014-10-08T08:38:57.000Z</time>
      </trkpt>
      <trkpt lat="47.72345" lon="5.99083">
        <ele>346</ele>
        <time>2014-10-08T08:38:58.000Z</time>
      </trkpt>
      <trkpt lat="47.72346" lon="5.99081">
        <ele>345.60000610352</ele>
        <time>2014-10-08T08:38:59.000Z</time>
      </trkpt>
      <trkpt lat="47.72347" lon="5.99079">
        <ele>345</ele>
        <time>2014-10-08T08:39:00.000Z</time>
      </trkpt>
      <trkpt lat="47.72348" lon="5.99076">
        <ele>344.60000610352</ele>
        <time>2014-10-08T08:39:01.000Z</time>
      </trkpt>
      <trkpt lat="47.72352" lon="5.99072">
        <ele>344.20001220703</ele>
        <time>2014-10-08T08:39:05.000Z</time>
      </trkpt>
      <trkpt lat="47.72353" lon="5.99069">
        <ele>343.79998779297</ele>
        <time>2014-10-08T08:39:06.000Z</time>
      </trkpt>
      <trkpt lat="47.72354" lon="5.99067">
        <ele>343.39999389648</ele>
        <time>2014-10-08T08:39:07.000Z</time>
      </trkpt>
      <trkpt lat="47.72355" lon="5.99064">
        <ele>342.79998779297</ele>
        <time>2014-10-08T08:39:08.000Z</time>
      </trkpt>
      <trkpt lat="47.72356" lon="5.99061">
        <ele>342.39999389648</ele>
        <time>2014-10-08T08:39:09.000Z</time>
      </trkpt>
      <trkpt lat="47.72359" lon="5.99054">
        <ele>342.39999389648</ele>
        <time>2014-10-08T08:39:12.000Z</time>
      </trkpt>
      <trkpt lat="47.72361" lon="5.9905">
        <ele>341.20001220703</ele>
        <time>2014-10-08T08:39:16.000Z</time>
      </trkpt>
      <trkpt lat="47.72361" lon="5.99048">
        <ele>340.79998779297</ele>
        <time>2014-10-08T08:39:17.000Z</time>
      </trkpt>
      <trkpt lat="47.72363" lon="5.99045">
        <ele>340.39999389648</ele>
        <time>2014-10-08T08:39:18.000Z</time>
      </trkpt>
      <trkpt lat="47.72366" lon="5.99038">
        <ele>340.39999389648</ele>
        <time>2014-10-08T08:39:21.000Z</time>
      </trkpt>
      <trkpt lat="47.72367" lon="5.99036">
        <ele>340</ele>
        <time>2014-10-08T08:39:22.000Z</time>
      </trkpt>
      <trkpt lat="47.72368" lon="5.99033">
        <ele>339.60000610352</ele>
        <time>2014-10-08T08:39:23.000Z</time>
      </trkpt>
      <trkpt lat="47.72368" lon="5.99031">
        <ele>339</ele>
        <time>2014-10-08T08:39:24.000Z</time>
      </trkpt>
      <trkpt lat="47.72368" lon="5.99028">
        <ele>338.60000610352</ele>
        <time>2014-10-08T08:39:25.000Z</time>
      </trkpt>
      <trkpt lat="47.7237" lon="5.99016">
        <ele>338.20001220703</ele>
        <time>2014-10-08T08:39:33.000Z</time>
      </trkpt>
      <trkpt lat="47.7237" lon="5.99013">
        <ele>337.39999389648</ele>
        <time>2014-10-08T08:39:34.000Z</time>
      </trkpt>
      <trkpt lat="47.72371" lon="5.99011">
        <ele>337</ele>
        <time>2014-10-08T08:39:35.000Z</time>
      </trkpt>
      <trkpt lat="47.72371" lon="5.99008">
        <ele>336.60000610352</ele>
        <time>2014-10-08T08:39:36.000Z</time>
      </trkpt>
      <trkpt lat="47.72372" lon="5.99005">
        <ele>336.20001220703</ele>
        <time>2014-10-08T08:39:37.000Z</time>
      </trkpt>
      <trkpt lat="47.72372" lon="5.99002">
        <ele>336.20001220703</ele>
        <time>2014-10-08T08:39:38.000Z</time>
      </trkpt>
      <trkpt lat="47.72372" lon="5.98996">
        <ele>335.60000610352</ele>
        <time>2014-10-08T08:39:40.000Z</time>
      </trkpt>
      <trkpt lat="47.72372" lon="5.98994">
        <ele>335.20001220703</ele>
        <time>2014-10-08T08:39:41.000Z</time>
      </trkpt>
      <trkpt lat="47.72372" lon="5.98992">
        <ele>334.79998779297</ele>
        <time>2014-10-08T08:39:42.000Z</time>
      </trkpt>
      <trkpt lat="47.72371" lon="5.9899">
        <ele>334.39999389648</ele>
        <time>2014-10-08T08:39:43.000Z</time>
      </trkpt>
      <trkpt lat="47.7237" lon="5.98983">
        <ele>334</ele>
        <time>2014-10-08T08:39:47.000Z</time>
      </trkpt>
      <trkpt lat="47.72369" lon="5.98981">
        <ele>334</ele>
        <time>2014-10-08T08:39:48.000Z</time>
      </trkpt>
      <trkpt lat="47.72367" lon="5.98972">
        <ele>333.39999389648</ele>
        <time>2014-10-08T08:39:52.000Z</time>
      </trkpt>
      <trkpt lat="47.72367" lon="5.98972">
        <ele>333</ele>
        <time>2014-10-08T08:39:53.000Z</time>
      </trkpt>
      <trkpt lat="47.72369" lon="5.98966">
        <ele>331.79998779297</ele>
        <time>2014-10-08T08:40:30.000Z</time>
      </trkpt>
      <trkpt lat="47.72373" lon="5.98965">
        <ele>331.79998779297</ele>
        <time>2014-10-08T08:40:34.000Z</time>
      </trkpt>
      <trkpt lat="47.72378" lon="5.98958">
        <ele>329.79998779297</ele>
        <time>2014-10-08T08:41:40.000Z</time>
      </trkpt>
      <trkpt lat="47.72382" lon="5.98951">
        <ele>329.79998779297</ele>
        <time>2014-10-08T08:41:43.000Z</time>
      </trkpt>
      <trkpt lat="47.72416" lon="5.98928">
        <ele>323.60000610352</ele>
        <time>2014-10-08T08:43:41.000Z</time>
      </trkpt>
      <trkpt lat="47.72418" lon="5.98925">
        <ele>323.60000610352</ele>
        <time>2014-10-08T08:43:42.000Z</time>
      </trkpt>
      <trkpt lat="47.72419" lon="5.98922">
        <ele>323.20001220703</ele>
        <time>2014-10-08T08:43:43.000Z</time>
      </trkpt>
      <trkpt lat="47.72421" lon="5.98919">
        <ele>322.79998779297</ele>
        <time>2014-10-08T08:43:44.000Z</time>
      </trkpt>
      <trkpt lat="47.72422" lon="5.98917">
        <ele>322.39999389648</ele>
        <time>2014-10-08T08:43:45.000Z</time>
      </trkpt>
      <trkpt lat="47.72423" lon="5.98915">
        <ele>322</ele>
        <time>2014-10-08T08:43:46.000Z</time>
      </trkpt>
      <trkpt lat="47.72424" lon="5.98913">
        <ele>321.60000610352</ele>
        <time>2014-10-08T08:43:47.000Z</time>
      </trkpt>
      <trkpt lat="47.72426" lon="5.98909">
        <ele>321.20001220703</ele>
        <time>2014-10-08T08:43:49.000Z</time>
      </trkpt>
      <trkpt lat="47.72428" lon="5.98907">
        <ele>320.60000610352</ele>
        <time>2014-10-08T08:43:50.000Z</time>
      </trkpt>
      <trkpt lat="47.7243" lon="5.98905">
        <ele>320.20001220703</ele>
        <time>2014-10-08T08:43:51.000Z</time>
      </trkpt>
      <trkpt lat="47.72431" lon="5.98903">
        <ele>319.79998779297</ele>
        <time>2014-10-08T08:43:52.000Z</time>
      </trkpt>
      <trkpt lat="47.72433" lon="5.989">
        <ele>319.39999389648</ele>
        <time>2014-10-08T08:43:53.000Z</time>
      </trkpt>
      <trkpt lat="47.72437" lon="5.98896">
        <ele>319</ele>
        <time>2014-10-08T08:43:55.000Z</time>
      </trkpt>
      <trkpt lat="47.72439" lon="5.98893">
        <ele>318.60000610352</ele>
        <time>2014-10-08T08:43:56.000Z</time>
      </trkpt>
      <trkpt lat="47.72441" lon="5.98889">
        <ele>318.20001220703</ele>
        <time>2014-10-08T08:43:57.000Z</time>
      </trkpt>
      <trkpt lat="47.72444" lon="5.98886">
        <ele>317.60000610352</ele>
        <time>2014-10-08T08:43:58.000Z</time>
      </trkpt>
      <trkpt lat="47.72446" lon="5.98884">
        <ele>317.20001220703</ele>
        <time>2014-10-08T08:43:59.000Z</time>
      </trkpt>
      <trkpt lat="47.72447" lon="5.98882">
        <ele>316.79998779297</ele>
        <time>2014-10-08T08:44:00.000Z</time>
      </trkpt>
      <trkpt lat="47.72449" lon="5.98879">
        <ele>316.39999389648</ele>
        <time>2014-10-08T08:44:01.000Z</time>
      </trkpt>
      <trkpt lat="47.7245" lon="5.98877">
        <ele>316</ele>
        <time>2014-10-08T08:44:02.000Z</time>
      </trkpt>
      <trkpt lat="47.72451" lon="5.98875">
        <ele>315.60000610352</ele>
        <time>2014-10-08T08:44:03.000Z</time>
      </trkpt>
      <trkpt lat="47.72452" lon="5.98873">
        <ele>315</ele>
        <time>2014-10-08T08:44:04.000Z</time>
      </trkpt>
      <trkpt lat="47.72455" lon="5.9887">
        <ele>314.60000610352</ele>
        <time>2014-10-08T08:44:07.000Z</time>
      </trkpt>
      <trkpt lat="47.72456" lon="5.98868">
        <ele>314.20001220703</ele>
        <time>2014-10-08T08:44:08.000Z</time>
      </trkpt>
      <trkpt lat="47.72457" lon="5.98866">
        <ele>313.79998779297</ele>
        <time>2014-10-08T08:44:09.000Z</time>
      </trkpt>
      <trkpt lat="47.72458" lon="5.98864">
        <ele>313.20001220703</ele>
        <time>2014-10-08T08:44:10.000Z</time>
      </trkpt>
      <trkpt lat="47.7246" lon="5.98862">
        <ele>312.79998779297</ele>
        <time>2014-10-08T08:44:11.000Z</time>
      </trkpt>
      <trkpt lat="47.72464" lon="5.98855">
        <ele>312.39999389648</ele>
        <time>2014-10-08T08:44:13.000Z</time>
      </trkpt>
      <trkpt lat="47.72465" lon="5.98852">
        <ele>311.79998779297</ele>
        <time>2014-10-08T08:44:14.000Z</time>
      </trkpt>
      <trkpt lat="47.72467" lon="5.98849">
        <ele>311.39999389648</ele>
        <time>2014-10-08T08:44:15.000Z</time>
      </trkpt>
      <trkpt lat="47.72468" lon="5.98846">
        <ele>310.79998779297</ele>
        <time>2014-10-08T08:44:16.000Z</time>
      </trkpt>
      <trkpt lat="47.7247" lon="5.98844">
        <ele>310.39999389648</ele>
        <time>2014-10-08T08:44:17.000Z</time>
      </trkpt>
      <trkpt lat="47.72474" lon="5.98837">
        <ele>310</ele>
        <time>2014-10-08T08:44:19.000Z</time>
      </trkpt>
      <trkpt lat="47.72475" lon="5.98836">
        <ele>309.60000610352</ele>
        <time>2014-10-08T08:44:20.000Z</time>
      </trkpt>
      <trkpt lat="47.72475" lon="5.98834">
        <ele>309.20001220703</ele>
        <time>2014-10-08T08:44:21.000Z</time>
      </trkpt>
      <trkpt lat="47.72479" lon="5.98823">
        <ele>307.79998779297</ele>
        <time>2014-10-08T08:44:37.000Z</time>
      </trkpt>
      <trkpt lat="47.72481" lon="5.98824">
        <ele>307.39999389648</ele>
        <time>2014-10-08T08:44:38.000Z</time>
      </trkpt>
      <trkpt lat="47.72482" lon="5.98824">
        <ele>307</ele>
        <time>2014-10-08T08:44:39.000Z</time>
      </trkpt>
      <trkpt lat="47.72483" lon="5.98824">
        <ele>306.60000610352</ele>
        <time>2014-10-08T08:44:40.000Z</time>
      </trkpt>
      <trkpt lat="47.72484" lon="5.98825">
        <ele>306.20001220703</ele>
        <time>2014-10-08T08:44:41.000Z</time>
      </trkpt>
      <trkpt lat="47.72485" lon="5.98826">
        <ele>306.20001220703</ele>
        <time>2014-10-08T08:44:42.000Z</time>
      </trkpt>
      <trkpt lat="47.72496" lon="5.98835">
        <ele>306.20001220703</ele>
        <time>2014-10-08T08:44:49.000Z</time>
      </trkpt>
      <trkpt lat="47.72499" lon="5.98837">
        <ele>306.20001220703</ele>
        <time>2014-10-08T08:44:50.000Z</time>
      </trkpt>
      <trkpt lat="47.72511" lon="5.98846">
        <ele>306.20001220703</ele>
        <time>2014-10-08T08:44:57.000Z</time>
      </trkpt>
      <trkpt lat="47.72522" lon="5.98859">
        <ele>306.20001220703</ele>
        <time>2014-10-08T08:45:04.000Z</time>
      </trkpt>
      <trkpt lat="47.72531" lon="5.98867">
        <ele>306.20001220703</ele>
        <time>2014-10-08T08:45:09.000Z</time>
      </trkpt>
      <trkpt lat="47.72538" lon="5.98874">
        <ele>306.20001220703</ele>
        <time>2014-10-08T08:45:16.000Z</time>
      </trkpt>
      <trkpt lat="47.72546" lon="5.98882">
        <ele>306.20001220703</ele>
        <time>2014-10-08T08:45:20.000Z</time>
      </trkpt>
      <trkpt lat="47.72564" lon="5.98896">
        <ele>306.20001220703</ele>
        <time>2014-10-08T08:45:28.000Z</time>
      </trkpt>
      <trkpt lat="47.72573" lon="5.989">
        <ele>306.20001220703</ele>
        <time>2014-10-08T08:45:33.000Z</time>
      </trkpt>
      <trkpt lat="47.72586" lon="5.9891">
        <ele>306.20001220703</ele>
        <time>2014-10-08T08:45:40.000Z</time>
      </trkpt>
      <trkpt lat="47.72597" lon="5.98921">
        <ele>306.20001220703</ele>
        <time>2014-10-08T08:45:46.000Z</time>
      </trkpt>
      <trkpt lat="47.72616" lon="5.98924">
        <ele>306.20001220703</ele>
        <time>2014-10-08T08:45:52.000Z</time>
      </trkpt>
      <trkpt lat="47.72634" lon="5.98922">
        <ele>306.20001220703</ele>
        <time>2014-10-08T08:45:57.000Z</time>
      </trkpt>
      <trkpt lat="47.72649" lon="5.98927">
        <ele>306.20001220703</ele>
        <time>2014-10-08T08:46:03.000Z</time>
      </trkpt>
      <trkpt lat="47.72662" lon="5.98935">
        <ele>306.20001220703</ele>
        <time>2014-10-08T08:46:11.000Z</time>
      </trkpt>
      <trkpt lat="47.72672" lon="5.98943">
        <ele>306.20001220703</ele>
        <time>2014-10-08T08:46:18.000Z</time>
      </trkpt>
      <trkpt lat="47.72679" lon="5.98947">
        <ele>306.20001220703</ele>
        <time>2014-10-08T08:46:24.000Z</time>
      </trkpt>
      <trkpt lat="47.72686" lon="5.98954">
        <ele>306.60000610352</ele>
        <time>2014-10-08T08:46:30.000Z</time>
      </trkpt>
      <trkpt lat="47.72688" lon="5.98955">
        <ele>307</ele>
        <time>2014-10-08T08:46:31.000Z</time>
      </trkpt>
      <trkpt lat="47.72689" lon="5.98956">
        <ele>307.39999389648</ele>
        <time>2014-10-08T08:46:32.000Z</time>
      </trkpt>
      <trkpt lat="47.72691" lon="5.98957">
        <ele>308.20001220703</ele>
        <time>2014-10-08T08:46:33.000Z</time>
      </trkpt>
      <trkpt lat="47.72698" lon="5.98959">
        <ele>308.20001220703</ele>
        <time>2014-10-08T08:46:37.000Z</time>
      </trkpt>
      <trkpt lat="47.72706" lon="5.98959">
        <ele>308.20001220703</ele>
        <time>2014-10-08T08:46:41.000Z</time>
      </trkpt>
      <trkpt lat="47.72731" lon="5.98966">
        <ele>308.20001220703</ele>
        <time>2014-10-08T08:48:04.000Z</time>
      </trkpt>
      <trkpt lat="47.72734" lon="5.98967">
        <ele>308.20001220703</ele>
        <time>2014-10-08T08:48:05.000Z</time>
      </trkpt>
      <trkpt lat="47.72749" lon="5.98974">
        <ele>308.20001220703</ele>
        <time>2014-10-08T08:48:11.000Z</time>
      </trkpt>
      <trkpt lat="47.72764" lon="5.9898">
        <ele>308.20001220703</ele>
        <time>2014-10-08T08:48:18.000Z</time>
      </trkpt>
      <trkpt lat="47.7277" lon="5.98982">
        <ele>308.20001220703</ele>
        <time>2014-10-08T08:48:23.000Z</time>
      </trkpt>
      <trkpt lat="47.72782" lon="5.98988">
        <ele>308.20001220703</ele>
        <time>2014-10-08T08:48:32.000Z</time>
      </trkpt>
      <trkpt lat="47.72788" lon="5.98991">
        <ele>308.20001220703</ele>
        <time>2014-10-08T08:48:35.000Z</time>
      </trkpt>
      <trkpt lat="47.72803" lon="5.99">
        <ele>308.20001220703</ele>
        <time>2014-10-08T08:48:41.000Z</time>
      </trkpt>
      <trkpt lat="47.72824" lon="5.99012">
        <ele>308.20001220703</ele>
        <time>2014-10-08T08:48:47.000Z</time>
      </trkpt>
      <trkpt lat="47.72852" lon="5.99026">
        <ele>308.20001220703</ele>
        <time>2014-10-08T08:48:54.000Z</time>
      </trkpt>
      <trkpt lat="47.72872" lon="5.99032">
        <ele>308.20001220703</ele>
        <time>2014-10-08T08:48:59.000Z</time>
      </trkpt>
      <trkpt lat="47.72892" lon="5.99038">
        <ele>308.20001220703</ele>
        <time>2014-10-08T08:49:06.000Z</time>
      </trkpt>
      <trkpt lat="47.72899" lon="5.99043">
        <ele>308.60000610352</ele>
        <time>2014-10-08T08:49:09.000Z</time>
      </trkpt>
      <trkpt lat="47.72901" lon="5.99043">
        <ele>309</ele>
        <time>2014-10-08T08:49:10.000Z</time>
      </trkpt>
      <trkpt lat="47.72902" lon="5.99043">
        <ele>309.39999389648</ele>
        <time>2014-10-08T08:49:11.000Z</time>
      </trkpt>
      <trkpt lat="47.72904" lon="5.99043">
        <ele>309.79998779297</ele>
        <time>2014-10-08T08:49:12.000Z</time>
      </trkpt>
      <trkpt lat="47.72906" lon="5.99042">
        <ele>310.39999389648</ele>
        <time>2014-10-08T08:49:13.000Z</time>
      </trkpt>
      <trkpt lat="47.72912" lon="5.99041">
        <ele>310.39999389648</ele>
        <time>2014-10-08T08:49:16.000Z</time>
      </trkpt>
      <trkpt lat="47.72916" lon="5.99042">
        <ele>310.39999389648</ele>
        <time>2014-10-08T08:49:18.000Z</time>
      </trkpt>
      <trkpt lat="47.72932" lon="5.99038">
        <ele>310.39999389648</ele>
        <time>2014-10-08T08:49:24.000Z</time>
      </trkpt>
      <trkpt lat="47.72955" lon="5.99037">
        <ele>310.39999389648</ele>
        <time>2014-10-08T08:49:31.000Z</time>
      </trkpt>
      <trkpt lat="47.72967" lon="5.99038">
        <ele>310.39999389648</ele>
        <time>2014-10-08T08:49:36.000Z</time>
      </trkpt>
      <trkpt lat="47.72993" lon="5.99046">
        <ele>310.39999389648</ele>
        <time>2014-10-08T08:49:46.000Z</time>
      </trkpt>
      <trkpt lat="47.73012" lon="5.99056">
        <ele>310.39999389648</ele>
        <time>2014-10-08T08:49:52.000Z</time>
      </trkpt>
      <trkpt lat="47.73018" lon="5.99058">
        <ele>310.79998779297</ele>
        <time>2014-10-08T08:49:54.000Z</time>
      </trkpt>
      <trkpt lat="47.73021" lon="5.99058">
        <ele>311.20001220703</ele>
        <time>2014-10-08T08:49:55.000Z</time>
      </trkpt>
      <trkpt lat="47.73023" lon="5.99059">
        <ele>311.60000610352</ele>
        <time>2014-10-08T08:49:56.000Z</time>
      </trkpt>
      <trkpt lat="47.73025" lon="5.9906">
        <ele>312</ele>
        <time>2014-10-08T08:49:57.000Z</time>
      </trkpt>
      <trkpt lat="47.73028" lon="5.99061">
        <ele>312.39999389648</ele>
        <time>2014-10-08T08:49:58.000Z</time>
      </trkpt>
      <trkpt lat="47.73033" lon="5.99064">
        <ele>312.39999389648</ele>
        <time>2014-10-08T08:50:00.000Z</time>
      </trkpt>
      <trkpt lat="47.7305" lon="5.99072">
        <ele>312.39999389648</ele>
        <time>2014-10-08T08:50:06.000Z</time>
      </trkpt>
      <trkpt lat="47.73062" lon="5.99084">
        <ele>312.39999389648</ele>
        <time>2014-10-08T08:50:13.000Z</time>
      </trkpt>
      <trkpt lat="47.73072" lon="5.9909">
        <ele>312.39999389648</ele>
        <time>2014-10-08T08:50:18.000Z</time>
      </trkpt>
      <trkpt lat="47.73084" lon="5.99101">
        <ele>312.39999389648</ele>
        <time>2014-10-08T08:50:24.000Z</time>
      </trkpt>
      <trkpt lat="47.73091" lon="5.99108">
        <ele>312.39999389648</ele>
        <time>2014-10-08T08:50:28.000Z</time>
      </trkpt>
      <trkpt lat="47.73094" lon="5.9911">
        <ele>312.39999389648</ele>
        <time>2014-10-08T08:50:30.000Z</time>
      </trkpt>
      <trkpt lat="47.73114" lon="5.99117">
        <ele>312.39999389648</ele>
        <time>2014-10-08T08:50:38.000Z</time>
      </trkpt>
      <trkpt lat="47.73139" lon="5.99133">
        <ele>312.39999389648</ele>
        <time>2014-10-08T08:50:43.000Z</time>
      </trkpt>
      <trkpt lat="47.73154" lon="5.99145">
        <ele>312.39999389648</ele>
        <time>2014-10-08T08:50:49.000Z</time>
      </trkpt>
      <trkpt lat="47.73167" lon="5.99155">
        <ele>312.39999389648</ele>
        <time>2014-10-08T08:50:56.000Z</time>
      </trkpt>
      <trkpt lat="47.73169" lon="5.99155">
        <ele>312.39999389648</ele>
        <time>2014-10-08T08:50:58.000Z</time>
      </trkpt>
      <trkpt lat="47.73172" lon="5.9916">
        <ele>305.20001220703</ele>
        <time>2014-10-08T08:51:08.000Z</time>
      </trkpt>
      <trkpt lat="47.73173" lon="5.99162">
        <ele>303.39999389648</ele>
        <time>2014-10-08T08:51:09.000Z</time>
      </trkpt>
      <trkpt lat="47.73174" lon="5.99163">
        <ele>301.60000610352</ele>
        <time>2014-10-08T08:51:10.000Z</time>
      </trkpt>
      <trkpt lat="47.73181" lon="5.99171">
        <ele>301.60000610352</ele>
        <time>2014-10-08T08:51:14.000Z</time>
      </trkpt>
      <trkpt lat="47.7319" lon="5.99184">
        <ele>301.20001220703</ele>
        <time>2014-10-08T08:51:19.000Z</time>
      </trkpt>
      <trkpt lat="47.73191" lon="5.99186">
        <ele>300.79998779297</ele>
        <time>2014-10-08T08:51:20.000Z</time>
      </trkpt>
      <trkpt lat="47.73192" lon="5.99189">
        <ele>300.39999389648</ele>
        <time>2014-10-08T08:51:21.000Z</time>
      </trkpt>
      <trkpt lat="47.73194" lon="5.99191">
        <ele>300</ele>
        <time>2014-10-08T08:51:22.000Z</time>
      </trkpt>
      <trkpt lat="47.73195" lon="5.99193">
        <ele>299.60000610352</ele>
        <time>2014-10-08T08:51:23.000Z</time>
      </trkpt>
      <trkpt lat="47.73204" lon="5.99205">
        <ele>299.60000610352</ele>
        <time>2014-10-08T08:51:29.000Z</time>
      </trkpt>
      <trkpt lat="47.73218" lon="5.99222">
        <ele>299.60000610352</ele>
        <time>2014-10-08T08:51:36.000Z</time>
      </trkpt>
      <trkpt lat="47.73231" lon="5.99237">
        <ele>299.60000610352</ele>
        <time>2014-10-08T08:51:43.000Z</time>
      </trkpt>
      <trkpt lat="47.73244" lon="5.9925">
        <ele>299.60000610352</ele>
        <time>2014-10-08T08:51:49.000Z</time>
      </trkpt>
      <trkpt lat="47.73259" lon="5.99262">
        <ele>299.60000610352</ele>
        <time>2014-10-08T08:51:56.000Z</time>
      </trkpt>
      <trkpt lat="47.73274" lon="5.99269">
        <ele>299.60000610352</ele>
        <time>2014-10-08T08:52:03.000Z</time>
      </trkpt>
      <trkpt lat="47.73288" lon="5.99275">
        <ele>299.60000610352</ele>
        <time>2014-10-08T08:52:10.000Z</time>
      </trkpt>
      <trkpt lat="47.73299" lon="5.99279">
        <ele>299.60000610352</ele>
        <time>2014-10-08T08:52:15.000Z</time>
      </trkpt>
      <trkpt lat="47.73318" lon="5.99287">
        <ele>299.60000610352</ele>
        <time>2014-10-08T08:52:22.000Z</time>
      </trkpt>
      <trkpt lat="47.73336" lon="5.99298">
        <ele>299.60000610352</ele>
        <time>2014-10-08T08:52:30.000Z</time>
      </trkpt>
      <trkpt lat="47.73351" lon="5.99309">
        <ele>299.60000610352</ele>
        <time>2014-10-08T08:52:37.000Z</time>
      </trkpt>
      <trkpt lat="47.73355" lon="5.99312">
        <ele>300</ele>
        <time>2014-10-08T08:52:39.000Z</time>
      </trkpt>
      <trkpt lat="47.73358" lon="5.99313">
        <ele>300.39999389648</ele>
        <time>2014-10-08T08:52:40.000Z</time>
      </trkpt>
      <trkpt lat="47.7336" lon="5.99314">
        <ele>300.79998779297</ele>
        <time>2014-10-08T08:52:41.000Z</time>
      </trkpt>
      <trkpt lat="47.73361" lon="5.99315">
        <ele>301.20001220703</ele>
        <time>2014-10-08T08:52:42.000Z</time>
      </trkpt>
      <trkpt lat="47.73363" lon="5.99316">
        <ele>301.60000610352</ele>
        <time>2014-10-08T08:52:43.000Z</time>
      </trkpt>
      <trkpt lat="47.73365" lon="5.99316">
        <ele>301.60000610352</ele>
        <time>2014-10-08T08:52:44.000Z</time>
      </trkpt>
      <trkpt lat="47.73376" lon="5.99323">
        <ele>301.60000610352</ele>
        <time>2014-10-08T08:52:52.000Z</time>
      </trkpt>
      <trkpt lat="47.73389" lon="5.99334">
        <ele>301.60000610352</ele>
        <time>2014-10-08T08:53:00.000Z</time>
      </trkpt>
      <trkpt lat="47.73391" lon="5.99336">
        <ele>302</ele>
        <time>2014-10-08T08:53:02.000Z</time>
      </trkpt>
      <trkpt lat="47.73392" lon="5.99338">
        <ele>302.39999389648</ele>
        <time>2014-10-08T08:53:03.000Z</time>
      </trkpt>
      <trkpt lat="47.73394" lon="5.99339">
        <ele>302.79998779297</ele>
        <time>2014-10-08T08:53:04.000Z</time>
      </trkpt>
      <trkpt lat="47.73395" lon="5.9934">
        <ele>303.20001220703</ele>
        <time>2014-10-08T08:53:05.000Z</time>
      </trkpt>
      <trkpt lat="47.73396" lon="5.99342">
        <ele>303.60000610352</ele>
        <time>2014-10-08T08:53:06.000Z</time>
      </trkpt>
      <trkpt lat="47.734" lon="5.99343">
        <ele>303.60000610352</ele>
        <time>2014-10-08T08:53:08.000Z</time>
      </trkpt>
      <trkpt lat="47.7341" lon="5.99352">
        <ele>303.60000610352</ele>
        <time>2014-10-08T08:53:15.000Z</time>
      </trkpt>
      <trkpt lat="47.73418" lon="5.99357">
        <ele>304</ele>
        <time>2014-10-08T08:53:20.000Z</time>
      </trkpt>
      <trkpt lat="47.73419" lon="5.99359">
        <ele>304.39999389648</ele>
        <time>2014-10-08T08:53:21.000Z</time>
      </trkpt>
      <trkpt lat="47.73421" lon="5.9936">
        <ele>304.79998779297</ele>
        <time>2014-10-08T08:53:22.000Z</time>
      </trkpt>
      <trkpt lat="47.73422" lon="5.99361">
        <ele>305.20001220703</ele>
        <time>2014-10-08T08:53:23.000Z</time>
      </trkpt>
      <trkpt lat="47.73423" lon="5.99362">
        <ele>305.79998779297</ele>
        <time>2014-10-08T08:53:24.000Z</time>
      </trkpt>
      <trkpt lat="47.73428" lon="5.99369">
        <ele>305.79998779297</ele>
        <time>2014-10-08T08:53:28.000Z</time>
      </trkpt>
      <trkpt lat="47.73439" lon="5.99379">
        <ele>305.79998779297</ele>
        <time>2014-10-08T08:53:34.000Z</time>
      </trkpt>
      <trkpt lat="47.73441" lon="5.99381">
        <ele>306.20001220703</ele>
        <time>2014-10-08T08:53:35.000Z</time>
      </trkpt>
      <trkpt lat="47.73443" lon="5.99382">
        <ele>306.60000610352</ele>
        <time>2014-10-08T08:53:36.000Z</time>
      </trkpt>
      <trkpt lat="47.73444" lon="5.99384">
        <ele>307</ele>
        <time>2014-10-08T08:53:37.000Z</time>
      </trkpt>
      <trkpt lat="47.73446" lon="5.99385">
        <ele>307.39999389648</ele>
        <time>2014-10-08T08:53:38.000Z</time>
      </trkpt>
      <trkpt lat="47.73447" lon="5.99387">
        <ele>307.79998779297</ele>
        <time>2014-10-08T08:53:39.000Z</time>
      </trkpt>
      <trkpt lat="47.73451" lon="5.99391">
        <ele>307.79998779297</ele>
        <time>2014-10-08T08:53:42.000Z</time>
      </trkpt>
      <trkpt lat="47.73461" lon="5.99401">
        <ele>307.79998779297</ele>
        <time>2014-10-08T08:53:49.000Z</time>
      </trkpt>
      <trkpt lat="47.7347" lon="5.99411">
        <ele>308.20001220703</ele>
        <time>2014-10-08T08:53:56.000Z</time>
      </trkpt>
      <trkpt lat="47.73472" lon="5.99413">
        <ele>309</ele>
        <time>2014-10-08T08:53:57.000Z</time>
      </trkpt>
      <trkpt lat="47.73473" lon="5.99414">
        <ele>309.39999389648</ele>
        <time>2014-10-08T08:53:58.000Z</time>
      </trkpt>
      <trkpt lat="47.73475" lon="5.99415">
        <ele>309.79998779297</ele>
        <time>2014-10-08T08:53:59.000Z</time>
      </trkpt>
      <trkpt lat="47.7348" lon="5.99423">
        <ele>309.79998779297</ele>
        <time>2014-10-08T08:54:04.000Z</time>
      </trkpt>
      <trkpt lat="47.73482" lon="5.99424">
        <ele>309.79998779297</ele>
        <time>2014-10-08T08:54:05.000Z</time>
      </trkpt>
      <trkpt lat="47.73488" lon="5.99429">
        <ele>309.79998779297</ele>
        <time>2014-10-08T08:54:09.000Z</time>
      </trkpt>
      <trkpt lat="47.73496" lon="5.99439">
        <ele>309.79998779297</ele>
        <time>2014-10-08T08:54:15.000Z</time>
      </trkpt>
      <trkpt lat="47.73499" lon="5.99441">
        <ele>309.79998779297</ele>
        <time>2014-10-08T08:54:17.000Z</time>
      </trkpt>
      <trkpt lat="47.73509" lon="5.99453">
        <ele>309.79998779297</ele>
        <time>2014-10-08T08:54:24.000Z</time>
      </trkpt>
      <trkpt lat="47.73511" lon="5.99456">
        <ele>310.39999389648</ele>
        <time>2014-10-08T08:54:26.000Z</time>
      </trkpt>
      <trkpt lat="47.73512" lon="5.99458">
        <ele>310.79998779297</ele>
        <time>2014-10-08T08:54:27.000Z</time>
      </trkpt>
      <trkpt lat="47.73514" lon="5.99459">
        <ele>311.20001220703</ele>
        <time>2014-10-08T08:54:28.000Z</time>
      </trkpt>
      <trkpt lat="47.73515" lon="5.99461">
        <ele>311.60000610352</ele>
        <time>2014-10-08T08:54:29.000Z</time>
      </trkpt>
      <trkpt lat="47.73516" lon="5.99463">
        <ele>312</ele>
        <time>2014-10-08T08:54:30.000Z</time>
      </trkpt>
      <trkpt lat="47.73529" lon="5.99478">
        <ele>312</ele>
        <time>2014-10-08T08:54:38.000Z</time>
      </trkpt>
      <trkpt lat="47.73546" lon="5.99489">
        <ele>312</ele>
        <time>2014-10-08T08:54:46.000Z</time>
      </trkpt>
      <trkpt lat="47.73566" lon="5.99513">
        <ele>312</ele>
        <time>2014-10-08T08:54:53.000Z</time>
      </trkpt>
      <trkpt lat="47.73582" lon="5.99536">
        <ele>312</ele>
        <time>2014-10-08T08:54:58.000Z</time>
      </trkpt>
      <trkpt lat="47.73587" lon="5.99538">
        <ele>312</ele>
        <time>2014-10-08T08:54:59.000Z</time>
      </trkpt>
      <trkpt lat="47.73612" lon="5.99544">
        <ele>312</ele>
        <time>2014-10-08T08:55:04.000Z</time>
      </trkpt>
      <trkpt lat="47.73622" lon="5.99545">
        <ele>312</ele>
        <time>2014-10-08T08:55:06.000Z</time>
      </trkpt>
      <trkpt lat="47.73635" lon="5.99547">
        <ele>311.60000610352</ele>
        <time>2014-10-08T08:55:09.000Z</time>
      </trkpt>
      <trkpt lat="47.73638" lon="5.9955">
        <ele>311.20001220703</ele>
        <time>2014-10-08T08:55:10.000Z</time>
      </trkpt>
      <trkpt lat="47.73642" lon="5.99552">
        <ele>310.39999389648</ele>
        <time>2014-10-08T08:55:11.000Z</time>
      </trkpt>
      <trkpt lat="47.73645" lon="5.99555">
        <ele>310</ele>
        <time>2014-10-08T08:55:12.000Z</time>
      </trkpt>
      <trkpt lat="47.73654" lon="5.99565">
        <ele>310</ele>
        <time>2014-10-08T08:55:16.000Z</time>
      </trkpt>
      <trkpt lat="47.73662" lon="5.99568">
        <ele>310</ele>
        <time>2014-10-08T08:55:21.000Z</time>
      </trkpt>
      <trkpt lat="47.73665" lon="5.99563">
        <ele>310</ele>
        <time>2014-10-08T08:55:25.000Z</time>
      </trkpt>
      <trkpt lat="47.73664" lon="5.99559">
        <ele>310</ele>
        <time>2014-10-08T08:55:27.000Z</time>
      </trkpt>
      <trkpt lat="47.73665" lon="5.99559">
        <ele>310</ele>
        <time>2014-10-08T08:55:28.000Z</time>
      </trkpt>
      <trkpt lat="47.73663" lon="5.99549">
        <ele>310</ele>
        <time>2014-10-08T08:56:40.000Z</time>
      </trkpt>
      <trkpt lat="47.73662" lon="5.99546">
        <ele>310</ele>
        <time>2014-10-08T08:56:41.000Z</time>
      </trkpt>
      <trkpt lat="47.7366" lon="5.99539">
        <ele>310</ele>
        <time>2014-10-08T08:56:44.000Z</time>
      </trkpt>
      <trkpt lat="47.7366" lon="5.99534">
        <ele>310</ele>
        <time>2014-10-08T08:56:47.000Z</time>
      </trkpt>
      <trkpt lat="47.73658" lon="5.99521">
        <ele>310</ele>
        <time>2014-10-08T08:56:55.000Z</time>
      </trkpt>
      <trkpt lat="47.73658" lon="5.9952">
        <ele>310</ele>
        <time>2014-10-08T08:56:56.000Z</time>
      </trkpt>
      <trkpt lat="47.73653" lon="5.99512">
        <ele>310</ele>
        <time>2014-10-08T08:57:00.000Z</time>
      </trkpt>
      <trkpt lat="47.73651" lon="5.99509">
        <ele>310</ele>
        <time>2014-10-08T08:57:01.000Z</time>
      </trkpt>
      <trkpt lat="47.73646" lon="5.99494">
        <ele>310</ele>
        <time>2014-10-08T08:57:07.000Z</time>
      </trkpt>
      <trkpt lat="47.73635" lon="5.99469">
        <ele>310</ele>
        <time>2014-10-08T08:57:13.000Z</time>
      </trkpt>
      <trkpt lat="47.73618" lon="5.99426">
        <ele>310</ele>
        <time>2014-10-08T08:57:21.000Z</time>
      </trkpt>
      <trkpt lat="47.73615" lon="5.9942">
        <ele>309.39999389648</ele>
        <time>2014-10-08T08:57:22.000Z</time>
      </trkpt>
      <trkpt lat="47.73613" lon="5.99414">
        <ele>308.79998779297</ele>
        <time>2014-10-08T08:57:23.000Z</time>
      </trkpt>
      <trkpt lat="47.7361" lon="5.99408">
        <ele>308.20001220703</ele>
        <time>2014-10-08T08:57:24.000Z</time>
      </trkpt>
      <trkpt lat="47.73608" lon="5.99402">
        <ele>307.60000610352</ele>
        <time>2014-10-08T08:57:25.000Z</time>
      </trkpt>
      <trkpt lat="47.73605" lon="5.99396">
        <ele>307</ele>
        <time>2014-10-08T08:57:26.000Z</time>
      </trkpt>
      <trkpt lat="47.73597" lon="5.99378">
        <ele>307</ele>
        <time>2014-10-08T08:57:29.000Z</time>
      </trkpt>
      <trkpt lat="47.73587" lon="5.99357">
        <ele>307</ele>
        <time>2014-10-08T08:57:33.000Z</time>
      </trkpt>
      <trkpt lat="47.73579" lon="5.99342">
        <ele>307</ele>
        <time>2014-10-08T08:57:36.000Z</time>
      </trkpt>
      <trkpt lat="47.73565" lon="5.99319">
        <ele>306.60000610352</ele>
        <time>2014-10-08T08:57:41.000Z</time>
      </trkpt>
      <trkpt lat="47.73563" lon="5.99315">
        <ele>306</ele>
        <time>2014-10-08T08:57:42.000Z</time>
      </trkpt>
      <trkpt lat="47.7356" lon="5.99311">
        <ele>305.60000610352</ele>
        <time>2014-10-08T08:57:43.000Z</time>
      </trkpt>
      <trkpt lat="47.73557" lon="5.99307">
        <ele>306</ele>
        <time>2014-10-08T08:57:44.000Z</time>
      </trkpt>
      <trkpt lat="47.73554" lon="5.99303">
        <ele>305.79998779297</ele>
        <time>2014-10-08T08:57:45.000Z</time>
      </trkpt>
      <trkpt lat="47.73552" lon="5.99299">
        <ele>305.60000610352</ele>
        <time>2014-10-08T08:57:46.000Z</time>
      </trkpt>
      <trkpt lat="47.73549" lon="5.99295">
        <ele>305.60000610352</ele>
        <time>2014-10-08T08:57:47.000Z</time>
      </trkpt>
      <trkpt lat="47.73546" lon="5.99291">
        <ele>305.39999389648</ele>
        <time>2014-10-08T08:57:48.000Z</time>
      </trkpt>
      <trkpt lat="47.73543" lon="5.99287">
        <ele>305.39999389648</ele>
        <time>2014-10-08T08:57:49.000Z</time>
      </trkpt>
      <trkpt lat="47.73532" lon="5.99272">
        <ele>305.39999389648</ele>
        <time>2014-10-08T08:57:53.000Z</time>
      </trkpt>
      <trkpt lat="47.73508" lon="5.99244">
        <ele>304.79998779297</ele>
        <time>2014-10-08T08:57:59.000Z</time>
      </trkpt>
      <trkpt lat="47.73504" lon="5.99239">
        <ele>304.39999389648</ele>
        <time>2014-10-08T08:58:00.000Z</time>
      </trkpt>
      <trkpt lat="47.73501" lon="5.99232">
        <ele>304</ele>
        <time>2014-10-08T08:58:01.000Z</time>
      </trkpt>
      <trkpt lat="47.73496" lon="5.99225">
        <ele>303.60000610352</ele>
        <time>2014-10-08T08:58:02.000Z</time>
      </trkpt>
      <trkpt lat="47.73493" lon="5.99218">
        <ele>303.20001220703</ele>
        <time>2014-10-08T08:58:03.000Z</time>
      </trkpt>
      <trkpt lat="47.73489" lon="5.9921">
        <ele>303.20001220703</ele>
        <time>2014-10-08T08:58:04.000Z</time>
      </trkpt>
      <trkpt lat="47.73483" lon="5.99194">
        <ele>302.20001220703</ele>
        <time>2014-10-08T08:58:06.000Z</time>
      </trkpt>
      <trkpt lat="47.7348" lon="5.99186">
        <ele>301.79998779297</ele>
        <time>2014-10-08T08:58:07.000Z</time>
      </trkpt>
      <trkpt lat="47.73477" lon="5.99178">
        <ele>301.39999389648</ele>
        <time>2014-10-08T08:58:08.000Z</time>
      </trkpt>
      <trkpt lat="47.73474" lon="5.99169">
        <ele>301</ele>
        <time>2014-10-08T08:58:09.000Z</time>
      </trkpt>
      <trkpt lat="47.73471" lon="5.9916">
        <ele>301</ele>
        <time>2014-10-08T08:58:10.000Z</time>
      </trkpt>
      <trkpt lat="47.73468" lon="5.99151">
        <ele>300.60000610352</ele>
        <time>2014-10-08T08:58:11.000Z</time>
      </trkpt>
      <trkpt lat="47.73464" lon="5.99143">
        <ele>300.20001220703</ele>
        <time>2014-10-08T08:58:12.000Z</time>
      </trkpt>
      <trkpt lat="47.73459" lon="5.99135">
        <ele>299.79998779297</ele>
        <time>2014-10-08T08:58:13.000Z</time>
      </trkpt>
      <trkpt lat="47.73454" lon="5.99126">
        <ele>299.39999389648</ele>
        <time>2014-10-08T08:58:14.000Z</time>
      </trkpt>
      <trkpt lat="47.73449" lon="5.99119">
        <ele>299</ele>
        <time>2014-10-08T08:58:15.000Z</time>
      </trkpt>
      <trkpt lat="47.73432" lon="5.99098">
        <ele>298.60000610352</ele>
        <time>2014-10-08T08:58:18.000Z</time>
      </trkpt>
      <trkpt lat="47.73427" lon="5.99091">
        <ele>298</ele>
        <time>2014-10-08T08:58:19.000Z</time>
      </trkpt>
      <trkpt lat="47.73422" lon="5.99085">
        <ele>297.60000610352</ele>
        <time>2014-10-08T08:58:20.000Z</time>
      </trkpt>
      <trkpt lat="47.73416" lon="5.99079">
        <ele>297.20001220703</ele>
        <time>2014-10-08T08:58:21.000Z</time>
      </trkpt>
      <trkpt lat="47.73411" lon="5.99073">
        <ele>296.79998779297</ele>
        <time>2014-10-08T08:58:22.000Z</time>
      </trkpt>
      <trkpt lat="47.73403" lon="5.99059">
        <ele>296.79998779297</ele>
        <time>2014-10-08T08:58:24.000Z</time>
      </trkpt>
      <trkpt lat="47.73398" lon="5.99042">
        <ele>296.79998779297</ele>
        <time>2014-10-08T08:58:26.000Z</time>
      </trkpt>
      <trkpt lat="47.73399" lon="5.99006">
        <ele>296.79998779297</ele>
        <time>2014-10-08T08:58:30.000Z</time>
      </trkpt>
      <trkpt lat="47.73406" lon="5.98977">
        <ele>296.79998779297</ele>
        <time>2014-10-08T08:58:34.000Z</time>
      </trkpt>
      <trkpt lat="47.73411" lon="5.98942">
        <ele>296.79998779297</ele>
        <time>2014-10-08T08:58:40.000Z</time>
      </trkpt>
      <trkpt lat="47.73411" lon="5.98898">
        <ele>296.79998779297</ele>
        <time>2014-10-08T08:58:48.000Z</time>
      </trkpt>
      <trkpt lat="47.73405" lon="5.98867">
        <ele>296.79998779297</ele>
        <time>2014-10-08T08:58:54.000Z</time>
      </trkpt>
      <trkpt lat="47.73395" lon="5.98839">
        <ele>296.79998779297</ele>
        <time>2014-10-08T08:59:00.000Z</time>
      </trkpt>
      <trkpt lat="47.73391" lon="5.98827">
        <ele>296.79998779297</ele>
        <time>2014-10-08T08:59:02.000Z</time>
      </trkpt>
      <trkpt lat="47.73386" lon="5.98816">
        <ele>296.79998779297</ele>
        <time>2014-10-08T08:59:04.000Z</time>
      </trkpt>
      <trkpt lat="47.73379" lon="5.98805">
        <ele>296.79998779297</ele>
        <time>2014-10-08T08:59:06.000Z</time>
      </trkpt>
      <trkpt lat="47.73372" lon="5.98796">
        <ele>296.79998779297</ele>
        <time>2014-10-08T08:59:08.000Z</time>
      </trkpt>
      <trkpt lat="47.73363" lon="5.98787">
        <ele>296.79998779297</ele>
        <time>2014-10-08T08:59:11.000Z</time>
      </trkpt>
      <trkpt lat="47.73346" lon="5.98768">
        <ele>296.79998779297</ele>
        <time>2014-10-08T08:59:18.000Z</time>
      </trkpt>
      <trkpt lat="47.73338" lon="5.9876">
        <ele>297.20001220703</ele>
        <time>2014-10-08T08:59:22.000Z</time>
      </trkpt>
      <trkpt lat="47.73337" lon="5.98758">
        <ele>297.60000610352</ele>
        <time>2014-10-08T08:59:23.000Z</time>
      </trkpt>
      <trkpt lat="47.73336" lon="5.98755">
        <ele>298</ele>
        <time>2014-10-08T08:59:24.000Z</time>
      </trkpt>
      <trkpt lat="47.73334" lon="5.98753">
        <ele>298.39999389648</ele>
        <time>2014-10-08T08:59:25.000Z</time>
      </trkpt>
      <trkpt lat="47.73333" lon="5.98752">
        <ele>298.79998779297</ele>
        <time>2014-10-08T08:59:26.000Z</time>
      </trkpt>
      <trkpt lat="47.73324" lon="5.98737">
        <ele>298.79998779297</ele>
        <time>2014-10-08T08:59:33.000Z</time>
      </trkpt>
      <trkpt lat="47.7332" lon="5.98722">
        <ele>299.20001220703</ele>
        <time>2014-10-08T08:59:38.000Z</time>
      </trkpt>
      <trkpt lat="47.73319" lon="5.98718">
        <ele>299.60000610352</ele>
        <time>2014-10-08T08:59:39.000Z</time>
      </trkpt>
      <trkpt lat="47.73319" lon="5.98715">
        <ele>300</ele>
        <time>2014-10-08T08:59:40.000Z</time>
      </trkpt>
      <trkpt lat="47.73319" lon="5.98711">
        <ele>300.39999389648</ele>
        <time>2014-10-08T08:59:41.000Z</time>
      </trkpt>
      <trkpt lat="47.73319" lon="5.98708">
        <ele>300.79998779297</ele>
        <time>2014-10-08T08:59:42.000Z</time>
      </trkpt>
      <trkpt lat="47.73318" lon="5.98694">
        <ele>300.79998779297</ele>
        <time>2014-10-08T08:59:47.000Z</time>
      </trkpt>
      <trkpt lat="47.73318" lon="5.98684">
        <ele>301.39999389648</ele>
        <time>2014-10-08T08:59:51.000Z</time>
      </trkpt>
      <trkpt lat="47.73318" lon="5.98681">
        <ele>301.79998779297</ele>
        <time>2014-10-08T08:59:52.000Z</time>
      </trkpt>
      <trkpt lat="47.73318" lon="5.98679">
        <ele>302.20001220703</ele>
        <time>2014-10-08T08:59:53.000Z</time>
      </trkpt>
      <trkpt lat="47.73318" lon="5.98676">
        <ele>302.60000610352</ele>
        <time>2014-10-08T08:59:54.000Z</time>
      </trkpt>
      <trkpt lat="47.73318" lon="5.98674">
        <ele>303</ele>
        <time>2014-10-08T08:59:55.000Z</time>
      </trkpt>
      <trkpt lat="47.73316" lon="5.9867">
        <ele>303</ele>
        <time>2014-10-08T08:59:59.000Z</time>
      </trkpt>
      <trkpt lat="47.73315" lon="5.98639">
        <ele>301</ele>
        <time>2014-10-08T09:05:46.000Z</time>
      </trkpt>
      <trkpt lat="47.73315" lon="5.98636">
        <ele>301</ele>
        <time>2014-10-08T09:05:47.000Z</time>
      </trkpt>
      <trkpt lat="47.73313" lon="5.98628">
        <ele>301.39999389648</ele>
        <time>2014-10-08T09:05:50.000Z</time>
      </trkpt>
      <trkpt lat="47.73312" lon="5.98625">
        <ele>301.79998779297</ele>
        <time>2014-10-08T09:05:51.000Z</time>
      </trkpt>
      <trkpt lat="47.73312" lon="5.98623">
        <ele>302.20001220703</ele>
        <time>2014-10-08T09:05:52.000Z</time>
      </trkpt>
      <trkpt lat="47.73311" lon="5.98621">
        <ele>302.60000610352</ele>
        <time>2014-10-08T09:05:53.000Z</time>
      </trkpt>
      <trkpt lat="47.73311" lon="5.98618">
        <ele>303</ele>
        <time>2014-10-08T09:05:54.000Z</time>
      </trkpt>
      <trkpt lat="47.73307" lon="5.98596">
        <ele>303</ele>
        <time>2014-10-08T09:06:03.000Z</time>
      </trkpt>
      <trkpt lat="47.73304" lon="5.9858">
        <ele>303</ele>
        <time>2014-10-08T09:06:10.000Z</time>
      </trkpt>
      <trkpt lat="47.73304" lon="5.98576">
        <ele>303.39999389648</ele>
        <time>2014-10-08T09:06:12.000Z</time>
      </trkpt>
      <trkpt lat="47.73304" lon="5.98573">
        <ele>303.79998779297</ele>
        <time>2014-10-08T09:06:13.000Z</time>
      </trkpt>
      <trkpt lat="47.73303" lon="5.98571">
        <ele>304.20001220703</ele>
        <time>2014-10-08T09:06:14.000Z</time>
      </trkpt>
      <trkpt lat="47.73302" lon="5.98569">
        <ele>304.79998779297</ele>
        <time>2014-10-08T09:06:15.000Z</time>
      </trkpt>
      <trkpt lat="47.73302" lon="5.98567">
        <ele>305.20001220703</ele>
        <time>2014-10-08T09:06:16.000Z</time>
      </trkpt>
      <trkpt lat="47.733" lon="5.9856">
        <ele>305.20001220703</ele>
        <time>2014-10-08T09:06:19.000Z</time>
      </trkpt>
      <trkpt lat="47.73296" lon="5.98547">
        <ele>305.60000610352</ele>
        <time>2014-10-08T09:06:26.000Z</time>
      </trkpt>
      <trkpt lat="47.73295" lon="5.98546">
        <ele>306</ele>
        <time>2014-10-08T09:06:27.000Z</time>
      </trkpt>
      <trkpt lat="47.73295" lon="5.98544">
        <ele>306.39999389648</ele>
        <time>2014-10-08T09:06:28.000Z</time>
      </trkpt>
      <trkpt lat="47.73295" lon="5.98541">
        <ele>306.79998779297</ele>
        <time>2014-10-08T09:06:29.000Z</time>
      </trkpt>
      <trkpt lat="47.73296" lon="5.98539">
        <ele>307.20001220703</ele>
        <time>2014-10-08T09:06:30.000Z</time>
      </trkpt>
      <trkpt lat="47.73293" lon="5.98534">
        <ele>307.20001220703</ele>
        <time>2014-10-08T09:06:33.000Z</time>
      </trkpt>
      <trkpt lat="47.73291" lon="5.98522">
        <ele>307.20001220703</ele>
        <time>2014-10-08T09:06:40.000Z</time>
      </trkpt>
      <trkpt lat="47.7329" lon="5.98518">
        <ele>307.60000610352</ele>
        <time>2014-10-08T09:06:42.000Z</time>
      </trkpt>
      <trkpt lat="47.7329" lon="5.98515">
        <ele>308</ele>
        <time>2014-10-08T09:06:43.000Z</time>
      </trkpt>
      <trkpt lat="47.73289" lon="5.98514">
        <ele>308.79998779297</ele>
        <time>2014-10-08T09:06:44.000Z</time>
      </trkpt>
      <trkpt lat="47.73289" lon="5.98513">
        <ele>309.20001220703</ele>
        <time>2014-10-08T09:06:45.000Z</time>
      </trkpt>
      <trkpt lat="47.73287" lon="5.98512">
        <ele>309.20001220703</ele>
        <time>2014-10-08T09:06:46.000Z</time>
      </trkpt>
      <trkpt lat="47.73285" lon="5.98502">
        <ele>309.20001220703</ele>
        <time>2014-10-08T09:06:50.000Z</time>
      </trkpt>
      <trkpt lat="47.73285" lon="5.98498">
        <ele>309.20001220703</ele>
        <time>2014-10-08T09:06:52.000Z</time>
      </trkpt>
      <trkpt lat="47.73282" lon="5.98486">
        <ele>309.60000610352</ele>
        <time>2014-10-08T09:06:58.000Z</time>
      </trkpt>
      <trkpt lat="47.73282" lon="5.98484">
        <ele>310</ele>
        <time>2014-10-08T09:06:59.000Z</time>
      </trkpt>
      <trkpt lat="47.73282" lon="5.98482">
        <ele>310.39999389648</ele>
        <time>2014-10-08T09:07:00.000Z</time>
      </trkpt>
      <trkpt lat="47.73283" lon="5.9848">
        <ele>310.79998779297</ele>
        <time>2014-10-08T09:07:01.000Z</time>
      </trkpt>
      <trkpt lat="47.73283" lon="5.98478">
        <ele>311.20001220703</ele>
        <time>2014-10-08T09:07:02.000Z</time>
      </trkpt>
      <trkpt lat="47.73279" lon="5.98469">
        <ele>311.20001220703</ele>
        <time>2014-10-08T09:07:06.000Z</time>
      </trkpt>
      <trkpt lat="47.73275" lon="5.98457">
        <ele>311.20001220703</ele>
        <time>2014-10-08T09:07:12.000Z</time>
      </trkpt>
      <trkpt lat="47.73274" lon="5.98454">
        <ele>311.20001220703</ele>
        <time>2014-10-08T09:07:13.000Z</time>
      </trkpt>
      <trkpt lat="47.73273" lon="5.98452">
        <ele>311.60000610352</ele>
        <time>2014-10-08T09:07:14.000Z</time>
      </trkpt>
      <trkpt lat="47.73273" lon="5.98449">
        <ele>312.20001220703</ele>
        <time>2014-10-08T09:07:15.000Z</time>
      </trkpt>
      <trkpt lat="47.73273" lon="5.98447">
        <ele>312.60000610352</ele>
        <time>2014-10-08T09:07:16.000Z</time>
      </trkpt>
      <trkpt lat="47.73273" lon="5.98444">
        <ele>313</ele>
        <time>2014-10-08T09:07:17.000Z</time>
      </trkpt>
      <trkpt lat="47.73273" lon="5.98442">
        <ele>313.39999389648</ele>
        <time>2014-10-08T09:07:18.000Z</time>
      </trkpt>
      <trkpt lat="47.73272" lon="5.98437">
        <ele>313.39999389648</ele>
        <time>2014-10-08T09:07:20.000Z</time>
      </trkpt>
      <trkpt lat="47.73269" lon="5.98426">
        <ele>313.39999389648</ele>
        <time>2014-10-08T09:07:26.000Z</time>
      </trkpt>
      <trkpt lat="47.73268" lon="5.98422">
        <ele>313.79998779297</ele>
        <time>2014-10-08T09:07:28.000Z</time>
      </trkpt>
      <trkpt lat="47.73268" lon="5.9842">
        <ele>314.20001220703</ele>
        <time>2014-10-08T09:07:29.000Z</time>
      </trkpt>
      <trkpt lat="47.73268" lon="5.9842">
        <ele>314.60000610352</ele>
        <time>2014-10-08T09:07:30.000Z</time>
      </trkpt>
      <trkpt lat="47.73267" lon="5.98416">
        <ele>315</ele>
        <time>2014-10-08T09:07:31.000Z</time>
      </trkpt>
      <trkpt lat="47.73266" lon="5.98414">
        <ele>315.60000610352</ele>
        <time>2014-10-08T09:07:32.000Z</time>
      </trkpt>
      <trkpt lat="47.73266" lon="5.98408">
        <ele>315.60000610352</ele>
        <time>2014-10-08T09:07:35.000Z</time>
      </trkpt>
      <trkpt lat="47.73267" lon="5.98396">
        <ele>315.60000610352</ele>
        <time>2014-10-08T09:07:41.000Z</time>
      </trkpt>
      <trkpt lat="47.73265" lon="5.98389">
        <ele>316</ele>
        <time>2014-10-08T09:07:46.000Z</time>
      </trkpt>
      <trkpt lat="47.73265" lon="5.98387">
        <ele>316.39999389648</ele>
        <time>2014-10-08T09:07:47.000Z</time>
      </trkpt>
      <trkpt lat="47.73264" lon="5.98384">
        <ele>316.79998779297</ele>
        <time>2014-10-08T09:07:48.000Z</time>
      </trkpt>
      <trkpt lat="47.73263" lon="5.9838">
        <ele>317.20001220703</ele>
        <time>2014-10-08T09:07:49.000Z</time>
      </trkpt>
      <trkpt lat="47.73263" lon="5.98378">
        <ele>317.60000610352</ele>
        <time>2014-10-08T09:07:50.000Z</time>
      </trkpt>
      <trkpt lat="47.73263" lon="5.98362">
        <ele>317.60000610352</ele>
        <time>2014-10-08T09:07:57.000Z</time>
      </trkpt>
      <trkpt lat="47.73263" lon="5.98352">
        <ele>318</ele>
        <time>2014-10-08T09:08:02.000Z</time>
      </trkpt>
      <trkpt lat="47.73262" lon="5.98348">
        <ele>318.39999389648</ele>
        <time>2014-10-08T09:08:03.000Z</time>
      </trkpt>
      <trkpt lat="47.73262" lon="5.98346">
        <ele>318.79998779297</ele>
        <time>2014-10-08T09:08:04.000Z</time>
      </trkpt>
      <trkpt lat="47.73262" lon="5.98345">
        <ele>319.20001220703</ele>
        <time>2014-10-08T09:08:05.000Z</time>
      </trkpt>
      <trkpt lat="47.73262" lon="5.98344">
        <ele>319.60000610352</ele>
        <time>2014-10-08T09:08:06.000Z</time>
      </trkpt>
      <trkpt lat="47.73262" lon="5.98342">
        <ele>319.60000610352</ele>
        <time>2014-10-08T09:08:07.000Z</time>
      </trkpt>
      <trkpt lat="47.7326" lon="5.98322">
        <ele>319.60000610352</ele>
        <time>2014-10-08T09:08:14.000Z</time>
      </trkpt>
      <trkpt lat="47.73259" lon="5.98304">
        <ele>320</ele>
        <time>2014-10-08T09:08:20.000Z</time>
      </trkpt>
      <trkpt lat="47.73259" lon="5.98301">
        <ele>320.39999389648</ele>
        <time>2014-10-08T09:08:21.000Z</time>
      </trkpt>
      <trkpt lat="47.73259" lon="5.98298">
        <ele>321.39999389648</ele>
        <time>2014-10-08T09:08:22.000Z</time>
      </trkpt>
      <trkpt lat="47.73258" lon="5.98295">
        <ele>321.79998779297</ele>
        <time>2014-10-08T09:08:23.000Z</time>
      </trkpt>
      <trkpt lat="47.73256" lon="5.98273">
        <ele>322.20001220703</ele>
        <time>2014-10-08T09:08:33.000Z</time>
      </trkpt>
      <trkpt lat="47.73256" lon="5.9827">
        <ele>322.60000610352</ele>
        <time>2014-10-08T09:08:34.000Z</time>
      </trkpt>
      <trkpt lat="47.73256" lon="5.98268">
        <ele>323</ele>
        <time>2014-10-08T09:08:35.000Z</time>
      </trkpt>
      <trkpt lat="47.73256" lon="5.98266">
        <ele>323.39999389648</ele>
        <time>2014-10-08T09:08:36.000Z</time>
      </trkpt>
      <trkpt lat="47.73256" lon="5.98264">
        <ele>323.79998779297</ele>
        <time>2014-10-08T09:08:37.000Z</time>
      </trkpt>
      <trkpt lat="47.73256" lon="5.98255">
        <ele>323.79998779297</ele>
        <time>2014-10-08T09:08:41.000Z</time>
      </trkpt>
      <trkpt lat="47.73256" lon="5.98242">
        <ele>324.60000610352</ele>
        <time>2014-10-08T09:08:47.000Z</time>
      </trkpt>
      <trkpt lat="47.73257" lon="5.9824">
        <ele>325</ele>
        <time>2014-10-08T09:08:48.000Z</time>
      </trkpt>
      <trkpt lat="47.73257" lon="5.98237">
        <ele>325.39999389648</ele>
        <time>2014-10-08T09:08:49.000Z</time>
      </trkpt>
      <trkpt lat="47.73257" lon="5.98234">
        <ele>325.79998779297</ele>
        <time>2014-10-08T09:08:50.000Z</time>
      </trkpt>
      <trkpt lat="47.73258" lon="5.98224">
        <ele>325.79998779297</ele>
        <time>2014-10-08T09:08:54.000Z</time>
      </trkpt>
      <trkpt lat="47.73257" lon="5.98209">
        <ele>326.20001220703</ele>
        <time>2014-10-08T09:09:00.000Z</time>
      </trkpt>
      <trkpt lat="47.73257" lon="5.98207">
        <ele>326.79998779297</ele>
        <time>2014-10-08T09:09:01.000Z</time>
      </trkpt>
      <trkpt lat="47.73257" lon="5.98204">
        <ele>327.20001220703</ele>
        <time>2014-10-08T09:09:02.000Z</time>
      </trkpt>
      <trkpt lat="47.73257" lon="5.98202">
        <ele>327.60000610352</ele>
        <time>2014-10-08T09:09:03.000Z</time>
      </trkpt>
      <trkpt lat="47.73257" lon="5.98199">
        <ele>328</ele>
        <time>2014-10-08T09:09:04.000Z</time>
      </trkpt>
      <trkpt lat="47.73259" lon="5.98182">
        <ele>328</ele>
        <time>2014-10-08T09:09:11.000Z</time>
      </trkpt>
      <trkpt lat="47.73258" lon="5.9818">
        <ele>328.79998779297</ele>
        <time>2014-10-08T09:09:12.000Z</time>
      </trkpt>
      <trkpt lat="47.73259" lon="5.98178">
        <ele>329.20001220703</ele>
        <time>2014-10-08T09:09:13.000Z</time>
      </trkpt>
      <trkpt lat="47.73259" lon="5.98176">
        <ele>329.60000610352</ele>
        <time>2014-10-08T09:09:14.000Z</time>
      </trkpt>
      <trkpt lat="47.7326" lon="5.98174">
        <ele>330</ele>
        <time>2014-10-08T09:09:15.000Z</time>
      </trkpt>
      <trkpt lat="47.7326" lon="5.98167">
        <ele>330</ele>
        <time>2014-10-08T09:09:18.000Z</time>
      </trkpt>
      <trkpt lat="47.73261" lon="5.9815">
        <ele>330.39999389648</ele>
        <time>2014-10-08T09:09:25.000Z</time>
      </trkpt>
      <trkpt lat="47.73261" lon="5.98148">
        <ele>330.79998779297</ele>
        <time>2014-10-08T09:09:26.000Z</time>
      </trkpt>
      <trkpt lat="47.73262" lon="5.98146">
        <ele>331.20001220703</ele>
        <time>2014-10-08T09:09:27.000Z</time>
      </trkpt>
      <trkpt lat="47.73262" lon="5.98144">
        <ele>331.60000610352</ele>
        <time>2014-10-08T09:09:28.000Z</time>
      </trkpt>
      <trkpt lat="47.73262" lon="5.98142">
        <ele>332</ele>
        <time>2014-10-08T09:09:29.000Z</time>
      </trkpt>
      <trkpt lat="47.73264" lon="5.98128">
        <ele>332</ele>
        <time>2014-10-08T09:09:35.000Z</time>
      </trkpt>
      <trkpt lat="47.73264" lon="5.98114">
        <ele>332.39999389648</ele>
        <time>2014-10-08T09:09:42.000Z</time>
      </trkpt>
      <trkpt lat="47.73264" lon="5.98112">
        <ele>332.79998779297</ele>
        <time>2014-10-08T09:09:43.000Z</time>
      </trkpt>
      <trkpt lat="47.73264" lon="5.9811">
        <ele>333.20001220703</ele>
        <time>2014-10-08T09:09:44.000Z</time>
      </trkpt>
      <trkpt lat="47.73264" lon="5.98108">
        <ele>333.60000610352</ele>
        <time>2014-10-08T09:09:45.000Z</time>
      </trkpt>
      <trkpt lat="47.73265" lon="5.98106">
        <ele>334</ele>
        <time>2014-10-08T09:09:46.000Z</time>
      </trkpt>
      <trkpt lat="47.73266" lon="5.98096">
        <ele>334</ele>
        <time>2014-10-08T09:09:52.000Z</time>
      </trkpt>
      <trkpt lat="47.73267" lon="5.98082">
        <ele>334</ele>
        <time>2014-10-08T09:09:58.000Z</time>
      </trkpt>
      <trkpt lat="47.73266" lon="5.98075">
        <ele>334.39999389648</ele>
        <time>2014-10-08T09:10:01.000Z</time>
      </trkpt>
      <trkpt lat="47.73267" lon="5.98072">
        <ele>335.20001220703</ele>
        <time>2014-10-08T09:10:02.000Z</time>
      </trkpt>
      <trkpt lat="47.73267" lon="5.9807">
        <ele>335.60000610352</ele>
        <time>2014-10-08T09:10:03.000Z</time>
      </trkpt>
      <trkpt lat="47.73267" lon="5.98067">
        <ele>336</ele>
        <time>2014-10-08T09:10:04.000Z</time>
      </trkpt>
      <trkpt lat="47.73267" lon="5.98066">
        <ele>336</ele>
        <time>2014-10-08T09:10:05.000Z</time>
      </trkpt>
      <trkpt lat="47.7327" lon="5.98053">
        <ele>336</ele>
        <time>2014-10-08T09:10:12.000Z</time>
      </trkpt>
      <trkpt lat="47.73271" lon="5.98052">
        <ele>336.39999389648</ele>
        <time>2014-10-08T09:10:13.000Z</time>
      </trkpt>
      <trkpt lat="47.73272" lon="5.98051">
        <ele>337</ele>
        <time>2014-10-08T09:10:14.000Z</time>
      </trkpt>
      <trkpt lat="47.73272" lon="5.9805">
        <ele>337.39999389648</ele>
        <time>2014-10-08T09:10:15.000Z</time>
      </trkpt>
      <trkpt lat="47.73273" lon="5.9805">
        <ele>337.79998779297</ele>
        <time>2014-10-08T09:10:16.000Z</time>
      </trkpt>
      <trkpt lat="47.73274" lon="5.9805">
        <ele>338.20001220703</ele>
        <time>2014-10-08T09:10:17.000Z</time>
      </trkpt>
      <trkpt lat="47.73276" lon="5.98051">
        <ele>338.20001220703</ele>
        <time>2014-10-08T09:10:18.000Z</time>
      </trkpt>
      <trkpt lat="47.73279" lon="5.98052">
        <ele>338.20001220703</ele>
        <time>2014-10-08T09:10:22.000Z</time>
      </trkpt>
      <trkpt lat="47.73281" lon="5.98055">
        <ele>338.20001220703</ele>
        <time>2014-10-08T09:10:24.000Z</time>
      </trkpt>
      <trkpt lat="47.73289" lon="5.98069">
        <ele>338.20001220703</ele>
        <time>2014-10-08T09:10:33.000Z</time>
      </trkpt>
      <trkpt lat="47.73298" lon="5.98078">
        <ele>338.20001220703</ele>
        <time>2014-10-08T09:10:40.000Z</time>
      </trkpt>
      <trkpt lat="47.73306" lon="5.98084">
        <ele>338.20001220703</ele>
        <time>2014-10-08T09:10:46.000Z</time>
      </trkpt>
      <trkpt lat="47.73321" lon="5.981">
        <ele>338.60000610352</ele>
        <time>2014-10-08T09:10:56.000Z</time>
      </trkpt>
      <trkpt lat="47.73322" lon="5.98102">
        <ele>339</ele>
        <time>2014-10-08T09:10:57.000Z</time>
      </trkpt>
      <trkpt lat="47.73324" lon="5.98103">
        <ele>339.39999389648</ele>
        <time>2014-10-08T09:10:58.000Z</time>
      </trkpt>
      <trkpt lat="47.73326" lon="5.98105">
        <ele>339.79998779297</ele>
        <time>2014-10-08T09:10:59.000Z</time>
      </trkpt>
      <trkpt lat="47.73327" lon="5.98107">
        <ele>340.20001220703</ele>
        <time>2014-10-08T09:11:00.000Z</time>
      </trkpt>
      <trkpt lat="47.73332" lon="5.98112">
        <ele>340.20001220703</ele>
        <time>2014-10-08T09:11:03.000Z</time>
      </trkpt>
      <trkpt lat="47.73342" lon="5.98124">
        <ele>340.20001220703</ele>
        <time>2014-10-08T09:11:11.000Z</time>
      </trkpt>
      <trkpt lat="47.73354" lon="5.98134">
        <ele>340.20001220703</ele>
        <time>2014-10-08T09:11:18.000Z</time>
      </trkpt>
      <trkpt lat="47.73362" lon="5.98142">
        <ele>340.20001220703</ele>
        <time>2014-10-08T09:11:23.000Z</time>
      </trkpt>
      <trkpt lat="47.73369" lon="5.98146">
        <ele>340.20001220703</ele>
        <time>2014-10-08T09:11:29.000Z</time>
      </trkpt>
      <trkpt lat="47.73372" lon="5.98146">
        <ele>340.60000610352</ele>
        <time>2014-10-08T09:11:31.000Z</time>
      </trkpt>
      <trkpt lat="47.73373" lon="5.98146">
        <ele>341</ele>
        <time>2014-10-08T09:11:32.000Z</time>
      </trkpt>
      <trkpt lat="47.73374" lon="5.98146">
        <ele>341.60000610352</ele>
        <time>2014-10-08T09:11:33.000Z</time>
      </trkpt>
      <trkpt lat="47.73376" lon="5.98145">
        <ele>342</ele>
        <time>2014-10-08T09:11:34.000Z</time>
      </trkpt>
      <trkpt lat="47.73377" lon="5.98145">
        <ele>342.39999389648</ele>
        <time>2014-10-08T09:11:35.000Z</time>
      </trkpt>
      <trkpt lat="47.7338" lon="5.98144">
        <ele>342.39999389648</ele>
        <time>2014-10-08T09:11:37.000Z</time>
      </trkpt>
      <trkpt lat="47.73389" lon="5.98143">
        <ele>342.39999389648</ele>
        <time>2014-10-08T09:11:44.000Z</time>
      </trkpt>
      <trkpt lat="47.7339" lon="5.98143">
        <ele>342.79998779297</ele>
        <time>2014-10-08T09:11:45.000Z</time>
      </trkpt>
      <trkpt lat="47.73391" lon="5.98143">
        <ele>343.20001220703</ele>
        <time>2014-10-08T09:11:46.000Z</time>
      </trkpt>
      <trkpt lat="47.73393" lon="5.98142">
        <ele>343.60000610352</ele>
        <time>2014-10-08T09:11:47.000Z</time>
      </trkpt>
      <trkpt lat="47.73395" lon="5.98141">
        <ele>344.20001220703</ele>
        <time>2014-10-08T09:11:48.000Z</time>
      </trkpt>
      <trkpt lat="47.73397" lon="5.98141">
        <ele>344.60000610352</ele>
        <time>2014-10-08T09:11:49.000Z</time>
      </trkpt>
      <trkpt lat="47.734" lon="5.98139">
        <ele>344.60000610352</ele>
        <time>2014-10-08T09:11:51.000Z</time>
      </trkpt>
      <trkpt lat="47.73408" lon="5.98132">
        <ele>344.60000610352</ele>
        <time>2014-10-08T09:11:58.000Z</time>
      </trkpt>
      <trkpt lat="47.73409" lon="5.98131">
        <ele>345</ele>
        <time>2014-10-08T09:11:59.000Z</time>
      </trkpt>
      <trkpt lat="47.7341" lon="5.9813">
        <ele>345.39999389648</ele>
        <time>2014-10-08T09:12:00.000Z</time>
      </trkpt>
      <trkpt lat="47.73411" lon="5.9813">
        <ele>345.79998779297</ele>
        <time>2014-10-08T09:12:01.000Z</time>
      </trkpt>
      <trkpt lat="47.73412" lon="5.98129">
        <ele>346.20001220703</ele>
        <time>2014-10-08T09:12:02.000Z</time>
      </trkpt>
      <trkpt lat="47.73413" lon="5.98128">
        <ele>346.60000610352</ele>
        <time>2014-10-08T09:12:03.000Z</time>
      </trkpt>
      <trkpt lat="47.73417" lon="5.98125">
        <ele>346.60000610352</ele>
        <time>2014-10-08T09:12:06.000Z</time>
      </trkpt>
      <trkpt lat="47.73422" lon="5.98119">
        <ele>346.60000610352</ele>
        <time>2014-10-08T09:12:12.000Z</time>
      </trkpt>
      <trkpt lat="47.73424" lon="5.98116">
        <ele>347</ele>
        <time>2014-10-08T09:12:14.000Z</time>
      </trkpt>
      <trkpt lat="47.73425" lon="5.98115">
        <ele>347.39999389648</ele>
        <time>2014-10-08T09:12:15.000Z</time>
      </trkpt>
      <trkpt lat="47.73426" lon="5.98113">
        <ele>347.79998779297</ele>
        <time>2014-10-08T09:12:16.000Z</time>
      </trkpt>
      <trkpt lat="47.73427" lon="5.98112">
        <ele>348.39999389648</ele>
        <time>2014-10-08T09:12:17.000Z</time>
      </trkpt>
      <trkpt lat="47.73428" lon="5.98111">
        <ele>348.79998779297</ele>
        <time>2014-10-08T09:12:18.000Z</time>
      </trkpt>
      <trkpt lat="47.73429" lon="5.9811">
        <ele>348.79998779297</ele>
        <time>2014-10-08T09:12:19.000Z</time>
      </trkpt>
      <trkpt lat="47.73436" lon="5.98104">
        <ele>348.79998779297</ele>
        <time>2014-10-08T09:12:26.000Z</time>
      </trkpt>
      <trkpt lat="47.73443" lon="5.98099">
        <ele>348.79998779297</ele>
        <time>2014-10-08T09:12:34.000Z</time>
      </trkpt>
      <trkpt lat="47.73445" lon="5.98097">
        <ele>349.20001220703</ele>
        <time>2014-10-08T09:12:36.000Z</time>
      </trkpt>
      <trkpt lat="47.73446" lon="5.98097">
        <ele>349.60000610352</ele>
        <time>2014-10-08T09:12:37.000Z</time>
      </trkpt>
      <trkpt lat="47.73447" lon="5.98096">
        <ele>350</ele>
        <time>2014-10-08T09:12:38.000Z</time>
      </trkpt>
      <trkpt lat="47.73449" lon="5.98095">
        <ele>350.39999389648</ele>
        <time>2014-10-08T09:12:39.000Z</time>
      </trkpt>
      <trkpt lat="47.7345" lon="5.98095">
        <ele>350.79998779297</ele>
        <time>2014-10-08T09:12:40.000Z</time>
      </trkpt>
      <trkpt lat="47.73456" lon="5.98088">
        <ele>350.79998779297</ele>
        <time>2014-10-08T09:12:47.000Z</time>
      </trkpt>
      <trkpt lat="47.73464" lon="5.9808">
        <ele>350.79998779297</ele>
        <time>2014-10-08T09:12:54.000Z</time>
      </trkpt>
      <trkpt lat="47.73467" lon="5.98076">
        <ele>351.20001220703</ele>
        <time>2014-10-08T09:12:57.000Z</time>
      </trkpt>
      <trkpt lat="47.73468" lon="5.98075">
        <ele>351.60000610352</ele>
        <time>2014-10-08T09:12:58.000Z</time>
      </trkpt>
      <trkpt lat="47.73469" lon="5.98074">
        <ele>352</ele>
        <time>2014-10-08T09:12:59.000Z</time>
      </trkpt>
      <trkpt lat="47.7347" lon="5.98073">
        <ele>352.39999389648</ele>
        <time>2014-10-08T09:13:00.000Z</time>
      </trkpt>
      <trkpt lat="47.73472" lon="5.98072">
        <ele>352.79998779297</ele>
        <time>2014-10-08T09:13:01.000Z</time>
      </trkpt>
      <trkpt lat="47.73481" lon="5.98066">
        <ele>352.79998779297</ele>
        <time>2014-10-08T09:13:09.000Z</time>
      </trkpt>
      <trkpt lat="47.73488" lon="5.98063">
        <ele>353.20001220703</ele>
        <time>2014-10-08T09:13:15.000Z</time>
      </trkpt>
      <trkpt lat="47.7349" lon="5.98063">
        <ele>353.60000610352</ele>
        <time>2014-10-08T09:13:16.000Z</time>
      </trkpt>
      <trkpt lat="47.73491" lon="5.98063">
        <ele>354</ele>
        <time>2014-10-08T09:13:17.000Z</time>
      </trkpt>
      <trkpt lat="47.73492" lon="5.98063">
        <ele>354.39999389648</ele>
        <time>2014-10-08T09:13:18.000Z</time>
      </trkpt>
      <trkpt lat="47.73493" lon="5.98063">
        <ele>354.79998779297</ele>
        <time>2014-10-08T09:13:19.000Z</time>
      </trkpt>
      <trkpt lat="47.73499" lon="5.98061">
        <ele>354.79998779297</ele>
        <time>2014-10-08T09:13:24.000Z</time>
      </trkpt>
      <trkpt lat="47.73506" lon="5.98055">
        <ele>354.79998779297</ele>
        <time>2014-10-08T09:13:33.000Z</time>
      </trkpt>
      <trkpt lat="47.73508" lon="5.98054">
        <ele>355.20001220703</ele>
        <time>2014-10-08T09:13:34.000Z</time>
      </trkpt>
      <trkpt lat="47.73509" lon="5.98054">
        <ele>355.60000610352</ele>
        <time>2014-10-08T09:13:35.000Z</time>
      </trkpt>
      <trkpt lat="47.7351" lon="5.98054">
        <ele>356.20001220703</ele>
        <time>2014-10-08T09:13:36.000Z</time>
      </trkpt>
      <trkpt lat="47.7351" lon="5.98054">
        <ele>356.60000610352</ele>
        <time>2014-10-08T09:13:37.000Z</time>
      </trkpt>
      <trkpt lat="47.73511" lon="5.98053">
        <ele>357</ele>
        <time>2014-10-08T09:13:38.000Z</time>
      </trkpt>
      <trkpt lat="47.73514" lon="5.98051">
        <ele>357</ele>
        <time>2014-10-08T09:13:41.000Z</time>
      </trkpt>
      <trkpt lat="47.73523" lon="5.98049">
        <ele>357</ele>
        <time>2014-10-08T09:13:48.000Z</time>
      </trkpt>
      <trkpt lat="47.73535" lon="5.98042">
        <ele>357</ele>
        <time>2014-10-08T09:13:55.000Z</time>
      </trkpt>
      <trkpt lat="47.73537" lon="5.98042">
        <ele>357.39999389648</ele>
        <time>2014-10-08T09:13:56.000Z</time>
      </trkpt>
      <trkpt lat="47.73538" lon="5.98041">
        <ele>357.79998779297</ele>
        <time>2014-10-08T09:13:57.000Z</time>
      </trkpt>
      <trkpt lat="47.73539" lon="5.9804">
        <ele>358.20001220703</ele>
        <time>2014-10-08T09:13:58.000Z</time>
      </trkpt>
      <trkpt lat="47.7354" lon="5.9804">
        <ele>358.60000610352</ele>
        <time>2014-10-08T09:13:59.000Z</time>
      </trkpt>
      <trkpt lat="47.73541" lon="5.9804">
        <ele>359</ele>
        <time>2014-10-08T09:14:00.000Z</time>
      </trkpt>
      <trkpt lat="47.73545" lon="5.98039">
        <ele>359</ele>
        <time>2014-10-08T09:14:03.000Z</time>
      </trkpt>
      <trkpt lat="47.7356" lon="5.98032">
        <ele>359</ele>
        <time>2014-10-08T09:14:10.000Z</time>
      </trkpt>
      <trkpt lat="47.73578" lon="5.98025">
        <ele>359.39999389648</ele>
        <time>2014-10-08T09:14:17.000Z</time>
      </trkpt>
      <trkpt lat="47.73581" lon="5.98023">
        <ele>359.79998779297</ele>
        <time>2014-10-08T09:14:18.000Z</time>
      </trkpt>
      <trkpt lat="47.73584" lon="5.98021">
        <ele>360.20001220703</ele>
        <time>2014-10-08T09:14:19.000Z</time>
      </trkpt>
      <trkpt lat="47.73587" lon="5.98019">
        <ele>360.79998779297</ele>
        <time>2014-10-08T09:14:20.000Z</time>
      </trkpt>
      <trkpt lat="47.73589" lon="5.98017">
        <ele>361.20001220703</ele>
        <time>2014-10-08T09:14:21.000Z</time>
      </trkpt>
      <trkpt lat="47.73594" lon="5.98014">
        <ele>361.20001220703</ele>
        <time>2014-10-08T09:14:23.000Z</time>
      </trkpt>
      <trkpt lat="47.73607" lon="5.98007">
        <ele>361.20001220703</ele>
        <time>2014-10-08T09:14:29.000Z</time>
      </trkpt>
      <trkpt lat="47.73623" lon="5.98001">
        <ele>361.20001220703</ele>
        <time>2014-10-08T09:14:36.000Z</time>
      </trkpt>
      <trkpt lat="47.73627" lon="5.98">
        <ele>361.60000610352</ele>
        <time>2014-10-08T09:14:38.000Z</time>
      </trkpt>
      <trkpt lat="47.7363" lon="5.98">
        <ele>362</ele>
        <time>2014-10-08T09:14:39.000Z</time>
      </trkpt>
      <trkpt lat="47.73633" lon="5.98">
        <ele>362.39999389648</ele>
        <time>2014-10-08T09:14:40.000Z</time>
      </trkpt>
      <trkpt lat="47.73636" lon="5.98001">
        <ele>362.79998779297</ele>
        <time>2014-10-08T09:14:41.000Z</time>
      </trkpt>
      <trkpt lat="47.73639" lon="5.98002">
        <ele>363.20001220703</ele>
        <time>2014-10-08T09:14:42.000Z</time>
      </trkpt>
      <trkpt lat="47.73655" lon="5.98002">
        <ele>363.20001220703</ele>
        <time>2014-10-08T09:14:48.000Z</time>
      </trkpt>
      <trkpt lat="47.73671" lon="5.98005">
        <ele>363.20001220703</ele>
        <time>2014-10-08T09:14:54.000Z</time>
      </trkpt>
      <trkpt lat="47.73686" lon="5.98013">
        <ele>363.20001220703</ele>
        <time>2014-10-08T09:15:01.000Z</time>
      </trkpt>
      <trkpt lat="47.73704" lon="5.98026">
        <ele>363.20001220703</ele>
        <time>2014-10-08T09:15:09.000Z</time>
      </trkpt>
      <trkpt lat="47.73725" lon="5.98038">
        <ele>363.20001220703</ele>
        <time>2014-10-08T09:15:16.000Z</time>
      </trkpt>
      <trkpt lat="47.73731" lon="5.98041">
        <ele>363.60000610352</ele>
        <time>2014-10-08T09:15:18.000Z</time>
      </trkpt>
      <trkpt lat="47.73734" lon="5.98042">
        <ele>364</ele>
        <time>2014-10-08T09:15:19.000Z</time>
      </trkpt>
      <trkpt lat="47.73737" lon="5.98044">
        <ele>364.39999389648</ele>
        <time>2014-10-08T09:15:20.000Z</time>
      </trkpt>
      <trkpt lat="47.73741" lon="5.98046">
        <ele>364.79998779297</ele>
        <time>2014-10-08T09:15:21.000Z</time>
      </trkpt>
      <trkpt lat="47.73744" lon="5.98048">
        <ele>365.20001220703</ele>
        <time>2014-10-08T09:15:22.000Z</time>
      </trkpt>
      <trkpt lat="47.73747" lon="5.9805">
        <ele>365.20001220703</ele>
        <time>2014-10-08T09:15:23.000Z</time>
      </trkpt>
      <trkpt lat="47.73766" lon="5.98061">
        <ele>365.20001220703</ele>
        <time>2014-10-08T09:15:30.000Z</time>
      </trkpt>
      <trkpt lat="47.73785" lon="5.98071">
        <ele>365.20001220703</ele>
        <time>2014-10-08T09:15:38.000Z</time>
      </trkpt>
      <trkpt lat="47.73794" lon="5.98076">
        <ele>365.79998779297</ele>
        <time>2014-10-08T09:15:43.000Z</time>
      </trkpt>
      <trkpt lat="47.73796" lon="5.98077">
        <ele>366.20001220703</ele>
        <time>2014-10-08T09:15:44.000Z</time>
      </trkpt>
      <trkpt lat="47.73797" lon="5.98078">
        <ele>366.60000610352</ele>
        <time>2014-10-08T09:15:45.000Z</time>
      </trkpt>
      <trkpt lat="47.73799" lon="5.98079">
        <ele>367</ele>
        <time>2014-10-08T09:15:46.000Z</time>
      </trkpt>
      <trkpt lat="47.738" lon="5.9808">
        <ele>367.39999389648</ele>
        <time>2014-10-08T09:15:47.000Z</time>
      </trkpt>
      <trkpt lat="47.73808" lon="5.98086">
        <ele>367.39999389648</ele>
        <time>2014-10-08T09:15:51.000Z</time>
      </trkpt>
      <trkpt lat="47.73821" lon="5.98095">
        <ele>367.39999389648</ele>
        <time>2014-10-08T09:15:57.000Z</time>
      </trkpt>
      <trkpt lat="47.73836" lon="5.98105">
        <ele>367.39999389648</ele>
        <time>2014-10-08T09:16:03.000Z</time>
      </trkpt>
      <trkpt lat="47.7385" lon="5.98116">
        <ele>367.39999389648</ele>
        <time>2014-10-08T09:16:10.000Z</time>
      </trkpt>
      <trkpt lat="47.73866" lon="5.98123">
        <ele>367.39999389648</ele>
        <time>2014-10-08T09:16:16.000Z</time>
      </trkpt>
      <trkpt lat="47.73888" lon="5.98137">
        <ele>367.39999389648</ele>
        <time>2014-10-08T09:16:23.000Z</time>
      </trkpt>
      <trkpt lat="47.73903" lon="5.98148">
        <ele>367.39999389648</ele>
        <time>2014-10-08T09:16:28.000Z</time>
      </trkpt>
      <trkpt lat="47.73919" lon="5.98167">
        <ele>367.39999389648</ele>
        <time>2014-10-08T09:16:34.000Z</time>
      </trkpt>
      <trkpt lat="47.73922" lon="5.9817">
        <ele>367.79998779297</ele>
        <time>2014-10-08T09:16:35.000Z</time>
      </trkpt>
      <trkpt lat="47.73924" lon="5.98172">
        <ele>368.20001220703</ele>
        <time>2014-10-08T09:16:36.000Z</time>
      </trkpt>
      <trkpt lat="47.73927" lon="5.98174">
        <ele>369</ele>
        <time>2014-10-08T09:16:37.000Z</time>
      </trkpt>
      <trkpt lat="47.73929" lon="5.98177">
        <ele>369.39999389648</ele>
        <time>2014-10-08T09:16:38.000Z</time>
      </trkpt>
      <trkpt lat="47.73936" lon="5.98184">
        <ele>369.39999389648</ele>
        <time>2014-10-08T09:16:41.000Z</time>
      </trkpt>
      <trkpt lat="47.73952" lon="5.98201">
        <ele>369.39999389648</ele>
        <time>2014-10-08T09:16:46.000Z</time>
      </trkpt>
      <trkpt lat="47.73965" lon="5.98214">
        <ele>369.39999389648</ele>
        <time>2014-10-08T09:16:51.000Z</time>
      </trkpt>
      <trkpt lat="47.73972" lon="5.98224">
        <ele>369.79998779297</ele>
        <time>2014-10-08T09:16:56.000Z</time>
      </trkpt>
      <trkpt lat="47.73973" lon="5.98226">
        <ele>370.39999389648</ele>
        <time>2014-10-08T09:16:57.000Z</time>
      </trkpt>
      <trkpt lat="47.73975" lon="5.98228">
        <ele>370.79998779297</ele>
        <time>2014-10-08T09:16:58.000Z</time>
      </trkpt>
      <trkpt lat="47.73976" lon="5.9823">
        <ele>371.39999389648</ele>
        <time>2014-10-08T09:16:59.000Z</time>
      </trkpt>
      <trkpt lat="47.73977" lon="5.98231">
        <ele>371.79998779297</ele>
        <time>2014-10-08T09:17:00.000Z</time>
      </trkpt>
      <trkpt lat="47.73985" lon="5.9824">
        <ele>371.79998779297</ele>
        <time>2014-10-08T09:17:06.000Z</time>
      </trkpt>
      <trkpt lat="47.73999" lon="5.98252">
        <ele>371.79998779297</ele>
        <time>2014-10-08T09:17:15.000Z</time>
      </trkpt>
      <trkpt lat="47.74006" lon="5.98259">
        <ele>372.20001220703</ele>
        <time>2014-10-08T09:17:19.000Z</time>
      </trkpt>
      <trkpt lat="47.74007" lon="5.98261">
        <ele>372.60000610352</ele>
        <time>2014-10-08T09:17:20.000Z</time>
      </trkpt>
      <trkpt lat="47.74009" lon="5.98264">
        <ele>373</ele>
        <time>2014-10-08T09:17:21.000Z</time>
      </trkpt>
      <trkpt lat="47.7401" lon="5.98265">
        <ele>373.39999389648</ele>
        <time>2014-10-08T09:17:22.000Z</time>
      </trkpt>
      <trkpt lat="47.74012" lon="5.98267">
        <ele>373.79998779297</ele>
        <time>2014-10-08T09:17:23.000Z</time>
      </trkpt>
      <trkpt lat="47.74021" lon="5.98278">
        <ele>373.79998779297</ele>
        <time>2014-10-08T09:17:29.000Z</time>
      </trkpt>
      <trkpt lat="47.74024" lon="5.9828">
        <ele>374.39999389648</ele>
        <time>2014-10-08T09:17:31.000Z</time>
      </trkpt>
      <trkpt lat="47.74025" lon="5.98282">
        <ele>374.79998779297</ele>
        <time>2014-10-08T09:17:32.000Z</time>
      </trkpt>
      <trkpt lat="47.74026" lon="5.98284">
        <ele>375.20001220703</ele>
        <time>2014-10-08T09:17:33.000Z</time>
      </trkpt>
      <trkpt lat="47.74028" lon="5.98285">
        <ele>375.60000610352</ele>
        <time>2014-10-08T09:17:34.000Z</time>
      </trkpt>
      <trkpt lat="47.74029" lon="5.98286">
        <ele>376</ele>
        <time>2014-10-08T09:17:35.000Z</time>
      </trkpt>
      <trkpt lat="47.7403" lon="5.98287">
        <ele>376</ele>
        <time>2014-10-08T09:17:36.000Z</time>
      </trkpt>
      <trkpt lat="47.74039" lon="5.98297">
        <ele>376</ele>
        <time>2014-10-08T09:17:43.000Z</time>
      </trkpt>
      <trkpt lat="47.74047" lon="5.98308">
        <ele>376</ele>
        <time>2014-10-08T09:17:50.000Z</time>
      </trkpt>
      <trkpt lat="47.74061" lon="5.98323">
        <ele>376</ele>
        <time>2014-10-08T09:17:57.000Z</time>
      </trkpt>
      <trkpt lat="47.74065" lon="5.98328">
        <ele>376.39999389648</ele>
        <time>2014-10-08T09:18:00.000Z</time>
      </trkpt>
      <trkpt lat="47.74066" lon="5.9833">
        <ele>376.79998779297</ele>
        <time>2014-10-08T09:18:01.000Z</time>
      </trkpt>
      <trkpt lat="47.74068" lon="5.98331">
        <ele>377.20001220703</ele>
        <time>2014-10-08T09:18:02.000Z</time>
      </trkpt>
      <trkpt lat="47.74069" lon="5.98333">
        <ele>377.60000610352</ele>
        <time>2014-10-08T09:18:03.000Z</time>
      </trkpt>
      <trkpt lat="47.7407" lon="5.98335">
        <ele>378.20001220703</ele>
        <time>2014-10-08T09:18:04.000Z</time>
      </trkpt>
      <trkpt lat="47.74072" lon="5.98336">
        <ele>378.20001220703</ele>
        <time>2014-10-08T09:18:05.000Z</time>
      </trkpt>
      <trkpt lat="47.74079" lon="5.98347">
        <ele>378.20001220703</ele>
        <time>2014-10-08T09:18:11.000Z</time>
      </trkpt>
      <trkpt lat="47.74087" lon="5.98356">
        <ele>378.20001220703</ele>
        <time>2014-10-08T09:18:18.000Z</time>
      </trkpt>
      <trkpt lat="47.74096" lon="5.98368">
        <ele>378.20001220703</ele>
        <time>2014-10-08T09:18:25.000Z</time>
      </trkpt>
      <trkpt lat="47.74099" lon="5.98371">
        <ele>378.60000610352</ele>
        <time>2014-10-08T09:18:27.000Z</time>
      </trkpt>
      <trkpt lat="47.741" lon="5.98372">
        <ele>379</ele>
        <time>2014-10-08T09:18:28.000Z</time>
      </trkpt>
      <trkpt lat="47.74102" lon="5.98373">
        <ele>379.39999389648</ele>
        <time>2014-10-08T09:18:29.000Z</time>
      </trkpt>
      <trkpt lat="47.74103" lon="5.98374">
        <ele>379.79998779297</ele>
        <time>2014-10-08T09:18:30.000Z</time>
      </trkpt>
      <trkpt lat="47.74105" lon="5.98375">
        <ele>380.20001220703</ele>
        <time>2014-10-08T09:18:31.000Z</time>
      </trkpt>
      <trkpt lat="47.74108" lon="5.98378">
        <ele>380.20001220703</ele>
        <time>2014-10-08T09:18:33.000Z</time>
      </trkpt>
      <trkpt lat="47.74121" lon="5.98389">
        <ele>380.20001220703</ele>
        <time>2014-10-08T09:18:41.000Z</time>
      </trkpt>
      <trkpt lat="47.7413" lon="5.98403">
        <ele>380.20001220703</ele>
        <time>2014-10-08T09:18:47.000Z</time>
      </trkpt>
      <trkpt lat="47.74142" lon="5.98418">
        <ele>380.20001220703</ele>
        <time>2014-10-08T09:18:55.000Z</time>
      </trkpt>
      <trkpt lat="47.74151" lon="5.98427">
        <ele>380.20001220703</ele>
        <time>2014-10-08T09:19:01.000Z</time>
      </trkpt>
      <trkpt lat="47.74155" lon="5.98429">
        <ele>380.60000610352</ele>
        <time>2014-10-08T09:19:03.000Z</time>
      </trkpt>
      <trkpt lat="47.74156" lon="5.9843">
        <ele>381.39999389648</ele>
        <time>2014-10-08T09:19:04.000Z</time>
      </trkpt>
      <trkpt lat="47.74157" lon="5.98432">
        <ele>381.79998779297</ele>
        <time>2014-10-08T09:19:05.000Z</time>
      </trkpt>
      <trkpt lat="47.74159" lon="5.98433">
        <ele>382.20001220703</ele>
        <time>2014-10-08T09:19:06.000Z</time>
      </trkpt>
      <trkpt lat="47.7416" lon="5.98435">
        <ele>382.20001220703</ele>
        <time>2014-10-08T09:19:07.000Z</time>
      </trkpt>
      <trkpt lat="47.7417" lon="5.98449">
        <ele>382.20001220703</ele>
        <time>2014-10-08T09:19:13.000Z</time>
      </trkpt>
      <trkpt lat="47.74181" lon="5.9846">
        <ele>382.20001220703</ele>
        <time>2014-10-08T09:19:17.000Z</time>
      </trkpt>
      <trkpt lat="47.74198" lon="5.98473">
        <ele>382.20001220703</ele>
        <time>2014-10-08T09:19:23.000Z</time>
      </trkpt>
      <trkpt lat="47.74215" lon="5.98486">
        <ele>382.20001220703</ele>
        <time>2014-10-08T09:19:29.000Z</time>
      </trkpt>
      <trkpt lat="47.74233" lon="5.98497">
        <ele>382.20001220703</ele>
        <time>2014-10-08T09:19:35.000Z</time>
      </trkpt>
      <trkpt lat="47.74245" lon="5.98508">
        <ele>382.20001220703</ele>
        <time>2014-10-08T09:19:40.000Z</time>
      </trkpt>
      <trkpt lat="47.74262" lon="5.98523">
        <ele>382.20001220703</ele>
        <time>2014-10-08T09:19:45.000Z</time>
      </trkpt>
      <trkpt lat="47.74266" lon="5.98526">
        <ele>382.20001220703</ele>
        <time>2014-10-08T09:19:46.000Z</time>
      </trkpt>
      <trkpt lat="47.74284" lon="5.9854">
        <ele>382.20001220703</ele>
        <time>2014-10-08T09:19:50.000Z</time>
      </trkpt>
      <trkpt lat="47.7431" lon="5.98559">
        <ele>381.79998779297</ele>
        <time>2014-10-08T09:19:57.000Z</time>
      </trkpt>
      <trkpt lat="47.74314" lon="5.98561">
        <ele>381.39999389648</ele>
        <time>2014-10-08T09:19:58.000Z</time>
      </trkpt>
      <trkpt lat="47.74317" lon="5.98564">
        <ele>381</ele>
        <time>2014-10-08T09:19:59.000Z</time>
      </trkpt>
      <trkpt lat="47.74321" lon="5.98567">
        <ele>380.60000610352</ele>
        <time>2014-10-08T09:20:00.000Z</time>
      </trkpt>
      <trkpt lat="47.74324" lon="5.98569">
        <ele>380.20001220703</ele>
        <time>2014-10-08T09:20:01.000Z</time>
      </trkpt>
      <trkpt lat="47.74334" lon="5.98577">
        <ele>380.20001220703</ele>
        <time>2014-10-08T09:20:04.000Z</time>
      </trkpt>
      <trkpt lat="47.74353" lon="5.98594">
        <ele>380.20001220703</ele>
        <time>2014-10-08T09:20:10.000Z</time>
      </trkpt>
      <trkpt lat="47.74374" lon="5.9861">
        <ele>380.20001220703</ele>
        <time>2014-10-08T09:20:16.000Z</time>
      </trkpt>
      <trkpt lat="47.74389" lon="5.98632">
        <ele>380.20001220703</ele>
        <time>2014-10-08T09:20:22.000Z</time>
      </trkpt>
      <trkpt lat="47.74401" lon="5.98653">
        <ele>380.20001220703</ele>
        <time>2014-10-08T09:20:27.000Z</time>
      </trkpt>
      <trkpt lat="47.74408" lon="5.98677">
        <ele>380.20001220703</ele>
        <time>2014-10-08T09:20:32.000Z</time>
      </trkpt>
      <trkpt lat="47.74409" lon="5.98683">
        <ele>380.20001220703</ele>
        <time>2014-10-08T09:20:33.000Z</time>
      </trkpt>
      <trkpt lat="47.74416" lon="5.98708">
        <ele>380.20001220703</ele>
        <time>2014-10-08T09:20:37.000Z</time>
      </trkpt>
      <trkpt lat="47.74425" lon="5.98731">
        <ele>380.20001220703</ele>
        <time>2014-10-08T09:20:42.000Z</time>
      </trkpt>
      <trkpt lat="47.7443" lon="5.98741">
        <ele>379.79998779297</ele>
        <time>2014-10-08T09:20:44.000Z</time>
      </trkpt>
      <trkpt lat="47.74432" lon="5.98746">
        <ele>379.39999389648</ele>
        <time>2014-10-08T09:20:45.000Z</time>
      </trkpt>
      <trkpt lat="47.74436" lon="5.98752">
        <ele>378.79998779297</ele>
        <time>2014-10-08T09:20:46.000Z</time>
      </trkpt>
      <trkpt lat="47.74439" lon="5.98756">
        <ele>378.39999389648</ele>
        <time>2014-10-08T09:20:47.000Z</time>
      </trkpt>
      <trkpt lat="47.74443" lon="5.9876">
        <ele>378</ele>
        <time>2014-10-08T09:20:48.000Z</time>
      </trkpt>
      <trkpt lat="47.74463" lon="5.98791">
        <ele>378</ele>
        <time>2014-10-08T09:20:54.000Z</time>
      </trkpt>
      <trkpt lat="47.74484" lon="5.98818">
        <ele>378</ele>
        <time>2014-10-08T09:21:00.000Z</time>
      </trkpt>
      <trkpt lat="47.74492" lon="5.98828">
        <ele>377.60000610352</ele>
        <time>2014-10-08T09:21:02.000Z</time>
      </trkpt>
      <trkpt lat="47.74495" lon="5.98833">
        <ele>377.20001220703</ele>
        <time>2014-10-08T09:21:03.000Z</time>
      </trkpt>
      <trkpt lat="47.74498" lon="5.98837">
        <ele>376.79998779297</ele>
        <time>2014-10-08T09:21:04.000Z</time>
      </trkpt>
      <trkpt lat="47.74502" lon="5.98841">
        <ele>376.39999389648</ele>
        <time>2014-10-08T09:21:05.000Z</time>
      </trkpt>
      <trkpt lat="47.74506" lon="5.98845">
        <ele>376</ele>
        <time>2014-10-08T09:21:06.000Z</time>
      </trkpt>
      <trkpt lat="47.74509" lon="5.98849">
        <ele>376</ele>
        <time>2014-10-08T09:21:07.000Z</time>
      </trkpt>
      <trkpt lat="47.74531" lon="5.98879">
        <ele>375.60000610352</ele>
        <time>2014-10-08T09:21:13.000Z</time>
      </trkpt>
      <trkpt lat="47.74535" lon="5.98883">
        <ele>375</ele>
        <time>2014-10-08T09:21:14.000Z</time>
      </trkpt>
      <trkpt lat="47.74539" lon="5.98887">
        <ele>374.60000610352</ele>
        <time>2014-10-08T09:21:15.000Z</time>
      </trkpt>
      <trkpt lat="47.74543" lon="5.98892">
        <ele>374.20001220703</ele>
        <time>2014-10-08T09:21:16.000Z</time>
      </trkpt>
      <trkpt lat="47.74546" lon="5.98898">
        <ele>373.79998779297</ele>
        <time>2014-10-08T09:21:17.000Z</time>
      </trkpt>
      <trkpt lat="47.74554" lon="5.9891">
        <ele>373.79998779297</ele>
        <time>2014-10-08T09:21:19.000Z</time>
      </trkpt>
      <trkpt lat="47.74558" lon="5.98915">
        <ele>373.39999389648</ele>
        <time>2014-10-08T09:21:20.000Z</time>
      </trkpt>
      <trkpt lat="47.74561" lon="5.98918">
        <ele>373</ele>
        <time>2014-10-08T09:21:21.000Z</time>
      </trkpt>
      <trkpt lat="47.74563" lon="5.98921">
        <ele>372.60000610352</ele>
        <time>2014-10-08T09:21:22.000Z</time>
      </trkpt>
      <trkpt lat="47.74565" lon="5.98923">
        <ele>372.20001220703</ele>
        <time>2014-10-08T09:21:23.000Z</time>
      </trkpt>
      <trkpt lat="47.74567" lon="5.98924">
        <ele>371.79998779297</ele>
        <time>2014-10-08T09:21:24.000Z</time>
      </trkpt>
      <trkpt lat="47.74573" lon="5.98931">
        <ele>371.79998779297</ele>
        <time>2014-10-08T09:21:28.000Z</time>
      </trkpt>
      <trkpt lat="47.74576" lon="5.9894">
        <ele>371.39999389648</ele>
        <time>2014-10-08T09:21:30.000Z</time>
      </trkpt>
      <trkpt lat="47.74578" lon="5.98946">
        <ele>370.79998779297</ele>
        <time>2014-10-08T09:21:31.000Z</time>
      </trkpt>
      <trkpt lat="47.74579" lon="5.98953">
        <ele>370.39999389648</ele>
        <time>2014-10-08T09:21:32.000Z</time>
      </trkpt>
      <trkpt lat="47.74578" lon="5.98958">
        <ele>369.60000610352</ele>
        <time>2014-10-08T09:21:33.000Z</time>
      </trkpt>
      <trkpt lat="47.74577" lon="5.98969">
        <ele>369.60000610352</ele>
        <time>2014-10-08T09:21:35.000Z</time>
      </trkpt>
      <trkpt lat="47.74576" lon="5.98974">
        <ele>369.60000610352</ele>
        <time>2014-10-08T09:21:36.000Z</time>
      </trkpt>
      <trkpt lat="47.74574" lon="5.9898">
        <ele>369.60000610352</ele>
        <time>2014-10-08T09:21:37.000Z</time>
      </trkpt>
      <trkpt lat="47.74565" lon="5.98992">
        <ele>369.60000610352</ele>
        <time>2014-10-08T09:21:40.000Z</time>
      </trkpt>
      <trkpt lat="47.74546" lon="5.99017">
        <ele>369.20001220703</ele>
        <time>2014-10-08T09:21:47.000Z</time>
      </trkpt>
      <trkpt lat="47.74544" lon="5.99021">
        <ele>368.79998779297</ele>
        <time>2014-10-08T09:21:48.000Z</time>
      </trkpt>
      <trkpt lat="47.74542" lon="5.99025">
        <ele>368.20001220703</ele>
        <time>2014-10-08T09:21:49.000Z</time>
      </trkpt>
      <trkpt lat="47.74539" lon="5.99029">
        <ele>367.79998779297</ele>
        <time>2014-10-08T09:21:50.000Z</time>
      </trkpt>
      <trkpt lat="47.74536" lon="5.99032">
        <ele>367.39999389648</ele>
        <time>2014-10-08T09:21:51.000Z</time>
      </trkpt>
      <trkpt lat="47.74533" lon="5.99037">
        <ele>366.79998779297</ele>
        <time>2014-10-08T09:21:52.000Z</time>
      </trkpt>
      <trkpt lat="47.7453" lon="5.99041">
        <ele>366.39999389648</ele>
        <time>2014-10-08T09:21:53.000Z</time>
      </trkpt>
      <trkpt lat="47.74528" lon="5.99045">
        <ele>365.79998779297</ele>
        <time>2014-10-08T09:21:54.000Z</time>
      </trkpt>
      <trkpt lat="47.74526" lon="5.99048">
        <ele>366</ele>
        <time>2014-10-08T09:21:55.000Z</time>
      </trkpt>
      <trkpt lat="47.74523" lon="5.99051">
        <ele>366.20001220703</ele>
        <time>2014-10-08T09:21:56.000Z</time>
      </trkpt>
      <trkpt lat="47.74521" lon="5.99054">
        <ele>366.79998779297</ele>
        <time>2014-10-08T09:21:57.000Z</time>
      </trkpt>
      <trkpt lat="47.74519" lon="5.99056">
        <ele>367</ele>
        <time>2014-10-08T09:21:58.000Z</time>
      </trkpt>
      <trkpt lat="47.7451" lon="5.99063">
        <ele>367</ele>
        <time>2014-10-08T09:22:01.000Z</time>
      </trkpt>
      <trkpt lat="47.74486" lon="5.99069">
        <ele>366.60000610352</ele>
        <time>2014-10-08T09:22:07.000Z</time>
      </trkpt>
      <trkpt lat="47.74482" lon="5.99068">
        <ele>366.20001220703</ele>
        <time>2014-10-08T09:22:08.000Z</time>
      </trkpt>
      <trkpt lat="47.74478" lon="5.99067">
        <ele>365.79998779297</ele>
        <time>2014-10-08T09:22:09.000Z</time>
      </trkpt>
      <trkpt lat="47.74474" lon="5.99066">
        <ele>365.39999389648</ele>
        <time>2014-10-08T09:22:10.000Z</time>
      </trkpt>
      <trkpt lat="47.74469" lon="5.99065">
        <ele>365</ele>
        <time>2014-10-08T09:22:11.000Z</time>
      </trkpt>
      <trkpt lat="47.74466" lon="5.99064">
        <ele>365</ele>
        <time>2014-10-08T09:22:12.000Z</time>
      </trkpt>
      <trkpt lat="47.74447" lon="5.99054">
        <ele>365</ele>
        <time>2014-10-08T09:22:17.000Z</time>
      </trkpt>
      <trkpt lat="47.74428" lon="5.9904">
        <ele>365</ele>
        <time>2014-10-08T09:22:23.000Z</time>
      </trkpt>
      <trkpt lat="47.74425" lon="5.99036">
        <ele>364.39999389648</ele>
        <time>2014-10-08T09:22:24.000Z</time>
      </trkpt>
      <trkpt lat="47.74422" lon="5.99033">
        <ele>364</ele>
        <time>2014-10-08T09:22:25.000Z</time>
      </trkpt>
      <trkpt lat="47.74419" lon="5.9903">
        <ele>363.60000610352</ele>
        <time>2014-10-08T09:22:26.000Z</time>
      </trkpt>
      <trkpt lat="47.74416" lon="5.99027">
        <ele>363.20001220703</ele>
        <time>2014-10-08T09:22:27.000Z</time>
      </trkpt>
      <trkpt lat="47.74413" lon="5.99025">
        <ele>362.79998779297</ele>
        <time>2014-10-08T09:22:28.000Z</time>
      </trkpt>
      <trkpt lat="47.74409" lon="5.99022">
        <ele>362.79998779297</ele>
        <time>2014-10-08T09:22:29.000Z</time>
      </trkpt>
      <trkpt lat="47.74392" lon="5.99024">
        <ele>362.39999389648</ele>
        <time>2014-10-08T09:22:33.000Z</time>
      </trkpt>
      <trkpt lat="47.74388" lon="5.99029">
        <ele>361.79998779297</ele>
        <time>2014-10-08T09:22:34.000Z</time>
      </trkpt>
      <trkpt lat="47.74382" lon="5.99036">
        <ele>361.39999389648</ele>
        <time>2014-10-08T09:22:35.000Z</time>
      </trkpt>
      <trkpt lat="47.74377" lon="5.99044">
        <ele>361</ele>
        <time>2014-10-08T09:22:36.000Z</time>
      </trkpt>
      <trkpt lat="47.74372" lon="5.99052">
        <ele>360.39999389648</ele>
        <time>2014-10-08T09:22:37.000Z</time>
      </trkpt>
      <trkpt lat="47.74367" lon="5.99061">
        <ele>360</ele>
        <time>2014-10-08T09:22:38.000Z</time>
      </trkpt>
      <trkpt lat="47.74363" lon="5.9907">
        <ele>359.39999389648</ele>
        <time>2014-10-08T09:22:39.000Z</time>
      </trkpt>
      <trkpt lat="47.74359" lon="5.99078">
        <ele>358.79998779297</ele>
        <time>2014-10-08T09:22:40.000Z</time>
      </trkpt>
      <trkpt lat="47.74356" lon="5.99084">
        <ele>358</ele>
        <time>2014-10-08T09:22:41.000Z</time>
      </trkpt>
      <trkpt lat="47.74353" lon="5.99089">
        <ele>357.39999389648</ele>
        <time>2014-10-08T09:22:42.000Z</time>
      </trkpt>
      <trkpt lat="47.74351" lon="5.99094">
        <ele>356.60000610352</ele>
        <time>2014-10-08T09:22:43.000Z</time>
      </trkpt>
      <trkpt lat="47.74349" lon="5.99098">
        <ele>356</ele>
        <time>2014-10-08T09:22:44.000Z</time>
      </trkpt>
      <trkpt lat="47.74347" lon="5.99102">
        <ele>355.20001220703</ele>
        <time>2014-10-08T09:22:45.000Z</time>
      </trkpt>
      <trkpt lat="47.74344" lon="5.99109">
        <ele>355.20001220703</ele>
        <time>2014-10-08T09:22:47.000Z</time>
      </trkpt>
      <trkpt lat="47.74337" lon="5.99129">
        <ele>354.79998779297</ele>
        <time>2014-10-08T09:22:52.000Z</time>
      </trkpt>
      <trkpt lat="47.74335" lon="5.99133">
        <ele>354.39999389648</ele>
        <time>2014-10-08T09:22:53.000Z</time>
      </trkpt>
      <trkpt lat="47.74334" lon="5.99137">
        <ele>354</ele>
        <time>2014-10-08T09:22:54.000Z</time>
      </trkpt>
      <trkpt lat="47.74333" lon="5.99141">
        <ele>353.60000610352</ele>
        <time>2014-10-08T09:22:55.000Z</time>
      </trkpt>
      <trkpt lat="47.74332" lon="5.99144">
        <ele>353.20001220703</ele>
        <time>2014-10-08T09:22:56.000Z</time>
      </trkpt>
      <trkpt lat="47.74324" lon="5.99161">
        <ele>353.20001220703</ele>
        <time>2014-10-08T09:23:01.000Z</time>
      </trkpt>
      <trkpt lat="47.74318" lon="5.99179">
        <ele>353.20001220703</ele>
        <time>2014-10-08T09:23:06.000Z</time>
      </trkpt>
      <trkpt lat="47.74309" lon="5.99194">
        <ele>352.39999389648</ele>
        <time>2014-10-08T09:23:12.000Z</time>
      </trkpt>
      <trkpt lat="47.74308" lon="5.99196">
        <ele>352</ele>
        <time>2014-10-08T09:23:13.000Z</time>
      </trkpt>
      <trkpt lat="47.74307" lon="5.99198">
        <ele>351.60000610352</ele>
        <time>2014-10-08T09:23:14.000Z</time>
      </trkpt>
      <trkpt lat="47.74306" lon="5.99201">
        <ele>351.20001220703</ele>
        <time>2014-10-08T09:23:15.000Z</time>
      </trkpt>
      <trkpt lat="47.74302" lon="5.9921">
        <ele>351.20001220703</ele>
        <time>2014-10-08T09:23:19.000Z</time>
      </trkpt>
      <trkpt lat="47.74293" lon="5.99231">
        <ele>351.20001220703</ele>
        <time>2014-10-08T09:23:25.000Z</time>
      </trkpt>
      <trkpt lat="47.74283" lon="5.99247">
        <ele>350.79998779297</ele>
        <time>2014-10-08T09:23:29.000Z</time>
      </trkpt>
      <trkpt lat="47.7428" lon="5.99252">
        <ele>350.39999389648</ele>
        <time>2014-10-08T09:23:30.000Z</time>
      </trkpt>
      <trkpt lat="47.74278" lon="5.99256">
        <ele>349.79998779297</ele>
        <time>2014-10-08T09:23:31.000Z</time>
      </trkpt>
      <trkpt lat="47.74275" lon="5.99261">
        <ele>349.39999389648</ele>
        <time>2014-10-08T09:23:32.000Z</time>
      </trkpt>
      <trkpt lat="47.74271" lon="5.99266">
        <ele>349</ele>
        <time>2014-10-08T09:23:33.000Z</time>
      </trkpt>
      <trkpt lat="47.74258" lon="5.99284">
        <ele>348.20001220703</ele>
        <time>2014-10-08T09:23:37.000Z</time>
      </trkpt>
      <trkpt lat="47.74254" lon="5.99289">
        <ele>347.79998779297</ele>
        <time>2014-10-08T09:23:38.000Z</time>
      </trkpt>
      <trkpt lat="47.7425" lon="5.99294">
        <ele>347.39999389648</ele>
        <time>2014-10-08T09:23:39.000Z</time>
      </trkpt>
      <trkpt lat="47.74246" lon="5.99299">
        <ele>346.79998779297</ele>
        <time>2014-10-08T09:23:40.000Z</time>
      </trkpt>
      <trkpt lat="47.74229" lon="5.99324">
        <ele>346.39999389648</ele>
        <time>2014-10-08T09:23:44.000Z</time>
      </trkpt>
      <trkpt lat="47.74226" lon="5.99331">
        <ele>345.79998779297</ele>
        <time>2014-10-08T09:23:45.000Z</time>
      </trkpt>
      <trkpt lat="47.74222" lon="5.99338">
        <ele>345.39999389648</ele>
        <time>2014-10-08T09:23:46.000Z</time>
      </trkpt>
      <trkpt lat="47.74219" lon="5.99345">
        <ele>345</ele>
        <time>2014-10-08T09:23:47.000Z</time>
      </trkpt>
      <trkpt lat="47.74215" lon="5.99352">
        <ele>344.39999389648</ele>
        <time>2014-10-08T09:23:48.000Z</time>
      </trkpt>
      <trkpt lat="47.74192" lon="5.99389">
        <ele>344.39999389648</ele>
        <time>2014-10-08T09:23:54.000Z</time>
      </trkpt>
      <trkpt lat="47.74188" lon="5.99395">
        <ele>344</ele>
        <time>2014-10-08T09:23:55.000Z</time>
      </trkpt>
      <trkpt lat="47.74184" lon="5.99401">
        <ele>343.60000610352</ele>
        <time>2014-10-08T09:23:56.000Z</time>
      </trkpt>
      <trkpt lat="47.7418" lon="5.99407">
        <ele>343.20001220703</ele>
        <time>2014-10-08T09:23:57.000Z</time>
      </trkpt>
      <trkpt lat="47.74176" lon="5.99412">
        <ele>342.60000610352</ele>
        <time>2014-10-08T09:23:58.000Z</time>
      </trkpt>
      <trkpt lat="47.74172" lon="5.99417">
        <ele>342.20001220703</ele>
        <time>2014-10-08T09:23:59.000Z</time>
      </trkpt>
      <trkpt lat="47.74162" lon="5.99428">
        <ele>342.20001220703</ele>
        <time>2014-10-08T09:24:01.000Z</time>
      </trkpt>
      <trkpt lat="47.74152" lon="5.99439">
        <ele>341.79998779297</ele>
        <time>2014-10-08T09:24:03.000Z</time>
      </trkpt>
      <trkpt lat="47.74146" lon="5.99445">
        <ele>341.20001220703</ele>
        <time>2014-10-08T09:24:04.000Z</time>
      </trkpt>
      <trkpt lat="47.74141" lon="5.99451">
        <ele>340.79998779297</ele>
        <time>2014-10-08T09:24:05.000Z</time>
      </trkpt>
      <trkpt lat="47.74136" lon="5.99457">
        <ele>340.39999389648</ele>
        <time>2014-10-08T09:24:06.000Z</time>
      </trkpt>
      <trkpt lat="47.7413" lon="5.99464">
        <ele>339.79998779297</ele>
        <time>2014-10-08T09:24:07.000Z</time>
      </trkpt>
      <trkpt lat="47.7411" lon="5.99487">
        <ele>339.39999389648</ele>
        <time>2014-10-08T09:24:11.000Z</time>
      </trkpt>
      <trkpt lat="47.74106" lon="5.99492">
        <ele>339</ele>
        <time>2014-10-08T09:24:12.000Z</time>
      </trkpt>
      <trkpt lat="47.74101" lon="5.99498">
        <ele>338.60000610352</ele>
        <time>2014-10-08T09:24:13.000Z</time>
      </trkpt>
      <trkpt lat="47.74097" lon="5.99503">
        <ele>338.20001220703</ele>
        <time>2014-10-08T09:24:14.000Z</time>
      </trkpt>
      <trkpt lat="47.74093" lon="5.99508">
        <ele>337.79998779297</ele>
        <time>2014-10-08T09:24:15.000Z</time>
      </trkpt>
      <trkpt lat="47.74075" lon="5.99526">
        <ele>337.79998779297</ele>
        <time>2014-10-08T09:24:20.000Z</time>
      </trkpt>
      <trkpt lat="47.74051" lon="5.99546">
        <ele>337.79998779297</ele>
        <time>2014-10-08T09:24:27.000Z</time>
      </trkpt>
      <trkpt lat="47.74029" lon="5.99556">
        <ele>337.79998779297</ele>
        <time>2014-10-08T09:24:33.000Z</time>
      </trkpt>
      <trkpt lat="47.74025" lon="5.99557">
        <ele>337.79998779297</ele>
        <time>2014-10-08T09:24:34.000Z</time>
      </trkpt>
      <trkpt lat="47.74011" lon="5.99552">
        <ele>337.79998779297</ele>
        <time>2014-10-08T09:24:37.000Z</time>
      </trkpt>
      <trkpt lat="47.74" lon="5.99547">
        <ele>337.39999389648</ele>
        <time>2014-10-08T09:24:39.000Z</time>
      </trkpt>
      <trkpt lat="47.73994" lon="5.99543">
        <ele>337</ele>
        <time>2014-10-08T09:24:40.000Z</time>
      </trkpt>
      <trkpt lat="47.73988" lon="5.99538">
        <ele>336.39999389648</ele>
        <time>2014-10-08T09:24:41.000Z</time>
      </trkpt>
      <trkpt lat="47.73982" lon="5.99532">
        <ele>336</ele>
        <time>2014-10-08T09:24:42.000Z</time>
      </trkpt>
      <trkpt lat="47.73975" lon="5.99526">
        <ele>335.60000610352</ele>
        <time>2014-10-08T09:24:43.000Z</time>
      </trkpt>
      <trkpt lat="47.73969" lon="5.9952">
        <ele>335.20001220703</ele>
        <time>2014-10-08T09:24:44.000Z</time>
      </trkpt>
      <trkpt lat="47.73962" lon="5.99514">
        <ele>334.79998779297</ele>
        <time>2014-10-08T09:24:45.000Z</time>
      </trkpt>
      <trkpt lat="47.73956" lon="5.99509">
        <ele>334.39999389648</ele>
        <time>2014-10-08T09:24:46.000Z</time>
      </trkpt>
      <trkpt lat="47.73948" lon="5.99505">
        <ele>333.79998779297</ele>
        <time>2014-10-08T09:24:47.000Z</time>
      </trkpt>
      <trkpt lat="47.73941" lon="5.99502">
        <ele>333.39999389648</ele>
        <time>2014-10-08T09:24:48.000Z</time>
      </trkpt>
      <trkpt lat="47.73933" lon="5.99499">
        <ele>333</ele>
        <time>2014-10-08T09:24:49.000Z</time>
      </trkpt>
      <trkpt lat="47.73926" lon="5.99497">
        <ele>332.39999389648</ele>
        <time>2014-10-08T09:24:50.000Z</time>
      </trkpt>
      <trkpt lat="47.73919" lon="5.99494">
        <ele>331.39999389648</ele>
        <time>2014-10-08T09:24:51.000Z</time>
      </trkpt>
      <trkpt lat="47.73913" lon="5.99492">
        <ele>331</ele>
        <time>2014-10-08T09:24:52.000Z</time>
      </trkpt>
      <trkpt lat="47.73907" lon="5.99488">
        <ele>330.39999389648</ele>
        <time>2014-10-08T09:24:53.000Z</time>
      </trkpt>
      <trkpt lat="47.739" lon="5.99485">
        <ele>330</ele>
        <time>2014-10-08T09:24:54.000Z</time>
      </trkpt>
      <trkpt lat="47.73893" lon="5.99483">
        <ele>329.39999389648</ele>
        <time>2014-10-08T09:24:55.000Z</time>
      </trkpt>
      <trkpt lat="47.73886" lon="5.99483">
        <ele>328.79998779297</ele>
        <time>2014-10-08T09:24:56.000Z</time>
      </trkpt>
      <trkpt lat="47.73878" lon="5.99484">
        <ele>328.79998779297</ele>
        <time>2014-10-08T09:24:57.000Z</time>
      </trkpt>
      <trkpt lat="47.7387" lon="5.99487">
        <ele>328.39999389648</ele>
        <time>2014-10-08T09:24:58.000Z</time>
      </trkpt>
      <trkpt lat="47.73863" lon="5.99491">
        <ele>328</ele>
        <time>2014-10-08T09:24:59.000Z</time>
      </trkpt>
      <trkpt lat="47.73855" lon="5.99496">
        <ele>327.39999389648</ele>
        <time>2014-10-08T09:25:00.000Z</time>
      </trkpt>
      <trkpt lat="47.73848" lon="5.99501">
        <ele>326.79998779297</ele>
        <time>2014-10-08T09:25:01.000Z</time>
      </trkpt>
      <trkpt lat="47.73841" lon="5.99504">
        <ele>326.20001220703</ele>
        <time>2014-10-08T09:25:02.000Z</time>
      </trkpt>
      <trkpt lat="47.73834" lon="5.99506">
        <ele>325.60000610352</ele>
        <time>2014-10-08T09:25:03.000Z</time>
      </trkpt>
      <trkpt lat="47.73827" lon="5.99507">
        <ele>325</ele>
        <time>2014-10-08T09:25:04.000Z</time>
      </trkpt>
      <trkpt lat="47.73821" lon="5.99507">
        <ele>324.39999389648</ele>
        <time>2014-10-08T09:25:05.000Z</time>
      </trkpt>
      <trkpt lat="47.73815" lon="5.99506">
        <ele>324</ele>
        <time>2014-10-08T09:25:06.000Z</time>
      </trkpt>
      <trkpt lat="47.73809" lon="5.99506">
        <ele>323.60000610352</ele>
        <time>2014-10-08T09:25:07.000Z</time>
      </trkpt>
      <trkpt lat="47.73803" lon="5.99505">
        <ele>323.20001220703</ele>
        <time>2014-10-08T09:25:08.000Z</time>
      </trkpt>
      <trkpt lat="47.73797" lon="5.99505">
        <ele>322.79998779297</ele>
        <time>2014-10-08T09:25:09.000Z</time>
      </trkpt>
      <trkpt lat="47.73791" lon="5.99504">
        <ele>322.20001220703</ele>
        <time>2014-10-08T09:25:10.000Z</time>
      </trkpt>
      <trkpt lat="47.73784" lon="5.99504">
        <ele>321.79998779297</ele>
        <time>2014-10-08T09:25:11.000Z</time>
      </trkpt>
      <trkpt lat="47.73777" lon="5.99504">
        <ele>321.39999389648</ele>
        <time>2014-10-08T09:25:12.000Z</time>
      </trkpt>
      <trkpt lat="47.73769" lon="5.99503">
        <ele>320.79998779297</ele>
        <time>2014-10-08T09:25:13.000Z</time>
      </trkpt>
      <trkpt lat="47.73763" lon="5.99503">
        <ele>320.39999389648</ele>
        <time>2014-10-08T09:25:14.000Z</time>
      </trkpt>
      <trkpt lat="47.73757" lon="5.99504">
        <ele>319.39999389648</ele>
        <time>2014-10-08T09:25:15.000Z</time>
      </trkpt>
      <trkpt lat="47.73752" lon="5.99505">
        <ele>319</ele>
        <time>2014-10-08T09:25:16.000Z</time>
      </trkpt>
      <trkpt lat="47.73746" lon="5.99507">
        <ele>318.60000610352</ele>
        <time>2014-10-08T09:25:17.000Z</time>
      </trkpt>
      <trkpt lat="47.73741" lon="5.99511">
        <ele>318</ele>
        <time>2014-10-08T09:25:18.000Z</time>
      </trkpt>
      <trkpt lat="47.73736" lon="5.99515">
        <ele>317.60000610352</ele>
        <time>2014-10-08T09:25:19.000Z</time>
      </trkpt>
      <trkpt lat="47.73731" lon="5.9952">
        <ele>317</ele>
        <time>2014-10-08T09:25:20.000Z</time>
      </trkpt>
      <trkpt lat="47.73726" lon="5.99525">
        <ele>316.60000610352</ele>
        <time>2014-10-08T09:25:21.000Z</time>
      </trkpt>
      <trkpt lat="47.73723" lon="5.99533">
        <ele>316.20001220703</ele>
        <time>2014-10-08T09:25:22.000Z</time>
      </trkpt>
      <trkpt lat="47.73721" lon="5.9954">
        <ele>315.60000610352</ele>
        <time>2014-10-08T09:25:23.000Z</time>
      </trkpt>
      <trkpt lat="47.73718" lon="5.99547">
        <ele>315.20001220703</ele>
        <time>2014-10-08T09:25:24.000Z</time>
      </trkpt>
      <trkpt lat="47.73716" lon="5.99553">
        <ele>314.60000610352</ele>
        <time>2014-10-08T09:25:25.000Z</time>
      </trkpt>
      <trkpt lat="47.73714" lon="5.9956">
        <ele>314.20001220703</ele>
        <time>2014-10-08T09:25:26.000Z</time>
      </trkpt>
      <trkpt lat="47.73713" lon="5.99566">
        <ele>313.60000610352</ele>
        <time>2014-10-08T09:25:27.000Z</time>
      </trkpt>
      <trkpt lat="47.73711" lon="5.99572">
        <ele>313.20001220703</ele>
        <time>2014-10-08T09:25:28.000Z</time>
      </trkpt>
      <trkpt lat="47.73708" lon="5.9958">
        <ele>312.60000610352</ele>
        <time>2014-10-08T09:25:29.000Z</time>
      </trkpt>
      <trkpt lat="47.73706" lon="5.99588">
        <ele>312.20001220703</ele>
        <time>2014-10-08T09:25:30.000Z</time>
      </trkpt>
      <trkpt lat="47.73704" lon="5.99596">
        <ele>311.79998779297</ele>
        <time>2014-10-08T09:25:31.000Z</time>
      </trkpt>
      <trkpt lat="47.73702" lon="5.99601">
        <ele>311.20001220703</ele>
        <time>2014-10-08T09:25:32.000Z</time>
      </trkpt>
      <trkpt lat="47.73701" lon="5.99606">
        <ele>310.60000610352</ele>
        <time>2014-10-08T09:25:33.000Z</time>
      </trkpt>
      <trkpt lat="47.737" lon="5.99609">
        <ele>310</ele>
        <time>2014-10-08T09:25:34.000Z</time>
      </trkpt>
      <trkpt lat="47.73699" lon="5.99612">
        <ele>309.39999389648</ele>
        <time>2014-10-08T09:25:35.000Z</time>
      </trkpt>
      <trkpt lat="47.73698" lon="5.99614">
        <ele>308.79998779297</ele>
        <time>2014-10-08T09:25:36.000Z</time>
      </trkpt>
      <trkpt lat="47.73697" lon="5.99615">
        <ele>308.79998779297</ele>
        <time>2014-10-08T09:25:37.000Z</time>
      </trkpt>
      <trkpt lat="47.73697" lon="5.99615">
        <ele>308.79998779297</ele>
        <time>2014-10-08T09:25:38.000Z</time>
      </trkpt>
      <trkpt lat="47.73697" lon="5.99621">
        <ele>306.79998779297</ele>
        <time>2014-10-08T09:25:58.000Z</time>
      </trkpt>
      <trkpt lat="47.73697" lon="5.99625">
        <ele>306.79998779297</ele>
        <time>2014-10-08T09:25:59.000Z</time>
      </trkpt>
      <trkpt lat="47.73701" lon="5.99639">
        <ele>306.79998779297</ele>
        <time>2014-10-08T09:26:04.000Z</time>
      </trkpt>
      <trkpt lat="47.73705" lon="5.99651">
        <ele>306.79998779297</ele>
        <time>2014-10-08T09:26:08.000Z</time>
      </trkpt>
      <trkpt lat="47.73707" lon="5.99657">
        <ele>306.79998779297</ele>
        <time>2014-10-08T09:26:10.000Z</time>
      </trkpt>
      <trkpt lat="47.73714" lon="5.99685">
        <ele>306.79998779297</ele>
        <time>2014-10-08T09:26:20.000Z</time>
      </trkpt>
      <trkpt lat="47.73718" lon="5.99698">
        <ele>306.20001220703</ele>
        <time>2014-10-08T09:26:24.000Z</time>
      </trkpt>
      <trkpt lat="47.73719" lon="5.99701">
        <ele>305.79998779297</ele>
        <time>2014-10-08T09:26:25.000Z</time>
      </trkpt>
      <trkpt lat="47.7372" lon="5.99705">
        <ele>305.39999389648</ele>
        <time>2014-10-08T09:26:26.000Z</time>
      </trkpt>
      <trkpt lat="47.7372" lon="5.99708">
        <ele>305</ele>
        <time>2014-10-08T09:26:27.000Z</time>
      </trkpt>
      <trkpt lat="47.73721" lon="5.99711">
        <ele>304.60000610352</ele>
        <time>2014-10-08T09:26:28.000Z</time>
      </trkpt>
      <trkpt lat="47.73724" lon="5.99725">
        <ele>304.60000610352</ele>
        <time>2014-10-08T09:26:33.000Z</time>
      </trkpt>
      <trkpt lat="47.73725" lon="5.99728">
        <ele>304.60000610352</ele>
        <time>2014-10-08T09:26:36.000Z</time>
      </trkpt>
      <trkpt lat="47.73725" lon="5.99731">
        <ele>304.60000610352</ele>
        <time>2014-10-08T09:27:03.000Z</time>
      </trkpt>
      <trkpt lat="47.73726" lon="5.99736">
        <ele>304.60000610352</ele>
        <time>2014-10-08T09:27:07.000Z</time>
      </trkpt>
      <trkpt lat="47.73728" lon="5.99741">
        <ele>302.60000610352</ele>
        <time>2014-10-08T09:29:10.000Z</time>
      </trkpt>
      <trkpt lat="47.73734" lon="5.99759">
        <ele>302.60000610352</ele>
        <time>2014-10-08T09:29:15.000Z</time>
      </trkpt>
      <trkpt lat="47.73741" lon="5.99794">
        <ele>302.60000610352</ele>
        <time>2014-10-08T09:29:20.000Z</time>
      </trkpt>
      <trkpt lat="47.73745" lon="5.9981">
        <ele>302.20001220703</ele>
        <time>2014-10-08T09:29:22.000Z</time>
      </trkpt>
      <trkpt lat="47.73746" lon="5.99819">
        <ele>301.79998779297</ele>
        <time>2014-10-08T09:29:23.000Z</time>
      </trkpt>
      <trkpt lat="47.73747" lon="5.99829">
        <ele>301.20001220703</ele>
        <time>2014-10-08T09:29:24.000Z</time>
      </trkpt>
      <trkpt lat="47.73746" lon="5.99838">
        <ele>300.79998779297</ele>
        <time>2014-10-08T09:29:25.000Z</time>
      </trkpt>
      <trkpt lat="47.73746" lon="5.99849">
        <ele>300.39999389648</ele>
        <time>2014-10-08T09:29:26.000Z</time>
      </trkpt>
      <trkpt lat="47.73744" lon="5.99866">
        <ele>300</ele>
        <time>2014-10-08T09:29:28.000Z</time>
      </trkpt>
      <trkpt lat="47.73743" lon="5.99875">
        <ele>299.60000610352</ele>
        <time>2014-10-08T09:29:29.000Z</time>
      </trkpt>
      <trkpt lat="47.73742" lon="5.99884">
        <ele>299</ele>
        <time>2014-10-08T09:29:30.000Z</time>
      </trkpt>
      <trkpt lat="47.73741" lon="5.99893">
        <ele>298.60000610352</ele>
        <time>2014-10-08T09:29:31.000Z</time>
      </trkpt>
      <trkpt lat="47.73741" lon="5.99901">
        <ele>298.20001220703</ele>
        <time>2014-10-08T09:29:32.000Z</time>
      </trkpt>
      <trkpt lat="47.7374" lon="5.9991">
        <ele>297.60000610352</ele>
        <time>2014-10-08T09:29:33.000Z</time>
      </trkpt>
      <trkpt lat="47.7374" lon="5.99918">
        <ele>297.20001220703</ele>
        <time>2014-10-08T09:29:34.000Z</time>
      </trkpt>
      <trkpt lat="47.73739" lon="5.99926">
        <ele>296.79998779297</ele>
        <time>2014-10-08T09:29:35.000Z</time>
      </trkpt>
      <trkpt lat="47.73738" lon="5.99934">
        <ele>296.20001220703</ele>
        <time>2014-10-08T09:29:36.000Z</time>
      </trkpt>
      <trkpt lat="47.73737" lon="5.99942">
        <ele>295.79998779297</ele>
        <time>2014-10-08T09:29:37.000Z</time>
      </trkpt>
      <trkpt lat="47.73736" lon="5.9995">
        <ele>295.39999389648</ele>
        <time>2014-10-08T09:29:38.000Z</time>
      </trkpt>
      <trkpt lat="47.73735" lon="5.99957">
        <ele>294.79998779297</ele>
        <time>2014-10-08T09:29:39.000Z</time>
      </trkpt>
      <trkpt lat="47.73734" lon="5.99963">
        <ele>294.39999389648</ele>
        <time>2014-10-08T09:29:40.000Z</time>
      </trkpt>
      <trkpt lat="47.73732" lon="5.99969">
        <ele>294</ele>
        <time>2014-10-08T09:29:41.000Z</time>
      </trkpt>
      <trkpt lat="47.7373" lon="5.9999">
        <ele>293.60000610352</ele>
        <time>2014-10-08T09:29:45.000Z</time>
      </trkpt>
      <trkpt lat="47.73729" lon="5.99994">
        <ele>293</ele>
        <time>2014-10-08T09:29:46.000Z</time>
      </trkpt>
      <trkpt lat="47.73729" lon="5.99998">
        <ele>292.20001220703</ele>
        <time>2014-10-08T09:29:47.000Z</time>
      </trkpt>
      <trkpt lat="47.73729" lon="6.00002">
        <ele>291.79998779297</ele>
        <time>2014-10-08T09:29:48.000Z</time>
      </trkpt>
      <trkpt lat="47.7373" lon="6.0001">
        <ele>291.39999389648</ele>
        <time>2014-10-08T09:29:50.000Z</time>
      </trkpt>
      <trkpt lat="47.73733" lon="6.00014">
        <ele>291</ele>
        <time>2014-10-08T09:29:51.000Z</time>
      </trkpt>
      <trkpt lat="47.73737" lon="6.00015">
        <ele>290.60000610352</ele>
        <time>2014-10-08T09:29:52.000Z</time>
      </trkpt>
      <trkpt lat="47.73741" lon="6.00017">
        <ele>290.20001220703</ele>
        <time>2014-10-08T09:29:53.000Z</time>
      </trkpt>
      <trkpt lat="47.73744" lon="6.00018">
        <ele>289.79998779297</ele>
        <time>2014-10-08T09:29:54.000Z</time>
      </trkpt>
      <trkpt lat="47.73755" lon="6.00026">
        <ele>289.20001220703</ele>
        <time>2014-10-08T09:29:57.000Z</time>
      </trkpt>
      <trkpt lat="47.73759" lon="6.00028">
        <ele>288.79998779297</ele>
        <time>2014-10-08T09:29:58.000Z</time>
      </trkpt>
      <trkpt lat="47.73764" lon="6.00032">
        <ele>288.20001220703</ele>
        <time>2014-10-08T09:29:59.000Z</time>
      </trkpt>
      <trkpt lat="47.73769" lon="6.00035">
        <ele>287.79998779297</ele>
        <time>2014-10-08T09:30:00.000Z</time>
      </trkpt>
      <trkpt lat="47.73774" lon="6.00038">
        <ele>287.20001220703</ele>
        <time>2014-10-08T09:30:01.000Z</time>
      </trkpt>
      <trkpt lat="47.73779" lon="6.00041">
        <ele>286.79998779297</ele>
        <time>2014-10-08T09:30:02.000Z</time>
      </trkpt>
      <trkpt lat="47.73785" lon="6.00043">
        <ele>286.20001220703</ele>
        <time>2014-10-08T09:30:03.000Z</time>
      </trkpt>
      <trkpt lat="47.73792" lon="6.00045">
        <ele>285.79998779297</ele>
        <time>2014-10-08T09:30:04.000Z</time>
      </trkpt>
      <trkpt lat="47.73798" lon="6.00047">
        <ele>285.39999389648</ele>
        <time>2014-10-08T09:30:05.000Z</time>
      </trkpt>
      <trkpt lat="47.73805" lon="6.00049">
        <ele>284.79998779297</ele>
        <time>2014-10-08T09:30:06.000Z</time>
      </trkpt>
      <trkpt lat="47.73836" lon="6.0006">
        <ele>284.79998779297</ele>
        <time>2014-10-08T09:30:11.000Z</time>
      </trkpt>
      <trkpt lat="47.73848" lon="6.00065">
        <ele>284.39999389648</ele>
        <time>2014-10-08T09:30:13.000Z</time>
      </trkpt>
      <trkpt lat="47.73854" lon="6.00068">
        <ele>284</ele>
        <time>2014-10-08T09:30:14.000Z</time>
      </trkpt>
      <trkpt lat="47.73859" lon="6.00071">
        <ele>283.60000610352</ele>
        <time>2014-10-08T09:30:15.000Z</time>
      </trkpt>
      <trkpt lat="47.73864" lon="6.00074">
        <ele>283.20001220703</ele>
        <time>2014-10-08T09:30:16.000Z</time>
      </trkpt>
      <trkpt lat="47.73869" lon="6.00077">
        <ele>282.79998779297</ele>
        <time>2014-10-08T09:30:17.000Z</time>
      </trkpt>
      <trkpt lat="47.73874" lon="6.0008">
        <ele>282.79998779297</ele>
        <time>2014-10-08T09:30:18.000Z</time>
      </trkpt>
      <trkpt lat="47.73891" lon="6.0009">
        <ele>282.79998779297</ele>
        <time>2014-10-08T09:30:23.000Z</time>
      </trkpt>
      <trkpt lat="47.73896" lon="6.00091">
        <ele>282.79998779297</ele>
        <time>2014-10-08T09:30:27.000Z</time>
      </trkpt>
      <trkpt lat="47.73897" lon="6.00089">
        <ele>282.79998779297</ele>
        <time>2014-10-08T09:30:28.000Z</time>
      </trkpt>
      <trkpt lat="47.73898" lon="6.00083">
        <ele>283.20001220703</ele>
        <time>2014-10-08T09:30:30.000Z</time>
      </trkpt>
      <trkpt lat="47.73899" lon="6.0008">
        <ele>283.60000610352</ele>
        <time>2014-10-08T09:30:31.000Z</time>
      </trkpt>
      <trkpt lat="47.739" lon="6.00078">
        <ele>284</ele>
        <time>2014-10-08T09:30:32.000Z</time>
      </trkpt>
      <trkpt lat="47.73901" lon="6.00075">
        <ele>284.39999389648</ele>
        <time>2014-10-08T09:30:33.000Z</time>
      </trkpt>
      <trkpt lat="47.73901" lon="6.00072">
        <ele>284.79998779297</ele>
        <time>2014-10-08T09:30:34.000Z</time>
      </trkpt>
      <trkpt lat="47.73903" lon="6.00057">
        <ele>284.79998779297</ele>
        <time>2014-10-08T09:30:39.000Z</time>
      </trkpt>
      <trkpt lat="47.73905" lon="6.0004">
        <ele>284.79998779297</ele>
        <time>2014-10-08T09:30:46.000Z</time>
      </trkpt>
      <trkpt lat="47.73904" lon="6.00024">
        <ele>285.20001220703</ele>
        <time>2014-10-08T09:30:53.000Z</time>
      </trkpt>
      <trkpt lat="47.73904" lon="6.00022">
        <ele>285.60000610352</ele>
        <time>2014-10-08T09:30:54.000Z</time>
      </trkpt>
      <trkpt lat="47.73904" lon="6.00022">
        <ele>286</ele>
        <time>2014-10-08T09:30:55.000Z</time>
      </trkpt>
      <trkpt lat="47.73904" lon="6.00022">
        <ele>286.39999389648</ele>
        <time>2014-10-08T09:30:56.000Z</time>
      </trkpt>
      <trkpt lat="47.73904" lon="6.00025">
        <ele>286.79998779297</ele>
        <time>2014-10-08T09:31:53.000Z</time>
      </trkpt>
      <trkpt lat="47.73905" lon="6.00027">
        <ele>286.79998779297</ele>
        <time>2014-10-08T09:31:54.000Z</time>
      </trkpt>
      <trkpt lat="47.73903" lon="6.00038">
        <ele>286.79998779297</ele>
        <time>2014-10-08T09:31:58.000Z</time>
      </trkpt>
      <trkpt lat="47.73902" lon="6.00042">
        <ele>286.79998779297</ele>
        <time>2014-10-08T09:31:59.000Z</time>
      </trkpt>
      <trkpt lat="47.73893" lon="6.00056">
        <ele>286.79998779297</ele>
        <time>2014-10-08T09:32:03.000Z</time>
      </trkpt>
      <trkpt lat="47.7388" lon="6.00065">
        <ele>286.39999389648</ele>
        <time>2014-10-08T09:32:07.000Z</time>
      </trkpt>
      <trkpt lat="47.73877" lon="6.00067">
        <ele>286</ele>
        <time>2014-10-08T09:32:08.000Z</time>
      </trkpt>
      <trkpt lat="47.73874" lon="6.00069">
        <ele>285.60000610352</ele>
        <time>2014-10-08T09:32:09.000Z</time>
      </trkpt>
      <trkpt lat="47.73872" lon="6.00071">
        <ele>285.20001220703</ele>
        <time>2014-10-08T09:32:10.000Z</time>
      </trkpt>
      <trkpt lat="47.73868" lon="6.00071">
        <ele>284.79998779297</ele>
        <time>2014-10-08T09:32:11.000Z</time>
      </trkpt>
      <trkpt lat="47.73862" lon="6.0007">
        <ele>284.79998779297</ele>
        <time>2014-10-08T09:32:13.000Z</time>
      </trkpt>
      <trkpt lat="47.73847" lon="6.00063">
        <ele>284.79998779297</ele>
        <time>2014-10-08T09:32:18.000Z</time>
      </trkpt>
      <trkpt lat="47.73843" lon="6.0006">
        <ele>284.20001220703</ele>
        <time>2014-10-08T09:32:19.000Z</time>
      </trkpt>
      <trkpt lat="47.7384" lon="6.00059">
        <ele>283.79998779297</ele>
        <time>2014-10-08T09:32:20.000Z</time>
      </trkpt>
      <trkpt lat="47.73836" lon="6.00057">
        <ele>283.39999389648</ele>
        <time>2014-10-08T09:32:21.000Z</time>
      </trkpt>
      <trkpt lat="47.73833" lon="6.00056">
        <ele>283</ele>
        <time>2014-10-08T09:32:22.000Z</time>
      </trkpt>
      <trkpt lat="47.7383" lon="6.00054">
        <ele>282.60000610352</ele>
        <time>2014-10-08T09:32:23.000Z</time>
      </trkpt>
      <trkpt lat="47.73811" lon="6.00048">
        <ele>282.60000610352</ele>
        <time>2014-10-08T09:32:29.000Z</time>
      </trkpt>
      <trkpt lat="47.73793" lon="6.00041">
        <ele>282.60000610352</ele>
        <time>2014-10-08T09:32:36.000Z</time>
      </trkpt>
      <trkpt lat="47.73779" lon="6.00037">
        <ele>282.60000610352</ele>
        <time>2014-10-08T09:32:42.000Z</time>
      </trkpt>
      <trkpt lat="47.73773" lon="6.00034">
        <ele>283</ele>
        <time>2014-10-08T09:32:46.000Z</time>
      </trkpt>
      <trkpt lat="47.73771" lon="6.00033">
        <ele>283.39999389648</ele>
        <time>2014-10-08T09:32:47.000Z</time>
      </trkpt>
      <trkpt lat="47.73769" lon="6.00032">
        <ele>283.79998779297</ele>
        <time>2014-10-08T09:32:48.000Z</time>
      </trkpt>
      <trkpt lat="47.73768" lon="6.00031">
        <ele>284.20001220703</ele>
        <time>2014-10-08T09:32:49.000Z</time>
      </trkpt>
      <trkpt lat="47.73767" lon="6.0003">
        <ele>284.60000610352</ele>
        <time>2014-10-08T09:32:50.000Z</time>
      </trkpt>
      <trkpt lat="47.73765" lon="6.00027">
        <ele>284.60000610352</ele>
        <time>2014-10-08T09:32:52.000Z</time>
      </trkpt>
      <trkpt lat="47.7376" lon="6.00024">
        <ele>284.60000610352</ele>
        <time>2014-10-08T09:32:56.000Z</time>
      </trkpt>
      <trkpt lat="47.73757" lon="6.00024">
        <ele>284.60000610352</ele>
        <time>2014-10-08T09:32:58.000Z</time>
      </trkpt>
      <trkpt lat="47.73756" lon="6.00023">
        <ele>285</ele>
        <time>2014-10-08T09:32:59.000Z</time>
      </trkpt>
      <trkpt lat="47.73754" lon="6.00022">
        <ele>285.39999389648</ele>
        <time>2014-10-08T09:33:00.000Z</time>
      </trkpt>
      <trkpt lat="47.73753" lon="6.00021">
        <ele>285.79998779297</ele>
        <time>2014-10-08T09:33:01.000Z</time>
      </trkpt>
      <trkpt lat="47.73752" lon="6.00021">
        <ele>286.20001220703</ele>
        <time>2014-10-08T09:33:02.000Z</time>
      </trkpt>
      <trkpt lat="47.7375" lon="6.0002">
        <ele>286.60000610352</ele>
        <time>2014-10-08T09:33:03.000Z</time>
      </trkpt>
      <trkpt lat="47.73749" lon="6.00017">
        <ele>286.60000610352</ele>
        <time>2014-10-08T09:33:05.000Z</time>
      </trkpt>
      <trkpt lat="47.73745" lon="6.00014">
        <ele>286.60000610352</ele>
        <time>2014-10-08T09:33:08.000Z</time>
      </trkpt>
      <trkpt lat="47.73741" lon="6.00011">
        <ele>286.60000610352</ele>
        <time>2014-10-08T09:33:11.000Z</time>
      </trkpt>
      <trkpt lat="47.73735" lon="6.0001">
        <ele>287.20001220703</ele>
        <time>2014-10-08T09:33:15.000Z</time>
      </trkpt>
      <trkpt lat="47.73734" lon="6.0001">
        <ele>288</ele>
        <time>2014-10-08T09:33:16.000Z</time>
      </trkpt>
      <trkpt lat="47.73733" lon="6.00011">
        <ele>288.39999389648</ele>
        <time>2014-10-08T09:33:17.000Z</time>
      </trkpt>
      <trkpt lat="47.73731" lon="6.00012">
        <ele>288.79998779297</ele>
        <time>2014-10-08T09:33:18.000Z</time>
      </trkpt>
      <trkpt lat="47.73722" lon="6.00019">
        <ele>288.79998779297</ele>
        <time>2014-10-08T09:33:22.000Z</time>
      </trkpt>
      <trkpt lat="47.73716" lon="6.00026">
        <ele>288.79998779297</ele>
        <time>2014-10-08T09:33:24.000Z</time>
      </trkpt>
      <trkpt lat="47.73707" lon="6.00043">
        <ele>288.79998779297</ele>
        <time>2014-10-08T09:33:27.000Z</time>
      </trkpt>
      <trkpt lat="47.73701" lon="6.00056">
        <ele>288.79998779297</ele>
        <time>2014-10-08T09:33:29.000Z</time>
      </trkpt>
      <trkpt lat="47.73696" lon="6.00073">
        <ele>288.39999389648</ele>
        <time>2014-10-08T09:33:31.000Z</time>
      </trkpt>
      <trkpt lat="47.73695" lon="6.00084">
        <ele>287.79998779297</ele>
        <time>2014-10-08T09:33:32.000Z</time>
      </trkpt>
      <trkpt lat="47.73693" lon="6.00094">
        <ele>287.39999389648</ele>
        <time>2014-10-08T09:33:33.000Z</time>
      </trkpt>
      <trkpt lat="47.73692" lon="6.00105">
        <ele>287</ele>
        <time>2014-10-08T09:33:34.000Z</time>
      </trkpt>
      <trkpt lat="47.73691" lon="6.00115">
        <ele>286.39999389648</ele>
        <time>2014-10-08T09:33:35.000Z</time>
      </trkpt>
      <trkpt lat="47.73687" lon="6.00136">
        <ele>286</ele>
        <time>2014-10-08T09:33:37.000Z</time>
      </trkpt>
      <trkpt lat="47.73684" lon="6.00147">
        <ele>285.60000610352</ele>
        <time>2014-10-08T09:33:38.000Z</time>
      </trkpt>
      <trkpt lat="47.73681" lon="6.00156">
        <ele>285</ele>
        <time>2014-10-08T09:33:39.000Z</time>
      </trkpt>
      <trkpt lat="47.73678" lon="6.00164">
        <ele>284.60000610352</ele>
        <time>2014-10-08T09:33:40.000Z</time>
      </trkpt>
      <trkpt lat="47.73674" lon="6.00171">
        <ele>283.60000610352</ele>
        <time>2014-10-08T09:33:41.000Z</time>
      </trkpt>
      <trkpt lat="47.73671" lon="6.00179">
        <ele>283.20001220703</ele>
        <time>2014-10-08T09:33:42.000Z</time>
      </trkpt>
      <trkpt lat="47.73667" lon="6.00186">
        <ele>282.60000610352</ele>
        <time>2014-10-08T09:33:43.000Z</time>
      </trkpt>
      <trkpt lat="47.73664" lon="6.00192">
        <ele>282.20001220703</ele>
        <time>2014-10-08T09:33:44.000Z</time>
      </trkpt>
      <trkpt lat="47.73658" lon="6.00201">
        <ele>282.20001220703</ele>
        <time>2014-10-08T09:33:46.000Z</time>
      </trkpt>
      <trkpt lat="47.73656" lon="6.00204">
        <ele>281.79998779297</ele>
        <time>2014-10-08T09:33:47.000Z</time>
      </trkpt>
      <trkpt lat="47.73654" lon="6.00206">
        <ele>281.20001220703</ele>
        <time>2014-10-08T09:33:48.000Z</time>
      </trkpt>
      <trkpt lat="47.73653" lon="6.00209">
        <ele>280.79998779297</ele>
        <time>2014-10-08T09:33:49.000Z</time>
      </trkpt>
      <trkpt lat="47.73652" lon="6.00212">
        <ele>280.39999389648</ele>
        <time>2014-10-08T09:33:50.000Z</time>
      </trkpt>
      <trkpt lat="47.7365" lon="6.00215">
        <ele>280</ele>
        <time>2014-10-08T09:33:51.000Z</time>
      </trkpt>
      <trkpt lat="47.73643" lon="6.00227">
        <ele>280</ele>
        <time>2014-10-08T09:33:54.000Z</time>
      </trkpt>
      <trkpt lat="47.7364" lon="6.00232">
        <ele>280</ele>
        <time>2014-10-08T09:33:55.000Z</time>
      </trkpt>
      <trkpt lat="47.73631" lon="6.0025">
        <ele>279.60000610352</ele>
        <time>2014-10-08T09:33:58.000Z</time>
      </trkpt>
      <trkpt lat="47.73627" lon="6.00256">
        <ele>279.20001220703</ele>
        <time>2014-10-08T09:33:59.000Z</time>
      </trkpt>
      <trkpt lat="47.73624" lon="6.00262">
        <ele>278.79998779297</ele>
        <time>2014-10-08T09:34:00.000Z</time>
      </trkpt>
      <trkpt lat="47.7362" lon="6.00267">
        <ele>278.20001220703</ele>
        <time>2014-10-08T09:34:01.000Z</time>
      </trkpt>
      <trkpt lat="47.73616" lon="6.00273">
        <ele>277.79998779297</ele>
        <time>2014-10-08T09:34:02.000Z</time>
      </trkpt>
      <trkpt lat="47.73607" lon="6.00281">
        <ele>277.39999389648</ele>
        <time>2014-10-08T09:34:04.000Z</time>
      </trkpt>
      <trkpt lat="47.73603" lon="6.00285">
        <ele>276.39999389648</ele>
        <time>2014-10-08T09:34:05.000Z</time>
      </trkpt>
      <trkpt lat="47.73598" lon="6.00288">
        <ele>276</ele>
        <time>2014-10-08T09:34:06.000Z</time>
      </trkpt>
      <trkpt lat="47.73593" lon="6.00289">
        <ele>275.60000610352</ele>
        <time>2014-10-08T09:34:07.000Z</time>
      </trkpt>
      <trkpt lat="47.73588" lon="6.00291">
        <ele>275.60000610352</ele>
        <time>2014-10-08T09:34:08.000Z</time>
      </trkpt>
      <trkpt lat="47.73578" lon="6.0029">
        <ele>275.60000610352</ele>
        <time>2014-10-08T09:34:10.000Z</time>
      </trkpt>
      <trkpt lat="47.73565" lon="6.0029">
        <ele>275.60000610352</ele>
        <time>2014-10-08T09:34:13.000Z</time>
      </trkpt>
      <trkpt lat="47.73557" lon="6.0029">
        <ele>275.60000610352</ele>
        <time>2014-10-08T09:34:15.000Z</time>
      </trkpt>
      <trkpt lat="47.73548" lon="6.00292">
        <ele>275</ele>
        <time>2014-10-08T09:34:17.000Z</time>
      </trkpt>
      <trkpt lat="47.73545" lon="6.00292">
        <ele>274.60000610352</ele>
        <time>2014-10-08T09:34:18.000Z</time>
      </trkpt>
      <trkpt lat="47.73541" lon="6.00293">
        <ele>274.20001220703</ele>
        <time>2014-10-08T09:34:19.000Z</time>
      </trkpt>
      <trkpt lat="47.73537" lon="6.00294">
        <ele>273.79998779297</ele>
        <time>2014-10-08T09:34:20.000Z</time>
      </trkpt>
      <trkpt lat="47.73533" lon="6.00296">
        <ele>273.20001220703</ele>
        <time>2014-10-08T09:34:21.000Z</time>
      </trkpt>
      <trkpt lat="47.73523" lon="6.00306">
        <ele>273.20001220703</ele>
        <time>2014-10-08T09:34:24.000Z</time>
      </trkpt>
      <trkpt lat="47.73514" lon="6.0033">
        <ele>273.20001220703</ele>
        <time>2014-10-08T09:34:28.000Z</time>
      </trkpt>
      <trkpt lat="47.73512" lon="6.00338">
        <ele>273.20001220703</ele>
        <time>2014-10-08T09:34:29.000Z</time>
      </trkpt>
      <trkpt lat="47.73505" lon="6.00389">
        <ele>273.20001220703</ele>
        <time>2014-10-08T09:34:35.000Z</time>
      </trkpt>
      <trkpt lat="47.73503" lon="6.00407">
        <ele>272.79998779297</ele>
        <time>2014-10-08T09:34:37.000Z</time>
      </trkpt>
      <trkpt lat="47.73502" lon="6.00416">
        <ele>272.39999389648</ele>
        <time>2014-10-08T09:34:38.000Z</time>
      </trkpt>
      <trkpt lat="47.73501" lon="6.00425">
        <ele>272</ele>
        <time>2014-10-08T09:34:39.000Z</time>
      </trkpt>
      <trkpt lat="47.73499" lon="6.00435">
        <ele>271.60000610352</ele>
        <time>2014-10-08T09:34:40.000Z</time>
      </trkpt>
      <trkpt lat="47.73498" lon="6.00444">
        <ele>271</ele>
        <time>2014-10-08T09:34:41.000Z</time>
      </trkpt>
      <trkpt lat="47.73496" lon="6.00462">
        <ele>271</ele>
        <time>2014-10-08T09:34:43.000Z</time>
      </trkpt>
      <trkpt lat="47.7349" lon="6.00498">
        <ele>270.60000610352</ele>
        <time>2014-10-08T09:34:47.000Z</time>
      </trkpt>
      <trkpt lat="47.73488" lon="6.00508">
        <ele>270.20001220703</ele>
        <time>2014-10-08T09:34:48.000Z</time>
      </trkpt>
      <trkpt lat="47.73486" lon="6.00517">
        <ele>269.79998779297</ele>
        <time>2014-10-08T09:34:49.000Z</time>
      </trkpt>
      <trkpt lat="47.73484" lon="6.00527">
        <ele>269.39999389648</ele>
        <time>2014-10-08T09:34:50.000Z</time>
      </trkpt>
      <trkpt lat="47.73482" lon="6.00536">
        <ele>269</ele>
        <time>2014-10-08T09:34:51.000Z</time>
      </trkpt>
      <trkpt lat="47.7348" lon="6.00557">
        <ele>269</ele>
        <time>2014-10-08T09:34:53.000Z</time>
      </trkpt>
      <trkpt lat="47.7348" lon="6.00568">
        <ele>268.60000610352</ele>
        <time>2014-10-08T09:34:54.000Z</time>
      </trkpt>
      <trkpt lat="47.7348" lon="6.00578">
        <ele>267.79998779297</ele>
        <time>2014-10-08T09:34:55.000Z</time>
      </trkpt>
      <trkpt lat="47.7348" lon="6.00589">
        <ele>267.20001220703</ele>
        <time>2014-10-08T09:34:56.000Z</time>
      </trkpt>
      <trkpt lat="47.7348" lon="6.00599">
        <ele>266.79998779297</ele>
        <time>2014-10-08T09:34:57.000Z</time>
      </trkpt>
      <trkpt lat="47.73475" lon="6.00637">
        <ele>266.79998779297</ele>
        <time>2014-10-08T09:35:01.000Z</time>
      </trkpt>
      <trkpt lat="47.73468" lon="6.00688">
        <ele>266.79998779297</ele>
        <time>2014-10-08T09:35:06.000Z</time>
      </trkpt>
      <trkpt lat="47.73466" lon="6.00708">
        <ele>266.39999389648</ele>
        <time>2014-10-08T09:35:08.000Z</time>
      </trkpt>
      <trkpt lat="47.73465" lon="6.00717">
        <ele>266</ele>
        <time>2014-10-08T09:35:09.000Z</time>
      </trkpt>
      <trkpt lat="47.73465" lon="6.00726">
        <ele>265.60000610352</ele>
        <time>2014-10-08T09:35:10.000Z</time>
      </trkpt>
      <trkpt lat="47.73464" lon="6.00735">
        <ele>265.20001220703</ele>
        <time>2014-10-08T09:35:11.000Z</time>
      </trkpt>
      <trkpt lat="47.73462" lon="6.00743">
        <ele>264.79998779297</ele>
        <time>2014-10-08T09:35:12.000Z</time>
      </trkpt>
      <trkpt lat="47.73456" lon="6.00789">
        <ele>264.79998779297</ele>
        <time>2014-10-08T09:35:18.000Z</time>
      </trkpt>
      <trkpt lat="47.73445" lon="6.00833">
        <ele>264.79998779297</ele>
        <time>2014-10-08T09:35:24.000Z</time>
      </trkpt>
      <trkpt lat="47.73429" lon="6.00888">
        <ele>264.79998779297</ele>
        <time>2014-10-08T09:35:32.000Z</time>
      </trkpt>
      <trkpt lat="47.73419" lon="6.00905">
        <ele>264.79998779297</ele>
        <time>2014-10-08T09:35:35.000Z</time>
      </trkpt>
      <trkpt lat="47.73417" lon="6.00912">
        <ele>264.79998779297</ele>
        <time>2014-10-08T09:35:36.000Z</time>
      </trkpt>
      <trkpt lat="47.73407" lon="6.0094">
        <ele>264.39999389648</ele>
        <time>2014-10-08T09:35:40.000Z</time>
      </trkpt>
      <trkpt lat="47.73406" lon="6.00946">
        <ele>264</ele>
        <time>2014-10-08T09:35:41.000Z</time>
      </trkpt>
      <trkpt lat="47.73403" lon="6.00953">
        <ele>263.60000610352</ele>
        <time>2014-10-08T09:35:42.000Z</time>
      </trkpt>
      <trkpt lat="47.73401" lon="6.00959">
        <ele>263.20001220703</ele>
        <time>2014-10-08T09:35:43.000Z</time>
      </trkpt>
      <trkpt lat="47.73399" lon="6.00966">
        <ele>262.79998779297</ele>
        <time>2014-10-08T09:35:44.000Z</time>
      </trkpt>
      <trkpt lat="47.73397" lon="6.00972">
        <ele>262.79998779297</ele>
        <time>2014-10-08T09:35:45.000Z</time>
      </trkpt>
      <trkpt lat="47.73381" lon="6.01017">
        <ele>262.79998779297</ele>
        <time>2014-10-08T09:35:52.000Z</time>
      </trkpt>
      <trkpt lat="47.73358" lon="6.01077">
        <ele>262.79998779297</ele>
        <time>2014-10-08T09:36:00.000Z</time>
      </trkpt>
      <trkpt lat="47.73343" lon="6.01117">
        <ele>262.79998779297</ele>
        <time>2014-10-08T09:36:06.000Z</time>
      </trkpt>
      <trkpt lat="47.73332" lon="6.01157">
        <ele>262.79998779297</ele>
        <time>2014-10-08T09:36:13.000Z</time>
      </trkpt>
      <trkpt lat="47.7333" lon="6.01169">
        <ele>263.20001220703</ele>
        <time>2014-10-08T09:36:15.000Z</time>
      </trkpt>
      <trkpt lat="47.73329" lon="6.01175">
        <ele>263.60000610352</ele>
        <time>2014-10-08T09:36:16.000Z</time>
      </trkpt>
      <trkpt lat="47.73329" lon="6.01181">
        <ele>264</ele>
        <time>2014-10-08T09:36:17.000Z</time>
      </trkpt>
      <trkpt lat="47.73329" lon="6.01188">
        <ele>264.39999389648</ele>
        <time>2014-10-08T09:36:18.000Z</time>
      </trkpt>
      <trkpt lat="47.7333" lon="6.01194">
        <ele>264.79998779297</ele>
        <time>2014-10-08T09:36:19.000Z</time>
      </trkpt>
      <trkpt lat="47.73335" lon="6.01222">
        <ele>264.79998779297</ele>
        <time>2014-10-08T09:36:24.000Z</time>
      </trkpt>
      <trkpt lat="47.73338" lon="6.01242">
        <ele>265.20001220703</ele>
        <time>2014-10-08T09:36:28.000Z</time>
      </trkpt>
      <trkpt lat="47.7334" lon="6.01247">
        <ele>265.60000610352</ele>
        <time>2014-10-08T09:36:29.000Z</time>
      </trkpt>
      <trkpt lat="47.73341" lon="6.01251">
        <ele>266</ele>
        <time>2014-10-08T09:36:30.000Z</time>
      </trkpt>
      <trkpt lat="47.73342" lon="6.01256">
        <ele>266.39999389648</ele>
        <time>2014-10-08T09:36:31.000Z</time>
      </trkpt>
      <trkpt lat="47.73343" lon="6.0126">
        <ele>266.79998779297</ele>
        <time>2014-10-08T09:36:32.000Z</time>
      </trkpt>
      <trkpt lat="47.73347" lon="6.01285">
        <ele>266.79998779297</ele>
        <time>2014-10-08T09:36:38.000Z</time>
      </trkpt>
      <trkpt lat="47.73348" lon="6.01303">
        <ele>266.79998779297</ele>
        <time>2014-10-08T09:36:43.000Z</time>
      </trkpt>
      <trkpt lat="47.73348" lon="6.01328">
        <ele>267.20001220703</ele>
        <time>2014-10-08T09:36:50.000Z</time>
      </trkpt>
      <trkpt lat="47.73348" lon="6.01332">
        <ele>267.60000610352</ele>
        <time>2014-10-08T09:36:51.000Z</time>
      </trkpt>
      <trkpt lat="47.73348" lon="6.01335">
        <ele>268.20001220703</ele>
        <time>2014-10-08T09:36:52.000Z</time>
      </trkpt>
      <trkpt lat="47.73347" lon="6.01339">
        <ele>268.60000610352</ele>
        <time>2014-10-08T09:36:53.000Z</time>
      </trkpt>
      <trkpt lat="47.73347" lon="6.01343">
        <ele>269</ele>
        <time>2014-10-08T09:36:54.000Z</time>
      </trkpt>
      <trkpt lat="47.73343" lon="6.01364">
        <ele>269</ele>
        <time>2014-10-08T09:36:59.000Z</time>
      </trkpt>
      <trkpt lat="47.73339" lon="6.01394">
        <ele>269</ele>
        <time>2014-10-08T09:37:04.000Z</time>
      </trkpt>
      <trkpt lat="47.73337" lon="6.01415">
        <ele>269</ele>
        <time>2014-10-08T09:37:07.000Z</time>
      </trkpt>
      <trkpt lat="47.73336" lon="6.01436">
        <ele>269</ele>
        <time>2014-10-08T09:37:10.000Z</time>
      </trkpt>
      <trkpt lat="47.73337" lon="6.01457">
        <ele>269</ele>
        <time>2014-10-08T09:37:13.000Z</time>
      </trkpt>
      <trkpt lat="47.73339" lon="6.01478">
        <ele>269</ele>
        <time>2014-10-08T09:37:16.000Z</time>
      </trkpt>
      <trkpt lat="47.73344" lon="6.01529">
        <ele>269</ele>
        <time>2014-10-08T09:37:22.000Z</time>
      </trkpt>
      <trkpt lat="47.73344" lon="6.01539">
        <ele>268</ele>
        <time>2014-10-08T09:37:23.000Z</time>
      </trkpt>
      <trkpt lat="47.73345" lon="6.01548">
        <ele>267.60000610352</ele>
        <time>2014-10-08T09:37:24.000Z</time>
      </trkpt>
      <trkpt lat="47.73344" lon="6.01558">
        <ele>267</ele>
        <time>2014-10-08T09:37:25.000Z</time>
      </trkpt>
      <trkpt lat="47.73344" lon="6.01568">
        <ele>266.60000610352</ele>
        <time>2014-10-08T09:37:26.000Z</time>
      </trkpt>
      <trkpt lat="47.73342" lon="6.01587">
        <ele>266.60000610352</ele>
        <time>2014-10-08T09:37:28.000Z</time>
      </trkpt>
      <trkpt lat="47.73342" lon="6.01597">
        <ele>266.20001220703</ele>
        <time>2014-10-08T09:37:29.000Z</time>
      </trkpt>
      <trkpt lat="47.73341" lon="6.01607">
        <ele>265.79998779297</ele>
        <time>2014-10-08T09:37:30.000Z</time>
      </trkpt>
      <trkpt lat="47.73339" lon="6.01617">
        <ele>265.39999389648</ele>
        <time>2014-10-08T09:37:31.000Z</time>
      </trkpt>
      <trkpt lat="47.73338" lon="6.01627">
        <ele>265</ele>
        <time>2014-10-08T09:37:32.000Z</time>
      </trkpt>
      <trkpt lat="47.73336" lon="6.01637">
        <ele>264.60000610352</ele>
        <time>2014-10-08T09:37:33.000Z</time>
      </trkpt>
      <trkpt lat="47.73335" lon="6.01648">
        <ele>264.60000610352</ele>
        <time>2014-10-08T09:37:34.000Z</time>
      </trkpt>
      <trkpt lat="47.73319" lon="6.01714">
        <ele>264.60000610352</ele>
        <time>2014-10-08T09:37:41.000Z</time>
      </trkpt>
      <trkpt lat="47.7331" lon="6.01767">
        <ele>264.60000610352</ele>
        <time>2014-10-08T09:37:47.000Z</time>
      </trkpt>
      <trkpt lat="47.73302" lon="6.0182">
        <ele>264.60000610352</ele>
        <time>2014-10-08T09:37:54.000Z</time>
      </trkpt>
      <trkpt lat="47.73297" lon="6.01851">
        <ele>264.60000610352</ele>
        <time>2014-10-08T09:37:59.000Z</time>
      </trkpt>
      <trkpt lat="47.73296" lon="6.01861">
        <ele>264.60000610352</ele>
        <time>2014-10-08T09:38:01.000Z</time>
      </trkpt>
      <trkpt lat="47.73292" lon="6.01874">
        <ele>264.60000610352</ele>
        <time>2014-10-08T09:38:04.000Z</time>
      </trkpt>
      <trkpt lat="47.7329" lon="6.01879">
        <ele>264.60000610352</ele>
        <time>2014-10-08T09:38:05.000Z</time>
      </trkpt>
      <trkpt lat="47.73281" lon="6.01907">
        <ele>264.60000610352</ele>
        <time>2014-10-08T09:38:11.000Z</time>
      </trkpt>
      <trkpt lat="47.73264" lon="6.01947">
        <ele>264.60000610352</ele>
        <time>2014-10-08T09:38:19.000Z</time>
      </trkpt>
      <trkpt lat="47.73247" lon="6.01991">
        <ele>264.60000610352</ele>
        <time>2014-10-08T09:38:28.000Z</time>
      </trkpt>
      <trkpt lat="47.73232" lon="6.02026">
        <ele>264.60000610352</ele>
        <time>2014-10-08T09:38:35.000Z</time>
      </trkpt>
      <trkpt lat="47.73223" lon="6.02052">
        <ele>264.60000610352</ele>
        <time>2014-10-08T09:38:39.000Z</time>
      </trkpt>
      <trkpt lat="47.7322" lon="6.02058">
        <ele>264.60000610352</ele>
        <time>2014-10-08T09:38:40.000Z</time>
      </trkpt>
      <trkpt lat="47.73211" lon="6.02081">
        <ele>264.60000610352</ele>
        <time>2014-10-08T09:38:44.000Z</time>
      </trkpt>
      <trkpt lat="47.73191" lon="6.0212">
        <ele>264.60000610352</ele>
        <time>2014-10-08T09:38:52.000Z</time>
      </trkpt>
      <trkpt lat="47.73178" lon="6.02142">
        <ele>264.60000610352</ele>
        <time>2014-10-08T09:38:56.000Z</time>
      </trkpt>
      <trkpt lat="47.73171" lon="6.02153">
        <ele>264.60000610352</ele>
        <time>2014-10-08T09:38:58.000Z</time>
      </trkpt>
      <trkpt lat="47.73148" lon="6.02188">
        <ele>264.60000610352</ele>
        <time>2014-10-08T09:39:05.000Z</time>
      </trkpt>
      <trkpt lat="47.73129" lon="6.02215">
        <ele>264.60000610352</ele>
        <time>2014-10-08T09:39:11.000Z</time>
      </trkpt>
      <trkpt lat="47.73111" lon="6.02244">
        <ele>264.60000610352</ele>
        <time>2014-10-08T09:39:18.000Z</time>
      </trkpt>
      <trkpt lat="47.7309" lon="6.02279">
        <ele>264.60000610352</ele>
        <time>2014-10-08T09:39:27.000Z</time>
      </trkpt>
      <trkpt lat="47.73072" lon="6.02308">
        <ele>264.60000610352</ele>
        <time>2014-10-08T09:39:35.000Z</time>
      </trkpt>
      <trkpt lat="47.73055" lon="6.02337">
        <ele>264.60000610352</ele>
        <time>2014-10-08T09:39:42.000Z</time>
      </trkpt>
      <trkpt lat="47.73028" lon="6.0238">
        <ele>264.60000610352</ele>
        <time>2014-10-08T09:39:52.000Z</time>
      </trkpt>
      <trkpt lat="47.73026" lon="6.02384">
        <ele>264</ele>
        <time>2014-10-08T09:39:53.000Z</time>
      </trkpt>
      <trkpt lat="47.73024" lon="6.02388">
        <ele>263.39999389648</ele>
        <time>2014-10-08T09:39:54.000Z</time>
      </trkpt>
      <trkpt lat="47.73022" lon="6.02393">
        <ele>262.79998779297</ele>
        <time>2014-10-08T09:39:55.000Z</time>
      </trkpt>
      <trkpt lat="47.73019" lon="6.02397">
        <ele>263</ele>
        <time>2014-10-08T09:39:56.000Z</time>
      </trkpt>
      <trkpt lat="47.73016" lon="6.02401">
        <ele>263.20001220703</ele>
        <time>2014-10-08T09:39:57.000Z</time>
      </trkpt>
      <trkpt lat="47.73014" lon="6.02404">
        <ele>263.39999389648</ele>
        <time>2014-10-08T09:39:58.000Z</time>
      </trkpt>
      <trkpt lat="47.73011" lon="6.02408">
        <ele>263.60000610352</ele>
        <time>2014-10-08T09:39:59.000Z</time>
      </trkpt>
      <trkpt lat="47.73008" lon="6.02412">
        <ele>263.20001220703</ele>
        <time>2014-10-08T09:40:00.000Z</time>
      </trkpt>
      <trkpt lat="47.73006" lon="6.02417">
        <ele>262.79998779297</ele>
        <time>2014-10-08T09:40:01.000Z</time>
      </trkpt>
      <trkpt lat="47.73004" lon="6.02421">
        <ele>262.39999389648</ele>
        <time>2014-10-08T09:40:02.000Z</time>
      </trkpt>
      <trkpt lat="47.73001" lon="6.02425">
        <ele>262</ele>
        <time>2014-10-08T09:40:03.000Z</time>
      </trkpt>
      <trkpt lat="47.72999" lon="6.02429">
        <ele>261.60000610352</ele>
        <time>2014-10-08T09:40:04.000Z</time>
      </trkpt>
      <trkpt lat="47.72989" lon="6.02447">
        <ele>261.60000610352</ele>
        <time>2014-10-08T09:40:08.000Z</time>
      </trkpt>
      <trkpt lat="47.72973" lon="6.02474">
        <ele>261.60000610352</ele>
        <time>2014-10-08T09:40:15.000Z</time>
      </trkpt>
      <trkpt lat="47.72954" lon="6.02507">
        <ele>261.60000610352</ele>
        <time>2014-10-08T09:40:22.000Z</time>
      </trkpt>
      <trkpt lat="47.72936" lon="6.02538">
        <ele>261.60000610352</ele>
        <time>2014-10-08T09:40:29.000Z</time>
      </trkpt>
      <trkpt lat="47.72932" lon="6.02548">
        <ele>261.20001220703</ele>
        <time>2014-10-08T09:40:31.000Z</time>
      </trkpt>
      <trkpt lat="47.7293" lon="6.02553">
        <ele>260.79998779297</ele>
        <time>2014-10-08T09:40:32.000Z</time>
      </trkpt>
      <trkpt lat="47.72928" lon="6.02558">
        <ele>260.39999389648</ele>
        <time>2014-10-08T09:40:33.000Z</time>
      </trkpt>
      <trkpt lat="47.72926" lon="6.02563">
        <ele>260</ele>
        <time>2014-10-08T09:40:34.000Z</time>
      </trkpt>
      <trkpt lat="47.72923" lon="6.02567">
        <ele>259.60000610352</ele>
        <time>2014-10-08T09:40:35.000Z</time>
      </trkpt>
      <trkpt lat="47.72921" lon="6.02572">
        <ele>259.60000610352</ele>
        <time>2014-10-08T09:40:36.000Z</time>
      </trkpt>
      <trkpt lat="47.7291" lon="6.02598">
        <ele>259.60000610352</ele>
        <time>2014-10-08T09:40:41.000Z</time>
      </trkpt>
      <trkpt lat="47.72902" lon="6.02617">
        <ele>259.20001220703</ele>
        <time>2014-10-08T09:40:44.000Z</time>
      </trkpt>
      <trkpt lat="47.72899" lon="6.02624">
        <ele>258.79998779297</ele>
        <time>2014-10-08T09:40:45.000Z</time>
      </trkpt>
      <trkpt lat="47.72895" lon="6.02631">
        <ele>258.39999389648</ele>
        <time>2014-10-08T09:40:46.000Z</time>
      </trkpt>
      <trkpt lat="47.72892" lon="6.02638">
        <ele>258</ele>
        <time>2014-10-08T09:40:47.000Z</time>
      </trkpt>
      <trkpt lat="47.72889" lon="6.02644">
        <ele>257.60000610352</ele>
        <time>2014-10-08T09:40:48.000Z</time>
      </trkpt>
      <trkpt lat="47.72873" lon="6.02682">
        <ele>257.60000610352</ele>
        <time>2014-10-08T09:40:54.000Z</time>
      </trkpt>
      <trkpt lat="47.72859" lon="6.0272">
        <ele>257.60000610352</ele>
        <time>2014-10-08T09:41:01.000Z</time>
      </trkpt>
      <trkpt lat="47.72854" lon="6.02739">
        <ele>257.60000610352</ele>
        <time>2014-10-08T09:41:06.000Z</time>
      </trkpt>
      <trkpt lat="47.72846" lon="6.02742">
        <ele>257.60000610352</ele>
        <time>2014-10-08T09:41:11.000Z</time>
      </trkpt>
      <trkpt lat="47.72837" lon="6.0273">
        <ele>257.60000610352</ele>
        <time>2014-10-08T09:41:16.000Z</time>
      </trkpt>
      <trkpt lat="47.72824" lon="6.02711">
        <ele>257.60000610352</ele>
        <time>2014-10-08T09:41:23.000Z</time>
      </trkpt>
      <trkpt lat="47.72805" lon="6.02684">
        <ele>257.60000610352</ele>
        <time>2014-10-08T09:41:32.000Z</time>
      </trkpt>
      <trkpt lat="47.72789" lon="6.02659">
        <ele>257.60000610352</ele>
        <time>2014-10-08T09:41:37.000Z</time>
      </trkpt>
      <trkpt lat="47.72768" lon="6.02627">
        <ele>257.60000610352</ele>
        <time>2014-10-08T09:41:44.000Z</time>
      </trkpt>
      <trkpt lat="47.72755" lon="6.02609">
        <ele>258</ele>
        <time>2014-10-08T09:41:49.000Z</time>
      </trkpt>
      <trkpt lat="47.72752" lon="6.02605">
        <ele>258.39999389648</ele>
        <time>2014-10-08T09:41:50.000Z</time>
      </trkpt>
      <trkpt lat="47.7275" lon="6.02601">
        <ele>258.79998779297</ele>
        <time>2014-10-08T09:41:51.000Z</time>
      </trkpt>
      <trkpt lat="47.72747" lon="6.02597">
        <ele>259.20001220703</ele>
        <time>2014-10-08T09:41:52.000Z</time>
      </trkpt>
      <trkpt lat="47.72744" lon="6.02593">
        <ele>259.60000610352</ele>
        <time>2014-10-08T09:41:53.000Z</time>
      </trkpt>
      <trkpt lat="47.72733" lon="6.02575">
        <ele>259.60000610352</ele>
        <time>2014-10-08T09:41:58.000Z</time>
      </trkpt>
      <trkpt lat="47.72721" lon="6.02558">
        <ele>259.60000610352</ele>
        <time>2014-10-08T09:42:05.000Z</time>
      </trkpt>
      <trkpt lat="47.72711" lon="6.02545">
        <ele>259.60000610352</ele>
        <time>2014-10-08T09:42:12.000Z</time>
      </trkpt>
      <trkpt lat="47.72701" lon="6.02528">
        <ele>260</ele>
        <time>2014-10-08T09:42:19.000Z</time>
      </trkpt>
      <trkpt lat="47.727" lon="6.02526">
        <ele>260.79998779297</ele>
        <time>2014-10-08T09:42:20.000Z</time>
      </trkpt>
      <trkpt lat="47.72698" lon="6.02523">
        <ele>261.20001220703</ele>
        <time>2014-10-08T09:42:21.000Z</time>
      </trkpt>
      <trkpt lat="47.72696" lon="6.02521">
        <ele>261.60000610352</ele>
        <time>2014-10-08T09:42:22.000Z</time>
      </trkpt>
      <trkpt lat="47.72685" lon="6.02504">
        <ele>261.60000610352</ele>
        <time>2014-10-08T09:42:27.000Z</time>
      </trkpt>
      <trkpt lat="47.72671" lon="6.02484">
        <ele>261.60000610352</ele>
        <time>2014-10-08T09:42:33.000Z</time>
      </trkpt>
      <trkpt lat="47.7265" lon="6.02463">
        <ele>261.60000610352</ele>
        <time>2014-10-08T09:42:40.000Z</time>
      </trkpt>
      <trkpt lat="47.72646" lon="6.02465">
        <ele>261.20001220703</ele>
        <time>2014-10-08T09:42:41.000Z</time>
      </trkpt>
      <trkpt lat="47.72643" lon="6.02469">
        <ele>260.79998779297</ele>
        <time>2014-10-08T09:42:42.000Z</time>
      </trkpt>
      <trkpt lat="47.7264" lon="6.02474">
        <ele>260.39999389648</ele>
        <time>2014-10-08T09:42:43.000Z</time>
      </trkpt>
      <trkpt lat="47.72638" lon="6.02479">
        <ele>259.79998779297</ele>
        <time>2014-10-08T09:42:44.000Z</time>
      </trkpt>
      <trkpt lat="47.72635" lon="6.02484">
        <ele>259.39999389648</ele>
        <time>2014-10-08T09:42:45.000Z</time>
      </trkpt>
      <trkpt lat="47.72626" lon="6.02503">
        <ele>259.39999389648</ele>
        <time>2014-10-08T09:42:49.000Z</time>
      </trkpt>
      <trkpt lat="47.72609" lon="6.02536">
        <ele>259.39999389648</ele>
        <time>2014-10-08T09:42:56.000Z</time>
      </trkpt>
      <trkpt lat="47.72595" lon="6.02563">
        <ele>259.39999389648</ele>
        <time>2014-10-08T09:43:02.000Z</time>
      </trkpt>
      <trkpt lat="47.72577" lon="6.02596">
        <ele>259.39999389648</ele>
        <time>2014-10-08T09:43:09.000Z</time>
      </trkpt>
      <trkpt lat="47.72554" lon="6.02638">
        <ele>259.39999389648</ele>
        <time>2014-10-08T09:43:18.000Z</time>
      </trkpt>
      <trkpt lat="47.72552" lon="6.02643">
        <ele>259</ele>
        <time>2014-10-08T09:43:19.000Z</time>
      </trkpt>
      <trkpt lat="47.72549" lon="6.02648">
        <ele>258.60000610352</ele>
        <time>2014-10-08T09:43:20.000Z</time>
      </trkpt>
      <trkpt lat="47.72547" lon="6.02653">
        <ele>258.20001220703</ele>
        <time>2014-10-08T09:43:21.000Z</time>
      </trkpt>
      <trkpt lat="47.72544" lon="6.02658">
        <ele>257.79998779297</ele>
        <time>2014-10-08T09:43:22.000Z</time>
      </trkpt>
      <trkpt lat="47.72542" lon="6.02663">
        <ele>257.39999389648</ele>
        <time>2014-10-08T09:43:23.000Z</time>
      </trkpt>
      <trkpt lat="47.72537" lon="6.02672">
        <ele>257.39999389648</ele>
        <time>2014-10-08T09:43:25.000Z</time>
      </trkpt>
      <trkpt lat="47.72527" lon="6.02692">
        <ele>257.39999389648</ele>
        <time>2014-10-08T09:43:30.000Z</time>
      </trkpt>
      <trkpt lat="47.72513" lon="6.02719">
        <ele>257.39999389648</ele>
        <time>2014-10-08T09:43:38.000Z</time>
      </trkpt>
      <trkpt lat="47.725" lon="6.02742">
        <ele>257.39999389648</ele>
        <time>2014-10-08T09:43:46.000Z</time>
      </trkpt>
      <trkpt lat="47.7249" lon="6.0275">
        <ele>257.39999389648</ele>
        <time>2014-10-08T09:43:51.000Z</time>
      </trkpt>
      <trkpt lat="47.72487" lon="6.02748">
        <ele>257.39999389648</ele>
        <time>2014-10-08T09:43:52.000Z</time>
      </trkpt>
      <trkpt lat="47.72486" lon="6.02736">
        <ele>257.39999389648</ele>
        <time>2014-10-08T09:43:55.000Z</time>
      </trkpt>
      <trkpt lat="47.72486" lon="6.02731">
        <ele>257.39999389648</ele>
        <time>2014-10-08T09:43:56.000Z</time>
      </trkpt>
      <trkpt lat="47.72483" lon="6.02708">
        <ele>257.39999389648</ele>
        <time>2014-10-08T09:44:00.000Z</time>
      </trkpt>
      <trkpt lat="47.7248" lon="6.02695">
        <ele>257.39999389648</ele>
        <time>2014-10-08T09:44:02.000Z</time>
      </trkpt>
      <trkpt lat="47.72475" lon="6.02674">
        <ele>257.39999389648</ele>
        <time>2014-10-08T09:44:05.000Z</time>
      </trkpt>
      <trkpt lat="47.72468" lon="6.02641">
        <ele>256.79998779297</ele>
        <time>2014-10-08T09:44:09.000Z</time>
      </trkpt>
      <trkpt lat="47.72465" lon="6.02632">
        <ele>256.39999389648</ele>
        <time>2014-10-08T09:44:10.000Z</time>
      </trkpt>
      <trkpt lat="47.72463" lon="6.02622">
        <ele>256</ele>
        <time>2014-10-08T09:44:11.000Z</time>
      </trkpt>
      <trkpt lat="47.7246" lon="6.02612">
        <ele>255.19999694824</ele>
        <time>2014-10-08T09:44:12.000Z</time>
      </trkpt>
      <trkpt lat="47.72458" lon="6.02602">
        <ele>254.60000610352</ele>
        <time>2014-10-08T09:44:13.000Z</time>
      </trkpt>
      <trkpt lat="47.72456" lon="6.02592">
        <ele>254</ele>
        <time>2014-10-08T09:44:14.000Z</time>
      </trkpt>
      <trkpt lat="47.72454" lon="6.02582">
        <ele>253.39999389648</ele>
        <time>2014-10-08T09:44:15.000Z</time>
      </trkpt>
      <trkpt lat="47.72451" lon="6.02571">
        <ele>252.80000305176</ele>
        <time>2014-10-08T09:44:16.000Z</time>
      </trkpt>
      <trkpt lat="47.72449" lon="6.02561">
        <ele>252.19999694824</ele>
        <time>2014-10-08T09:44:17.000Z</time>
      </trkpt>
      <trkpt lat="47.72446" lon="6.02549">
        <ele>251.60000610352</ele>
        <time>2014-10-08T09:44:18.000Z</time>
      </trkpt>
      <trkpt lat="47.72445" lon="6.02538">
        <ele>251</ele>
        <time>2014-10-08T09:44:19.000Z</time>
      </trkpt>
      <trkpt lat="47.72444" lon="6.02525">
        <ele>250.19999694824</ele>
        <time>2014-10-08T09:44:20.000Z</time>
      </trkpt>
      <trkpt lat="47.72444" lon="6.02513">
        <ele>249.60000610352</ele>
        <time>2014-10-08T09:44:21.000Z</time>
      </trkpt>
      <trkpt lat="47.72444" lon="6.02502">
        <ele>249</ele>
        <time>2014-10-08T09:44:22.000Z</time>
      </trkpt>
      <trkpt lat="47.72445" lon="6.0249">
        <ele>248.19999694824</ele>
        <time>2014-10-08T09:44:23.000Z</time>
      </trkpt>
      <trkpt lat="47.72445" lon="6.02479">
        <ele>247.60000610352</ele>
        <time>2014-10-08T09:44:24.000Z</time>
      </trkpt>
      <trkpt lat="47.72444" lon="6.02458">
        <ele>247.60000610352</ele>
        <time>2014-10-08T09:44:26.000Z</time>
      </trkpt>
      <trkpt lat="47.72442" lon="6.02438">
        <ele>247.60000610352</ele>
        <time>2014-10-08T09:44:28.000Z</time>
      </trkpt>
      <trkpt lat="47.72434" lon="6.02421">
        <ele>247.60000610352</ele>
        <time>2014-10-08T09:44:30.000Z</time>
      </trkpt>
      <trkpt lat="47.72409" lon="6.02401">
        <ele>247.60000610352</ele>
        <time>2014-10-08T09:44:34.000Z</time>
      </trkpt>
      <trkpt lat="47.72402" lon="6.02398">
        <ele>247.60000610352</ele>
        <time>2014-10-08T09:44:35.000Z</time>
      </trkpt>
      <trkpt lat="47.72389" lon="6.02396">
        <ele>247.60000610352</ele>
        <time>2014-10-08T09:44:37.000Z</time>
      </trkpt>
      <trkpt lat="47.72384" lon="6.02396">
        <ele>247.60000610352</ele>
        <time>2014-10-08T09:44:38.000Z</time>
      </trkpt>
      <trkpt lat="47.72373" lon="6.02394">
        <ele>248</ele>
        <time>2014-10-08T09:44:40.000Z</time>
      </trkpt>
      <trkpt lat="47.72368" lon="6.02394">
        <ele>248.39999389648</ele>
        <time>2014-10-08T09:44:41.000Z</time>
      </trkpt>
      <trkpt lat="47.72364" lon="6.02393">
        <ele>248.80000305176</ele>
        <time>2014-10-08T09:44:42.000Z</time>
      </trkpt>
      <trkpt lat="47.72361" lon="6.02391">
        <ele>249.19999694824</ele>
        <time>2014-10-08T09:44:43.000Z</time>
      </trkpt>
      <trkpt lat="47.72358" lon="6.0239">
        <ele>249.60000610352</ele>
        <time>2014-10-08T09:44:44.000Z</time>
      </trkpt>
      <trkpt lat="47.72353" lon="6.02389">
        <ele>250</ele>
        <time>2014-10-08T09:44:46.000Z</time>
      </trkpt>
      <trkpt lat="47.7235" lon="6.02389">
        <ele>250.39999389648</ele>
        <time>2014-10-08T09:44:47.000Z</time>
      </trkpt>
      <trkpt lat="47.72348" lon="6.02388">
        <ele>251.39999389648</ele>
        <time>2014-10-08T09:44:48.000Z</time>
      </trkpt>
      <trkpt lat="47.72346" lon="6.02388">
        <ele>251.80000305176</ele>
        <time>2014-10-08T09:44:49.000Z</time>
      </trkpt>
      <trkpt lat="47.72338" lon="6.02388">
        <ele>252.19999694824</ele>
        <time>2014-10-08T09:44:54.000Z</time>
      </trkpt>
      <trkpt lat="47.72337" lon="6.02388">
        <ele>252.60000610352</ele>
        <time>2014-10-08T09:44:55.000Z</time>
      </trkpt>
      <trkpt lat="47.72336" lon="6.02387">
        <ele>253</ele>
        <time>2014-10-08T09:44:56.000Z</time>
      </trkpt>
      <trkpt lat="47.72335" lon="6.02386">
        <ele>253.39999389648</ele>
        <time>2014-10-08T09:44:57.000Z</time>
      </trkpt>
      <trkpt lat="47.72333" lon="6.02385">
        <ele>253.80000305176</ele>
        <time>2014-10-08T09:44:58.000Z</time>
      </trkpt>
      <trkpt lat="47.72329" lon="6.02382">
        <ele>253.80000305176</ele>
        <time>2014-10-08T09:45:01.000Z</time>
      </trkpt>
      <trkpt lat="47.72314" lon="6.0238">
        <ele>254.19999694824</ele>
        <time>2014-10-08T09:45:08.000Z</time>
      </trkpt>
      <trkpt lat="47.72312" lon="6.02379">
        <ele>254.60000610352</ele>
        <time>2014-10-08T09:45:09.000Z</time>
      </trkpt>
      <trkpt lat="47.7231" lon="6.02378">
        <ele>255</ele>
        <time>2014-10-08T09:45:10.000Z</time>
      </trkpt>
      <trkpt lat="47.72308" lon="6.02378">
        <ele>255.39999389648</ele>
        <time>2014-10-08T09:45:11.000Z</time>
      </trkpt>
      <trkpt lat="47.72306" lon="6.02378">
        <ele>255.80000305176</ele>
        <time>2014-10-08T09:45:12.000Z</time>
      </trkpt>
      <trkpt lat="47.723" lon="6.02376">
        <ele>255.80000305176</ele>
        <time>2014-10-08T09:45:16.000Z</time>
      </trkpt>
      <trkpt lat="47.72289" lon="6.0237">
        <ele>256.39999389648</ele>
        <time>2014-10-08T09:45:22.000Z</time>
      </trkpt>
      <trkpt lat="47.72286" lon="6.02369">
        <ele>256.79998779297</ele>
        <time>2014-10-08T09:45:23.000Z</time>
      </trkpt>
      <trkpt lat="47.72284" lon="6.02368">
        <ele>257.20001220703</ele>
        <time>2014-10-08T09:45:24.000Z</time>
      </trkpt>
      <trkpt lat="47.72281" lon="6.02366">
        <ele>257.60000610352</ele>
        <time>2014-10-08T09:45:25.000Z</time>
      </trkpt>
      <trkpt lat="47.72277" lon="6.02365">
        <ele>258</ele>
        <time>2014-10-08T09:45:26.000Z</time>
      </trkpt>
      <trkpt lat="47.72268" lon="6.0236">
        <ele>258</ele>
        <time>2014-10-08T09:45:30.000Z</time>
      </trkpt>
      <trkpt lat="47.72254" lon="6.02351">
        <ele>258</ele>
        <time>2014-10-08T09:45:37.000Z</time>
      </trkpt>
      <trkpt lat="47.72238" lon="6.02336">
        <ele>258</ele>
        <time>2014-10-08T09:45:45.000Z</time>
      </trkpt>
      <trkpt lat="47.7222" lon="6.0232">
        <ele>258</ele>
        <time>2014-10-08T09:45:52.000Z</time>
      </trkpt>
      <trkpt lat="47.72198" lon="6.02304">
        <ele>258</ele>
        <time>2014-10-08T09:46:00.000Z</time>
      </trkpt>
      <trkpt lat="47.7218" lon="6.02295">
        <ele>258</ele>
        <time>2014-10-08T09:46:05.000Z</time>
      </trkpt>
      <trkpt lat="47.72167" lon="6.02289">
        <ele>258</ele>
        <time>2014-10-08T09:46:08.000Z</time>
      </trkpt>
      <trkpt lat="47.72148" lon="6.02286">
        <ele>258</ele>
        <time>2014-10-08T09:46:12.000Z</time>
      </trkpt>
      <trkpt lat="47.72107" lon="6.02285">
        <ele>258</ele>
        <time>2014-10-08T09:46:21.000Z</time>
      </trkpt>
      <trkpt lat="47.72066" lon="6.02293">
        <ele>258</ele>
        <time>2014-10-08T09:46:29.000Z</time>
      </trkpt>
      <trkpt lat="47.72045" lon="6.02296">
        <ele>257.60000610352</ele>
        <time>2014-10-08T09:46:33.000Z</time>
      </trkpt>
      <trkpt lat="47.7204" lon="6.02298">
        <ele>257.20001220703</ele>
        <time>2014-10-08T09:46:34.000Z</time>
      </trkpt>
      <trkpt lat="47.72035" lon="6.02299">
        <ele>256.79998779297</ele>
        <time>2014-10-08T09:46:35.000Z</time>
      </trkpt>
      <trkpt lat="47.7203" lon="6.023">
        <ele>256.39999389648</ele>
        <time>2014-10-08T09:46:36.000Z</time>
      </trkpt>
      <trkpt lat="47.72025" lon="6.023">
        <ele>256</ele>
        <time>2014-10-08T09:46:37.000Z</time>
      </trkpt>
      <trkpt lat="47.72006" lon="6.023">
        <ele>256</ele>
        <time>2014-10-08T09:46:41.000Z</time>
      </trkpt>
      <trkpt lat="47.7199" lon="6.02296">
        <ele>256</ele>
        <time>2014-10-08T09:46:44.000Z</time>
      </trkpt>
      <trkpt lat="47.71973" lon="6.02287">
        <ele>255.39999389648</ele>
        <time>2014-10-08T09:46:47.000Z</time>
      </trkpt>
      <trkpt lat="47.71967" lon="6.02283">
        <ele>255</ele>
        <time>2014-10-08T09:46:48.000Z</time>
      </trkpt>
      <trkpt lat="47.71961" lon="6.02279">
        <ele>254.60000610352</ele>
        <time>2014-10-08T09:46:49.000Z</time>
      </trkpt>
      <trkpt lat="47.71955" lon="6.02275">
        <ele>254.19999694824</ele>
        <time>2014-10-08T09:46:50.000Z</time>
      </trkpt>
      <trkpt lat="47.71949" lon="6.0227">
        <ele>253.80000305176</ele>
        <time>2014-10-08T09:46:51.000Z</time>
      </trkpt>
      <trkpt lat="47.71943" lon="6.02264">
        <ele>253.80000305176</ele>
        <time>2014-10-08T09:46:52.000Z</time>
      </trkpt>
      <trkpt lat="47.71937" lon="6.02256">
        <ele>253.39999389648</ele>
        <time>2014-10-08T09:46:53.000Z</time>
      </trkpt>
      <trkpt lat="47.71932" lon="6.02249">
        <ele>253</ele>
        <time>2014-10-08T09:46:54.000Z</time>
      </trkpt>
      <trkpt lat="47.71926" lon="6.02241">
        <ele>252.39999389648</ele>
        <time>2014-10-08T09:46:55.000Z</time>
      </trkpt>
      <trkpt lat="47.71922" lon="6.02232">
        <ele>252</ele>
        <time>2014-10-08T09:46:56.000Z</time>
      </trkpt>
      <trkpt lat="47.71917" lon="6.02223">
        <ele>251.60000610352</ele>
        <time>2014-10-08T09:46:57.000Z</time>
      </trkpt>
      <trkpt lat="47.71912" lon="6.02213">
        <ele>251.19999694824</ele>
        <time>2014-10-08T09:46:58.000Z</time>
      </trkpt>
      <trkpt lat="47.71908" lon="6.02202">
        <ele>250.80000305176</ele>
        <time>2014-10-08T09:46:59.000Z</time>
      </trkpt>
      <trkpt lat="47.71905" lon="6.02192">
        <ele>250.39999389648</ele>
        <time>2014-10-08T09:47:00.000Z</time>
      </trkpt>
      <trkpt lat="47.71902" lon="6.02181">
        <ele>250</ele>
        <time>2014-10-08T09:47:01.000Z</time>
      </trkpt>
      <trkpt lat="47.71899" lon="6.0217">
        <ele>249.60000610352</ele>
        <time>2014-10-08T09:47:02.000Z</time>
      </trkpt>
      <trkpt lat="47.71897" lon="6.02157">
        <ele>249.60000610352</ele>
        <time>2014-10-08T09:47:03.000Z</time>
      </trkpt>
      <trkpt lat="47.71895" lon="6.02144">
        <ele>249.19999694824</ele>
        <time>2014-10-08T09:47:04.000Z</time>
      </trkpt>
      <trkpt lat="47.71893" lon="6.02132">
        <ele>248.60000610352</ele>
        <time>2014-10-08T09:47:05.000Z</time>
      </trkpt>
      <trkpt lat="47.71891" lon="6.0212">
        <ele>248.19999694824</ele>
        <time>2014-10-08T09:47:06.000Z</time>
      </trkpt>
      <trkpt lat="47.7189" lon="6.02109">
        <ele>247.60000610352</ele>
        <time>2014-10-08T09:47:07.000Z</time>
      </trkpt>
      <trkpt lat="47.71888" lon="6.02098">
        <ele>247.19999694824</ele>
        <time>2014-10-08T09:47:08.000Z</time>
      </trkpt>
      <trkpt lat="47.71883" lon="6.02069">
        <ele>247.19999694824</ele>
        <time>2014-10-08T09:47:11.000Z</time>
      </trkpt>
      <trkpt lat="47.71882" lon="6.0206">
        <ele>247.19999694824</ele>
        <time>2014-10-08T09:47:12.000Z</time>
      </trkpt>
      <trkpt lat="47.71882" lon="6.0204">
        <ele>247.19999694824</ele>
        <time>2014-10-08T09:47:15.000Z</time>
      </trkpt>
      <trkpt lat="47.71877" lon="6.02004">
        <ele>247.19999694824</ele>
        <time>2014-10-08T09:47:21.000Z</time>
      </trkpt>
      <trkpt lat="47.71876" lon="6.01998">
        <ele>247.19999694824</ele>
        <time>2014-10-08T09:47:22.000Z</time>
      </trkpt>
      <trkpt lat="47.71873" lon="6.01965">
        <ele>247.19999694824</ele>
        <time>2014-10-08T09:47:27.000Z</time>
      </trkpt>
      <trkpt lat="47.71866" lon="6.01919">
        <ele>247.19999694824</ele>
        <time>2014-10-08T09:47:34.000Z</time>
      </trkpt>
      <trkpt lat="47.71865" lon="6.01913">
        <ele>247.60000610352</ele>
        <time>2014-10-08T09:47:35.000Z</time>
      </trkpt>
      <trkpt lat="47.71864" lon="6.01908">
        <ele>248</ele>
        <time>2014-10-08T09:47:36.000Z</time>
      </trkpt>
      <trkpt lat="47.71863" lon="6.01903">
        <ele>248.39999389648</ele>
        <time>2014-10-08T09:47:37.000Z</time>
      </trkpt>
      <trkpt lat="47.71862" lon="6.01898">
        <ele>249</ele>
        <time>2014-10-08T09:47:38.000Z</time>
      </trkpt>
      <trkpt lat="47.71861" lon="6.01893">
        <ele>249.39999389648</ele>
        <time>2014-10-08T09:47:39.000Z</time>
      </trkpt>
      <trkpt lat="47.7186" lon="6.01887">
        <ele>249.39999389648</ele>
        <time>2014-10-08T09:47:40.000Z</time>
      </trkpt>
      <trkpt lat="47.71857" lon="6.01862">
        <ele>249.39999389648</ele>
        <time>2014-10-08T09:47:45.000Z</time>
      </trkpt>
      <trkpt lat="47.71846" lon="6.0183">
        <ele>249.39999389648</ele>
        <time>2014-10-08T09:47:51.000Z</time>
      </trkpt>
      <trkpt lat="47.71836" lon="6.01801">
        <ele>249.39999389648</ele>
        <time>2014-10-08T09:47:58.000Z</time>
      </trkpt>
      <trkpt lat="47.71818" lon="6.01766">
        <ele>249.39999389648</ele>
        <time>2014-10-08T09:48:06.000Z</time>
      </trkpt>
      <trkpt lat="47.71803" lon="6.01735">
        <ele>249.80000305176</ele>
        <time>2014-10-08T09:48:12.000Z</time>
      </trkpt>
      <trkpt lat="47.71801" lon="6.0173">
        <ele>250.19999694824</ele>
        <time>2014-10-08T09:48:13.000Z</time>
      </trkpt>
      <trkpt lat="47.71799" lon="6.01724">
        <ele>250.60000610352</ele>
        <time>2014-10-08T09:48:14.000Z</time>
      </trkpt>
      <trkpt lat="47.71798" lon="6.01717">
        <ele>251</ele>
        <time>2014-10-08T09:48:15.000Z</time>
      </trkpt>
      <trkpt lat="47.71796" lon="6.01711">
        <ele>251.39999389648</ele>
        <time>2014-10-08T09:48:16.000Z</time>
      </trkpt>
      <trkpt lat="47.71789" lon="6.01691">
        <ele>251.39999389648</ele>
        <time>2014-10-08T09:48:20.000Z</time>
      </trkpt>
      <trkpt lat="47.71775" lon="6.01658">
        <ele>251.39999389648</ele>
        <time>2014-10-08T09:48:27.000Z</time>
      </trkpt>
      <trkpt lat="47.71763" lon="6.01633">
        <ele>251.39999389648</ele>
        <time>2014-10-08T09:48:32.000Z</time>
      </trkpt>
      <trkpt lat="47.71758" lon="6.01631">
        <ele>251.39999389648</ele>
        <time>2014-10-08T09:48:34.000Z</time>
      </trkpt>
      <trkpt lat="47.71755" lon="6.01632">
        <ele>251.39999389648</ele>
        <time>2014-10-08T09:48:35.000Z</time>
      </trkpt>
      <trkpt lat="47.71745" lon="6.01643">
        <ele>251.39999389648</ele>
        <time>2014-10-08T09:48:39.000Z</time>
      </trkpt>
      <trkpt lat="47.71731" lon="6.01663">
        <ele>251.39999389648</ele>
        <time>2014-10-08T09:48:45.000Z</time>
      </trkpt>
      <trkpt lat="47.71723" lon="6.01674">
        <ele>252</ele>
        <time>2014-10-08T09:48:49.000Z</time>
      </trkpt>
      <trkpt lat="47.71721" lon="6.01676">
        <ele>252.39999389648</ele>
        <time>2014-10-08T09:48:50.000Z</time>
      </trkpt>
      <trkpt lat="47.7172" lon="6.01679">
        <ele>252.80000305176</ele>
        <time>2014-10-08T09:48:51.000Z</time>
      </trkpt>
      <trkpt lat="47.71718" lon="6.01681">
        <ele>253.19999694824</ele>
        <time>2014-10-08T09:48:52.000Z</time>
      </trkpt>
      <trkpt lat="47.71716" lon="6.01683">
        <ele>253.60000610352</ele>
        <time>2014-10-08T09:48:53.000Z</time>
      </trkpt>
      <trkpt lat="47.71703" lon="6.01701">
        <ele>253.60000610352</ele>
        <time>2014-10-08T09:49:01.000Z</time>
      </trkpt>
      <trkpt lat="47.71692" lon="6.01719">
        <ele>254</ele>
        <time>2014-10-08T09:49:08.000Z</time>
      </trkpt>
      <trkpt lat="47.7169" lon="6.01722">
        <ele>254.39999389648</ele>
        <time>2014-10-08T09:49:09.000Z</time>
      </trkpt>
      <trkpt lat="47.71689" lon="6.01724">
        <ele>254.80000305176</ele>
        <time>2014-10-08T09:49:10.000Z</time>
      </trkpt>
      <trkpt lat="47.71688" lon="6.01727">
        <ele>255.19999694824</ele>
        <time>2014-10-08T09:49:11.000Z</time>
      </trkpt>
      <trkpt lat="47.71686" lon="6.01729">
        <ele>255.60000610352</ele>
        <time>2014-10-08T09:49:12.000Z</time>
      </trkpt>
      <trkpt lat="47.71677" lon="6.01743">
        <ele>255.60000610352</ele>
        <time>2014-10-08T09:49:18.000Z</time>
      </trkpt>
      <trkpt lat="47.71665" lon="6.0176">
        <ele>256</ele>
        <time>2014-10-08T09:49:26.000Z</time>
      </trkpt>
      <trkpt lat="47.71664" lon="6.01763">
        <ele>256.39999389648</ele>
        <time>2014-10-08T09:49:27.000Z</time>
      </trkpt>
      <trkpt lat="47.71662" lon="6.01765">
        <ele>256.79998779297</ele>
        <time>2014-10-08T09:49:28.000Z</time>
      </trkpt>
      <trkpt lat="47.71661" lon="6.01768">
        <ele>257.20001220703</ele>
        <time>2014-10-08T09:49:29.000Z</time>
      </trkpt>
      <trkpt lat="47.71659" lon="6.0177">
        <ele>257.60000610352</ele>
        <time>2014-10-08T09:49:30.000Z</time>
      </trkpt>
      <trkpt lat="47.71651" lon="6.01781">
        <ele>257.60000610352</ele>
        <time>2014-10-08T09:49:34.000Z</time>
      </trkpt>
      <trkpt lat="47.71636" lon="6.01796">
        <ele>257.60000610352</ele>
        <time>2014-10-08T09:49:41.000Z</time>
      </trkpt>
      <trkpt lat="47.71621" lon="6.01812">
        <ele>257.60000610352</ele>
        <time>2014-10-08T09:49:49.000Z</time>
      </trkpt>
      <trkpt lat="47.71607" lon="6.01834">
        <ele>257.60000610352</ele>
        <time>2014-10-08T09:49:56.000Z</time>
      </trkpt>
      <trkpt lat="47.71591" lon="6.01857">
        <ele>258.20001220703</ele>
        <time>2014-10-08T09:50:03.000Z</time>
      </trkpt>
      <trkpt lat="47.71589" lon="6.0186">
        <ele>258.60000610352</ele>
        <time>2014-10-08T09:50:04.000Z</time>
      </trkpt>
      <trkpt lat="47.71587" lon="6.01863">
        <ele>259</ele>
        <time>2014-10-08T09:50:05.000Z</time>
      </trkpt>
      <trkpt lat="47.71585" lon="6.01866">
        <ele>259.39999389648</ele>
        <time>2014-10-08T09:50:06.000Z</time>
      </trkpt>
      <trkpt lat="47.71582" lon="6.01868">
        <ele>259.79998779297</ele>
        <time>2014-10-08T09:50:07.000Z</time>
      </trkpt>
      <trkpt lat="47.71564" lon="6.01894">
        <ele>259.79998779297</ele>
        <time>2014-10-08T09:50:14.000Z</time>
      </trkpt>
      <trkpt lat="47.7154" lon="6.01926">
        <ele>259.79998779297</ele>
        <time>2014-10-08T09:50:22.000Z</time>
      </trkpt>
      <trkpt lat="47.71514" lon="6.01954">
        <ele>259.79998779297</ele>
        <time>2014-10-08T09:50:31.000Z</time>
      </trkpt>
      <trkpt lat="47.71493" lon="6.01978">
        <ele>259.79998779297</ele>
        <time>2014-10-08T09:50:37.000Z</time>
      </trkpt>
      <trkpt lat="47.71465" lon="6.02007">
        <ele>259.79998779297</ele>
        <time>2014-10-08T09:50:43.000Z</time>
      </trkpt>
      <trkpt lat="47.71439" lon="6.02033">
        <ele>259.39999389648</ele>
        <time>2014-10-08T09:50:48.000Z</time>
      </trkpt>
      <trkpt lat="47.71434" lon="6.0204">
        <ele>259</ele>
        <time>2014-10-08T09:50:49.000Z</time>
      </trkpt>
      <trkpt lat="47.71429" lon="6.02046">
        <ele>258.39999389648</ele>
        <time>2014-10-08T09:50:50.000Z</time>
      </trkpt>
      <trkpt lat="47.71423" lon="6.02052">
        <ele>258</ele>
        <time>2014-10-08T09:50:51.000Z</time>
      </trkpt>
      <trkpt lat="47.71418" lon="6.02058">
        <ele>257.60000610352</ele>
        <time>2014-10-08T09:50:52.000Z</time>
      </trkpt>
      <trkpt lat="47.71387" lon="6.02096">
        <ele>257.20001220703</ele>
        <time>2014-10-08T09:50:58.000Z</time>
      </trkpt>
      <trkpt lat="47.71382" lon="6.02102">
        <ele>256.39999389648</ele>
        <time>2014-10-08T09:50:59.000Z</time>
      </trkpt>
      <trkpt lat="47.71377" lon="6.02107">
        <ele>256</ele>
        <time>2014-10-08T09:51:00.000Z</time>
      </trkpt>
      <trkpt lat="47.71372" lon="6.02114">
        <ele>255.60000610352</ele>
        <time>2014-10-08T09:51:01.000Z</time>
      </trkpt>
      <trkpt lat="47.71348" lon="6.02143">
        <ele>255.60000610352</ele>
        <time>2014-10-08T09:51:06.000Z</time>
      </trkpt>
      <trkpt lat="47.71318" lon="6.02174">
        <ele>255.60000610352</ele>
        <time>2014-10-08T09:51:12.000Z</time>
      </trkpt>
      <trkpt lat="47.71282" lon="6.02212">
        <ele>255.60000610352</ele>
        <time>2014-10-08T09:51:20.000Z</time>
      </trkpt>
      <trkpt lat="47.71266" lon="6.02232">
        <ele>255.60000610352</ele>
        <time>2014-10-08T09:51:25.000Z</time>
      </trkpt>
      <trkpt lat="47.71262" lon="6.02236">
        <ele>255.60000610352</ele>
        <time>2014-10-08T09:51:26.000Z</time>
      </trkpt>
      <trkpt lat="47.71236" lon="6.0227">
        <ele>255.60000610352</ele>
        <time>2014-10-08T09:51:33.000Z</time>
      </trkpt>
      <trkpt lat="47.71207" lon="6.0231">
        <ele>255.60000610352</ele>
        <time>2014-10-08T09:51:41.000Z</time>
      </trkpt>
      <trkpt lat="47.71179" lon="6.02346">
        <ele>255.60000610352</ele>
        <time>2014-10-08T09:51:49.000Z</time>
      </trkpt>
      <trkpt lat="47.71158" lon="6.02374">
        <ele>255.60000610352</ele>
        <time>2014-10-08T09:51:56.000Z</time>
      </trkpt>
      <trkpt lat="47.71139" lon="6.02397">
        <ele>256</ele>
        <time>2014-10-08T09:52:02.000Z</time>
      </trkpt>
      <trkpt lat="47.71136" lon="6.02401">
        <ele>256.39999389648</ele>
        <time>2014-10-08T09:52:03.000Z</time>
      </trkpt>
      <trkpt lat="47.71134" lon="6.02405">
        <ele>256.79998779297</ele>
        <time>2014-10-08T09:52:04.000Z</time>
      </trkpt>
      <trkpt lat="47.71131" lon="6.02408">
        <ele>257.20001220703</ele>
        <time>2014-10-08T09:52:05.000Z</time>
      </trkpt>
      <trkpt lat="47.71128" lon="6.02413">
        <ele>257.60000610352</ele>
        <time>2014-10-08T09:52:06.000Z</time>
      </trkpt>
      <trkpt lat="47.71117" lon="6.02426">
        <ele>257.60000610352</ele>
        <time>2014-10-08T09:52:09.000Z</time>
      </trkpt>
      <trkpt lat="47.71113" lon="6.0243">
        <ele>257.60000610352</ele>
        <time>2014-10-08T09:52:10.000Z</time>
      </trkpt>
      <trkpt lat="47.71092" lon="6.02457">
        <ele>257.60000610352</ele>
        <time>2014-10-08T09:52:17.000Z</time>
      </trkpt>
      <trkpt lat="47.71067" lon="6.02487">
        <ele>257.60000610352</ele>
        <time>2014-10-08T09:52:25.000Z</time>
      </trkpt>
      <trkpt lat="47.71045" lon="6.0251">
        <ele>257.60000610352</ele>
        <time>2014-10-08T09:52:32.000Z</time>
      </trkpt>
      <trkpt lat="47.71023" lon="6.0253">
        <ele>257.60000610352</ele>
        <time>2014-10-08T09:52:39.000Z</time>
      </trkpt>
      <trkpt lat="47.71012" lon="6.02538">
        <ele>257.60000610352</ele>
        <time>2014-10-08T09:52:43.000Z</time>
      </trkpt>
      <trkpt lat="47.70986" lon="6.02552">
        <ele>257.60000610352</ele>
        <time>2014-10-08T09:52:50.000Z</time>
      </trkpt>
      <trkpt lat="47.70971" lon="6.02555">
        <ele>257.60000610352</ele>
        <time>2014-10-08T09:52:53.000Z</time>
      </trkpt>
      <trkpt lat="47.70962" lon="6.02558">
        <ele>257.60000610352</ele>
        <time>2014-10-08T09:52:55.000Z</time>
      </trkpt>
      <trkpt lat="47.70932" lon="6.02575">
        <ele>257.60000610352</ele>
        <time>2014-10-08T09:53:01.000Z</time>
      </trkpt>
      <trkpt lat="47.70911" lon="6.02591">
        <ele>257.60000610352</ele>
        <time>2014-10-08T09:53:06.000Z</time>
      </trkpt>
      <trkpt lat="47.70879" lon="6.02621">
        <ele>257.60000610352</ele>
        <time>2014-10-08T09:53:14.000Z</time>
      </trkpt>
      <trkpt lat="47.70863" lon="6.02637">
        <ele>257.60000610352</ele>
        <time>2014-10-08T09:53:19.000Z</time>
      </trkpt>
      <trkpt lat="47.70856" lon="6.02652">
        <ele>257.60000610352</ele>
        <time>2014-10-08T09:53:22.000Z</time>
      </trkpt>
      <trkpt lat="47.70852" lon="6.02655">
        <ele>257.20001220703</ele>
        <time>2014-10-08T09:53:23.000Z</time>
      </trkpt>
      <trkpt lat="47.70848" lon="6.02658">
        <ele>256.79998779297</ele>
        <time>2014-10-08T09:53:24.000Z</time>
      </trkpt>
      <trkpt lat="47.70844" lon="6.0266">
        <ele>256.39999389648</ele>
        <time>2014-10-08T09:53:25.000Z</time>
      </trkpt>
      <trkpt lat="47.70841" lon="6.02662">
        <ele>255.60000610352</ele>
        <time>2014-10-08T09:53:26.000Z</time>
      </trkpt>
      <trkpt lat="47.70829" lon="6.0267">
        <ele>255.60000610352</ele>
        <time>2014-10-08T09:53:29.000Z</time>
      </trkpt>
      <trkpt lat="47.70822" lon="6.02678">
        <ele>255.60000610352</ele>
        <time>2014-10-08T09:53:31.000Z</time>
      </trkpt>
      <trkpt lat="47.7082" lon="6.02688">
        <ele>255.60000610352</ele>
        <time>2014-10-08T09:53:33.000Z</time>
      </trkpt>
      <trkpt lat="47.70819" lon="6.02711">
        <ele>255.60000610352</ele>
        <time>2014-10-08T09:53:37.000Z</time>
      </trkpt>
      <trkpt lat="47.70808" lon="6.02729">
        <ele>255.60000610352</ele>
        <time>2014-10-08T09:53:41.000Z</time>
      </trkpt>
      <trkpt lat="47.70802" lon="6.02738">
        <ele>255.60000610352</ele>
        <time>2014-10-08T09:53:43.000Z</time>
      </trkpt>
      <trkpt lat="47.70788" lon="6.02756">
        <ele>255.60000610352</ele>
        <time>2014-10-08T09:53:48.000Z</time>
      </trkpt>
      <trkpt lat="47.70767" lon="6.02785">
        <ele>255.60000610352</ele>
        <time>2014-10-08T09:53:56.000Z</time>
      </trkpt>
      <trkpt lat="47.70751" lon="6.02807">
        <ele>255.60000610352</ele>
        <time>2014-10-08T09:54:03.000Z</time>
      </trkpt>
      <trkpt lat="47.70734" lon="6.02831">
        <ele>255.60000610352</ele>
        <time>2014-10-08T09:54:10.000Z</time>
      </trkpt>
      <trkpt lat="47.70713" lon="6.02859">
        <ele>255.60000610352</ele>
        <time>2014-10-08T09:54:17.000Z</time>
      </trkpt>
      <trkpt lat="47.70699" lon="6.02882">
        <ele>255.60000610352</ele>
        <time>2014-10-08T09:54:23.000Z</time>
      </trkpt>
      <trkpt lat="47.7068" lon="6.02913">
        <ele>255.60000610352</ele>
        <time>2014-10-08T09:54:30.000Z</time>
      </trkpt>
      <trkpt lat="47.70669" lon="6.02938">
        <ele>255.60000610352</ele>
        <time>2014-10-08T09:54:36.000Z</time>
      </trkpt>
      <trkpt lat="47.70651" lon="6.02966">
        <ele>255.60000610352</ele>
        <time>2014-10-08T09:54:43.000Z</time>
      </trkpt>
      <trkpt lat="47.70649" lon="6.02971">
        <ele>255.60000610352</ele>
        <time>2014-10-08T09:54:44.000Z</time>
      </trkpt>
      <trkpt lat="47.70641" lon="6.02989">
        <ele>255.60000610352</ele>
        <time>2014-10-08T09:54:47.000Z</time>
      </trkpt>
      <trkpt lat="47.70638" lon="6.02997">
        <ele>255</ele>
        <time>2014-10-08T09:54:48.000Z</time>
      </trkpt>
      <trkpt lat="47.70635" lon="6.03005">
        <ele>254.60000610352</ele>
        <time>2014-10-08T09:54:49.000Z</time>
      </trkpt>
      <trkpt lat="47.70632" lon="6.03012">
        <ele>254.19999694824</ele>
        <time>2014-10-08T09:54:50.000Z</time>
      </trkpt>
      <trkpt lat="47.70628" lon="6.0302">
        <ele>253.80000305176</ele>
        <time>2014-10-08T09:54:51.000Z</time>
      </trkpt>
      <trkpt lat="47.70625" lon="6.03028">
        <ele>253.19999694824</ele>
        <time>2014-10-08T09:54:52.000Z</time>
      </trkpt>
      <trkpt lat="47.70621" lon="6.03036">
        <ele>252.60000610352</ele>
        <time>2014-10-08T09:54:53.000Z</time>
      </trkpt>
      <trkpt lat="47.70618" lon="6.03044">
        <ele>252.19999694824</ele>
        <time>2014-10-08T09:54:54.000Z</time>
      </trkpt>
      <trkpt lat="47.70615" lon="6.03053">
        <ele>251.60000610352</ele>
        <time>2014-10-08T09:54:55.000Z</time>
      </trkpt>
      <trkpt lat="47.70612" lon="6.03061">
        <ele>251</ele>
        <time>2014-10-08T09:54:56.000Z</time>
      </trkpt>
      <trkpt lat="47.70606" lon="6.03079">
        <ele>250.60000610352</ele>
        <time>2014-10-08T09:54:58.000Z</time>
      </trkpt>
      <trkpt lat="47.70602" lon="6.03087">
        <ele>250.19999694824</ele>
        <time>2014-10-08T09:54:59.000Z</time>
      </trkpt>
      <trkpt lat="47.70599" lon="6.03095">
        <ele>249.60000610352</ele>
        <time>2014-10-08T09:55:00.000Z</time>
      </trkpt>
      <trkpt lat="47.70596" lon="6.03103">
        <ele>249.19999694824</ele>
        <time>2014-10-08T09:55:01.000Z</time>
      </trkpt>
      <trkpt lat="47.70593" lon="6.03112">
        <ele>248.80000305176</ele>
        <time>2014-10-08T09:55:02.000Z</time>
      </trkpt>
      <trkpt lat="47.70589" lon="6.03119">
        <ele>248.80000305176</ele>
        <time>2014-10-08T09:55:03.000Z</time>
      </trkpt>
      <trkpt lat="47.7058" lon="6.03138">
        <ele>248.80000305176</ele>
        <time>2014-10-08T09:55:06.000Z</time>
      </trkpt>
      <trkpt lat="47.70574" lon="6.03147">
        <ele>248.80000305176</ele>
        <time>2014-10-08T09:55:08.000Z</time>
      </trkpt>
      <trkpt lat="47.70561" lon="6.03173">
        <ele>248.80000305176</ele>
        <time>2014-10-08T09:55:14.000Z</time>
      </trkpt>
      <trkpt lat="47.70547" lon="6.03201">
        <ele>248.80000305176</ele>
        <time>2014-10-08T09:55:20.000Z</time>
      </trkpt>
      <trkpt lat="47.7053" lon="6.0323">
        <ele>248.80000305176</ele>
        <time>2014-10-08T09:55:27.000Z</time>
      </trkpt>
      <trkpt lat="47.70516" lon="6.03246">
        <ele>248.80000305176</ele>
        <time>2014-10-08T09:55:33.000Z</time>
      </trkpt>
      <trkpt lat="47.70501" lon="6.03265">
        <ele>248.80000305176</ele>
        <time>2014-10-08T09:55:40.000Z</time>
      </trkpt>
      <trkpt lat="47.70483" lon="6.03286">
        <ele>248.80000305176</ele>
        <time>2014-10-08T09:55:49.000Z</time>
      </trkpt>
      <trkpt lat="47.70471" lon="6.03302">
        <ele>248.80000305176</ele>
        <time>2014-10-08T09:55:56.000Z</time>
      </trkpt>
      <trkpt lat="47.70458" lon="6.03321">
        <ele>248.80000305176</ele>
        <time>2014-10-08T09:56:04.000Z</time>
      </trkpt>
      <trkpt lat="47.7045" lon="6.03334">
        <ele>249.19999694824</ele>
        <time>2014-10-08T09:56:10.000Z</time>
      </trkpt>
      <trkpt lat="47.70448" lon="6.03335">
        <ele>249.60000610352</ele>
        <time>2014-10-08T09:56:11.000Z</time>
      </trkpt>
      <trkpt lat="47.70446" lon="6.03338">
        <ele>250</ele>
        <time>2014-10-08T09:56:12.000Z</time>
      </trkpt>
      <trkpt lat="47.70445" lon="6.0334">
        <ele>250.39999389648</ele>
        <time>2014-10-08T09:56:13.000Z</time>
      </trkpt>
      <trkpt lat="47.70444" lon="6.03343">
        <ele>251</ele>
        <time>2014-10-08T09:56:14.000Z</time>
      </trkpt>
      <trkpt lat="47.70439" lon="6.03353">
        <ele>251</ele>
        <time>2014-10-08T09:56:18.000Z</time>
      </trkpt>
      <trkpt lat="47.70429" lon="6.03369">
        <ele>251</ele>
        <time>2014-10-08T09:56:25.000Z</time>
      </trkpt>
      <trkpt lat="47.7042" lon="6.03385">
        <ele>251</ele>
        <time>2014-10-08T09:56:31.000Z</time>
      </trkpt>
      <trkpt lat="47.70407" lon="6.03402">
        <ele>251</ele>
        <time>2014-10-08T09:56:36.000Z</time>
      </trkpt>
      <trkpt lat="47.70385" lon="6.03433">
        <ele>251</ele>
        <time>2014-10-08T09:56:42.000Z</time>
      </trkpt>
      <trkpt lat="47.70362" lon="6.03461">
        <ele>251</ele>
        <time>2014-10-08T09:56:47.000Z</time>
      </trkpt>
      <trkpt lat="47.70357" lon="6.03467">
        <ele>250.39999389648</ele>
        <time>2014-10-08T09:56:48.000Z</time>
      </trkpt>
      <trkpt lat="47.70351" lon="6.03473">
        <ele>250</ele>
        <time>2014-10-08T09:56:49.000Z</time>
      </trkpt>
      <trkpt lat="47.70345" lon="6.03478">
        <ele>249.60000610352</ele>
        <time>2014-10-08T09:56:50.000Z</time>
      </trkpt>
      <trkpt lat="47.70338" lon="6.03484">
        <ele>249</ele>
        <time>2014-10-08T09:56:51.000Z</time>
      </trkpt>
      <trkpt lat="47.70332" lon="6.0349">
        <ele>248.60000610352</ele>
        <time>2014-10-08T09:56:52.000Z</time>
      </trkpt>
      <trkpt lat="47.70326" lon="6.03497">
        <ele>248.19999694824</ele>
        <time>2014-10-08T09:56:53.000Z</time>
      </trkpt>
      <trkpt lat="47.70319" lon="6.03505">
        <ele>247.80000305176</ele>
        <time>2014-10-08T09:56:54.000Z</time>
      </trkpt>
      <trkpt lat="47.70313" lon="6.03512">
        <ele>247.39999389648</ele>
        <time>2014-10-08T09:56:55.000Z</time>
      </trkpt>
      <trkpt lat="47.70307" lon="6.0352">
        <ele>246.80000305176</ele>
        <time>2014-10-08T09:56:56.000Z</time>
      </trkpt>
      <trkpt lat="47.70301" lon="6.03528">
        <ele>246.39999389648</ele>
        <time>2014-10-08T09:56:57.000Z</time>
      </trkpt>
      <trkpt lat="47.70294" lon="6.03534">
        <ele>246.39999389648</ele>
        <time>2014-10-08T09:56:58.000Z</time>
      </trkpt>
      <trkpt lat="47.70287" lon="6.03541">
        <ele>245.80000305176</ele>
        <time>2014-10-08T09:56:59.000Z</time>
      </trkpt>
      <trkpt lat="47.7028" lon="6.03548">
        <ele>245.19999694824</ele>
        <time>2014-10-08T09:57:00.000Z</time>
      </trkpt>
      <trkpt lat="47.70273" lon="6.03555">
        <ele>244.80000305176</ele>
        <time>2014-10-08T09:57:01.000Z</time>
      </trkpt>
      <trkpt lat="47.70265" lon="6.03559">
        <ele>244.19999694824</ele>
        <time>2014-10-08T09:57:02.000Z</time>
      </trkpt>
      <trkpt lat="47.70256" lon="6.03561">
        <ele>243.60000610352</ele>
        <time>2014-10-08T09:57:03.000Z</time>
      </trkpt>
      <trkpt lat="47.70238" lon="6.0356">
        <ele>243</ele>
        <time>2014-10-08T09:57:05.000Z</time>
      </trkpt>
      <trkpt lat="47.70228" lon="6.0356">
        <ele>242.39999389648</ele>
        <time>2014-10-08T09:57:06.000Z</time>
      </trkpt>
      <trkpt lat="47.70218" lon="6.03559">
        <ele>241</ele>
        <time>2014-10-08T09:57:07.000Z</time>
      </trkpt>
      <trkpt lat="47.70196" lon="6.03558">
        <ele>239</ele>
        <time>2014-10-08T09:57:09.000Z</time>
      </trkpt>
      <trkpt lat="47.70185" lon="6.03557">
        <ele>238</ele>
        <time>2014-10-08T09:57:10.000Z</time>
      </trkpt>
      <trkpt lat="47.70173" lon="6.03557">
        <ele>236.80000305176</ele>
        <time>2014-10-08T09:57:11.000Z</time>
      </trkpt>
      <trkpt lat="47.70162" lon="6.03555">
        <ele>235.60000610352</ele>
        <time>2014-10-08T09:57:12.000Z</time>
      </trkpt>
      <trkpt lat="47.70151" lon="6.03554">
        <ele>234.60000610352</ele>
        <time>2014-10-08T09:57:13.000Z</time>
      </trkpt>
      <trkpt lat="47.70139" lon="6.03553">
        <ele>233.39999389648</ele>
        <time>2014-10-08T09:57:14.000Z</time>
      </trkpt>
      <trkpt lat="47.70128" lon="6.03551">
        <ele>232.39999389648</ele>
        <time>2014-10-08T09:57:15.000Z</time>
      </trkpt>
      <trkpt lat="47.70117" lon="6.0355">
        <ele>231.60000610352</ele>
        <time>2014-10-08T09:57:16.000Z</time>
      </trkpt>
      <trkpt lat="47.70106" lon="6.0355">
        <ele>230.60000610352</ele>
        <time>2014-10-08T09:57:17.000Z</time>
      </trkpt>
      <trkpt lat="47.70096" lon="6.0355">
        <ele>229.39999389648</ele>
        <time>2014-10-08T09:57:18.000Z</time>
      </trkpt>
      <trkpt lat="47.70087" lon="6.0355">
        <ele>228.39999389648</ele>
        <time>2014-10-08T09:57:19.000Z</time>
      </trkpt>
      <trkpt lat="47.70079" lon="6.03549">
        <ele>227.39999389648</ele>
        <time>2014-10-08T09:57:20.000Z</time>
      </trkpt>
      <trkpt lat="47.70073" lon="6.03549">
        <ele>226.39999389648</ele>
        <time>2014-10-08T09:57:21.000Z</time>
      </trkpt>
      <trkpt lat="47.70067" lon="6.03549">
        <ele>226.39999389648</ele>
        <time>2014-10-08T09:57:22.000Z</time>
      </trkpt>
      <trkpt lat="47.70059" lon="6.03555">
        <ele>226.39999389648</ele>
        <time>2014-10-08T09:57:24.000Z</time>
      </trkpt>
      <trkpt lat="47.70048" lon="6.03584">
        <ele>226.39999389648</ele>
        <time>2014-10-08T09:57:28.000Z</time>
      </trkpt>
      <trkpt lat="47.70045" lon="6.03592">
        <ele>226</ele>
        <time>2014-10-08T09:57:29.000Z</time>
      </trkpt>
      <trkpt lat="47.70041" lon="6.036">
        <ele>225.60000610352</ele>
        <time>2014-10-08T09:57:30.000Z</time>
      </trkpt>
      <trkpt lat="47.70038" lon="6.03608">
        <ele>225</ele>
        <time>2014-10-08T09:57:31.000Z</time>
      </trkpt>
      <trkpt lat="47.70034" lon="6.03616">
        <ele>224.60000610352</ele>
        <time>2014-10-08T09:57:32.000Z</time>
      </trkpt>
      <trkpt lat="47.70031" lon="6.03624">
        <ele>224.19999694824</ele>
        <time>2014-10-08T09:57:33.000Z</time>
      </trkpt>
      <trkpt lat="47.70027" lon="6.03632">
        <ele>224.19999694824</ele>
        <time>2014-10-08T09:57:34.000Z</time>
      </trkpt>
      <trkpt lat="47.6999" lon="6.03686">
        <ele>224.19999694824</ele>
        <time>2014-10-08T09:57:42.000Z</time>
      </trkpt>
      <trkpt lat="47.6998" lon="6.03697">
        <ele>224.19999694824</ele>
        <time>2014-10-08T09:57:44.000Z</time>
      </trkpt>
      <trkpt lat="47.69965" lon="6.03712">
        <ele>224.19999694824</ele>
        <time>2014-10-08T09:57:47.000Z</time>
      </trkpt>
      <trkpt lat="47.69928" lon="6.03737">
        <ele>224.19999694824</ele>
        <time>2014-10-08T09:57:54.000Z</time>
      </trkpt>
      <trkpt lat="47.6989" lon="6.03752">
        <ele>224.19999694824</ele>
        <time>2014-10-08T09:58:00.000Z</time>
      </trkpt>
      <trkpt lat="47.69872" lon="6.03758">
        <ele>224.19999694824</ele>
        <time>2014-10-08T09:58:03.000Z</time>
      </trkpt>
      <trkpt lat="47.69862" lon="6.03762">
        <ele>224.19999694824</ele>
        <time>2014-10-08T09:58:05.000Z</time>
      </trkpt>
      <trkpt lat="47.69828" lon="6.03777">
        <ele>224.19999694824</ele>
        <time>2014-10-08T09:58:11.000Z</time>
      </trkpt>
      <trkpt lat="47.69773" lon="6.03798">
        <ele>224.19999694824</ele>
        <time>2014-10-08T09:58:20.000Z</time>
      </trkpt>
      <trkpt lat="47.69726" lon="6.0381">
        <ele>224.19999694824</ele>
        <time>2014-10-08T09:58:27.000Z</time>
      </trkpt>
      <trkpt lat="47.69689" lon="6.03818">
        <ele>223.80000305176</ele>
        <time>2014-10-08T09:58:33.000Z</time>
      </trkpt>
      <trkpt lat="47.69683" lon="6.03819">
        <ele>223.39999389648</ele>
        <time>2014-10-08T09:58:34.000Z</time>
      </trkpt>
      <trkpt lat="47.69677" lon="6.0382">
        <ele>222.80000305176</ele>
        <time>2014-10-08T09:58:35.000Z</time>
      </trkpt>
      <trkpt lat="47.69671" lon="6.03821">
        <ele>222.39999389648</ele>
        <time>2014-10-08T09:58:36.000Z</time>
      </trkpt>
      <trkpt lat="47.69665" lon="6.03822">
        <ele>222</ele>
        <time>2014-10-08T09:58:37.000Z</time>
      </trkpt>
      <trkpt lat="47.6964" lon="6.03825">
        <ele>222</ele>
        <time>2014-10-08T09:58:41.000Z</time>
      </trkpt>
      <trkpt lat="47.69606" lon="6.03825">
        <ele>222</ele>
        <time>2014-10-08T09:58:47.000Z</time>
      </trkpt>
      <trkpt lat="47.69564" lon="6.03822">
        <ele>222</ele>
        <time>2014-10-08T09:58:54.000Z</time>
      </trkpt>
      <trkpt lat="47.69546" lon="6.03819">
        <ele>222</ele>
        <time>2014-10-08T09:58:57.000Z</time>
      </trkpt>
      <trkpt lat="47.6951" lon="6.03814">
        <ele>222</ele>
        <time>2014-10-08T09:59:03.000Z</time>
      </trkpt>
      <trkpt lat="47.69471" lon="6.0381">
        <ele>222</ele>
        <time>2014-10-08T09:59:10.000Z</time>
      </trkpt>
      <trkpt lat="47.69437" lon="6.03807">
        <ele>222</ele>
        <time>2014-10-08T09:59:16.000Z</time>
      </trkpt>
      <trkpt lat="47.69405" lon="6.03804">
        <ele>222</ele>
        <time>2014-10-08T09:59:22.000Z</time>
      </trkpt>
      <trkpt lat="47.69366" lon="6.03801">
        <ele>222</ele>
        <time>2014-10-08T09:59:29.000Z</time>
      </trkpt>
      <trkpt lat="47.69329" lon="6.03797">
        <ele>222</ele>
        <time>2014-10-08T09:59:36.000Z</time>
      </trkpt>
      <trkpt lat="47.69283" lon="6.03788">
        <ele>222</ele>
        <time>2014-10-08T09:59:44.000Z</time>
      </trkpt>
      <trkpt lat="47.69237" lon="6.0378">
        <ele>222</ele>
        <time>2014-10-08T09:59:52.000Z</time>
      </trkpt>
      <trkpt lat="47.69207" lon="6.0378">
        <ele>222</ele>
        <time>2014-10-08T09:59:57.000Z</time>
      </trkpt>
      <trkpt lat="47.69196" lon="6.03782">
        <ele>222</ele>
        <time>2014-10-08T09:59:59.000Z</time>
      </trkpt>
      <trkpt lat="47.6919" lon="6.03783">
        <ele>222</ele>
        <time>2014-10-08T10:00:00.000Z</time>
      </trkpt>
      <trkpt lat="47.69179" lon="6.03784">
        <ele>222</ele>
        <time>2014-10-08T10:00:02.000Z</time>
      </trkpt>
      <trkpt lat="47.69169" lon="6.03787">
        <ele>222</ele>
        <time>2014-10-08T10:00:04.000Z</time>
      </trkpt>
      <trkpt lat="47.69149" lon="6.03792">
        <ele>222</ele>
        <time>2014-10-08T10:00:08.000Z</time>
      </trkpt>
      <trkpt lat="47.69145" lon="6.03793">
        <ele>222</ele>
        <time>2014-10-08T10:00:09.000Z</time>
      </trkpt>
      <trkpt lat="47.69136" lon="6.03795">
        <ele>222</ele>
        <time>2014-10-08T10:00:11.000Z</time>
      </trkpt>
      <trkpt lat="47.69127" lon="6.03794">
        <ele>222</ele>
        <time>2014-10-08T10:00:14.000Z</time>
      </trkpt>
      <trkpt lat="47.69124" lon="6.03794">
        <ele>222</ele>
        <time>2014-10-08T10:00:15.000Z</time>
      </trkpt>
      <trkpt lat="47.69118" lon="6.03791">
        <ele>222</ele>
        <time>2014-10-08T10:00:19.000Z</time>
      </trkpt>
      <trkpt lat="47.69118" lon="6.03791">
        <ele>222</ele>
        <time>2014-10-08T10:00:20.000Z</time>
      </trkpt>
      <trkpt lat="47.69114" lon="6.03788">
        <ele>222</ele>
        <time>2014-10-08T10:00:26.000Z</time>
      </trkpt>
      <trkpt lat="47.6911" lon="6.03786">
        <ele>222</ele>
        <time>2014-10-08T10:00:28.000Z</time>
      </trkpt>
      <trkpt lat="47.69102" lon="6.03786">
        <ele>222.39999389648</ele>
        <time>2014-10-08T10:00:31.000Z</time>
      </trkpt>
      <trkpt lat="47.691" lon="6.03789">
        <ele>222.80000305176</ele>
        <time>2014-10-08T10:00:32.000Z</time>
      </trkpt>
      <trkpt lat="47.69098" lon="6.03793">
        <ele>223.19999694824</ele>
        <time>2014-10-08T10:00:33.000Z</time>
      </trkpt>
      <trkpt lat="47.69096" lon="6.03797">
        <ele>223.60000610352</ele>
        <time>2014-10-08T10:00:34.000Z</time>
      </trkpt>
      <trkpt lat="47.69095" lon="6.03802">
        <ele>224</ele>
        <time>2014-10-08T10:00:35.000Z</time>
      </trkpt>
      <trkpt lat="47.69094" lon="6.03808">
        <ele>224</ele>
        <time>2014-10-08T10:00:36.000Z</time>
      </trkpt>
      <trkpt lat="47.69083" lon="6.03838">
        <ele>224</ele>
        <time>2014-10-08T10:00:42.000Z</time>
      </trkpt>
      <trkpt lat="47.69074" lon="6.0386">
        <ele>224.39999389648</ele>
        <time>2014-10-08T10:00:47.000Z</time>
      </trkpt>
      <trkpt lat="47.69072" lon="6.03865">
        <ele>224.80000305176</ele>
        <time>2014-10-08T10:00:48.000Z</time>
      </trkpt>
      <trkpt lat="47.6907" lon="6.03868">
        <ele>225.19999694824</ele>
        <time>2014-10-08T10:00:49.000Z</time>
      </trkpt>
      <trkpt lat="47.69068" lon="6.03872">
        <ele>225.60000610352</ele>
        <time>2014-10-08T10:00:50.000Z</time>
      </trkpt>
      <trkpt lat="47.69067" lon="6.03876">
        <ele>226.19999694824</ele>
        <time>2014-10-08T10:00:51.000Z</time>
      </trkpt>
      <trkpt lat="47.6906" lon="6.03892">
        <ele>226.19999694824</ele>
        <time>2014-10-08T10:00:55.000Z</time>
      </trkpt>
      <trkpt lat="47.69047" lon="6.03925">
        <ele>226.19999694824</ele>
        <time>2014-10-08T10:01:03.000Z</time>
      </trkpt>
      <trkpt lat="47.69032" lon="6.03962">
        <ele>226.19999694824</ele>
        <time>2014-10-08T10:01:10.000Z</time>
      </trkpt>
      <trkpt lat="47.69015" lon="6.04003">
        <ele>226.19999694824</ele>
        <time>2014-10-08T10:01:17.000Z</time>
      </trkpt>
      <trkpt lat="47.6901" lon="6.04015">
        <ele>226.19999694824</ele>
        <time>2014-10-08T10:01:19.000Z</time>
      </trkpt>
      <trkpt lat="47.68991" lon="6.04064">
        <ele>225.60000610352</ele>
        <time>2014-10-08T10:01:27.000Z</time>
      </trkpt>
      <trkpt lat="47.68989" lon="6.0407">
        <ele>225.19999694824</ele>
        <time>2014-10-08T10:01:28.000Z</time>
      </trkpt>
      <trkpt lat="47.68986" lon="6.04077">
        <ele>224.80000305176</ele>
        <time>2014-10-08T10:01:29.000Z</time>
      </trkpt>
      <trkpt lat="47.68984" lon="6.04084">
        <ele>224.39999389648</ele>
        <time>2014-10-08T10:01:30.000Z</time>
      </trkpt>
      <trkpt lat="47.68981" lon="6.04091">
        <ele>224</ele>
        <time>2014-10-08T10:01:31.000Z</time>
      </trkpt>
      <trkpt lat="47.68972" lon="6.04115">
        <ele>224</ele>
        <time>2014-10-08T10:01:35.000Z</time>
      </trkpt>
      <trkpt lat="47.68954" lon="6.04157">
        <ele>224</ele>
        <time>2014-10-08T10:01:43.000Z</time>
      </trkpt>
      <trkpt lat="47.68939" lon="6.04196">
        <ele>224</ele>
        <time>2014-10-08T10:01:50.000Z</time>
      </trkpt>
      <trkpt lat="47.68928" lon="6.04227">
        <ele>224</ele>
        <time>2014-10-08T10:01:56.000Z</time>
      </trkpt>
      <trkpt lat="47.68919" lon="6.04248">
        <ele>224</ele>
        <time>2014-10-08T10:02:01.000Z</time>
      </trkpt>
      <trkpt lat="47.68915" lon="6.04252">
        <ele>224</ele>
        <time>2014-10-08T10:02:03.000Z</time>
      </trkpt>
      <trkpt lat="47.68912" lon="6.0425">
        <ele>224</ele>
        <time>2014-10-08T10:02:04.000Z</time>
      </trkpt>
      <trkpt lat="47.68892" lon="6.04241">
        <ele>223.39999389648</ele>
        <time>2014-10-08T10:02:09.000Z</time>
      </trkpt>
      <trkpt lat="47.68887" lon="6.04239">
        <ele>223</ele>
        <time>2014-10-08T10:02:10.000Z</time>
      </trkpt>
      <trkpt lat="47.6888" lon="6.04238">
        <ele>222.39999389648</ele>
        <time>2014-10-08T10:02:11.000Z</time>
      </trkpt>
      <trkpt lat="47.68873" lon="6.04236">
        <ele>222</ele>
        <time>2014-10-08T10:02:12.000Z</time>
      </trkpt>
      <trkpt lat="47.68867" lon="6.04235">
        <ele>221.39999389648</ele>
        <time>2014-10-08T10:02:13.000Z</time>
      </trkpt>
      <trkpt lat="47.68839" lon="6.04232">
        <ele>221.39999389648</ele>
        <time>2014-10-08T10:02:18.000Z</time>
      </trkpt>
      <trkpt lat="47.68833" lon="6.04234">
        <ele>221.39999389648</ele>
        <time>2014-10-08T10:02:20.000Z</time>
      </trkpt>
      <trkpt lat="47.68831" lon="6.04236">
        <ele>221.39999389648</ele>
        <time>2014-10-08T10:02:21.000Z</time>
      </trkpt>
      <trkpt lat="47.68827" lon="6.04248">
        <ele>221.39999389648</ele>
        <time>2014-10-08T10:02:24.000Z</time>
      </trkpt>
      <trkpt lat="47.68826" lon="6.04252">
        <ele>221.39999389648</ele>
        <time>2014-10-08T10:02:25.000Z</time>
      </trkpt>
      <trkpt lat="47.68823" lon="6.04271">
        <ele>221.39999389648</ele>
        <time>2014-10-08T10:02:31.000Z</time>
      </trkpt>
      <trkpt lat="47.68821" lon="6.04284">
        <ele>221.80000305176</ele>
        <time>2014-10-08T10:02:36.000Z</time>
      </trkpt>
      <trkpt lat="47.68821" lon="6.04286">
        <ele>222.19999694824</ele>
        <time>2014-10-08T10:02:37.000Z</time>
      </trkpt>
      <trkpt lat="47.6882" lon="6.04288">
        <ele>222.60000610352</ele>
        <time>2014-10-08T10:02:38.000Z</time>
      </trkpt>
      <trkpt lat="47.6882" lon="6.04291">
        <ele>223.19999694824</ele>
        <time>2014-10-08T10:02:39.000Z</time>
      </trkpt>
      <trkpt lat="47.6882" lon="6.04293">
        <ele>223.60000610352</ele>
        <time>2014-10-08T10:02:40.000Z</time>
      </trkpt>
      <trkpt lat="47.68818" lon="6.04294">
        <ele>223.60000610352</ele>
        <time>2014-10-08T10:02:42.000Z</time>
      </trkpt>
      <trkpt lat="47.68805" lon="6.04291">
        <ele>223.60000610352</ele>
        <time>2014-10-08T10:02:47.000Z</time>
      </trkpt>
      <trkpt lat="47.68782" lon="6.04284">
        <ele>223.60000610352</ele>
        <time>2014-10-08T10:02:54.000Z</time>
      </trkpt>
      <trkpt lat="47.68762" lon="6.04278">
        <ele>223.60000610352</ele>
        <time>2014-10-08T10:03:00.000Z</time>
      </trkpt>
      <trkpt lat="47.68738" lon="6.04266">
        <ele>223.60000610352</ele>
        <time>2014-10-08T10:03:07.000Z</time>
      </trkpt>
      <trkpt lat="47.68706" lon="6.04254">
        <ele>223.60000610352</ele>
        <time>2014-10-08T10:03:15.000Z</time>
      </trkpt>
      <trkpt lat="47.68689" lon="6.04247">
        <ele>223.19999694824</ele>
        <time>2014-10-08T10:03:19.000Z</time>
      </trkpt>
      <trkpt lat="47.68685" lon="6.04246">
        <ele>222.80000305176</ele>
        <time>2014-10-08T10:03:20.000Z</time>
      </trkpt>
      <trkpt lat="47.68681" lon="6.04244">
        <ele>222.19999694824</ele>
        <time>2014-10-08T10:03:21.000Z</time>
      </trkpt>
      <trkpt lat="47.68677" lon="6.04242">
        <ele>221.80000305176</ele>
        <time>2014-10-08T10:03:22.000Z</time>
      </trkpt>
      <trkpt lat="47.68673" lon="6.0424">
        <ele>221.39999389648</ele>
        <time>2014-10-08T10:03:23.000Z</time>
      </trkpt>
      <trkpt lat="47.68653" lon="6.04232">
        <ele>221.39999389648</ele>
        <time>2014-10-08T10:03:28.000Z</time>
      </trkpt>
      <trkpt lat="47.68649" lon="6.04231">
        <ele>221.39999389648</ele>
        <time>2014-10-08T10:03:29.000Z</time>
      </trkpt>
      <trkpt lat="47.68645" lon="6.0423">
        <ele>221.39999389648</ele>
        <time>2014-10-08T10:03:30.000Z</time>
      </trkpt>
      <trkpt lat="47.68625" lon="6.04226">
        <ele>221.39999389648</ele>
        <time>2014-10-08T10:03:35.000Z</time>
      </trkpt>
      <trkpt lat="47.68604" lon="6.04228">
        <ele>221.39999389648</ele>
        <time>2014-10-08T10:03:41.000Z</time>
      </trkpt>
      <trkpt lat="47.68577" lon="6.04231">
        <ele>221.39999389648</ele>
        <time>2014-10-08T10:03:50.000Z</time>
      </trkpt>
      <trkpt lat="47.68559" lon="6.04238">
        <ele>221.39999389648</ele>
        <time>2014-10-08T10:03:56.000Z</time>
      </trkpt>
      <trkpt lat="47.68543" lon="6.04238">
        <ele>221.39999389648</ele>
        <time>2014-10-08T10:04:01.000Z</time>
      </trkpt>
      <trkpt lat="47.68521" lon="6.04239">
        <ele>221.39999389648</ele>
        <time>2014-10-08T10:04:08.000Z</time>
      </trkpt>
      <trkpt lat="47.685" lon="6.0424">
        <ele>221.39999389648</ele>
        <time>2014-10-08T10:04:15.000Z</time>
      </trkpt>
      <trkpt lat="47.68481" lon="6.04244">
        <ele>221.39999389648</ele>
        <time>2014-10-08T10:04:22.000Z</time>
      </trkpt>
      <trkpt lat="47.6848" lon="6.04255">
        <ele>221.39999389648</ele>
        <time>2014-10-08T10:04:26.000Z</time>
      </trkpt>
      <trkpt lat="47.68481" lon="6.04263">
        <ele>221.39999389648</ele>
        <time>2014-10-08T10:04:29.000Z</time>
      </trkpt>
      <trkpt lat="47.68481" lon="6.04265">
        <ele>221.39999389648</ele>
        <time>2014-10-08T10:04:30.000Z</time>
      </trkpt>
      <trkpt lat="47.68482" lon="6.04269">
        <ele>221.80000305176</ele>
        <time>2014-10-08T10:04:32.000Z</time>
      </trkpt>
      <trkpt lat="47.68482" lon="6.0427">
        <ele>222.19999694824</ele>
        <time>2014-10-08T10:04:33.000Z</time>
      </trkpt>
      <trkpt lat="47.68482" lon="6.0427">
        <ele>223.19999694824</ele>
        <time>2014-10-08T10:04:34.000Z</time>
      </trkpt>
      <trkpt lat="47.68483" lon="6.04268">
        <ele>223.60000610352</ele>
        <time>2014-10-08T10:04:35.000Z</time>
      </trkpt>
      <trkpt lat="47.68483" lon="6.04266">
        <ele>223.60000610352</ele>
        <time>2014-10-08T10:04:36.000Z</time>
      </trkpt>
      <trkpt lat="47.68482" lon="6.04255">
        <ele>223.60000610352</ele>
        <time>2014-10-08T10:04:40.000Z</time>
      </trkpt>
      <trkpt lat="47.68478" lon="6.04243">
        <ele>223.19999694824</ele>
        <time>2014-10-08T10:04:44.000Z</time>
      </trkpt>
      <trkpt lat="47.68475" lon="6.04243">
        <ele>222.80000305176</ele>
        <time>2014-10-08T10:04:45.000Z</time>
      </trkpt>
      <trkpt lat="47.68471" lon="6.04244">
        <ele>222.19999694824</ele>
        <time>2014-10-08T10:04:46.000Z</time>
      </trkpt>
      <trkpt lat="47.68468" lon="6.04244">
        <ele>221.80000305176</ele>
        <time>2014-10-08T10:04:47.000Z</time>
      </trkpt>
      <trkpt lat="47.68465" lon="6.04245">
        <ele>221.39999389648</ele>
        <time>2014-10-08T10:04:48.000Z</time>
      </trkpt>
      <trkpt lat="47.68444" lon="6.04246">
        <ele>221.39999389648</ele>
        <time>2014-10-08T10:04:55.000Z</time>
      </trkpt>
      <trkpt lat="47.68442" lon="6.04246">
        <ele>221.39999389648</ele>
        <time>2014-10-08T10:04:56.000Z</time>
      </trkpt>
      <trkpt lat="47.68421" lon="6.04247">
        <ele>221.39999389648</ele>
        <time>2014-10-08T10:05:03.000Z</time>
      </trkpt>
      <trkpt lat="47.68402" lon="6.04251">
        <ele>221.39999389648</ele>
        <time>2014-10-08T10:05:09.000Z</time>
      </trkpt>
      <trkpt lat="47.684" lon="6.04252">
        <ele>221.39999389648</ele>
        <time>2014-10-08T10:05:10.000Z</time>
      </trkpt>
      <trkpt lat="47.68397" lon="6.04267">
        <ele>221.39999389648</ele>
        <time>2014-10-08T10:05:15.000Z</time>
      </trkpt>
      <trkpt lat="47.68396" lon="6.04292">
        <ele>221.39999389648</ele>
        <time>2014-10-08T10:05:22.000Z</time>
      </trkpt>
      <trkpt lat="47.68397" lon="6.0432">
        <ele>221.39999389648</ele>
        <time>2014-10-08T10:05:31.000Z</time>
      </trkpt>
      <trkpt lat="47.68398" lon="6.04345">
        <ele>221.39999389648</ele>
        <time>2014-10-08T10:05:40.000Z</time>
      </trkpt>
      <trkpt lat="47.68399" lon="6.04364">
        <ele>222.19999694824</ele>
        <time>2014-10-08T10:05:47.000Z</time>
      </trkpt>
      <trkpt lat="47.68399" lon="6.04366">
        <ele>222.80000305176</ele>
        <time>2014-10-08T10:05:48.000Z</time>
      </trkpt>
      <trkpt lat="47.68399" lon="6.04369">
        <ele>223.19999694824</ele>
        <time>2014-10-08T10:05:49.000Z</time>
      </trkpt>
      <trkpt lat="47.68398" lon="6.04372">
        <ele>223.60000610352</ele>
        <time>2014-10-08T10:05:50.000Z</time>
      </trkpt>
      <trkpt lat="47.68398" lon="6.04393">
        <ele>223.60000610352</ele>
        <time>2014-10-08T10:05:57.000Z</time>
      </trkpt>
      <trkpt lat="47.68399" lon="6.04412">
        <ele>223.60000610352</ele>
        <time>2014-10-08T10:06:03.000Z</time>
      </trkpt>
      <trkpt lat="47.68399" lon="6.04422">
        <ele>223.60000610352</ele>
        <time>2014-10-08T10:06:06.000Z</time>
      </trkpt>
      <trkpt lat="47.68401" lon="6.04427">
        <ele>223.60000610352</ele>
        <time>2014-10-08T10:06:08.000Z</time>
      </trkpt>
      <trkpt lat="47.68411" lon="6.04436">
        <ele>223.60000610352</ele>
        <time>2014-10-08T10:06:13.000Z</time>
      </trkpt>
      <trkpt lat="47.68426" lon="6.04437">
        <ele>223.60000610352</ele>
        <time>2014-10-08T10:06:20.000Z</time>
      </trkpt>
      <trkpt lat="47.68436" lon="6.04436">
        <ele>223.60000610352</ele>
        <time>2014-10-08T10:06:25.000Z</time>
      </trkpt>
      <trkpt lat="47.68442" lon="6.04436">
        <ele>224</ele>
        <time>2014-10-08T10:06:28.000Z</time>
      </trkpt>
      <trkpt lat="47.68444" lon="6.04436">
        <ele>224.39999389648</ele>
        <time>2014-10-08T10:06:29.000Z</time>
      </trkpt>
      <trkpt lat="47.68445" lon="6.04435">
        <ele>224.80000305176</ele>
        <time>2014-10-08T10:06:30.000Z</time>
      </trkpt>
      <trkpt lat="47.68447" lon="6.04435">
        <ele>225.19999694824</ele>
        <time>2014-10-08T10:06:31.000Z</time>
      </trkpt>
      <trkpt lat="47.68449" lon="6.04435">
        <ele>225.60000610352</ele>
        <time>2014-10-08T10:06:32.000Z</time>
      </trkpt>
      <trkpt lat="47.68465" lon="6.04435">
        <ele>225.60000610352</ele>
        <time>2014-10-08T10:06:41.000Z</time>
      </trkpt>
      <trkpt lat="47.68477" lon="6.04435">
        <ele>225.60000610352</ele>
        <time>2014-10-08T10:06:48.000Z</time>
      </trkpt>
      <trkpt lat="47.68489" lon="6.04438">
        <ele>226</ele>
        <time>2014-10-08T10:06:55.000Z</time>
      </trkpt>
      <trkpt lat="47.68491" lon="6.04439">
        <ele>226.39999389648</ele>
        <time>2014-10-08T10:06:56.000Z</time>
      </trkpt>
      <trkpt lat="47.68493" lon="6.04439">
        <ele>226.80000305176</ele>
        <time>2014-10-08T10:06:57.000Z</time>
      </trkpt>
      <trkpt lat="47.68494" lon="6.04439">
        <ele>227.19999694824</ele>
        <time>2014-10-08T10:06:58.000Z</time>
      </trkpt>
      <trkpt lat="47.68496" lon="6.0444">
        <ele>227.60000610352</ele>
        <time>2014-10-08T10:06:59.000Z</time>
      </trkpt>
      <trkpt lat="47.68504" lon="6.04443">
        <ele>227.60000610352</ele>
        <time>2014-10-08T10:07:04.000Z</time>
      </trkpt>
      <trkpt lat="47.68517" lon="6.0445">
        <ele>227.60000610352</ele>
        <time>2014-10-08T10:07:12.000Z</time>
      </trkpt>
      <trkpt lat="47.6852" lon="6.04453">
        <ele>228.19999694824</ele>
        <time>2014-10-08T10:07:14.000Z</time>
      </trkpt>
      <trkpt lat="47.68522" lon="6.04454">
        <ele>228.60000610352</ele>
        <time>2014-10-08T10:07:15.000Z</time>
      </trkpt>
      <trkpt lat="47.68523" lon="6.04454">
        <ele>229</ele>
        <time>2014-10-08T10:07:16.000Z</time>
      </trkpt>
      <trkpt lat="47.68524" lon="6.04455">
        <ele>229.39999389648</ele>
        <time>2014-10-08T10:07:17.000Z</time>
      </trkpt>
      <trkpt lat="47.68526" lon="6.04456">
        <ele>230</ele>
        <time>2014-10-08T10:07:18.000Z</time>
      </trkpt>
      <trkpt lat="47.68527" lon="6.04457">
        <ele>230</ele>
        <time>2014-10-08T10:07:19.000Z</time>
      </trkpt>
      <trkpt lat="47.68539" lon="6.04466">
        <ele>230</ele>
        <time>2014-10-08T10:07:26.000Z</time>
      </trkpt>
      <trkpt lat="47.68541" lon="6.04467">
        <ele>230.39999389648</ele>
        <time>2014-10-08T10:07:27.000Z</time>
      </trkpt>
      <trkpt lat="47.68543" lon="6.04468">
        <ele>230.80000305176</ele>
        <time>2014-10-08T10:07:28.000Z</time>
      </trkpt>
      <trkpt lat="47.68544" lon="6.04469">
        <ele>231.19999694824</ele>
        <time>2014-10-08T10:07:29.000Z</time>
      </trkpt>
      <trkpt lat="47.68546" lon="6.0447">
        <ele>231.60000610352</ele>
        <time>2014-10-08T10:07:30.000Z</time>
      </trkpt>
      <trkpt lat="47.68547" lon="6.04471">
        <ele>232</ele>
        <time>2014-10-08T10:07:31.000Z</time>
      </trkpt>
      <trkpt lat="47.68552" lon="6.04474">
        <ele>232</ele>
        <time>2014-10-08T10:07:34.000Z</time>
      </trkpt>
      <trkpt lat="47.68564" lon="6.04484">
        <ele>232</ele>
        <time>2014-10-08T10:07:41.000Z</time>
      </trkpt>
      <trkpt lat="47.68577" lon="6.04494">
        <ele>232</ele>
        <time>2014-10-08T10:07:49.000Z</time>
      </trkpt>
      <trkpt lat="47.68578" lon="6.04494">
        <ele>232.39999389648</ele>
        <time>2014-10-08T10:07:50.000Z</time>
      </trkpt>
      <trkpt lat="47.6858" lon="6.04495">
        <ele>233.19999694824</ele>
        <time>2014-10-08T10:07:51.000Z</time>
      </trkpt>
      <trkpt lat="47.68581" lon="6.04496">
        <ele>233.60000610352</ele>
        <time>2014-10-08T10:07:52.000Z</time>
      </trkpt>
      <trkpt lat="47.68583" lon="6.04497">
        <ele>234</ele>
        <time>2014-10-08T10:07:53.000Z</time>
      </trkpt>
      <trkpt lat="47.68589" lon="6.04502">
        <ele>234</ele>
        <time>2014-10-08T10:07:57.000Z</time>
      </trkpt>
      <trkpt lat="47.68596" lon="6.04508">
        <ele>234</ele>
        <time>2014-10-08T10:08:02.000Z</time>
      </trkpt>
      <trkpt lat="47.686" lon="6.04512">
        <ele>234.39999389648</ele>
        <time>2014-10-08T10:08:05.000Z</time>
      </trkpt>
      <trkpt lat="47.68602" lon="6.04513">
        <ele>235</ele>
        <time>2014-10-08T10:08:06.000Z</time>
      </trkpt>
      <trkpt lat="47.68603" lon="6.04514">
        <ele>235.39999389648</ele>
        <time>2014-10-08T10:08:07.000Z</time>
      </trkpt>
      <trkpt lat="47.68605" lon="6.04515">
        <ele>235.80000305176</ele>
        <time>2014-10-08T10:08:08.000Z</time>
      </trkpt>
      <trkpt lat="47.68607" lon="6.04517">
        <ele>236.19999694824</ele>
        <time>2014-10-08T10:08:09.000Z</time>
      </trkpt>
      <trkpt lat="47.68611" lon="6.04519">
        <ele>236.19999694824</ele>
        <time>2014-10-08T10:08:12.000Z</time>
      </trkpt>
      <trkpt lat="47.68623" lon="6.04529">
        <ele>236.19999694824</ele>
        <time>2014-10-08T10:08:20.000Z</time>
      </trkpt>
      <trkpt lat="47.68624" lon="6.0453">
        <ele>236.60000610352</ele>
        <time>2014-10-08T10:08:21.000Z</time>
      </trkpt>
      <trkpt lat="47.68626" lon="6.04531">
        <ele>237</ele>
        <time>2014-10-08T10:08:22.000Z</time>
      </trkpt>
      <trkpt lat="47.68627" lon="6.04533">
        <ele>237.60000610352</ele>
        <time>2014-10-08T10:08:23.000Z</time>
      </trkpt>
      <trkpt lat="47.68628" lon="6.04534">
        <ele>238</ele>
        <time>2014-10-08T10:08:24.000Z</time>
      </trkpt>
      <trkpt lat="47.68629" lon="6.04535">
        <ele>238.39999389648</ele>
        <time>2014-10-08T10:08:25.000Z</time>
      </trkpt>
      <trkpt lat="47.68631" lon="6.04538">
        <ele>238.39999389648</ele>
        <time>2014-10-08T10:08:27.000Z</time>
      </trkpt>
      <trkpt lat="47.68631" lon="6.04538">
        <ele>238.39999389648</ele>
        <time>2014-10-08T10:08:28.000Z</time>
      </trkpt>
    </trkseg>
  </trk>
</gpx>